<?xml version="1.0" encoding="utf-8"?>
<gpx xmlns:xsi="http://www.w3.org/2001/XMLSchema-instance" xmlns:xsd="http://www.w3.org/2001/XMLSchema" version="1.1" creator="Shapelink.com" xmlns="http://www.topografix.com/GPX/1/1" xmlns:gpxtpx="http://www.garmin.com/xmlschemas/TrackPointExtension/v1">
  <metadata>
    <name>Cykling - Mtb 24.85 km, 2012-09-11</name>
    <desc></desc>
    <author><name>Alexander Engvall</name></author> 
    <time>2012-09-11T17:39:17Z</time>
  </metadata>
  <trk>
    <name>Cykling - Mtb 24.85 km, 2012-09-11</name>
    <trkseg>
      <trkpt lat="59.4584707945" lon="17.8045074328">
        <ele>107.8</ele>
        <time>2012-09-11T17:39:17Z</time>
      </trkpt>
      <trkpt lat="59.4584366801" lon="17.804507349">
        <ele>107.8</ele>
        <time>2012-09-11T17:39:18Z</time>
      </trkpt>
      <trkpt lat="59.4583859696" lon="17.8045019008">
        <ele>108.4</ele>
        <time>2012-09-11T17:39:19Z</time>
      </trkpt>
      <trkpt lat="59.4582267974" lon="17.8044853884">
        <ele>108.4</ele>
        <time>2012-09-11T17:39:23Z</time>
      </trkpt>
      <trkpt lat="59.4579981391" lon="17.8044846341">
        <ele>108.4</ele>
        <time>2012-09-11T17:39:29Z</time>
      </trkpt>
      <trkpt lat="59.457950027" lon="17.8045283876">
        <ele>108.4</ele>
        <time>2012-09-11T17:39:30Z</time>
      </trkpt>
      <trkpt lat="59.4578042658" lon="17.8046603187">
        <ele>108.4</ele>
        <time>2012-09-11T17:39:33Z</time>
      </trkpt>
      <trkpt lat="59.4577372106" lon="17.8047039046">
        <ele>108.4</ele>
        <time>2012-09-11T17:39:34Z</time>
      </trkpt>
      <trkpt lat="59.4576534754" lon="17.8047832812">
        <ele>108.4</ele>
        <time>2012-09-11T17:39:36Z</time>
      </trkpt>
      <trkpt lat="59.4575803014" lon="17.8048582153">
        <ele>108.4</ele>
        <time>2012-09-11T17:39:38Z</time>
      </trkpt>
      <trkpt lat="59.4575379728" lon="17.8049080038">
        <ele>108.8</ele>
        <time>2012-09-11T17:39:39Z</time>
      </trkpt>
      <trkpt lat="59.4574960633" lon="17.8049668448">
        <ele>109.2</ele>
        <time>2012-09-11T17:39:40Z</time>
      </trkpt>
      <trkpt lat="59.4574567522" lon="17.8050362469">
        <ele>109.6</ele>
        <time>2012-09-11T17:39:41Z</time>
      </trkpt>
      <trkpt lat="59.4574158485" lon="17.8051146177">
        <ele>110.2</ele>
        <time>2012-09-11T17:39:42Z</time>
      </trkpt>
      <trkpt lat="59.4573728494" lon="17.8051890489">
        <ele>110.6</ele>
        <time>2012-09-11T17:39:43Z</time>
      </trkpt>
      <trkpt lat="59.4572888627" lon="17.8053545076">
        <ele>110.6</ele>
        <time>2012-09-11T17:39:45Z</time>
      </trkpt>
      <trkpt lat="59.4572107434" lon="17.8055184576">
        <ele>110.6</ele>
        <time>2012-09-11T17:39:47Z</time>
      </trkpt>
      <trkpt lat="59.4571835861" lon="17.8056088145">
        <ele>110.6</ele>
        <time>2012-09-11T17:39:48Z</time>
      </trkpt>
      <trkpt lat="59.4570644793" lon="17.8056282605">
        <ele>110.6</ele>
        <time>2012-09-11T17:39:50Z</time>
      </trkpt>
      <trkpt lat="59.456847891" lon="17.8055009394">
        <ele>110.6</ele>
        <time>2012-09-11T17:39:54Z</time>
      </trkpt>
      <trkpt lat="59.4564910735" lon="17.8052366581">
        <ele>110.6</ele>
        <time>2012-09-11T17:40:00Z</time>
      </trkpt>
      <trkpt lat="59.4561286401" lon="17.8049744723">
        <ele>110.6</ele>
        <time>2012-09-11T17:40:06Z</time>
      </trkpt>
      <trkpt lat="59.4560043366" lon="17.8049003763">
        <ele>110.6</ele>
        <time>2012-09-11T17:40:08Z</time>
      </trkpt>
      <trkpt lat="59.4556154164" lon="17.8045549582">
        <ele>110.6</ele>
        <time>2012-09-11T17:40:14Z</time>
      </trkpt>
      <trkpt lat="59.4554286677" lon="17.8044281401">
        <ele>110.6</ele>
        <time>2012-09-11T17:40:17Z</time>
      </trkpt>
      <trkpt lat="59.4552213833" lon="17.8043812852">
        <ele>110.6</ele>
        <time>2012-09-11T17:40:20Z</time>
      </trkpt>
      <trkpt lat="59.4551420905" lon="17.8043937743">
        <ele>110.6</ele>
        <time>2012-09-11T17:40:21Z</time>
      </trkpt>
      <trkpt lat="59.4549224009" lon="17.8044623382">
        <ele>110</ele>
        <time>2012-09-11T17:40:24Z</time>
      </trkpt>
      <trkpt lat="59.4548463771" lon="17.8045043315">
        <ele>109.6</ele>
        <time>2012-09-11T17:40:25Z</time>
      </trkpt>
      <trkpt lat="59.454777394" lon="17.8045309022">
        <ele>109</ele>
        <time>2012-09-11T17:40:26Z</time>
      </trkpt>
      <trkpt lat="59.4547154518" lon="17.8045888211">
        <ele>108.6</ele>
        <time>2012-09-11T17:40:27Z</time>
      </trkpt>
      <trkpt lat="59.4546547669" lon="17.8046500928">
        <ele>108</ele>
        <time>2012-09-11T17:40:28Z</time>
      </trkpt>
      <trkpt lat="59.4544957622" lon="17.8048790863">
        <ele>107.6</ele>
        <time>2012-09-11T17:40:31Z</time>
      </trkpt>
      <trkpt lat="59.4544354125" lon="17.8049398551">
        <ele>107.2</ele>
        <time>2012-09-11T17:40:32Z</time>
      </trkpt>
      <trkpt lat="59.4543788347" lon="17.8050044795">
        <ele>106.8</ele>
        <time>2012-09-11T17:40:33Z</time>
      </trkpt>
      <trkpt lat="59.4543277889" lon="17.805085281">
        <ele>106</ele>
        <time>2012-09-11T17:40:34Z</time>
      </trkpt>
      <trkpt lat="59.4541520205" lon="17.8053329662">
        <ele>106</ele>
        <time>2012-09-11T17:40:38Z</time>
      </trkpt>
      <trkpt lat="59.4541157269" lon="17.8052050584">
        <ele>106</ele>
        <time>2012-09-11T17:40:40Z</time>
      </trkpt>
      <trkpt lat="59.4541940138" lon="17.8050578722">
        <ele>106</ele>
        <time>2012-09-11T17:40:42Z</time>
      </trkpt>
      <trkpt lat="59.4543294653" lon="17.8049132006">
        <ele>106</ele>
        <time>2012-09-11T17:40:44Z</time>
      </trkpt>
      <trkpt lat="59.4544014658" lon="17.8048412839">
        <ele>106</ele>
        <time>2012-09-11T17:40:45Z</time>
      </trkpt>
      <trkpt lat="59.4547095845" lon="17.8045621666">
        <ele>106</ele>
        <time>2012-09-11T17:40:49Z</time>
      </trkpt>
      <trkpt lat="59.4548908012" lon="17.8044782638">
        <ele>105</ele>
        <time>2012-09-11T17:40:50Z</time>
      </trkpt>
      <trkpt lat="59.4549717703" lon="17.8044433951">
        <ele>104.6</ele>
        <time>2012-09-11T17:40:52Z</time>
      </trkpt>
      <trkpt lat="59.4550540806" lon="17.8043687962">
        <ele>104</ele>
        <time>2012-09-11T17:40:53Z</time>
      </trkpt>
      <trkpt lat="59.4551211358" lon="17.804277685">
        <ele>103.4</ele>
        <time>2012-09-11T17:40:54Z</time>
      </trkpt>
      <trkpt lat="59.4551681582" lon="17.8041589134">
        <ele>102.8</ele>
        <time>2012-09-11T17:40:55Z</time>
      </trkpt>
      <trkpt lat="59.4551943936" lon="17.8040676345">
        <ele>102.2</ele>
        <time>2012-09-11T17:40:56Z</time>
      </trkpt>
      <trkpt lat="59.4551793062" lon="17.8039739249">
        <ele>101.6</ele>
        <time>2012-09-11T17:40:57Z</time>
      </trkpt>
      <trkpt lat="59.4551713433" lon="17.8038485317">
        <ele>100.6</ele>
        <time>2012-09-11T17:40:58Z</time>
      </trkpt>
      <trkpt lat="59.4551610336" lon="17.8037269103">
        <ele>100</ele>
        <time>2012-09-11T17:40:59Z</time>
      </trkpt>
      <trkpt lat="59.4551220578" lon="17.8036493777">
        <ele>99.6</ele>
        <time>2012-09-11T17:41:00Z</time>
      </trkpt>
      <trkpt lat="59.4550021128" lon="17.8033227351">
        <ele>99.6</ele>
        <time>2012-09-11T17:41:03Z</time>
      </trkpt>
      <trkpt lat="59.4549107501" lon="17.8028996168">
        <ele>99.6</ele>
        <time>2012-09-11T17:41:07Z</time>
      </trkpt>
      <trkpt lat="59.4547858598" lon="17.8027880537">
        <ele>99.6</ele>
        <time>2012-09-11T17:41:10Z</time>
      </trkpt>
      <trkpt lat="59.45471629" lon="17.8024277158">
        <ele>99.6</ele>
        <time>2012-09-11T17:41:13Z</time>
      </trkpt>
      <trkpt lat="59.4547350655" lon="17.8019692259">
        <ele>99.6</ele>
        <time>2012-09-11T17:41:16Z</time>
      </trkpt>
      <trkpt lat="59.4548716066" lon="17.8015156813">
        <ele>99.6</ele>
        <time>2012-09-11T17:41:19Z</time>
      </trkpt>
      <trkpt lat="59.4549224847" lon="17.8013543297">
        <ele>99.6</ele>
        <time>2012-09-11T17:41:20Z</time>
      </trkpt>
      <trkpt lat="59.4550122549" lon="17.8010208139">
        <ele>99</ele>
        <time>2012-09-11T17:41:22Z</time>
      </trkpt>
      <trkpt lat="59.4550502249" lon="17.8008566125">
        <ele>98.2</ele>
        <time>2012-09-11T17:41:23Z</time>
      </trkpt>
      <trkpt lat="59.4550866862" lon="17.8006921596">
        <ele>97.8</ele>
        <time>2012-09-11T17:41:24Z</time>
      </trkpt>
      <trkpt lat="59.4551209681" lon="17.8005267009">
        <ele>97.2</ele>
        <time>2012-09-11T17:41:25Z</time>
      </trkpt>
      <trkpt lat="59.4552206289" lon="17.7998401395">
        <ele>97.2</ele>
        <time>2012-09-11T17:41:29Z</time>
      </trkpt>
      <trkpt lat="59.4552156836" lon="17.7996539775">
        <ele>97.2</ele>
        <time>2012-09-11T17:41:30Z</time>
      </trkpt>
      <trkpt lat="59.4551185374" lon="17.7991446932">
        <ele>97.2</ele>
        <time>2012-09-11T17:41:33Z</time>
      </trkpt>
      <trkpt lat="59.4549057209" lon="17.7987479779">
        <ele>97.2</ele>
        <time>2012-09-11T17:41:36Z</time>
      </trkpt>
      <trkpt lat="59.4547465487" lon="17.7985326469">
        <ele>97.2</ele>
        <time>2012-09-11T17:41:38Z</time>
      </trkpt>
      <trkpt lat="59.4545205726" lon="17.7982327425">
        <ele>97.2</ele>
        <time>2012-09-11T17:41:41Z</time>
      </trkpt>
      <trkpt lat="59.45410592" lon="17.7977113883">
        <ele>97.2</ele>
        <time>2012-09-11T17:41:47Z</time>
      </trkpt>
      <trkpt lat="59.4538309099" lon="17.7974759407">
        <ele>97.6</ele>
        <time>2012-09-11T17:41:51Z</time>
      </trkpt>
      <trkpt lat="59.4537646929" lon="17.7974344503">
        <ele>98</ele>
        <time>2012-09-11T17:41:52Z</time>
      </trkpt>
      <trkpt lat="59.453706271" lon="17.7974007551">
        <ele>98.4</ele>
        <time>2012-09-11T17:41:53Z</time>
      </trkpt>
      <trkpt lat="59.4536491065" lon="17.7973645453">
        <ele>99</ele>
        <time>2012-09-11T17:41:54Z</time>
      </trkpt>
      <trkpt lat="59.4535896788" lon="17.7973435067">
        <ele>99.4</ele>
        <time>2012-09-11T17:41:55Z</time>
      </trkpt>
      <trkpt lat="59.4534781995" lon="17.7972852525">
        <ele>99.4</ele>
        <time>2012-09-11T17:41:57Z</time>
      </trkpt>
      <trkpt lat="59.4530995891" lon="17.7970600309">
        <ele>99.4</ele>
        <time>2012-09-11T17:42:04Z</time>
      </trkpt>
      <trkpt lat="59.4530384013" lon="17.7970382379">
        <ele>99.4</ele>
        <time>2012-09-11T17:42:05Z</time>
      </trkpt>
      <trkpt lat="59.4529803147" lon="17.7970145171">
        <ele>99.8</ele>
        <time>2012-09-11T17:42:06Z</time>
      </trkpt>
      <trkpt lat="59.452928766" lon="17.7969917184">
        <ele>100.2</ele>
        <time>2012-09-11T17:42:07Z</time>
      </trkpt>
      <trkpt lat="59.4528761277" lon="17.7969552571">
        <ele>100.6</ele>
        <time>2012-09-11T17:42:08Z</time>
      </trkpt>
      <trkpt lat="59.4528255848" lon="17.7969234897">
        <ele>101</ele>
        <time>2012-09-11T17:42:09Z</time>
      </trkpt>
      <trkpt lat="59.4527752934" lon="17.7968844301">
        <ele>101.6</ele>
        <time>2012-09-11T17:42:10Z</time>
      </trkpt>
      <trkpt lat="59.4526319629" lon="17.7967628087">
        <ele>101.6</ele>
        <time>2012-09-11T17:42:13Z</time>
      </trkpt>
      <trkpt lat="59.4525859463" lon="17.796706147">
        <ele>102</ele>
        <time>2012-09-11T17:42:14Z</time>
      </trkpt>
      <trkpt lat="59.4525287817" lon="17.7966726194">
        <ele>102.4</ele>
        <time>2012-09-11T17:42:15Z</time>
      </trkpt>
      <trkpt lat="59.4524749699" lon="17.7966152872">
        <ele>102.8</ele>
        <time>2012-09-11T17:42:16Z</time>
      </trkpt>
      <trkpt lat="59.4524299591" lon="17.7965447117">
        <ele>103.2</ele>
        <time>2012-09-11T17:42:17Z</time>
      </trkpt>
      <trkpt lat="59.4523859542" lon="17.7964770697">
        <ele>103.6</ele>
        <time>2012-09-11T17:42:18Z</time>
      </trkpt>
      <trkpt lat="59.4523370039" lon="17.7964150437">
        <ele>103.6</ele>
        <time>2012-09-11T17:42:19Z</time>
      </trkpt>
      <trkpt lat="59.4521408674" lon="17.7961609883">
        <ele>103.6</ele>
        <time>2012-09-11T17:42:23Z</time>
      </trkpt>
      <trkpt lat="59.4520345849" lon="17.7960788456">
        <ele>103.6</ele>
        <time>2012-09-11T17:42:25Z</time>
      </trkpt>
      <trkpt lat="59.4518889913" lon="17.7959231099">
        <ele>103.6</ele>
        <time>2012-09-11T17:42:28Z</time>
      </trkpt>
      <trkpt lat="59.4518133866" lon="17.7958010695">
        <ele>103.6</ele>
        <time>2012-09-11T17:42:30Z</time>
      </trkpt>
      <trkpt lat="59.451741386" lon="17.7957546338">
        <ele>103.6</ele>
        <time>2012-09-11T17:42:33Z</time>
      </trkpt>
      <trkpt lat="59.4515719879" lon="17.7958029973">
        <ele>103.6</ele>
        <time>2012-09-11T17:42:38Z</time>
      </trkpt>
      <trkpt lat="59.4514858219" lon="17.7958532887">
        <ele>103.6</ele>
        <time>2012-09-11T17:42:40Z</time>
      </trkpt>
      <trkpt lat="59.4514040146" lon="17.7959367724">
        <ele>103.6</ele>
        <time>2012-09-11T17:42:42Z</time>
      </trkpt>
      <trkpt lat="59.4513642005" lon="17.7959829567">
        <ele>103.6</ele>
        <time>2012-09-11T17:42:43Z</time>
      </trkpt>
      <trkpt lat="59.451283399" lon="17.7960532809">
        <ele>103.6</ele>
        <time>2012-09-11T17:42:45Z</time>
      </trkpt>
      <trkpt lat="59.4512456805" lon="17.7960815279">
        <ele>104</ele>
        <time>2012-09-11T17:42:46Z</time>
      </trkpt>
      <trkpt lat="59.45121165" lon="17.7961298914">
        <ele>104.4</ele>
        <time>2012-09-11T17:42:47Z</time>
      </trkpt>
      <trkpt lat="59.4511771165" lon="17.79615554">
        <ele>104.8</ele>
        <time>2012-09-11T17:42:48Z</time>
      </trkpt>
      <trkpt lat="59.4511481152" lon="17.7961957732">
        <ele>105.2</ele>
        <time>2012-09-11T17:42:49Z</time>
      </trkpt>
      <trkpt lat="59.4511171021" lon="17.7962406163">
        <ele>105.6</ele>
        <time>2012-09-11T17:42:50Z</time>
      </trkpt>
      <trkpt lat="59.451029176" lon="17.7963215855">
        <ele>105.6</ele>
        <time>2012-09-11T17:42:53Z</time>
      </trkpt>
      <trkpt lat="59.4510151782" lon="17.7963585497">
        <ele>106</ele>
        <time>2012-09-11T17:42:54Z</time>
      </trkpt>
      <trkpt lat="59.4509839976" lon="17.7963592202">
        <ele>106.6</ele>
        <time>2012-09-11T17:42:55Z</time>
      </trkpt>
      <trkpt lat="59.4509523978" lon="17.796375062">
        <ele>107</ele>
        <time>2012-09-11T17:42:56Z</time>
      </trkpt>
      <trkpt lat="59.4509140087" lon="17.7963869643">
        <ele>107.4</ele>
        <time>2012-09-11T17:42:57Z</time>
      </trkpt>
      <trkpt lat="59.4508853426" lon="17.7963976093">
        <ele>108</ele>
        <time>2012-09-11T17:42:58Z</time>
      </trkpt>
      <trkpt lat="59.4507738633" lon="17.7964174744">
        <ele>108.4</ele>
        <time>2012-09-11T17:43:01Z</time>
      </trkpt>
      <trkpt lat="59.4507307804" lon="17.7964235094">
        <ele>109.2</ele>
        <time>2012-09-11T17:43:02Z</time>
      </trkpt>
      <trkpt lat="59.4506950735" lon="17.7964295443">
        <ele>109.6</ele>
        <time>2012-09-11T17:43:03Z</time>
      </trkpt>
      <trkpt lat="59.4506535831" lon="17.7964302149">
        <ele>110</ele>
        <time>2012-09-11T17:43:04Z</time>
      </trkpt>
      <trkpt lat="59.4503893018" lon="17.7964285385">
        <ele>110</ele>
        <time>2012-09-11T17:43:10Z</time>
      </trkpt>
      <trkpt lat="59.4502968494" lon="17.7964430392">
        <ele>110.4</ele>
        <time>2012-09-11T17:43:12Z</time>
      </trkpt>
      <trkpt lat="59.4502480667" lon="17.7964453861">
        <ele>110.8</ele>
        <time>2012-09-11T17:43:13Z</time>
      </trkpt>
      <trkpt lat="59.4502128628" lon="17.7964395188">
        <ele>111.4</ele>
        <time>2012-09-11T17:43:14Z</time>
      </trkpt>
      <trkpt lat="59.4501681034" lon="17.7964531813">
        <ele>111.8</ele>
        <time>2012-09-11T17:43:15Z</time>
      </trkpt>
      <trkpt lat="59.4501240146" lon="17.7964681011">
        <ele>112.2</ele>
        <time>2012-09-11T17:43:16Z</time>
      </trkpt>
      <trkpt lat="59.4500785009" lon="17.7964934144">
        <ele>112.2</ele>
        <time>2012-09-11T17:43:17Z</time>
      </trkpt>
      <trkpt lat="59.4499842045" lon="17.7965422809">
        <ele>112.2</ele>
        <time>2012-09-11T17:43:19Z</time>
      </trkpt>
      <trkpt lat="59.4498911654" lon="17.7966048099">
        <ele>112.2</ele>
        <time>2012-09-11T17:43:21Z</time>
      </trkpt>
      <trkpt lat="59.449642223" lon="17.796755265">
        <ele>112.8</ele>
        <time>2012-09-11T17:43:27Z</time>
      </trkpt>
      <trkpt lat="59.4495946138" lon="17.7967629763">
        <ele>113.4</ele>
        <time>2012-09-11T17:43:28Z</time>
      </trkpt>
      <trkpt lat="59.4495453282" lon="17.7967613838">
        <ele>114</ele>
        <time>2012-09-11T17:43:29Z</time>
      </trkpt>
      <trkpt lat="59.4494999822" lon="17.7967594559">
        <ele>114.6</ele>
        <time>2012-09-11T17:43:30Z</time>
      </trkpt>
      <trkpt lat="59.449460252" lon="17.7967550135">
        <ele>115.2</ele>
        <time>2012-09-11T17:43:31Z</time>
      </trkpt>
      <trkpt lat="59.4493812945" lon="17.7967410996">
        <ele>115.2</ele>
        <time>2012-09-11T17:43:33Z</time>
      </trkpt>
      <trkpt lat="59.4492484414" lon="17.7966651596">
        <ele>115.2</ele>
        <time>2012-09-11T17:43:36Z</time>
      </trkpt>
      <trkpt lat="59.4491543126" lon="17.7966380022">
        <ele>115.2</ele>
        <time>2012-09-11T17:43:38Z</time>
      </trkpt>
      <trkpt lat="59.4491023448" lon="17.7966302909">
        <ele>115.2</ele>
        <time>2012-09-11T17:43:39Z</time>
      </trkpt>
      <trkpt lat="59.4489345392" lon="17.7966610524">
        <ele>115.2</ele>
        <time>2012-09-11T17:43:42Z</time>
      </trkpt>
      <trkpt lat="59.448854995" lon="17.7966935742">
        <ele>115.2</ele>
        <time>2012-09-11T17:43:43Z</time>
      </trkpt>
      <trkpt lat="59.4487203817" lon="17.7967280238">
        <ele>115.2</ele>
        <time>2012-09-11T17:43:45Z</time>
      </trkpt>
      <trkpt lat="59.4485194675" lon="17.7967399261">
        <ele>115.2</ele>
        <time>2012-09-11T17:43:48Z</time>
      </trkpt>
      <trkpt lat="59.448382172" lon="17.796697346">
        <ele>115.2</ele>
        <time>2012-09-11T17:43:50Z</time>
      </trkpt>
      <trkpt lat="59.448161728" lon="17.796650156">
        <ele>115.2</ele>
        <time>2012-09-11T17:43:53Z</time>
      </trkpt>
      <trkpt lat="59.4480822676" lon="17.7966372478">
        <ele>115.2</ele>
        <time>2012-09-11T17:43:54Z</time>
      </trkpt>
      <trkpt lat="59.4479091814" lon="17.7966731224">
        <ele>114.8</ele>
        <time>2012-09-11T17:43:56Z</time>
      </trkpt>
      <trkpt lat="59.4478344986" lon="17.7967538401">
        <ele>114.4</ele>
        <time>2012-09-11T17:43:57Z</time>
      </trkpt>
      <trkpt lat="59.4477681978" lon="17.7968281037">
        <ele>114</ele>
        <time>2012-09-11T17:43:58Z</time>
      </trkpt>
      <trkpt lat="59.4476929283" lon="17.7969079832">
        <ele>113.6</ele>
        <time>2012-09-11T17:43:59Z</time>
      </trkpt>
      <trkpt lat="59.447631489" lon="17.7969773853">
        <ele>113</ele>
        <time>2012-09-11T17:44:00Z</time>
      </trkpt>
      <trkpt lat="59.4475710555" lon="17.7970369806">
        <ele>113</ele>
        <time>2012-09-11T17:44:01Z</time>
      </trkpt>
      <trkpt lat="59.4475152321" lon="17.7970773814">
        <ele>113</ele>
        <time>2012-09-11T17:44:02Z</time>
      </trkpt>
      <trkpt lat="59.4474011544" lon="17.7971123339">
        <ele>113</ele>
        <time>2012-09-11T17:44:04Z</time>
      </trkpt>
      <trkpt lat="59.4473409724" lon="17.7970934746">
        <ele>113</ele>
        <time>2012-09-11T17:44:05Z</time>
      </trkpt>
      <trkpt lat="59.4471472667" lon="17.7971296006">
        <ele>113</ele>
        <time>2012-09-11T17:44:09Z</time>
      </trkpt>
      <trkpt lat="59.4470667166" lon="17.7972949755">
        <ele>113.6</ele>
        <time>2012-09-11T17:44:12Z</time>
      </trkpt>
      <trkpt lat="59.4470290819" lon="17.7973672275">
        <ele>114</ele>
        <time>2012-09-11T17:44:13Z</time>
      </trkpt>
      <trkpt lat="59.4469804668" lon="17.7974476937">
        <ele>114.4</ele>
        <time>2012-09-11T17:44:14Z</time>
      </trkpt>
      <trkpt lat="59.4469409881" lon="17.7975273218">
        <ele>114.8</ele>
        <time>2012-09-11T17:44:15Z</time>
      </trkpt>
      <trkpt lat="59.4468968155" lon="17.7976025913">
        <ele>115.2</ele>
        <time>2012-09-11T17:44:16Z</time>
      </trkpt>
      <trkpt lat="59.4468478652" lon="17.797674508">
        <ele>115.2</ele>
        <time>2012-09-11T17:44:17Z</time>
      </trkpt>
      <trkpt lat="59.4466249067" lon="17.7978802836">
        <ele>115.6</ele>
        <time>2012-09-11T17:44:21Z</time>
      </trkpt>
      <trkpt lat="59.4465775489" lon="17.7979149847">
        <ele>116</ele>
        <time>2012-09-11T17:44:22Z</time>
      </trkpt>
      <trkpt lat="59.4465308617" lon="17.7979471712">
        <ele>116.6</ele>
        <time>2012-09-11T17:44:23Z</time>
      </trkpt>
      <trkpt lat="59.4464822467" lon="17.7979787709">
        <ele>117</ele>
        <time>2012-09-11T17:44:24Z</time>
      </trkpt>
      <trkpt lat="59.4464353919" lon="17.7980033299">
        <ele>117.4</ele>
        <time>2012-09-11T17:44:25Z</time>
      </trkpt>
      <trkpt lat="59.4462755491" lon="17.7980890767">
        <ele>117.4</ele>
        <time>2012-09-11T17:44:28Z</time>
      </trkpt>
      <trkpt lat="59.4461654109" lon="17.7981226881">
        <ele>117.4</ele>
        <time>2012-09-11T17:44:30Z</time>
      </trkpt>
      <trkpt lat="59.4459970185" lon="17.7981480015">
        <ele>117.4</ele>
        <time>2012-09-11T17:44:33Z</time>
      </trkpt>
      <trkpt lat="59.445785627" lon="17.798128304">
        <ele>117.8</ele>
        <time>2012-09-11T17:44:37Z</time>
      </trkpt>
      <trkpt lat="59.4457269537" lon="17.7981436429">
        <ele>118.2</ele>
        <time>2012-09-11T17:44:38Z</time>
      </trkpt>
      <trkpt lat="59.4456752374" lon="17.7981538688">
        <ele>118.6</ele>
        <time>2012-09-11T17:44:39Z</time>
      </trkpt>
      <trkpt lat="59.44562679" lon="17.7981705488">
        <ele>119</ele>
        <time>2012-09-11T17:44:40Z</time>
      </trkpt>
      <trkpt lat="59.4455797675" lon="17.7981881508">
        <ele>119.4</ele>
        <time>2012-09-11T17:44:41Z</time>
      </trkpt>
      <trkpt lat="59.445430905" lon="17.7982226004">
        <ele>119.4</ele>
        <time>2012-09-11T17:44:44Z</time>
      </trkpt>
      <trkpt lat="59.4451551405" lon="17.7982855485">
        <ele>119.4</ele>
        <time>2012-09-11T17:44:49Z</time>
      </trkpt>
      <trkpt lat="59.4450982274" lon="17.7982958582">
        <ele>119.4</ele>
        <time>2012-09-11T17:44:50Z</time>
      </trkpt>
      <trkpt lat="59.4447112351" lon="17.7983715468">
        <ele>119.4</ele>
        <time>2012-09-11T17:44:56Z</time>
      </trkpt>
      <trkpt lat="59.4444120012" lon="17.7983008873">
        <ele>119.4</ele>
        <time>2012-09-11T17:45:01Z</time>
      </trkpt>
      <trkpt lat="59.4441581135" lon="17.7981956107">
        <ele>119.4</ele>
        <time>2012-09-11T17:45:05Z</time>
      </trkpt>
      <trkpt lat="59.4440903039" lon="17.7981980414">
        <ele>119.4</ele>
        <time>2012-09-11T17:45:06Z</time>
      </trkpt>
      <trkpt lat="59.4440156212" lon="17.7982117877">
        <ele>119.4</ele>
        <time>2012-09-11T17:45:07Z</time>
      </trkpt>
      <trkpt lat="59.4438118572" lon="17.7982762446">
        <ele>119</ele>
        <time>2012-09-11T17:45:10Z</time>
      </trkpt>
      <trkpt lat="59.4437542735" lon="17.798279765">
        <ele>118.6</ele>
        <time>2012-09-11T17:45:11Z</time>
      </trkpt>
      <trkpt lat="59.4437015514" lon="17.7982666054">
        <ele>118.2</ele>
        <time>2012-09-11T17:45:12Z</time>
      </trkpt>
      <trkpt lat="59.4436550318" lon="17.7982423817">
        <ele>117.8</ele>
        <time>2012-09-11T17:45:13Z</time>
      </trkpt>
      <trkpt lat="59.4436122842" lon="17.7982148052">
        <ele>117.4</ele>
        <time>2012-09-11T17:45:14Z</time>
      </trkpt>
      <trkpt lat="59.4435111146" lon="17.7980842152">
        <ele>117.4</ele>
        <time>2012-09-11T17:45:16Z</time>
      </trkpt>
      <trkpt lat="59.4434600688" lon="17.7979973787">
        <ele>117.4</ele>
        <time>2012-09-11T17:45:17Z</time>
      </trkpt>
      <trkpt lat="59.4433884874" lon="17.7977775215">
        <ele>117</ele>
        <time>2012-09-11T17:45:19Z</time>
      </trkpt>
      <trkpt lat="59.4433710531" lon="17.7976585823">
        <ele>116.6</ele>
        <time>2012-09-11T17:45:20Z</time>
      </trkpt>
      <trkpt lat="59.4433546245" lon="17.7975292496">
        <ele>116.2</ele>
        <time>2012-09-11T17:45:21Z</time>
      </trkpt>
      <trkpt lat="59.4433263775" lon="17.7973923732">
        <ele>115.6</ele>
        <time>2012-09-11T17:45:22Z</time>
      </trkpt>
      <trkpt lat="59.4432810315" lon="17.7972745237">
        <ele>115</ele>
        <time>2012-09-11T17:45:23Z</time>
      </trkpt>
      <trkpt lat="59.44322152" lon="17.7971689956">
        <ele>114.4</ele>
        <time>2012-09-11T17:45:24Z</time>
      </trkpt>
      <trkpt lat="59.4431629305" lon="17.7970621263">
        <ele>113.8</ele>
        <time>2012-09-11T17:45:25Z</time>
      </trkpt>
      <trkpt lat="59.4431078614" lon="17.7969443606">
        <ele>113.2</ele>
        <time>2012-09-11T17:45:26Z</time>
      </trkpt>
      <trkpt lat="59.443053882" lon="17.7968306183">
        <ele>113.2</ele>
        <time>2012-09-11T17:45:27Z</time>
      </trkpt>
      <trkpt lat="59.4429925265" lon="17.7967304546">
        <ele>112.8</ele>
        <time>2012-09-11T17:45:28Z</time>
      </trkpt>
      <trkpt lat="59.4429318415" lon="17.7966387566">
        <ele>112.2</ele>
        <time>2012-09-11T17:45:29Z</time>
      </trkpt>
      <trkpt lat="59.4428755151" lon="17.7965512495">
        <ele>111.8</ele>
        <time>2012-09-11T17:45:30Z</time>
      </trkpt>
      <trkpt lat="59.4428235474" lon="17.7964691069">
        <ele>110.8</ele>
        <time>2012-09-11T17:45:31Z</time>
      </trkpt>
      <trkpt lat="59.4427166781" lon="17.796327369">
        <ele>110.4</ele>
        <time>2012-09-11T17:45:33Z</time>
      </trkpt>
      <trkpt lat="59.4426575857" lon="17.7962632474">
        <ele>110</ele>
        <time>2012-09-11T17:45:34Z</time>
      </trkpt>
      <trkpt lat="59.4425993315" lon="17.7962014728">
        <ele>109.6</ele>
        <time>2012-09-11T17:45:35Z</time>
      </trkpt>
      <trkpt lat="59.4425438434" lon="17.7961447274">
        <ele>109.2</ele>
        <time>2012-09-11T17:45:36Z</time>
      </trkpt>
      <trkpt lat="59.4424954798" lon="17.796090245">
        <ele>108.8</ele>
        <time>2012-09-11T17:45:37Z</time>
      </trkpt>
      <trkpt lat="59.4424576774" lon="17.7960262073">
        <ele>109.2</ele>
        <time>2012-09-11T17:45:38Z</time>
      </trkpt>
      <trkpt lat="59.4424338728" lon="17.7959461602">
        <ele>109.6</ele>
        <time>2012-09-11T17:45:39Z</time>
      </trkpt>
      <trkpt lat="59.4424241498" lon="17.7958614192">
        <ele>110</ele>
        <time>2012-09-11T17:45:40Z</time>
      </trkpt>
      <trkpt lat="59.4424174443" lon="17.7957696374">
        <ele>110.4</ele>
        <time>2012-09-11T17:45:41Z</time>
      </trkpt>
      <trkpt lat="59.4424144268" lon="17.7956698927">
        <ele>111</ele>
        <time>2012-09-11T17:45:42Z</time>
      </trkpt>
      <trkpt lat="59.4424145106" lon="17.7955608442">
        <ele>111</ele>
        <time>2012-09-11T17:45:43Z</time>
      </trkpt>
      <trkpt lat="59.4424016863" lon="17.7954419889">
        <ele>111</ele>
        <time>2012-09-11T17:45:44Z</time>
      </trkpt>
      <trkpt lat="59.4423495509" lon="17.7952575033">
        <ele>111</ele>
        <time>2012-09-11T17:45:46Z</time>
      </trkpt>
      <trkpt lat="59.4421936476" lon="17.7950694973">
        <ele>110.6</ele>
        <time>2012-09-11T17:45:49Z</time>
      </trkpt>
      <trkpt lat="59.4421508999" lon="17.7950062977">
        <ele>110</ele>
        <time>2012-09-11T17:45:50Z</time>
      </trkpt>
      <trkpt lat="59.4421151092" lon="17.7949377338">
        <ele>109.6</ele>
        <time>2012-09-11T17:45:51Z</time>
      </trkpt>
      <trkpt lat="59.4420839285" lon="17.7948567646">
        <ele>109.2</ele>
        <time>2012-09-11T17:45:52Z</time>
      </trkpt>
      <trkpt lat="59.4420553462" lon="17.7947650666">
        <ele>108.8</ele>
        <time>2012-09-11T17:45:53Z</time>
      </trkpt>
      <trkpt lat="59.4420299491" lon="17.7946742068">
        <ele>108.4</ele>
        <time>2012-09-11T17:45:54Z</time>
      </trkpt>
      <trkpt lat="59.4420020373" lon="17.7945874542">
        <ele>107.2</ele>
        <time>2012-09-11T17:45:55Z</time>
      </trkpt>
      <trkpt lat="59.4419709405" lon="17.7945140287">
        <ele>106.6</ele>
        <time>2012-09-11T17:45:56Z</time>
      </trkpt>
      <trkpt lat="59.4419399275" lon="17.7944463868">
        <ele>106</ele>
        <time>2012-09-11T17:45:57Z</time>
      </trkpt>
      <trkpt lat="59.4419128539" lon="17.7943881326">
        <ele>105.4</ele>
        <time>2012-09-11T17:45:58Z</time>
      </trkpt>
      <trkpt lat="59.441901706" lon="17.7943444629">
        <ele>104.8</ele>
        <time>2012-09-11T17:45:59Z</time>
      </trkpt>
      <trkpt lat="59.4418990238" lon="17.7942975243">
        <ele>104.2</ele>
        <time>2012-09-11T17:46:00Z</time>
      </trkpt>
      <trkpt lat="59.4418995267" lon="17.794240695">
        <ele>104.2</ele>
        <time>2012-09-11T17:46:01Z</time>
      </trkpt>
      <trkpt lat="59.4418975989" lon="17.7941805968">
        <ele>103.8</ele>
        <time>2012-09-11T17:46:02Z</time>
      </trkpt>
      <trkpt lat="59.4418905581" lon="17.794134161">
        <ele>103.2</ele>
        <time>2012-09-11T17:46:03Z</time>
      </trkpt>
      <trkpt lat="59.4418753868" lon="17.7940944308">
        <ele>102.8</ele>
        <time>2012-09-11T17:46:04Z</time>
      </trkpt>
      <trkpt lat="59.4418510793" lon="17.79404942">
        <ele>102.4</ele>
        <time>2012-09-11T17:46:05Z</time>
      </trkpt>
      <trkpt lat="59.4418198148" lon="17.7940040739">
        <ele>102</ele>
        <time>2012-09-11T17:46:06Z</time>
      </trkpt>
      <trkpt lat="59.441706743" lon="17.793835933">
        <ele>102</ele>
        <time>2012-09-11T17:46:09Z</time>
      </trkpt>
      <trkpt lat="59.4416484888" lon="17.7936681274">
        <ele>101.4</ele>
        <time>2012-09-11T17:46:11Z</time>
      </trkpt>
      <trkpt lat="59.4416327308" lon="17.7935672931">
        <ele>100.8</ele>
        <time>2012-09-11T17:46:12Z</time>
      </trkpt>
      <trkpt lat="59.4416288752" lon="17.7934559815">
        <ele>100.4</ele>
        <time>2012-09-11T17:46:13Z</time>
      </trkpt>
      <trkpt lat="59.4416328985" lon="17.7933419038">
        <ele>99.8</ele>
        <time>2012-09-11T17:46:14Z</time>
      </trkpt>
      <trkpt lat="59.4416390173" lon="17.7932162592">
        <ele>99.2</ele>
        <time>2012-09-11T17:46:15Z</time>
      </trkpt>
      <trkpt lat="59.4416559487" lon="17.7928072224">
        <ele>99.2</ele>
        <time>2012-09-11T17:46:18Z</time>
      </trkpt>
      <trkpt lat="59.4416529312" lon="17.7926790632">
        <ele>99.2</ele>
        <time>2012-09-11T17:46:19Z</time>
      </trkpt>
      <trkpt lat="59.4416093453" lon="17.7923133609">
        <ele>99.2</ele>
        <time>2012-09-11T17:46:22Z</time>
      </trkpt>
      <trkpt lat="59.4414085988" lon="17.7917712196">
        <ele>98.8</ele>
        <time>2012-09-11T17:46:26Z</time>
      </trkpt>
      <trkpt lat="59.4413428009" lon="17.7916852213">
        <ele>98.4</ele>
        <time>2012-09-11T17:46:27Z</time>
      </trkpt>
      <trkpt lat="59.4412722253" lon="17.7916206807">
        <ele>97.8</ele>
        <time>2012-09-11T17:46:28Z</time>
      </trkpt>
      <trkpt lat="59.4411976264" lon="17.7915739097">
        <ele>97.4</ele>
        <time>2012-09-11T17:46:29Z</time>
      </trkpt>
      <trkpt lat="59.4411215187" lon="17.7915391248">
        <ele>97</ele>
        <time>2012-09-11T17:46:30Z</time>
      </trkpt>
      <trkpt lat="59.4410480095" lon="17.7915097043">
        <ele>97</ele>
        <time>2012-09-11T17:46:31Z</time>
      </trkpt>
      <trkpt lat="59.4408298286" lon="17.7914591615">
        <ele>97</ele>
        <time>2012-09-11T17:46:34Z</time>
      </trkpt>
      <trkpt lat="59.4405274097" lon="17.7913938665">
        <ele>97</ele>
        <time>2012-09-11T17:46:39Z</time>
      </trkpt>
      <trkpt lat="59.4404745199" lon="17.7913789467">
        <ele>97</ele>
        <time>2012-09-11T17:46:40Z</time>
      </trkpt>
      <trkpt lat="59.4402625416" lon="17.7913299126">
        <ele>97</ele>
        <time>2012-09-11T17:46:44Z</time>
      </trkpt>
      <trkpt lat="59.4402085622" lon="17.7913178426">
        <ele>97</ele>
        <time>2012-09-11T17:46:45Z</time>
      </trkpt>
      <trkpt lat="59.4401564268" lon="17.7913072814">
        <ele>97.4</ele>
        <time>2012-09-11T17:46:46Z</time>
      </trkpt>
      <trkpt lat="59.4401058001" lon="17.7912969717">
        <ele>97.8</ele>
        <time>2012-09-11T17:46:47Z</time>
      </trkpt>
      <trkpt lat="59.4400511501" lon="17.7912881707">
        <ele>98.4</ele>
        <time>2012-09-11T17:46:48Z</time>
      </trkpt>
      <trkpt lat="59.4399996853" lon="17.7912816328">
        <ele>98.8</ele>
        <time>2012-09-11T17:46:49Z</time>
      </trkpt>
      <trkpt lat="59.4399499806" lon="17.791272748">
        <ele>99.2</ele>
        <time>2012-09-11T17:46:50Z</time>
      </trkpt>
      <trkpt lat="59.4398481405" lon="17.7912532182">
        <ele>99.2</ele>
        <time>2012-09-11T17:46:52Z</time>
      </trkpt>
      <trkpt lat="59.4394387685" lon="17.7911714947">
        <ele>99.2</ele>
        <time>2012-09-11T17:47:00Z</time>
      </trkpt>
      <trkpt lat="59.4393984516" lon="17.7911553176">
        <ele>99.6</ele>
        <time>2012-09-11T17:47:01Z</time>
      </trkpt>
      <trkpt lat="59.4393599786" lon="17.7911427447">
        <ele>100.2</ele>
        <time>2012-09-11T17:47:02Z</time>
      </trkpt>
      <trkpt lat="59.4393205837" lon="17.7911313454">
        <ele>100.6</ele>
        <time>2012-09-11T17:47:03Z</time>
      </trkpt>
      <trkpt lat="59.4392775007" lon="17.7911175152">
        <ele>101</ele>
        <time>2012-09-11T17:47:04Z</time>
      </trkpt>
      <trkpt lat="59.4392323223" lon="17.7911012543">
        <ele>101.4</ele>
        <time>2012-09-11T17:47:05Z</time>
      </trkpt>
      <trkpt lat="59.4391422169" lon="17.7910569141">
        <ele>101.4</ele>
        <time>2012-09-11T17:47:07Z</time>
      </trkpt>
      <trkpt lat="59.4390115431" lon="17.7909685689">
        <ele>101.4</ele>
        <time>2012-09-11T17:47:10Z</time>
      </trkpt>
      <trkpt lat="59.4389195098" lon="17.7909213788">
        <ele>101.8</ele>
        <time>2012-09-11T17:47:12Z</time>
      </trkpt>
      <trkpt lat="59.4388759239" lon="17.790896736">
        <ele>102.2</ele>
        <time>2012-09-11T17:47:13Z</time>
      </trkpt>
      <trkpt lat="59.4388330086" lon="17.7908700815">
        <ele>102.6</ele>
        <time>2012-09-11T17:47:14Z</time>
      </trkpt>
      <trkpt lat="59.4387903447" lon="17.7908470313">
        <ele>103</ele>
        <time>2012-09-11T17:47:15Z</time>
      </trkpt>
      <trkpt lat="59.4387495249" lon="17.7908268309">
        <ele>103.4</ele>
        <time>2012-09-11T17:47:16Z</time>
      </trkpt>
      <trkpt lat="59.4385867484" lon="17.7907484602">
        <ele>104</ele>
        <time>2012-09-11T17:47:20Z</time>
      </trkpt>
      <trkpt lat="59.438543833" lon="17.7907296847">
        <ele>104.4</ele>
        <time>2012-09-11T17:47:21Z</time>
      </trkpt>
      <trkpt lat="59.438500331" lon="17.7907139267">
        <ele>104.8</ele>
        <time>2012-09-11T17:47:22Z</time>
      </trkpt>
      <trkpt lat="59.4384567451" lon="17.7906977497">
        <ele>105.2</ele>
        <time>2012-09-11T17:47:23Z</time>
      </trkpt>
      <trkpt lat="59.4384124887" lon="17.7906793095">
        <ele>105.6</ele>
        <time>2012-09-11T17:47:24Z</time>
      </trkpt>
      <trkpt lat="59.4383185276" lon="17.7906387411">
        <ele>105.6</ele>
        <time>2012-09-11T17:47:26Z</time>
      </trkpt>
      <trkpt lat="59.438218783" lon="17.7905997653">
        <ele>105.6</ele>
        <time>2012-09-11T17:47:28Z</time>
      </trkpt>
      <trkpt lat="59.4378733649" lon="17.7904529982">
        <ele>105.6</ele>
        <time>2012-09-11T17:47:35Z</time>
      </trkpt>
      <trkpt lat="59.4377768054" lon="17.7903675866">
        <ele>106</ele>
        <time>2012-09-11T17:47:37Z</time>
      </trkpt>
      <trkpt lat="59.4377322975" lon="17.7903186363">
        <ele>106.6</ele>
        <time>2012-09-11T17:47:38Z</time>
      </trkpt>
      <trkpt lat="59.437687119" lon="17.7902635672">
        <ele>107</ele>
        <time>2012-09-11T17:47:39Z</time>
      </trkpt>
      <trkpt lat="59.4376428626" lon="17.7902110127">
        <ele>107.4</ele>
        <time>2012-09-11T17:47:40Z</time>
      </trkpt>
      <trkpt lat="59.4376007017" lon="17.7901515012">
        <ele>107.8</ele>
        <time>2012-09-11T17:47:41Z</time>
      </trkpt>
      <trkpt lat="59.4374507495" lon="17.7899205799">
        <ele>107.8</ele>
        <time>2012-09-11T17:47:45Z</time>
      </trkpt>
      <trkpt lat="59.4373903998" lon="17.7897855475">
        <ele>107.8</ele>
        <time>2012-09-11T17:47:47Z</time>
      </trkpt>
      <trkpt lat="59.4373602249" lon="17.7897143852">
        <ele>108.2</ele>
        <time>2012-09-11T17:47:48Z</time>
      </trkpt>
      <trkpt lat="59.4373284575" lon="17.7896339189">
        <ele>108.6</ele>
        <time>2012-09-11T17:47:49Z</time>
      </trkpt>
      <trkpt lat="59.4372957681" lon="17.7895550452">
        <ele>109</ele>
        <time>2012-09-11T17:47:50Z</time>
      </trkpt>
      <trkpt lat="59.4372600612" lon="17.7894777641">
        <ele>109.4</ele>
        <time>2012-09-11T17:47:51Z</time>
      </trkpt>
      <trkpt lat="59.4372123682" lon="17.7893920173">
        <ele>109.8</ele>
        <time>2012-09-11T17:47:52Z</time>
      </trkpt>
      <trkpt lat="59.4371598975" lon="17.7893094556">
        <ele>109.8</ele>
        <time>2012-09-11T17:47:53Z</time>
      </trkpt>
      <trkpt lat="59.4368863961" lon="17.7888999159">
        <ele>109.8</ele>
        <time>2012-09-11T17:47:58Z</time>
      </trkpt>
      <trkpt lat="59.4367980509" lon="17.7887179449">
        <ele>109.4</ele>
        <time>2012-09-11T17:48:00Z</time>
      </trkpt>
      <trkpt lat="59.4367514475" lon="17.7886471178">
        <ele>109</ele>
        <time>2012-09-11T17:48:01Z</time>
      </trkpt>
      <trkpt lat="59.4366993959" lon="17.7885959882">
        <ele>108.6</ele>
        <time>2012-09-11T17:48:02Z</time>
      </trkpt>
      <trkpt lat="59.436644746" lon="17.7885491334">
        <ele>108.2</ele>
        <time>2012-09-11T17:48:03Z</time>
      </trkpt>
      <trkpt lat="59.4365838934" lon="17.7885052961">
        <ele>107.8</ele>
        <time>2012-09-11T17:48:04Z</time>
      </trkpt>
      <trkpt lat="59.4363354538" lon="17.7883357302">
        <ele>107.8</ele>
        <time>2012-09-11T17:48:08Z</time>
      </trkpt>
      <trkpt lat="59.4361558297" lon="17.7882019551">
        <ele>107.8</ele>
        <time>2012-09-11T17:48:11Z</time>
      </trkpt>
      <trkpt lat="59.4360427579" lon="17.7881456288">
        <ele>107.8</ele>
        <time>2012-09-11T17:48:13Z</time>
      </trkpt>
      <trkpt lat="59.4357372376" lon="17.7879803377">
        <ele>107.8</ele>
        <time>2012-09-11T17:48:19Z</time>
      </trkpt>
      <trkpt lat="59.4356278539" lon="17.7878884721">
        <ele>107.8</ele>
        <time>2012-09-11T17:48:21Z</time>
      </trkpt>
      <trkpt lat="59.4355121836" lon="17.7878394379">
        <ele>107.8</ele>
        <time>2012-09-11T17:48:23Z</time>
      </trkpt>
      <trkpt lat="59.4354537618" lon="17.7878119453">
        <ele>107.8</ele>
        <time>2012-09-11T17:48:24Z</time>
      </trkpt>
      <trkpt lat="59.4352101" lon="17.7877036512">
        <ele>107.8</ele>
        <time>2012-09-11T17:48:28Z</time>
      </trkpt>
      <trkpt lat="59.4350457309" lon="17.7876857139">
        <ele>108.2</ele>
        <time>2012-09-11T17:48:31Z</time>
      </trkpt>
      <trkpt lat="59.4349954395" lon="17.7877013042">
        <ele>108.6</ele>
        <time>2012-09-11T17:48:32Z</time>
      </trkpt>
      <trkpt lat="59.4349426335" lon="17.7877197444">
        <ele>109</ele>
        <time>2012-09-11T17:48:33Z</time>
      </trkpt>
      <trkpt lat="59.4348868939" lon="17.7877362568">
        <ele>109.4</ele>
        <time>2012-09-11T17:48:34Z</time>
      </trkpt>
      <trkpt lat="59.4348350937" lon="17.7877511765">
        <ele>109.8</ele>
        <time>2012-09-11T17:48:35Z</time>
      </trkpt>
      <trkpt lat="59.4347874846" lon="17.7877561219">
        <ele>109.8</ele>
        <time>2012-09-11T17:48:36Z</time>
      </trkpt>
      <trkpt lat="59.4347455751" lon="17.7877525176">
        <ele>109.2</ele>
        <time>2012-09-11T17:48:37Z</time>
      </trkpt>
      <trkpt lat="59.4347088623" lon="17.7877484105">
        <ele>108.8</ele>
        <time>2012-09-11T17:48:38Z</time>
      </trkpt>
      <trkpt lat="59.4346735745" lon="17.7877450578">
        <ele>108.4</ele>
        <time>2012-09-11T17:48:39Z</time>
      </trkpt>
      <trkpt lat="59.4346382029" lon="17.7877417888">
        <ele>107.8</ele>
        <time>2012-09-11T17:48:40Z</time>
      </trkpt>
      <trkpt lat="59.4346027475" lon="17.7877354186">
        <ele>107.4</ele>
        <time>2012-09-11T17:48:41Z</time>
      </trkpt>
      <trkpt lat="59.4345667053" lon="17.7877279587">
        <ele>106.8</ele>
        <time>2012-09-11T17:48:42Z</time>
      </trkpt>
      <trkpt lat="59.4345286515" lon="17.7877220913">
        <ele>106.2</ele>
        <time>2012-09-11T17:48:43Z</time>
      </trkpt>
      <trkpt lat="59.4344921902" lon="17.7877139609">
        <ele>105.8</ele>
        <time>2012-09-11T17:48:44Z</time>
      </trkpt>
      <trkpt lat="59.4344528791" lon="17.7877033997">
        <ele>105.2</ele>
        <time>2012-09-11T17:48:45Z</time>
      </trkpt>
      <trkpt lat="59.4344143224" lon="17.7876935929">
        <ele>105.2</ele>
        <time>2012-09-11T17:48:46Z</time>
      </trkpt>
      <trkpt lat="59.4341968121" lon="17.7876007214">
        <ele>105.2</ele>
        <time>2012-09-11T17:48:52Z</time>
      </trkpt>
      <trkpt lat="59.4341275776" lon="17.7875070118">
        <ele>105.2</ele>
        <time>2012-09-11T17:48:54Z</time>
      </trkpt>
      <trkpt lat="59.4341165135" lon="17.7874164035">
        <ele>105.2</ele>
        <time>2012-09-11T17:48:55Z</time>
      </trkpt>
      <trkpt lat="59.4340856681" lon="17.7869605957">
        <ele>105.2</ele>
        <time>2012-09-11T17:48:59Z</time>
      </trkpt>
      <trkpt lat="59.4340824829" lon="17.7866129145">
        <ele>105.2</ele>
        <time>2012-09-11T17:49:02Z</time>
      </trkpt>
      <trkpt lat="59.4341916991" lon="17.7863238228">
        <ele>105.2</ele>
        <time>2012-09-11T17:49:05Z</time>
      </trkpt>
      <trkpt lat="59.4343195231" lon="17.7861827554">
        <ele>104.8</ele>
        <time>2012-09-11T17:49:07Z</time>
      </trkpt>
      <trkpt lat="59.434388087" lon="17.7861436119">
        <ele>104.4</ele>
        <time>2012-09-11T17:49:08Z</time>
      </trkpt>
      <trkpt lat="59.434455226" lon="17.7861077374">
        <ele>104</ele>
        <time>2012-09-11T17:49:09Z</time>
      </trkpt>
      <trkpt lat="59.4345181741" lon="17.7860680072">
        <ele>103.2</ele>
        <time>2012-09-11T17:49:10Z</time>
      </trkpt>
      <trkpt lat="59.4345777694" lon="17.7860126028">
        <ele>102.6</ele>
        <time>2012-09-11T17:49:11Z</time>
      </trkpt>
      <trkpt lat="59.434634934" lon="17.7859348188">
        <ele>101.2</ele>
        <time>2012-09-11T17:49:12Z</time>
      </trkpt>
      <trkpt lat="59.434683549" lon="17.7858302127">
        <ele>100.4</ele>
        <time>2012-09-11T17:49:13Z</time>
      </trkpt>
      <trkpt lat="59.4347247879" lon="17.7857033946">
        <ele>100</ele>
        <time>2012-09-11T17:49:14Z</time>
      </trkpt>
      <trkpt lat="59.4347492631" lon="17.7855611537">
        <ele>99.4</ele>
        <time>2012-09-11T17:49:15Z</time>
      </trkpt>
      <trkpt lat="59.4347532026" lon="17.7854008918">
        <ele>99</ele>
        <time>2012-09-11T17:49:16Z</time>
      </trkpt>
      <trkpt lat="59.4347454912" lon="17.7852324994">
        <ele>98.4</ele>
        <time>2012-09-11T17:49:17Z</time>
      </trkpt>
      <trkpt lat="59.4347348462" lon="17.785077099">
        <ele>98</ele>
        <time>2012-09-11T17:49:18Z</time>
      </trkpt>
      <trkpt lat="59.4347220219" lon="17.7849302481">
        <ele>97.4</ele>
        <time>2012-09-11T17:49:19Z</time>
      </trkpt>
      <trkpt lat="59.4347092814" lon="17.7847883425">
        <ele>97</ele>
        <time>2012-09-11T17:49:20Z</time>
      </trkpt>
      <trkpt lat="59.4346949484" lon="17.7846440062">
        <ele>96.4</ele>
        <time>2012-09-11T17:49:21Z</time>
      </trkpt>
      <trkpt lat="59.4346768435" lon="17.7844987479">
        <ele>95.8</ele>
        <time>2012-09-11T17:49:22Z</time>
      </trkpt>
      <trkpt lat="59.4346557211" lon="17.7843739414">
        <ele>95.4</ele>
        <time>2012-09-11T17:49:23Z</time>
      </trkpt>
      <trkpt lat="59.4346366942" lon="17.7842533259">
        <ele>94.8</ele>
        <time>2012-09-11T17:49:24Z</time>
      </trkpt>
      <trkpt lat="59.434631665" lon="17.7841383262">
        <ele>94.4</ele>
        <time>2012-09-11T17:49:25Z</time>
      </trkpt>
      <trkpt lat="59.4346460819" lon="17.7840362346">
        <ele>93.8</ele>
        <time>2012-09-11T17:49:26Z</time>
      </trkpt>
      <trkpt lat="59.4346780169" lon="17.78395317">
        <ele>93.4</ele>
        <time>2012-09-11T17:49:27Z</time>
      </trkpt>
      <trkpt lat="59.4347235307" lon="17.7838889647">
        <ele>93</ele>
        <time>2012-09-11T17:49:28Z</time>
      </trkpt>
      <trkpt lat="59.4347753308" lon="17.7838404335">
        <ele>92.6</ele>
        <time>2012-09-11T17:49:29Z</time>
      </trkpt>
      <trkpt lat="59.434834507" lon="17.7838058162">
        <ele>92</ele>
        <time>2012-09-11T17:49:30Z</time>
      </trkpt>
      <trkpt lat="59.4348930127" lon="17.7837925728">
        <ele>91.6</ele>
        <time>2012-09-11T17:49:31Z</time>
      </trkpt>
      <trkpt lat="59.4349530271" lon="17.7837900582">
        <ele>91.6</ele>
        <time>2012-09-11T17:49:32Z</time>
      </trkpt>
      <trkpt lat="59.4350138797" lon="17.7837733783">
        <ele>91.6</ele>
        <time>2012-09-11T17:49:33Z</time>
      </trkpt>
      <trkpt lat="59.4352074177" lon="17.783698025">
        <ele>91.6</ele>
        <time>2012-09-11T17:49:36Z</time>
      </trkpt>
      <trkpt lat="59.4355441187" lon="17.7835009665">
        <ele>91.6</ele>
        <time>2012-09-11T17:49:41Z</time>
      </trkpt>
      <trkpt lat="59.4356032111" lon="17.7834417903">
        <ele>91.6</ele>
        <time>2012-09-11T17:49:42Z</time>
      </trkpt>
      <trkpt lat="59.4357887863" lon="17.7831226914">
        <ele>91.6</ele>
        <time>2012-09-11T17:49:46Z</time>
      </trkpt>
      <trkpt lat="59.4358343" lon="17.7830454102">
        <ele>91.6</ele>
        <time>2012-09-11T17:49:47Z</time>
      </trkpt>
      <trkpt lat="59.4359311948" lon="17.7829465038">
        <ele>91.6</ele>
        <time>2012-09-11T17:49:49Z</time>
      </trkpt>
      <trkpt lat="59.4359910416" lon="17.7829455818">
        <ele>91.6</ele>
        <time>2012-09-11T17:49:50Z</time>
      </trkpt>
      <trkpt lat="59.4363290836" lon="17.7828753415">
        <ele>91.6</ele>
        <time>2012-09-11T17:49:55Z</time>
      </trkpt>
      <trkpt lat="59.4364592545" lon="17.7828109685">
        <ele>91.6</ele>
        <time>2012-09-11T17:49:57Z</time>
      </trkpt>
      <trkpt lat="59.4365727454" lon="17.782689431">
        <ele>91.6</ele>
        <time>2012-09-11T17:49:59Z</time>
      </trkpt>
      <trkpt lat="59.4367200154" lon="17.7824380578">
        <ele>91.6</ele>
        <time>2012-09-11T17:50:02Z</time>
      </trkpt>
      <trkpt lat="59.4367620926" lon="17.7823502993">
        <ele>91.6</ele>
        <time>2012-09-11T17:50:03Z</time>
      </trkpt>
      <trkpt lat="59.436958229" lon="17.7819312043">
        <ele>91.6</ele>
        <time>2012-09-11T17:50:08Z</time>
      </trkpt>
      <trkpt lat="59.4370445626" lon="17.7817524184">
        <ele>91.6</ele>
        <time>2012-09-11T17:50:10Z</time>
      </trkpt>
      <trkpt lat="59.4370813591" lon="17.7815530129">
        <ele>91.6</ele>
        <time>2012-09-11T17:50:12Z</time>
      </trkpt>
      <trkpt lat="59.4370790122" lon="17.7813611513">
        <ele>91.6</ele>
        <time>2012-09-11T17:50:14Z</time>
      </trkpt>
      <trkpt lat="59.4370671937" lon="17.7812482471">
        <ele>91.6</ele>
        <time>2012-09-11T17:50:15Z</time>
      </trkpt>
      <trkpt lat="59.4370452331" lon="17.7811330798">
        <ele>91.6</ele>
        <time>2012-09-11T17:50:16Z</time>
      </trkpt>
      <trkpt lat="59.4370024016" lon="17.7807958759">
        <ele>91.6</ele>
        <time>2012-09-11T17:50:19Z</time>
      </trkpt>
      <trkpt lat="59.4369792676" lon="17.780555483">
        <ele>91.6</ele>
        <time>2012-09-11T17:50:21Z</time>
      </trkpt>
      <trkpt lat="59.4369374419" lon="17.7800863481">
        <ele>91.6</ele>
        <time>2012-09-11T17:50:25Z</time>
      </trkpt>
      <trkpt lat="59.4369256234" lon="17.7797608789">
        <ele>91.6</ele>
        <time>2012-09-11T17:50:28Z</time>
      </trkpt>
      <trkpt lat="59.4369241985" lon="17.7795553547">
        <ele>91.6</ele>
        <time>2012-09-11T17:50:30Z</time>
      </trkpt>
      <trkpt lat="59.4369029923" lon="17.7792505888">
        <ele>91.6</ele>
        <time>2012-09-11T17:50:33Z</time>
      </trkpt>
      <trkpt lat="59.4368423912" lon="17.7790324918">
        <ele>91.6</ele>
        <time>2012-09-11T17:50:35Z</time>
      </trkpt>
      <trkpt lat="59.4366802014" lon="17.7788427256">
        <ele>91.6</ele>
        <time>2012-09-11T17:50:38Z</time>
      </trkpt>
      <trkpt lat="59.4366169181" lon="17.7788278896">
        <ele>91.6</ele>
        <time>2012-09-11T17:50:39Z</time>
      </trkpt>
      <trkpt lat="59.4365589991" lon="17.778796206">
        <ele>91.6</ele>
        <time>2012-09-11T17:50:40Z</time>
      </trkpt>
      <trkpt lat="59.436457159" lon="17.7786624309">
        <ele>91.6</ele>
        <time>2012-09-11T17:50:42Z</time>
      </trkpt>
      <trkpt lat="59.4363791235" lon="17.7784643666">
        <ele>91.6</ele>
        <time>2012-09-11T17:50:44Z</time>
      </trkpt>
      <trkpt lat="59.4362968971" lon="17.778247946">
        <ele>91.6</ele>
        <time>2012-09-11T17:50:46Z</time>
      </trkpt>
      <trkpt lat="59.4360990004" lon="17.7777559284">
        <ele>91.6</ele>
        <time>2012-09-11T17:50:51Z</time>
      </trkpt>
      <trkpt lat="59.4360109067" lon="17.7776017015">
        <ele>92</ele>
        <time>2012-09-11T17:50:53Z</time>
      </trkpt>
      <trkpt lat="59.4359638004" lon="17.7775490631">
        <ele>92.4</ele>
        <time>2012-09-11T17:50:54Z</time>
      </trkpt>
      <trkpt lat="59.435919544" lon="17.7775049743">
        <ele>92.8</ele>
        <time>2012-09-11T17:50:55Z</time>
      </trkpt>
      <trkpt lat="59.4358819931" lon="17.7774721173">
        <ele>93.2</ele>
        <time>2012-09-11T17:50:56Z</time>
      </trkpt>
      <trkpt lat="59.4358446098" lon="17.7774343149">
        <ele>93.6</ele>
        <time>2012-09-11T17:50:57Z</time>
      </trkpt>
      <trkpt lat="59.4357708491" lon="17.7773737138">
        <ele>93.6</ele>
        <time>2012-09-11T17:50:59Z</time>
      </trkpt>
      <trkpt lat="59.4357041291" lon="17.7773195667">
        <ele>94</ele>
        <time>2012-09-11T17:51:01Z</time>
      </trkpt>
      <trkpt lat="59.4356688413" lon="17.7773029706">
        <ele>94.6</ele>
        <time>2012-09-11T17:51:02Z</time>
      </trkpt>
      <trkpt lat="59.4356334697" lon="17.7772939181">
        <ele>95</ele>
        <time>2012-09-11T17:51:03Z</time>
      </trkpt>
      <trkpt lat="59.4355949968" lon="17.7772972709">
        <ele>95.4</ele>
        <time>2012-09-11T17:51:04Z</time>
      </trkpt>
      <trkpt lat="59.435553674" lon="17.777307413">
        <ele>95.8</ele>
        <time>2012-09-11T17:51:05Z</time>
      </trkpt>
      <trkpt lat="59.4354706932" lon="17.7773617277">
        <ele>95.8</ele>
        <time>2012-09-11T17:51:07Z</time>
      </trkpt>
      <trkpt lat="59.4353984412" lon="17.7774216583">
        <ele>95.8</ele>
        <time>2012-09-11T17:51:09Z</time>
      </trkpt>
      <trkpt lat="59.4353303802" lon="17.7774762244">
        <ele>96.2</ele>
        <time>2012-09-11T17:51:11Z</time>
      </trkpt>
      <trkpt lat="59.4353002054" lon="17.7775019569">
        <ele>96.6</ele>
        <time>2012-09-11T17:51:12Z</time>
      </trkpt>
      <trkpt lat="59.435271204" lon="17.7775278569">
        <ele>97</ele>
        <time>2012-09-11T17:51:13Z</time>
      </trkpt>
      <trkpt lat="59.4352398557" lon="17.7775547628">
        <ele>97.4</ele>
        <time>2012-09-11T17:51:14Z</time>
      </trkpt>
      <trkpt lat="59.4352054061" lon="17.7775842671">
        <ele>98</ele>
        <time>2012-09-11T17:51:15Z</time>
      </trkpt>
      <trkpt lat="59.4351334894" lon="17.7776350614">
        <ele>98.4</ele>
        <time>2012-09-11T17:51:17Z</time>
      </trkpt>
      <trkpt lat="59.4350981178" lon="17.7776584469">
        <ele>98.8</ele>
        <time>2012-09-11T17:51:18Z</time>
      </trkpt>
      <trkpt lat="59.4350554539" lon="17.7776673317">
        <ele>99.2</ele>
        <time>2012-09-11T17:51:19Z</time>
      </trkpt>
      <trkpt lat="59.435011868" lon="17.7776802399">
        <ele>99.6</ele>
        <time>2012-09-11T17:51:20Z</time>
      </trkpt>
      <trkpt lat="59.4349699585" lon="17.7777031225">
        <ele>100</ele>
        <time>2012-09-11T17:51:21Z</time>
      </trkpt>
      <trkpt lat="59.4349237743" lon="17.7777334649">
        <ele>100</ele>
        <time>2012-09-11T17:51:22Z</time>
      </trkpt>
      <trkpt lat="59.4348305675" lon="17.7777858518">
        <ele>100</ele>
        <time>2012-09-11T17:51:24Z</time>
      </trkpt>
      <trkpt lat="59.4347407974" lon="17.7778708443">
        <ele>100</ele>
        <time>2012-09-11T17:51:26Z</time>
      </trkpt>
      <trkpt lat="59.4346946131" lon="17.7778980855">
        <ele>100</ele>
        <time>2012-09-11T17:51:27Z</time>
      </trkpt>
      <trkpt lat="59.4346487641" lon="17.7779198784">
        <ele>100</ele>
        <time>2012-09-11T17:51:28Z</time>
      </trkpt>
      <trkpt lat="59.4345309146" lon="17.7779318645">
        <ele>100</ele>
        <time>2012-09-11T17:51:32Z</time>
      </trkpt>
      <trkpt lat="59.4345201019" lon="17.7779035337">
        <ele>100</ele>
        <time>2012-09-11T17:51:33Z</time>
      </trkpt>
      <trkpt lat="59.4345356923" lon="17.7778333772">
        <ele>99.6</ele>
        <time>2012-09-11T17:51:35Z</time>
      </trkpt>
      <trkpt lat="59.4345556412" lon="17.7777913839">
        <ele>99.2</ele>
        <time>2012-09-11T17:51:36Z</time>
      </trkpt>
      <trkpt lat="59.4345852293" lon="17.7777305313">
        <ele>98.6</ele>
        <time>2012-09-11T17:51:37Z</time>
      </trkpt>
      <trkpt lat="59.4346175834" lon="17.7776519929">
        <ele>98.2</ele>
        <time>2012-09-11T17:51:38Z</time>
      </trkpt>
      <trkpt lat="59.4346381191" lon="17.7775807467">
        <ele>97.6</ele>
        <time>2012-09-11T17:51:39Z</time>
      </trkpt>
      <trkpt lat="59.434661337" lon="17.7774345664">
        <ele>97.2</ele>
        <time>2012-09-11T17:51:41Z</time>
      </trkpt>
      <trkpt lat="59.4346739936" lon="17.7773465564">
        <ele>96.6</ele>
        <time>2012-09-11T17:51:42Z</time>
      </trkpt>
      <trkpt lat="59.4346783522" lon="17.7772375079">
        <ele>96.2</ele>
        <time>2012-09-11T17:51:43Z</time>
      </trkpt>
      <trkpt lat="59.4346791066" lon="17.7771354164">
        <ele>95.6</ele>
        <time>2012-09-11T17:51:44Z</time>
      </trkpt>
      <trkpt lat="59.4346712276" lon="17.7770453948">
        <ele>95</ele>
        <time>2012-09-11T17:51:45Z</time>
      </trkpt>
      <trkpt lat="59.434657146" lon="17.7769724722">
        <ele>94.6</ele>
        <time>2012-09-11T17:51:46Z</time>
      </trkpt>
      <trkpt lat="59.4346387897" lon="17.7769170679">
        <ele>94</ele>
        <time>2012-09-11T17:51:47Z</time>
      </trkpt>
      <trkpt lat="59.4346120514" lon="17.7768687043">
        <ele>93.4</ele>
        <time>2012-09-11T17:51:48Z</time>
      </trkpt>
      <trkpt lat="59.4345824633" lon="17.7768261243">
        <ele>92.8</ele>
        <time>2012-09-11T17:51:49Z</time>
      </trkpt>
      <trkpt lat="59.4345609218" lon="17.7767701332">
        <ele>92.8</ele>
        <time>2012-09-11T17:51:50Z</time>
      </trkpt>
      <trkpt lat="59.4345521208" lon="17.7766302393">
        <ele>92.8</ele>
        <time>2012-09-11T17:51:52Z</time>
      </trkpt>
      <trkpt lat="59.4345422302" lon="17.776347853">
        <ele>92.8</ele>
        <time>2012-09-11T17:51:56Z</time>
      </trkpt>
      <trkpt lat="59.4345292382" lon="17.7762796244">
        <ele>92.8</ele>
        <time>2012-09-11T17:51:57Z</time>
      </trkpt>
      <trkpt lat="59.4344279849" lon="17.7760699931">
        <ele>92.8</ele>
        <time>2012-09-11T17:52:01Z</time>
      </trkpt>
      <trkpt lat="59.4343631928" lon="17.7760119903">
        <ele>93.2</ele>
        <time>2012-09-11T17:52:03Z</time>
      </trkpt>
      <trkpt lat="59.4343364545" lon="17.7759785465">
        <ele>93.6</ele>
        <time>2012-09-11T17:52:04Z</time>
      </trkpt>
      <trkpt lat="59.4343125661" lon="17.775940828">
        <ele>94.6</ele>
        <time>2012-09-11T17:52:05Z</time>
      </trkpt>
      <trkpt lat="59.434287588" lon="17.7759001758">
        <ele>95</ele>
        <time>2012-09-11T17:52:06Z</time>
      </trkpt>
      <trkpt lat="59.4342452594" lon="17.7758266665">
        <ele>95.6</ele>
        <time>2012-09-11T17:52:08Z</time>
      </trkpt>
      <trkpt lat="59.4342326028" lon="17.7757783029">
        <ele>96</ele>
        <time>2012-09-11T17:52:09Z</time>
      </trkpt>
      <trkpt lat="59.434222796" lon="17.7757272572">
        <ele>96.4</ele>
        <time>2012-09-11T17:52:10Z</time>
      </trkpt>
      <trkpt lat="59.4342091335" lon="17.7756674104">
        <ele>97</ele>
        <time>2012-09-11T17:52:11Z</time>
      </trkpt>
      <trkpt lat="59.4341946328" lon="17.7756174543">
        <ele>97.4</ele>
        <time>2012-09-11T17:52:12Z</time>
      </trkpt>
      <trkpt lat="59.4341477779" lon="17.7754756325">
        <ele>98</ele>
        <time>2012-09-11T17:52:15Z</time>
      </trkpt>
      <trkpt lat="59.4341266556" lon="17.7754305379">
        <ele>98.4</ele>
        <time>2012-09-11T17:52:16Z</time>
      </trkpt>
      <trkpt lat="59.434105617" lon="17.7753826773">
        <ele>98.8</ele>
        <time>2012-09-11T17:52:17Z</time>
      </trkpt>
      <trkpt lat="59.4340780405" lon="17.7753293684">
        <ele>99.4</ele>
        <time>2012-09-11T17:52:18Z</time>
      </trkpt>
      <trkpt lat="59.4340487039" lon="17.7752972657">
        <ele>99.8</ele>
        <time>2012-09-11T17:52:19Z</time>
      </trkpt>
      <trkpt lat="59.4340186129" lon="17.7752653307">
        <ele>99.8</ele>
        <time>2012-09-11T17:52:20Z</time>
      </trkpt>
      <trkpt lat="59.4339466962" lon="17.7752205713">
        <ele>100.2</ele>
        <time>2012-09-11T17:52:22Z</time>
      </trkpt>
      <trkpt lat="59.4339073012" lon="17.7752083337">
        <ele>100.8</ele>
        <time>2012-09-11T17:52:23Z</time>
      </trkpt>
      <trkpt lat="59.4338667328" lon="17.7752033046">
        <ele>101.2</ele>
        <time>2012-09-11T17:52:24Z</time>
      </trkpt>
      <trkpt lat="59.433831948" lon="17.7752112674">
        <ele>101.6</ele>
        <time>2012-09-11T17:52:25Z</time>
      </trkpt>
      <trkpt lat="59.4338010187" lon="17.7752210742">
        <ele>102.2</ele>
        <time>2012-09-11T17:52:26Z</time>
      </trkpt>
      <trkpt lat="59.4337741128" lon="17.7752344015">
        <ele>102.6</ele>
        <time>2012-09-11T17:52:27Z</time>
      </trkpt>
      <trkpt lat="59.4337517332" lon="17.7752479801">
        <ele>103.2</ele>
        <time>2012-09-11T17:52:28Z</time>
      </trkpt>
      <trkpt lat="59.4337311137" lon="17.7752670909">
        <ele>104.2</ele>
        <time>2012-09-11T17:52:29Z</time>
      </trkpt>
      <trkpt lat="59.4336776372" lon="17.7753390076">
        <ele>104.6</ele>
        <time>2012-09-11T17:52:32Z</time>
      </trkpt>
      <trkpt lat="59.4336602028" lon="17.775362896">
        <ele>105</ele>
        <time>2012-09-11T17:52:33Z</time>
      </trkpt>
      <trkpt lat="59.4336441096" lon="17.7753910592">
        <ele>105.4</ele>
        <time>2012-09-11T17:52:34Z</time>
      </trkpt>
      <trkpt lat="59.4336331293" lon="17.7754265984">
        <ele>106</ele>
        <time>2012-09-11T17:52:35Z</time>
      </trkpt>
      <trkpt lat="59.4336239092" lon="17.7754693461">
        <ele>106.4</ele>
        <time>2012-09-11T17:52:36Z</time>
      </trkpt>
      <trkpt lat="59.4336156949" lon="17.7755093278">
        <ele>106.8</ele>
        <time>2012-09-11T17:52:37Z</time>
      </trkpt>
      <trkpt lat="59.4336101629" lon="17.7755487227">
        <ele>107.2</ele>
        <time>2012-09-11T17:52:38Z</time>
      </trkpt>
      <trkpt lat="59.4336068101" lon="17.7755920571">
        <ele>107.6</ele>
        <time>2012-09-11T17:52:39Z</time>
      </trkpt>
      <trkpt lat="59.4336050499" lon="17.7756218129">
        <ele>108</ele>
        <time>2012-09-11T17:52:40Z</time>
      </trkpt>
      <trkpt lat="59.4336020324" lon="17.7756503113">
        <ele>108.4</ele>
        <time>2012-09-11T17:52:41Z</time>
      </trkpt>
      <trkpt lat="59.4335983444" lon="17.7756872755">
        <ele>108.8</ele>
        <time>2012-09-11T17:52:42Z</time>
      </trkpt>
      <trkpt lat="59.4335954107" lon="17.7757213898">
        <ele>109.2</ele>
        <time>2012-09-11T17:52:43Z</time>
      </trkpt>
      <trkpt lat="59.4335912198" lon="17.7757598628">
        <ele>109.6</ele>
        <time>2012-09-11T17:52:44Z</time>
      </trkpt>
      <trkpt lat="59.4335839275" lon="17.7758011017">
        <ele>110</ele>
        <time>2012-09-11T17:52:45Z</time>
      </trkpt>
      <trkpt lat="59.4335794013" lon="17.7758388203">
        <ele>110.4</ele>
        <time>2012-09-11T17:52:46Z</time>
      </trkpt>
      <trkpt lat="59.4335699298" lon="17.7758819032">
        <ele>110.4</ele>
        <time>2012-09-11T17:52:47Z</time>
      </trkpt>
      <trkpt lat="59.4335569378" lon="17.7759209629">
        <ele>110.4</ele>
        <time>2012-09-11T17:52:48Z</time>
      </trkpt>
      <trkpt lat="59.4335437782" lon="17.775956083">
        <ele>111</ele>
        <time>2012-09-11T17:52:49Z</time>
      </trkpt>
      <trkpt lat="59.4335284394" lon="17.7759862579">
        <ele>111.4</ele>
        <time>2012-09-11T17:52:50Z</time>
      </trkpt>
      <trkpt lat="59.4335125976" lon="17.7760162651">
        <ele>112</ele>
        <time>2012-09-11T17:52:51Z</time>
      </trkpt>
      <trkpt lat="59.4334983483" lon="17.7760464399">
        <ele>112.4</ele>
        <time>2012-09-11T17:52:52Z</time>
      </trkpt>
      <trkpt lat="59.4334849373" lon="17.7760821468">
        <ele>113</ele>
        <time>2012-09-11T17:52:53Z</time>
      </trkpt>
      <trkpt lat="59.4334706042" lon="17.7761168479">
        <ele>113.4</ele>
        <time>2012-09-11T17:52:54Z</time>
      </trkpt>
      <trkpt lat="59.4334597078" lon="17.7761500402">
        <ele>113.8</ele>
        <time>2012-09-11T17:52:55Z</time>
      </trkpt>
      <trkpt lat="59.4334449556" lon="17.7761814723">
        <ele>114.2</ele>
        <time>2012-09-11T17:52:56Z</time>
      </trkpt>
      <trkpt lat="59.4334239171" lon="17.7762023433">
        <ele>114.6</ele>
        <time>2012-09-11T17:52:57Z</time>
      </trkpt>
      <trkpt lat="59.4333985199" lon="17.7762102223">
        <ele>115</ele>
        <time>2012-09-11T17:52:58Z</time>
      </trkpt>
      <trkpt lat="59.4333774813" lon="17.7761916983">
        <ele>115.4</ele>
        <time>2012-09-11T17:52:59Z</time>
      </trkpt>
      <trkpt lat="59.4333624777" lon="17.7761597632">
        <ele>116</ele>
        <time>2012-09-11T17:53:00Z</time>
      </trkpt>
      <trkpt lat="59.4333556884" lon="17.7761253974">
        <ele>116.4</ele>
        <time>2012-09-11T17:53:01Z</time>
      </trkpt>
      <trkpt lat="59.4333499049" lon="17.7760904449">
        <ele>116.8</ele>
        <time>2012-09-11T17:53:02Z</time>
      </trkpt>
      <trkpt lat="59.4333552693" lon="17.776068149">
        <ele>117.2</ele>
        <time>2012-09-11T17:53:03Z</time>
      </trkpt>
      <trkpt lat="59.4333592926" lon="17.7760836556">
        <ele>117.2</ele>
        <time>2012-09-11T17:53:05Z</time>
      </trkpt>
      <trkpt lat="59.4333592926" lon="17.7760836556">
        <ele>117.2</ele>
        <time>2012-09-11T17:53:11Z</time>
      </trkpt>
      <trkpt lat="59.4333587059" lon="17.7760800513">
        <ele>117.2</ele>
        <time>2012-09-11T17:53:12Z</time>
      </trkpt>
      <trkpt lat="59.433356778" lon="17.7760717533">
        <ele>117.2</ele>
        <time>2012-09-11T17:53:14Z</time>
      </trkpt>
      <trkpt lat="59.4333592088" lon="17.7760744355">
        <ele>117.2</ele>
        <time>2012-09-11T17:53:15Z</time>
      </trkpt>
      <trkpt lat="59.4333606337" lon="17.776069574">
        <ele>117.2</ele>
        <time>2012-09-11T17:53:22Z</time>
      </trkpt>
      <trkpt lat="59.4333608014" lon="17.7760726753">
        <ele>117.2</ele>
        <time>2012-09-11T17:53:28Z</time>
      </trkpt>
      <trkpt lat="59.4333571971" lon="17.7760365493">
        <ele>117.6</ele>
        <time>2012-09-11T17:53:32Z</time>
      </trkpt>
      <trkpt lat="59.4333569457" lon="17.7760279159">
        <ele>118</ele>
        <time>2012-09-11T17:53:33Z</time>
      </trkpt>
      <trkpt lat="59.433356359" lon="17.7760235573">
        <ele>118.4</ele>
        <time>2012-09-11T17:53:34Z</time>
      </trkpt>
      <trkpt lat="59.4333405172" lon="17.7759969029">
        <ele>118.8</ele>
        <time>2012-09-11T17:53:35Z</time>
      </trkpt>
      <trkpt lat="59.4333405172" lon="17.7759969029">
        <ele>119.2</ele>
        <time>2012-09-11T17:53:36Z</time>
      </trkpt>
      <trkpt lat="59.4333346498" lon="17.7759787142">
        <ele>119.2</ele>
        <time>2012-09-11T17:53:38Z</time>
      </trkpt>
      <trkpt lat="59.433334566" lon="17.7759731821">
        <ele>119.2</ele>
        <time>2012-09-11T17:53:44Z</time>
      </trkpt>
      <trkpt lat="59.4333120187" lon="17.7757809852">
        <ele>119.2</ele>
        <time>2012-09-11T17:53:48Z</time>
      </trkpt>
      <trkpt lat="59.4332691872" lon="17.7755744551">
        <ele>119.2</ele>
        <time>2012-09-11T17:53:54Z</time>
      </trkpt>
      <trkpt lat="59.4332597156" lon="17.7755374071">
        <ele>119.6</ele>
        <time>2012-09-11T17:53:55Z</time>
      </trkpt>
      <trkpt lat="59.4332473943" lon="17.7754965035">
        <ele>120</ele>
        <time>2012-09-11T17:53:56Z</time>
      </trkpt>
      <trkpt lat="59.4332357434" lon="17.7754561027">
        <ele>120.6</ele>
        <time>2012-09-11T17:53:57Z</time>
      </trkpt>
      <trkpt lat="59.4332246793" lon="17.7754159534">
        <ele>121</ele>
        <time>2012-09-11T17:53:58Z</time>
      </trkpt>
      <trkpt lat="59.4332119388" lon="17.7753720323">
        <ele>121.4</ele>
        <time>2012-09-11T17:53:59Z</time>
      </trkpt>
      <trkpt lat="59.4331997851" lon="17.7753239201">
        <ele>121.4</ele>
        <time>2012-09-11T17:54:00Z</time>
      </trkpt>
      <trkpt lat="59.4331606416" lon="17.7751973535">
        <ele>121.8</ele>
        <time>2012-09-11T17:54:03Z</time>
      </trkpt>
      <trkpt lat="59.4331508348" lon="17.7751587129">
        <ele>122.2</ele>
        <time>2012-09-11T17:54:04Z</time>
      </trkpt>
      <trkpt lat="59.4331372561" lon="17.7751147917">
        <ele>122.6</ele>
        <time>2012-09-11T17:54:05Z</time>
      </trkpt>
      <trkpt lat="59.4331242641" lon="17.7750724631">
        <ele>123.2</ele>
        <time>2012-09-11T17:54:06Z</time>
      </trkpt>
      <trkpt lat="59.4331129486" lon="17.7750365048">
        <ele>123.6</ele>
        <time>2012-09-11T17:54:07Z</time>
      </trkpt>
      <trkpt lat="59.4330913233" lon="17.7749748978">
        <ele>124.4</ele>
        <time>2012-09-11T17:54:09Z</time>
      </trkpt>
      <trkpt lat="59.4330784151" lon="17.774953524">
        <ele>125</ele>
        <time>2012-09-11T17:54:10Z</time>
      </trkpt>
      <trkpt lat="59.4330670996" lon="17.774936844">
        <ele>125.4</ele>
        <time>2012-09-11T17:54:11Z</time>
      </trkpt>
      <trkpt lat="59.4330571251" lon="17.7749287974">
        <ele>125.8</ele>
        <time>2012-09-11T17:54:12Z</time>
      </trkpt>
      <trkpt lat="59.4330531018" lon="17.7749106925">
        <ele>125.8</ele>
        <time>2012-09-11T17:54:17Z</time>
      </trkpt>
      <trkpt lat="59.4330455581" lon="17.7749085132">
        <ele>125.8</ele>
        <time>2012-09-11T17:54:22Z</time>
      </trkpt>
      <trkpt lat="59.4330440494" lon="17.7749112792">
        <ele>125.8</ele>
        <time>2012-09-11T17:54:23Z</time>
      </trkpt>
      <trkpt lat="59.4330209153" lon="17.7749401968">
        <ele>126.2</ele>
        <time>2012-09-11T17:54:26Z</time>
      </trkpt>
      <trkpt lat="59.4330166405" lon="17.7749513447">
        <ele>126.8</ele>
        <time>2012-09-11T17:54:27Z</time>
      </trkpt>
      <trkpt lat="59.4330137069" lon="17.7749603971">
        <ele>127.2</ele>
        <time>2012-09-11T17:54:28Z</time>
      </trkpt>
      <trkpt lat="59.4330116952" lon="17.7749505065">
        <ele>127.6</ele>
        <time>2012-09-11T17:54:29Z</time>
      </trkpt>
      <trkpt lat="59.4330103541" lon="17.7749461479">
        <ele>128</ele>
        <time>2012-09-11T17:54:30Z</time>
      </trkpt>
      <trkpt lat="59.4330103541" lon="17.7749461479">
        <ele>128</ele>
        <time>2012-09-11T17:54:31Z</time>
      </trkpt>
      <trkpt lat="59.4330103541" lon="17.7749461479">
        <ele>128</ele>
        <time>2012-09-11T17:54:39Z</time>
      </trkpt>
      <trkpt lat="59.4330107732" lon="17.7749491654">
        <ele>128</ele>
        <time>2012-09-11T17:54:47Z</time>
      </trkpt>
      <trkpt lat="59.4330103541" lon="17.7749461479">
        <ele>128</ele>
        <time>2012-09-11T17:54:52Z</time>
      </trkpt>
      <trkpt lat="59.4330103541" lon="17.7749461479">
        <ele>128</ele>
        <time>2012-09-11T17:55:00Z</time>
      </trkpt>
      <trkpt lat="59.4330153833" lon="17.775021585">
        <ele>128</ele>
        <time>2012-09-11T17:55:07Z</time>
      </trkpt>
      <trkpt lat="59.4330207477" lon="17.7751050687">
        <ele>128.4</ele>
        <time>2012-09-11T17:55:11Z</time>
      </trkpt>
      <trkpt lat="59.4330204962" lon="17.7751269455">
        <ele>128.8</ele>
        <time>2012-09-11T17:55:12Z</time>
      </trkpt>
      <trkpt lat="59.4330173111" lon="17.7751581262">
        <ele>129.2</ele>
        <time>2012-09-11T17:55:13Z</time>
      </trkpt>
      <trkpt lat="59.4330198257" lon="17.7751828528">
        <ele>129.6</ele>
        <time>2012-09-11T17:55:14Z</time>
      </trkpt>
      <trkpt lat="59.4330151318" lon="17.7752050648">
        <ele>130</ele>
        <time>2012-09-11T17:55:15Z</time>
      </trkpt>
      <trkpt lat="59.4329992062" lon="17.77525544">
        <ele>130</ele>
        <time>2012-09-11T17:55:17Z</time>
      </trkpt>
      <trkpt lat="59.4329960211" lon="17.7753050609">
        <ele>130.4</ele>
        <time>2012-09-11T17:55:21Z</time>
      </trkpt>
      <trkpt lat="59.4329936741" lon="17.7753092518">
        <ele>130.8</ele>
        <time>2012-09-11T17:55:22Z</time>
      </trkpt>
      <trkpt lat="59.4329910757" lon="17.7753130237">
        <ele>131.6</ele>
        <time>2012-09-11T17:55:23Z</time>
      </trkpt>
      <trkpt lat="59.4329893994" lon="17.7753261833">
        <ele>132</ele>
        <time>2012-09-11T17:55:24Z</time>
      </trkpt>
      <trkpt lat="59.4329825262" lon="17.7753378341">
        <ele>132</ele>
        <time>2012-09-11T17:55:27Z</time>
      </trkpt>
      <trkpt lat="59.4329559556" lon="17.7753873711">
        <ele>132</ele>
        <time>2012-09-11T17:55:31Z</time>
      </trkpt>
      <trkpt lat="59.4329293011" lon="17.7753919812">
        <ele>132</ele>
        <time>2012-09-11T17:55:33Z</time>
      </trkpt>
      <trkpt lat="59.43290206" lon="17.7753581183">
        <ele>132.4</ele>
        <time>2012-09-11T17:55:35Z</time>
      </trkpt>
      <trkpt lat="59.4328912473" lon="17.7753271053">
        <ele>132.8</ele>
        <time>2012-09-11T17:55:36Z</time>
      </trkpt>
      <trkpt lat="59.432882614" lon="17.7752961761">
        <ele>133.2</ele>
        <time>2012-09-11T17:55:37Z</time>
      </trkpt>
      <trkpt lat="59.4328779201" lon="17.7752663365">
        <ele>133.6</ele>
        <time>2012-09-11T17:55:38Z</time>
      </trkpt>
      <trkpt lat="59.4328759084" lon="17.7752320545">
        <ele>134</ele>
        <time>2012-09-11T17:55:39Z</time>
      </trkpt>
      <trkpt lat="59.4328661854" lon="17.7751455533">
        <ele>134.4</ele>
        <time>2012-09-11T17:55:42Z</time>
      </trkpt>
      <trkpt lat="59.432858977" lon="17.7751218325">
        <ele>134.8</ele>
        <time>2012-09-11T17:55:43Z</time>
      </trkpt>
      <trkpt lat="59.4328485834" lon="17.7751045658">
        <ele>135.2</ele>
        <time>2012-09-11T17:55:44Z</time>
      </trkpt>
      <trkpt lat="59.432837687" lon="17.7750872991">
        <ele>135.8</ele>
        <time>2012-09-11T17:55:45Z</time>
      </trkpt>
      <trkpt lat="59.4328273772" lon="17.7750726308">
        <ele>136.2</ele>
        <time>2012-09-11T17:55:46Z</time>
      </trkpt>
      <trkpt lat="59.432817319" lon="17.7750660091">
        <ele>136.6</ele>
        <time>2012-09-11T17:55:47Z</time>
      </trkpt>
      <trkpt lat="59.4328096076" lon="17.7750611476">
        <ele>137.4</ele>
        <time>2012-09-11T17:55:48Z</time>
      </trkpt>
      <trkpt lat="59.432804327" lon="17.7750591359">
        <ele>137.8</ele>
        <time>2012-09-11T17:55:49Z</time>
      </trkpt>
      <trkpt lat="59.4328003875" lon="17.7750563699">
        <ele>138.2</ele>
        <time>2012-09-11T17:55:50Z</time>
      </trkpt>
      <trkpt lat="59.432783959" lon="17.7750425398">
        <ele>138.2</ele>
        <time>2012-09-11T17:55:53Z</time>
      </trkpt>
      <trkpt lat="59.4327812768" lon="17.7750430427">
        <ele>138.2</ele>
        <time>2012-09-11T17:55:55Z</time>
      </trkpt>
      <trkpt lat="59.4327602382" lon="17.7750569566">
        <ele>138.6</ele>
        <time>2012-09-11T17:55:57Z</time>
      </trkpt>
      <trkpt lat="59.4327481683" lon="17.7750696133">
        <ele>139</ele>
        <time>2012-09-11T17:55:58Z</time>
      </trkpt>
      <trkpt lat="59.4327337514" lon="17.7750786658">
        <ele>139.6</ele>
        <time>2012-09-11T17:55:59Z</time>
      </trkpt>
      <trkpt lat="59.4327233579" lon="17.775080426">
        <ele>140</ele>
        <time>2012-09-11T17:56:00Z</time>
      </trkpt>
      <trkpt lat="59.4327111203" lon="17.7750841978">
        <ele>140.4</ele>
        <time>2012-09-11T17:56:01Z</time>
      </trkpt>
      <trkpt lat="59.4326781794" lon="17.7750943399">
        <ele>140.4</ele>
        <time>2012-09-11T17:56:03Z</time>
      </trkpt>
      <trkpt lat="59.4326480046" lon="17.7750961839">
        <ele>140.8</ele>
        <time>2012-09-11T17:56:05Z</time>
      </trkpt>
      <trkpt lat="59.4326328333" lon="17.7750936694">
        <ele>141.2</ele>
        <time>2012-09-11T17:56:06Z</time>
      </trkpt>
      <trkpt lat="59.432620512" lon="17.7750869638">
        <ele>141.8</ele>
        <time>2012-09-11T17:56:07Z</time>
      </trkpt>
      <trkpt lat="59.4326073524" lon="17.7750837787">
        <ele>142.2</ele>
        <time>2012-09-11T17:56:08Z</time>
      </trkpt>
      <trkpt lat="59.4325962883" lon="17.775080845">
        <ele>142.6</ele>
        <time>2012-09-11T17:56:09Z</time>
      </trkpt>
      <trkpt lat="59.4325715617" lon="17.7750648356">
        <ele>143</ele>
        <time>2012-09-11T17:56:12Z</time>
      </trkpt>
      <trkpt lat="59.432565359" lon="17.7750515922">
        <ele>143.4</ele>
        <time>2012-09-11T17:56:13Z</time>
      </trkpt>
      <trkpt lat="59.4325603299" lon="17.7750312242">
        <ele>143.8</ele>
        <time>2012-09-11T17:56:14Z</time>
      </trkpt>
      <trkpt lat="59.4325539597" lon="17.7750136222">
        <ele>144.2</ele>
        <time>2012-09-11T17:56:15Z</time>
      </trkpt>
      <trkpt lat="59.4325461645" lon="17.7749985348">
        <ele>144.6</ele>
        <time>2012-09-11T17:56:16Z</time>
      </trkpt>
      <trkpt lat="59.4325097871" lon="17.7749510094">
        <ele>144.6</ele>
        <time>2012-09-11T17:56:20Z</time>
      </trkpt>
      <trkpt lat="59.4325029139" lon="17.7749469023">
        <ele>145</ele>
        <time>2012-09-11T17:56:21Z</time>
      </trkpt>
      <trkpt lat="59.4324961246" lon="17.774941035">
        <ele>145.4</ele>
        <time>2012-09-11T17:56:22Z</time>
      </trkpt>
      <trkpt lat="59.432492688" lon="17.7749361735">
        <ele>145.8</ele>
        <time>2012-09-11T17:56:23Z</time>
      </trkpt>
      <trkpt lat="59.4324838032" lon="17.7749279592">
        <ele>146.4</ele>
        <time>2012-09-11T17:56:24Z</time>
      </trkpt>
      <trkpt lat="59.4324765109" lon="17.7749236844">
        <ele>146.8</ele>
        <time>2012-09-11T17:56:25Z</time>
      </trkpt>
      <trkpt lat="59.4324601662" lon="17.7749149672">
        <ele>146.8</ele>
        <time>2012-09-11T17:56:28Z</time>
      </trkpt>
      <trkpt lat="59.4324538798" lon="17.7749157216">
        <ele>147.2</ele>
        <time>2012-09-11T17:56:29Z</time>
      </trkpt>
      <trkpt lat="59.43244357" lon="17.77491371">
        <ele>147.6</ele>
        <time>2012-09-11T17:56:30Z</time>
      </trkpt>
      <trkpt lat="59.4324339309" lon="17.7749064177">
        <ele>148</ele>
        <time>2012-09-11T17:56:31Z</time>
      </trkpt>
      <trkpt lat="59.4324251299" lon="17.774900718">
        <ele>148.4</ele>
        <time>2012-09-11T17:56:32Z</time>
      </trkpt>
      <trkpt lat="59.4324214418" lon="17.7748971976">
        <ele>148.8</ele>
        <time>2012-09-11T17:56:33Z</time>
      </trkpt>
      <trkpt lat="59.4323939492" lon="17.7748961918">
        <ele>148.8</ele>
        <time>2012-09-11T17:56:38Z</time>
      </trkpt>
      <trkpt lat="59.4323270616" lon="17.7749178171">
        <ele>148.8</ele>
        <time>2012-09-11T17:56:42Z</time>
      </trkpt>
      <trkpt lat="59.4323093758" lon="17.7749221757">
        <ele>148.8</ele>
        <time>2012-09-11T17:56:43Z</time>
      </trkpt>
      <trkpt lat="59.4322427397" lon="17.7749364249">
        <ele>148.8</ele>
        <time>2012-09-11T17:56:46Z</time>
      </trkpt>
      <trkpt lat="59.4321828091" lon="17.7749526858">
        <ele>149.2</ele>
        <time>2012-09-11T17:56:48Z</time>
      </trkpt>
      <trkpt lat="59.4321522152" lon="17.7749624926">
        <ele>149.6</ele>
        <time>2012-09-11T17:56:49Z</time>
      </trkpt>
      <trkpt lat="59.4321219565" lon="17.7749819386">
        <ele>150</ele>
        <time>2012-09-11T17:56:50Z</time>
      </trkpt>
      <trkpt lat="59.432090273" lon="17.7750152986">
        <ele>150.4</ele>
        <time>2012-09-11T17:56:51Z</time>
      </trkpt>
      <trkpt lat="59.4320611039" lon="17.7750468984">
        <ele>151</ele>
        <time>2012-09-11T17:56:52Z</time>
      </trkpt>
      <trkpt lat="59.432005029" lon="17.7750904004">
        <ele>151</ele>
        <time>2012-09-11T17:56:54Z</time>
      </trkpt>
      <trkpt lat="59.4319808053" lon="17.7751191503">
        <ele>151</ele>
        <time>2012-09-11T17:56:55Z</time>
      </trkpt>
      <trkpt lat="59.4319498761" lon="17.7751898097">
        <ele>151</ele>
        <time>2012-09-11T17:56:57Z</time>
      </trkpt>
      <trkpt lat="59.4319357945" lon="17.7752585413">
        <ele>151</ele>
        <time>2012-09-11T17:56:59Z</time>
      </trkpt>
      <trkpt lat="59.4319673105" lon="17.7753248422">
        <ele>151</ele>
        <time>2012-09-11T17:57:01Z</time>
      </trkpt>
      <trkpt lat="59.4320397301" lon="17.7753232496">
        <ele>151</ele>
        <time>2012-09-11T17:57:04Z</time>
      </trkpt>
      <trkpt lat="59.432062445" lon="17.7753171308">
        <ele>151</ele>
        <time>2012-09-11T17:57:05Z</time>
      </trkpt>
      <trkpt lat="59.4321882574" lon="17.7752799152">
        <ele>151</ele>
        <time>2012-09-11T17:57:10Z</time>
      </trkpt>
      <trkpt lat="59.4323558115" lon="17.7752167156">
        <ele>151</ele>
        <time>2012-09-11T17:57:16Z</time>
      </trkpt>
      <trkpt lat="59.4323921052" lon="17.7751667595">
        <ele>151</ele>
        <time>2012-09-11T17:57:21Z</time>
      </trkpt>
      <trkpt lat="59.4323900097" lon="17.7751630715">
        <ele>151</ele>
        <time>2012-09-11T17:57:33Z</time>
      </trkpt>
      <trkpt lat="59.4323885848" lon="17.7751601378">
        <ele>151</ele>
        <time>2012-09-11T17:57:37Z</time>
      </trkpt>
      <trkpt lat="59.4323885848" lon="17.7751601378">
        <ele>151</ele>
        <time>2012-09-11T17:57:45Z</time>
      </trkpt>
      <trkpt lat="59.4323477649" lon="17.7750239319">
        <ele>151</ele>
        <time>2012-09-11T18:00:19Z</time>
      </trkpt>
      <trkpt lat="59.4323258043" lon="17.7749904043">
        <ele>151</ele>
        <time>2012-09-11T18:00:20Z</time>
      </trkpt>
      <trkpt lat="59.4322253892" lon="17.7749575473">
        <ele>151</ele>
        <time>2012-09-11T18:00:23Z</time>
      </trkpt>
      <trkpt lat="59.4321632793" lon="17.7751544381">
        <ele>151</ele>
        <time>2012-09-11T18:00:26Z</time>
      </trkpt>
      <trkpt lat="59.4320602658" lon="17.7753552685">
        <ele>151</ele>
        <time>2012-09-11T18:00:30Z</time>
      </trkpt>
      <trkpt lat="59.4319429192" lon="17.775316125">
        <ele>151</ele>
        <time>2012-09-11T18:00:33Z</time>
      </trkpt>
      <trkpt lat="59.4318412467" lon="17.7751587967">
        <ele>151</ele>
        <time>2012-09-11T18:00:36Z</time>
      </trkpt>
      <trkpt lat="59.4318106528" lon="17.7751144565">
        <ele>151</ele>
        <time>2012-09-11T18:00:37Z</time>
      </trkpt>
      <trkpt lat="59.4317028615" lon="17.7750531848">
        <ele>151</ele>
        <time>2012-09-11T18:00:40Z</time>
      </trkpt>
      <trkpt lat="59.4316617064" lon="17.7750789172">
        <ele>151</ele>
        <time>2012-09-11T18:00:41Z</time>
      </trkpt>
      <trkpt lat="59.4314648994" lon="17.7752716171">
        <ele>151</ele>
        <time>2012-09-11T18:00:45Z</time>
      </trkpt>
      <trkpt lat="59.431345625" lon="17.7754312085">
        <ele>150.4</ele>
        <time>2012-09-11T18:00:47Z</time>
      </trkpt>
      <trkpt lat="59.4312872031" lon="17.7755284385">
        <ele>149.4</ele>
        <time>2012-09-11T18:00:48Z</time>
      </trkpt>
      <trkpt lat="59.4312300386" lon="17.775632877">
        <ele>148.2</ele>
        <time>2012-09-11T18:00:49Z</time>
      </trkpt>
      <trkpt lat="59.4311675096" lon="17.7757415902">
        <ele>146.8</ele>
        <time>2012-09-11T18:00:50Z</time>
      </trkpt>
      <trkpt lat="59.4310958443" lon="17.7758570928">
        <ele>145.4</ele>
        <time>2012-09-11T18:00:51Z</time>
      </trkpt>
      <trkpt lat="59.4310196529" lon="17.7759498804">
        <ele>144</ele>
        <time>2012-09-11T18:00:52Z</time>
      </trkpt>
      <trkpt lat="59.4309397734" lon="17.7760181929">
        <ele>142.4</ele>
        <time>2012-09-11T18:00:53Z</time>
      </trkpt>
      <trkpt lat="59.4308558705" lon="17.7760676461">
        <ele>141</ele>
        <time>2012-09-11T18:00:54Z</time>
      </trkpt>
      <trkpt lat="59.4307756558" lon="17.7761040236">
        <ele>140</ele>
        <time>2012-09-11T18:00:55Z</time>
      </trkpt>
      <trkpt lat="59.4306997157" lon="17.77614367">
        <ele>139</ele>
        <time>2012-09-11T18:00:56Z</time>
      </trkpt>
      <trkpt lat="59.430626877" lon="17.7761646247">
        <ele>138</ele>
        <time>2012-09-11T18:00:57Z</time>
      </trkpt>
      <trkpt lat="59.430555128" lon="17.7761745992">
        <ele>137.2</ele>
        <time>2012-09-11T18:00:58Z</time>
      </trkpt>
      <trkpt lat="59.4304811996" lon="17.776183484">
        <ele>136.2</ele>
        <time>2012-09-11T18:00:59Z</time>
      </trkpt>
      <trkpt lat="59.4304090315" lon="17.7761837354">
        <ele>135.4</ele>
        <time>2012-09-11T18:01:00Z</time>
      </trkpt>
      <trkpt lat="59.4303368633" lon="17.7761942128">
        <ele>134.4</ele>
        <time>2012-09-11T18:01:01Z</time>
      </trkpt>
      <trkpt lat="59.4302662877" lon="17.7762025109">
        <ele>133.6</ele>
        <time>2012-09-11T18:01:02Z</time>
      </trkpt>
      <trkpt lat="59.4301273158" lon="17.7762455939">
        <ele>133.6</ele>
        <time>2012-09-11T18:01:04Z</time>
      </trkpt>
      <trkpt lat="59.4300001624" lon="17.7763246352">
        <ele>133</ele>
        <time>2012-09-11T18:01:06Z</time>
      </trkpt>
      <trkpt lat="59.4299474402" lon="17.7763838952">
        <ele>132.6</ele>
        <time>2012-09-11T18:01:07Z</time>
      </trkpt>
      <trkpt lat="59.4299011721" lon="17.7764484358">
        <ele>131.4</ele>
        <time>2012-09-11T18:01:08Z</time>
      </trkpt>
      <trkpt lat="59.4298607714" lon="17.7765156587">
        <ele>131</ele>
        <time>2012-09-11T18:01:09Z</time>
      </trkpt>
      <trkpt lat="59.4298323567" lon="17.7765957897">
        <ele>130.4</ele>
        <time>2012-09-11T18:01:10Z</time>
      </trkpt>
      <trkpt lat="59.4298166826" lon="17.7766827938">
        <ele>129.8</ele>
        <time>2012-09-11T18:01:11Z</time>
      </trkpt>
      <trkpt lat="59.4298135813" lon="17.7767869808">
        <ele>129</ele>
        <time>2012-09-11T18:01:12Z</time>
      </trkpt>
      <trkpt lat="59.4298262379" lon="17.7768926765">
        <ele>128.2</ele>
        <time>2012-09-11T18:01:13Z</time>
      </trkpt>
      <trkpt lat="59.4298542335" lon="17.7769985399">
        <ele>127.4</ele>
        <time>2012-09-11T18:01:14Z</time>
      </trkpt>
      <trkpt lat="59.4298917006" lon="17.777086047">
        <ele>126.6</ele>
        <time>2012-09-11T18:01:15Z</time>
      </trkpt>
      <trkpt lat="59.4299378849" lon="17.7771440497">
        <ele>125.8</ele>
        <time>2012-09-11T18:01:16Z</time>
      </trkpt>
      <trkpt lat="59.4299948818" lon="17.7771776611">
        <ele>125.2</ele>
        <time>2012-09-11T18:01:17Z</time>
      </trkpt>
      <trkpt lat="59.430061015" lon="17.7772181457">
        <ele>124.4</ele>
        <time>2012-09-11T18:01:18Z</time>
      </trkpt>
      <trkpt lat="59.4301305009" lon="17.7772712032">
        <ele>123.6</ele>
        <time>2012-09-11T18:01:19Z</time>
      </trkpt>
      <trkpt lat="59.430204094" lon="17.7773161301">
        <ele>123.6</ele>
        <time>2012-09-11T18:01:20Z</time>
      </trkpt>
      <trkpt lat="59.4302796987" lon="17.7773633202">
        <ele>123.2</ele>
        <time>2012-09-11T18:01:21Z</time>
      </trkpt>
      <trkpt lat="59.4303554711" lon="17.7774178864">
        <ele>122.6</ele>
        <time>2012-09-11T18:01:22Z</time>
      </trkpt>
      <trkpt lat="59.4304229454" lon="17.7774756377">
        <ele>122.2</ele>
        <time>2012-09-11T18:01:23Z</time>
      </trkpt>
      <trkpt lat="59.4304853067" lon="17.7775243365">
        <ele>121.6</ele>
        <time>2012-09-11T18:01:24Z</time>
      </trkpt>
      <trkpt lat="59.430548171" lon="17.7775743765">
        <ele>121</ele>
        <time>2012-09-11T18:01:25Z</time>
      </trkpt>
      <trkpt lat="59.4306082692" lon="17.777625087">
        <ele>120.2</ele>
        <time>2012-09-11T18:01:26Z</time>
      </trkpt>
      <trkpt lat="59.4306621648" lon="17.7776779768">
        <ele>119.6</ele>
        <time>2012-09-11T18:01:27Z</time>
      </trkpt>
      <trkpt lat="59.4307083491" lon="17.7777344708">
        <ele>118.8</ele>
        <time>2012-09-11T18:01:28Z</time>
      </trkpt>
      <trkpt lat="59.430752857" lon="17.7777892046">
        <ele>118</ele>
        <time>2012-09-11T18:01:29Z</time>
      </trkpt>
      <trkpt lat="59.430789905" lon="17.7778337125">
        <ele>117.2</ele>
        <time>2012-09-11T18:01:30Z</time>
      </trkpt>
      <trkpt lat="59.4308145478" lon="17.7778740294">
        <ele>116.2</ele>
        <time>2012-09-11T18:01:31Z</time>
      </trkpt>
      <trkpt lat="59.4308199122" lon="17.7779081437">
        <ele>115.6</ele>
        <time>2012-09-11T18:01:32Z</time>
      </trkpt>
      <trkpt lat="59.430813961" lon="17.7779502209">
        <ele>114.4</ele>
        <time>2012-09-11T18:01:33Z</time>
      </trkpt>
      <trkpt lat="59.4307967781" lon="17.7779881071">
        <ele>113.6</ele>
        <time>2012-09-11T18:01:34Z</time>
      </trkpt>
      <trkpt lat="59.4307690341" lon="17.7780129175">
        <ele>113</ele>
        <time>2012-09-11T18:01:35Z</time>
      </trkpt>
      <trkpt lat="59.4307384401" lon="17.7780211317">
        <ele>113</ele>
        <time>2012-09-11T18:01:36Z</time>
      </trkpt>
      <trkpt lat="59.4306687865" lon="17.7780181981">
        <ele>113</ele>
        <time>2012-09-11T18:01:38Z</time>
      </trkpt>
      <trkpt lat="59.430558816" lon="17.7780031945">
        <ele>113</ele>
        <time>2012-09-11T18:01:41Z</time>
      </trkpt>
      <trkpt lat="59.4303455805" lon="17.7779472872">
        <ele>113.4</ele>
        <time>2012-09-11T18:01:45Z</time>
      </trkpt>
      <trkpt lat="59.430283303" lon="17.7779387377">
        <ele>113.8</ele>
        <time>2012-09-11T18:01:46Z</time>
      </trkpt>
      <trkpt lat="59.4302190976" lon="17.7779211357">
        <ele>114.2</ele>
        <time>2012-09-11T18:01:47Z</time>
      </trkpt>
      <trkpt lat="59.4301543893" lon="17.7779116641">
        <ele>114.6</ele>
        <time>2012-09-11T18:01:48Z</time>
      </trkpt>
      <trkpt lat="59.430091106" lon="17.7779063835">
        <ele>115</ele>
        <time>2012-09-11T18:01:49Z</time>
      </trkpt>
      <trkpt lat="59.4300290799" lon="17.7778924696">
        <ele>115</ele>
        <time>2012-09-11T18:01:50Z</time>
      </trkpt>
      <trkpt lat="59.4299668862" lon="17.777875622">
        <ele>115</ele>
        <time>2012-09-11T18:01:51Z</time>
      </trkpt>
      <trkpt lat="59.4298350389" lon="17.7778245762">
        <ele>115</ele>
        <time>2012-09-11T18:01:53Z</time>
      </trkpt>
      <trkpt lat="59.4296512239" lon="17.7777349737">
        <ele>115</ele>
        <time>2012-09-11T18:01:56Z</time>
      </trkpt>
      <trkpt lat="59.4292923947" lon="17.7774948322">
        <ele>115</ele>
        <time>2012-09-11T18:02:02Z</time>
      </trkpt>
      <trkpt lat="59.4290734595" lon="17.7773317205">
        <ele>115</ele>
        <time>2012-09-11T18:02:06Z</time>
      </trkpt>
      <trkpt lat="59.4290176361" lon="17.7772903139">
        <ele>115</ele>
        <time>2012-09-11T18:02:07Z</time>
      </trkpt>
      <trkpt lat="59.4289188973" lon="17.7772318082">
        <ele>115</ele>
        <time>2012-09-11T18:02:09Z</time>
      </trkpt>
      <trkpt lat="59.4288167219" lon="17.7771963528">
        <ele>115</ele>
        <time>2012-09-11T18:02:11Z</time>
      </trkpt>
      <trkpt lat="59.4285210923" lon="17.7771782479">
        <ele>115</ele>
        <time>2012-09-11T18:02:16Z</time>
      </trkpt>
      <trkpt lat="59.4284667776" lon="17.7771540242">
        <ele>115</ele>
        <time>2012-09-11T18:02:17Z</time>
      </trkpt>
      <trkpt lat="59.4283238662" lon="17.7770945965">
        <ele>115</ele>
        <time>2012-09-11T18:02:20Z</time>
      </trkpt>
      <trkpt lat="59.4282778496" lon="17.7770640026">
        <ele>115.4</ele>
        <time>2012-09-11T18:02:21Z</time>
      </trkpt>
      <trkpt lat="59.4282314138" lon="17.7770395274">
        <ele>116</ele>
        <time>2012-09-11T18:02:22Z</time>
      </trkpt>
      <trkpt lat="59.4281843914" lon="17.777005916">
        <ele>116.8</ele>
        <time>2012-09-11T18:02:23Z</time>
      </trkpt>
      <trkpt lat="59.4281364469" lon="17.7769711311">
        <ele>117.2</ele>
        <time>2012-09-11T18:02:24Z</time>
      </trkpt>
      <trkpt lat="59.4280926096" lon="17.7769502602">
        <ele>117.2</ele>
        <time>2012-09-11T18:02:25Z</time>
      </trkpt>
      <trkpt lat="59.4280513706" lon="17.7769295569">
        <ele>117.2</ele>
        <time>2012-09-11T18:02:26Z</time>
      </trkpt>
      <trkpt lat="59.428009964" lon="17.7769043274">
        <ele>117.8</ele>
        <time>2012-09-11T18:02:27Z</time>
      </trkpt>
      <trkpt lat="59.4279616005" lon="17.7768723924">
        <ele>118.2</ele>
        <time>2012-09-11T18:02:28Z</time>
      </trkpt>
      <trkpt lat="59.4279144104" lon="17.776848923">
        <ele>118.6</ele>
        <time>2012-09-11T18:02:29Z</time>
      </trkpt>
      <trkpt lat="59.4278675556" lon="17.7768232744">
        <ele>119</ele>
        <time>2012-09-11T18:02:30Z</time>
      </trkpt>
      <trkpt lat="59.4278138276" lon="17.7767964523">
        <ele>119.4</ele>
        <time>2012-09-11T18:02:31Z</time>
      </trkpt>
      <trkpt lat="59.4277675595" lon="17.7767768387">
        <ele>119.4</ele>
        <time>2012-09-11T18:02:32Z</time>
      </trkpt>
      <trkpt lat="59.4276674796" lon="17.7767656908">
        <ele>119.4</ele>
        <time>2012-09-11T18:02:34Z</time>
      </trkpt>
      <trkpt lat="59.4275117439" lon="17.7767841309">
        <ele>119.4</ele>
        <time>2012-09-11T18:02:37Z</time>
      </trkpt>
      <trkpt lat="59.4273917151" lon="17.776790585">
        <ele>119.4</ele>
        <time>2012-09-11T18:02:39Z</time>
      </trkpt>
      <trkpt lat="59.4272374881" lon="17.7767655231">
        <ele>120</ele>
        <time>2012-09-11T18:02:42Z</time>
      </trkpt>
      <trkpt lat="59.4271947404" lon="17.77676326">
        <ele>120.4</ele>
        <time>2012-09-11T18:02:43Z</time>
      </trkpt>
      <trkpt lat="59.4271552617" lon="17.7767551296">
        <ele>120.8</ele>
        <time>2012-09-11T18:02:44Z</time>
      </trkpt>
      <trkpt lat="59.4271115082" lon="17.7767658584">
        <ele>121.2</ele>
        <time>2012-09-11T18:02:45Z</time>
      </trkpt>
      <trkpt lat="59.4270707721" lon="17.7767722286">
        <ele>121.6</ele>
        <time>2012-09-11T18:02:46Z</time>
      </trkpt>
      <trkpt lat="59.4269374161" lon="17.7767986316">
        <ele>121.6</ele>
        <time>2012-09-11T18:02:49Z</time>
      </trkpt>
      <trkpt lat="59.4268893878" lon="17.7768138029">
        <ele>122</ele>
        <time>2012-09-11T18:02:50Z</time>
      </trkpt>
      <trkpt lat="59.4268422815" lon="17.7768289741">
        <ele>122.4</ele>
        <time>2012-09-11T18:02:51Z</time>
      </trkpt>
      <trkpt lat="59.4267923254" lon="17.7768393677">
        <ele>122.8</ele>
        <time>2012-09-11T18:02:52Z</time>
      </trkpt>
      <trkpt lat="59.4267362505" lon="17.7768560476">
        <ele>123.2</ele>
        <time>2012-09-11T18:02:53Z</time>
      </trkpt>
      <trkpt lat="59.4266727157" lon="17.7768878989">
        <ele>123.6</ele>
        <time>2012-09-11T18:02:54Z</time>
      </trkpt>
      <trkpt lat="59.4266128689" lon="17.7769159782">
        <ele>123.6</ele>
        <time>2012-09-11T18:02:55Z</time>
      </trkpt>
      <trkpt lat="59.4264413753" lon="17.7769533615">
        <ele>123.6</ele>
        <time>2012-09-11T18:02:58Z</time>
      </trkpt>
      <trkpt lat="59.4263138866" lon="17.7769423812">
        <ele>123.6</ele>
        <time>2012-09-11T18:03:00Z</time>
      </trkpt>
      <trkpt lat="59.4258929476" lon="17.7768349253">
        <ele>123.2</ele>
        <time>2012-09-11T18:03:06Z</time>
      </trkpt>
      <trkpt lat="59.425822372" lon="17.7768117074">
        <ele>122.8</ele>
        <time>2012-09-11T18:03:07Z</time>
      </trkpt>
      <trkpt lat="59.4257475216" lon="17.7767909203">
        <ele>122.4</ele>
        <time>2012-09-11T18:03:08Z</time>
      </trkpt>
      <trkpt lat="59.4256693185" lon="17.7767608293">
        <ele>122</ele>
        <time>2012-09-11T18:03:09Z</time>
      </trkpt>
      <trkpt lat="59.4255953901" lon="17.7767293133">
        <ele>121.6</ele>
        <time>2012-09-11T18:03:10Z</time>
      </trkpt>
      <trkpt lat="59.4254619503" lon="17.7766294011">
        <ele>120.6</ele>
        <time>2012-09-11T18:03:12Z</time>
      </trkpt>
      <trkpt lat="59.4253969905" lon="17.7765520361">
        <ele>120.2</ele>
        <time>2012-09-11T18:03:13Z</time>
      </trkpt>
      <trkpt lat="59.4253305221" lon="17.7764669598">
        <ele>119.6</ele>
        <time>2012-09-11T18:03:14Z</time>
      </trkpt>
      <trkpt lat="59.4252590245" lon="17.7763827218">
        <ele>119.2</ele>
        <time>2012-09-11T18:03:15Z</time>
      </trkpt>
      <trkpt lat="59.4251941486" lon="17.7763051892">
        <ele>119.2</ele>
        <time>2012-09-11T18:03:16Z</time>
      </trkpt>
      <trkpt lat="59.4251259199" lon="17.776208965">
        <ele>119.2</ele>
        <time>2012-09-11T18:03:17Z</time>
      </trkpt>
      <trkpt lat="59.4249987665" lon="17.7760003395">
        <ele>119.2</ele>
        <time>2012-09-11T18:03:19Z</time>
      </trkpt>
      <trkpt lat="59.4249450385" lon="17.7758895308">
        <ele>119.2</ele>
        <time>2012-09-11T18:03:20Z</time>
      </trkpt>
      <trkpt lat="59.4248146999" lon="17.7755594515">
        <ele>119.2</ele>
        <time>2012-09-11T18:03:23Z</time>
      </trkpt>
      <trkpt lat="59.4247329764" lon="17.7753446234">
        <ele>119.2</ele>
        <time>2012-09-11T18:03:25Z</time>
      </trkpt>
      <trkpt lat="59.4246240117" lon="17.7748848762">
        <ele>119.2</ele>
        <time>2012-09-11T18:03:29Z</time>
      </trkpt>
      <trkpt lat="59.4246312201" lon="17.7746378616">
        <ele>119.2</ele>
        <time>2012-09-11T18:03:31Z</time>
      </trkpt>
      <trkpt lat="59.4246302981" lon="17.7743924396">
        <ele>119.2</ele>
        <time>2012-09-11T18:03:33Z</time>
      </trkpt>
      <trkpt lat="59.4246721238" lon="17.7738199558">
        <ele>119.2</ele>
        <time>2012-09-11T18:03:38Z</time>
      </trkpt>
      <trkpt lat="59.4246920727" lon="17.7735944827">
        <ele>119.2</ele>
        <time>2012-09-11T18:03:40Z</time>
      </trkpt>
      <trkpt lat="59.4247333117" lon="17.7733789003">
        <ele>119.2</ele>
        <time>2012-09-11T18:03:42Z</time>
      </trkpt>
      <trkpt lat="59.424760469" lon="17.7732699356">
        <ele>119.2</ele>
        <time>2012-09-11T18:03:43Z</time>
      </trkpt>
      <trkpt lat="59.4247913983" lon="17.7731578695">
        <ele>118.6</ele>
        <time>2012-09-11T18:03:44Z</time>
      </trkpt>
      <trkpt lat="59.42481931" lon="17.7730705301">
        <ele>118.2</ele>
        <time>2012-09-11T18:03:45Z</time>
      </trkpt>
      <trkpt lat="59.424848479" lon="17.7730040617">
        <ele>117.8</ele>
        <time>2012-09-11T18:03:46Z</time>
      </trkpt>
      <trkpt lat="59.4248788215" lon="17.7729598891">
        <ele>117.4</ele>
        <time>2012-09-11T18:03:47Z</time>
      </trkpt>
      <trkpt lat="59.424906817" lon="17.7729219191">
        <ele>116.8</ele>
        <time>2012-09-11T18:03:48Z</time>
      </trkpt>
      <trkpt lat="59.4249273527" lon="17.7728904031">
        <ele>116.2</ele>
        <time>2012-09-11T18:03:49Z</time>
      </trkpt>
      <trkpt lat="59.4249468825" lon="17.7728639163">
        <ele>115.6</ele>
        <time>2012-09-11T18:03:50Z</time>
      </trkpt>
      <trkpt lat="59.4249590363" lon="17.7728232641">
        <ele>115</ele>
        <time>2012-09-11T18:03:51Z</time>
      </trkpt>
      <trkpt lat="59.4249565217" lon="17.7727655966">
        <ele>114.4</ele>
        <time>2012-09-11T18:03:52Z</time>
      </trkpt>
      <trkpt lat="59.4249385006" lon="17.7727327396">
        <ele>113.8</ele>
        <time>2012-09-11T18:03:53Z</time>
      </trkpt>
      <trkpt lat="59.4249115109" lon="17.7727181551">
        <ele>113.4</ele>
        <time>2012-09-11T18:03:54Z</time>
      </trkpt>
      <trkpt lat="59.4248742114" lon="17.7727208373">
        <ele>112.8</ele>
        <time>2012-09-11T18:03:55Z</time>
      </trkpt>
      <trkpt lat="59.4248287815" lon="17.7727099408">
        <ele>112.2</ele>
        <time>2012-09-11T18:03:56Z</time>
      </trkpt>
      <trkpt lat="59.4246989459" lon="17.7726079331">
        <ele>112.2</ele>
        <time>2012-09-11T18:03:59Z</time>
      </trkpt>
      <trkpt lat="59.4244760712" lon="17.7726623316">
        <ele>112.2</ele>
        <time>2012-09-11T18:04:03Z</time>
      </trkpt>
      <trkpt lat="59.4244076749" lon="17.7726986252">
        <ele>112.2</ele>
        <time>2012-09-11T18:04:04Z</time>
      </trkpt>
      <trkpt lat="59.4242055873" lon="17.7727641717">
        <ele>112.2</ele>
        <time>2012-09-11T18:04:07Z</time>
      </trkpt>
      <trkpt lat="59.4239429823" lon="17.7728515111">
        <ele>112.6</ele>
        <time>2012-09-11T18:04:11Z</time>
      </trkpt>
      <trkpt lat="59.4238781903" lon="17.7728707895">
        <ele>113.2</ele>
        <time>2012-09-11T18:04:12Z</time>
      </trkpt>
      <trkpt lat="59.4238157451" lon="17.7729021378">
        <ele>113.6</ele>
        <time>2012-09-11T18:04:13Z</time>
      </trkpt>
      <trkpt lat="59.4237556469" lon="17.7729422871">
        <ele>114</ele>
        <time>2012-09-11T18:04:14Z</time>
      </trkpt>
      <trkpt lat="59.4236959677" lon="17.7729855377">
        <ele>114.4</ele>
        <time>2012-09-11T18:04:15Z</time>
      </trkpt>
      <trkpt lat="59.4234326923" lon="17.7732297024">
        <ele>114.4</ele>
        <time>2012-09-11T18:04:20Z</time>
      </trkpt>
      <trkpt lat="59.4231492164" lon="17.7735432693">
        <ele>114.4</ele>
        <time>2012-09-11T18:04:26Z</time>
      </trkpt>
      <trkpt lat="59.4229074824" lon="17.773743932">
        <ele>114.4</ele>
        <time>2012-09-11T18:04:31Z</time>
      </trkpt>
      <trkpt lat="59.4228568557" lon="17.7737752803">
        <ele>114.4</ele>
        <time>2012-09-11T18:04:32Z</time>
      </trkpt>
      <trkpt lat="59.422746047" lon="17.7738337021">
        <ele>114.4</ele>
        <time>2012-09-11T18:04:34Z</time>
      </trkpt>
      <trkpt lat="59.4226411056" lon="17.7738770366">
        <ele>114.4</ele>
        <time>2012-09-11T18:04:36Z</time>
      </trkpt>
      <trkpt lat="59.4224800893" lon="17.7739472769">
        <ele>114.4</ele>
        <time>2012-09-11T18:04:39Z</time>
      </trkpt>
      <trkpt lat="59.4223712923" lon="17.7739548206">
        <ele>114.4</ele>
        <time>2012-09-11T18:04:41Z</time>
      </trkpt>
      <trkpt lat="59.4223173128" lon="17.7739563293">
        <ele>114.8</ele>
        <time>2012-09-11T18:04:42Z</time>
      </trkpt>
      <trkpt lat="59.4222633334" lon="17.7739655494">
        <ele>115.2</ele>
        <time>2012-09-11T18:04:43Z</time>
      </trkpt>
      <trkpt lat="59.4222089349" lon="17.7739746019">
        <ele>115.6</ele>
        <time>2012-09-11T18:04:44Z</time>
      </trkpt>
      <trkpt lat="59.4221578891" lon="17.7740085486">
        <ele>116</ele>
        <time>2012-09-11T18:04:45Z</time>
      </trkpt>
      <trkpt lat="59.422115309" lon="17.7740735083">
        <ele>116.4</ele>
        <time>2012-09-11T18:04:46Z</time>
      </trkpt>
      <trkpt lat="59.4219662789" lon="17.7742456725">
        <ele>116.4</ele>
        <time>2012-09-11T18:04:50Z</time>
      </trkpt>
      <trkpt lat="59.4219257105" lon="17.7742661244">
        <ele>116.4</ele>
        <time>2012-09-11T18:04:51Z</time>
      </trkpt>
      <trkpt lat="59.4218511954" lon="17.774276015">
        <ele>116.4</ele>
        <time>2012-09-11T18:04:53Z</time>
      </trkpt>
      <trkpt lat="59.4217751715" lon="17.7742071996">
        <ele>116.4</ele>
        <time>2012-09-11T18:04:55Z</time>
      </trkpt>
      <trkpt lat="59.4217350222" lon="17.7741679723">
        <ele>116.8</ele>
        <time>2012-09-11T18:04:56Z</time>
      </trkpt>
      <trkpt lat="59.4216881674" lon="17.7741168427">
        <ele>117.4</ele>
        <time>2012-09-11T18:04:57Z</time>
      </trkpt>
      <trkpt lat="59.4216460065" lon="17.7740779507">
        <ele>117.8</ele>
        <time>2012-09-11T18:04:58Z</time>
      </trkpt>
      <trkpt lat="59.4216009118" lon="17.7740390587">
        <ele>118.2</ele>
        <time>2012-09-11T18:04:59Z</time>
      </trkpt>
      <trkpt lat="59.4215543085" lon="17.7740092191">
        <ele>118.6</ele>
        <time>2012-09-11T18:05:00Z</time>
      </trkpt>
      <trkpt lat="59.4214115647" lon="17.7739612747">
        <ele>118.6</ele>
        <time>2012-09-11T18:05:03Z</time>
      </trkpt>
      <trkpt lat="59.4213013427" lon="17.7739642921">
        <ele>118.6</ele>
        <time>2012-09-11T18:05:05Z</time>
      </trkpt>
      <trkpt lat="59.4210359718" lon="17.7738803055">
        <ele>118.6</ele>
        <time>2012-09-11T18:05:10Z</time>
      </trkpt>
      <trkpt lat="59.4209353052" lon="17.7738098975">
        <ele>118.6</ele>
        <time>2012-09-11T18:05:12Z</time>
      </trkpt>
      <trkpt lat="59.4207675833" lon="17.7736673214">
        <ele>118.6</ele>
        <time>2012-09-11T18:05:15Z</time>
      </trkpt>
      <trkpt lat="59.4205848579" lon="17.7735612904">
        <ele>118.6</ele>
        <time>2012-09-11T18:05:18Z</time>
      </trkpt>
      <trkpt lat="59.4204591294" lon="17.7735484661">
        <ele>118.6</ele>
        <time>2012-09-11T18:05:20Z</time>
      </trkpt>
      <trkpt lat="59.4200752384" lon="17.7735126754">
        <ele>118.6</ele>
        <time>2012-09-11T18:05:26Z</time>
      </trkpt>
      <trkpt lat="59.4198128849" lon="17.7734902957">
        <ele>118.6</ele>
        <time>2012-09-11T18:05:30Z</time>
      </trkpt>
      <trkpt lat="59.4196132281" lon="17.7734746215">
        <ele>118.6</ele>
        <time>2012-09-11T18:05:33Z</time>
      </trkpt>
      <trkpt lat="59.4194797882" lon="17.7735037067">
        <ele>118.6</ele>
        <time>2012-09-11T18:05:35Z</time>
      </trkpt>
      <trkpt lat="59.4192934586" lon="17.7735315346">
        <ele>118.6</ele>
        <time>2012-09-11T18:05:38Z</time>
      </trkpt>
      <trkpt lat="59.419172843" lon="17.7735070595">
        <ele>118.6</ele>
        <time>2012-09-11T18:05:40Z</time>
      </trkpt>
      <trkpt lat="59.4191138345" lon="17.7735038744">
        <ele>118.6</ele>
        <time>2012-09-11T18:05:41Z</time>
      </trkpt>
      <trkpt lat="59.4188838351" lon="17.773483674">
        <ele>118.6</ele>
        <time>2012-09-11T18:05:45Z</time>
      </trkpt>
      <trkpt lat="59.4187741999" lon="17.7734597018">
        <ele>118.6</ele>
        <time>2012-09-11T18:05:47Z</time>
      </trkpt>
      <trkpt lat="59.4186131836" lon="17.7734213127">
        <ele>118.6</ele>
        <time>2012-09-11T18:05:50Z</time>
      </trkpt>
      <trkpt lat="59.4185553485" lon="17.7734144395">
        <ele>118.6</ele>
        <time>2012-09-11T18:05:51Z</time>
      </trkpt>
      <trkpt lat="59.418301796" lon="17.7733756313">
        <ele>118.6</ele>
        <time>2012-09-11T18:05:56Z</time>
      </trkpt>
      <trkpt lat="59.4182581263" lon="17.7733560177">
        <ele>118.6</ele>
        <time>2012-09-11T18:05:57Z</time>
      </trkpt>
      <trkpt lat="59.418060062" lon="17.7732866994">
        <ele>118.6</ele>
        <time>2012-09-11T18:06:01Z</time>
      </trkpt>
      <trkpt lat="59.4180173981" lon="17.7732853582">
        <ele>119</ele>
        <time>2012-09-11T18:06:02Z</time>
      </trkpt>
      <trkpt lat="59.4179718006" lon="17.7732915609">
        <ele>119.6</ele>
        <time>2012-09-11T18:06:03Z</time>
      </trkpt>
      <trkpt lat="59.4179271251" lon="17.7733051395">
        <ele>120</ele>
        <time>2012-09-11T18:06:04Z</time>
      </trkpt>
      <trkpt lat="59.4178807732" lon="17.7733291956">
        <ele>120.8</ele>
        <time>2012-09-11T18:06:05Z</time>
      </trkpt>
      <trkpt lat="59.417760912" lon="17.7733457917">
        <ele>120.8</ele>
        <time>2012-09-11T18:06:08Z</time>
      </trkpt>
      <trkpt lat="59.4176811163" lon="17.7732346478">
        <ele>120.8</ele>
        <time>2012-09-11T18:06:11Z</time>
      </trkpt>
      <trkpt lat="59.4176610836" lon="17.7729942549">
        <ele>120.8</ele>
        <time>2012-09-11T18:06:14Z</time>
      </trkpt>
      <trkpt lat="59.4176612512" lon="17.7729003776">
        <ele>120.8</ele>
        <time>2012-09-11T18:06:15Z</time>
      </trkpt>
      <trkpt lat="59.41766737" lon="17.7728017226">
        <ele>120.8</ele>
        <time>2012-09-11T18:06:16Z</time>
      </trkpt>
      <trkpt lat="59.4176843014" lon="17.772477846">
        <ele>120.8</ele>
        <time>2012-09-11T18:06:19Z</time>
      </trkpt>
      <trkpt lat="59.4177412145" lon="17.7718616925">
        <ele>120.8</ele>
        <time>2012-09-11T18:06:24Z</time>
      </trkpt>
      <trkpt lat="59.4177807771" lon="17.7711166254">
        <ele>120.8</ele>
        <time>2012-09-11T18:06:30Z</time>
      </trkpt>
      <trkpt lat="59.4177877341" lon="17.770990394">
        <ele>120.4</ele>
        <time>2012-09-11T18:06:31Z</time>
      </trkpt>
      <trkpt lat="59.4177912545" lon="17.7708598878">
        <ele>120</ele>
        <time>2012-09-11T18:06:32Z</time>
      </trkpt>
      <trkpt lat="59.4177908354" lon="17.7707252745">
        <ele>119.6</ele>
        <time>2012-09-11T18:06:33Z</time>
      </trkpt>
      <trkpt lat="59.4177993011" lon="17.7705858835">
        <ele>119.2</ele>
        <time>2012-09-11T18:06:34Z</time>
      </trkpt>
      <trkpt lat="59.4178012289" lon="17.770451857">
        <ele>118.6</ele>
        <time>2012-09-11T18:06:35Z</time>
      </trkpt>
      <trkpt lat="59.4178203397" lon="17.7699333526">
        <ele>118.6</ele>
        <time>2012-09-11T18:06:39Z</time>
      </trkpt>
      <trkpt lat="59.4178310685" lon="17.7698196941">
        <ele>118.6</ele>
        <time>2012-09-11T18:06:40Z</time>
      </trkpt>
      <trkpt lat="59.4178510174" lon="17.7695719251">
        <ele>118.6</ele>
        <time>2012-09-11T18:06:42Z</time>
      </trkpt>
      <trkpt lat="59.4178624168" lon="17.7692959091">
        <ele>118.6</ele>
        <time>2012-09-11T18:06:44Z</time>
      </trkpt>
      <trkpt lat="59.4178792644" lon="17.7690086614">
        <ele>118.2</ele>
        <time>2012-09-11T18:06:46Z</time>
      </trkpt>
      <trkpt lat="59.4178807732" lon="17.7688606371">
        <ele>117.8</ele>
        <time>2012-09-11T18:06:47Z</time>
      </trkpt>
      <trkpt lat="59.4178852994" lon="17.7687207431">
        <ele>117.4</ele>
        <time>2012-09-11T18:06:48Z</time>
      </trkpt>
      <trkpt lat="59.4178894065" lon="17.7685810169">
        <ele>117</ele>
        <time>2012-09-11T18:06:49Z</time>
      </trkpt>
      <trkpt lat="59.4178928431" lon="17.7684495049">
        <ele>116.6</ele>
        <time>2012-09-11T18:06:50Z</time>
      </trkpt>
      <trkpt lat="59.4179046616" lon="17.7679402206">
        <ele>116.6</ele>
        <time>2012-09-11T18:06:54Z</time>
      </trkpt>
      <trkpt lat="59.4179029014" lon="17.7676761069">
        <ele>116.6</ele>
        <time>2012-09-11T18:06:56Z</time>
      </trkpt>
      <trkpt lat="59.4178951062" lon="17.7672760389">
        <ele>116.6</ele>
        <time>2012-09-11T18:06:59Z</time>
      </trkpt>
      <trkpt lat="59.4178778395" lon="17.7667436206">
        <ele>116</ele>
        <time>2012-09-11T18:07:03Z</time>
      </trkpt>
      <trkpt lat="59.4178675298" lon="17.7666200714">
        <ele>115.6</ele>
        <time>2012-09-11T18:07:04Z</time>
      </trkpt>
      <trkpt lat="59.4178532805" lon="17.7665004617">
        <ele>115.2</ele>
        <time>2012-09-11T18:07:05Z</time>
      </trkpt>
      <trkpt lat="59.4178431384" lon="17.7664025611">
        <ele>114.6</ele>
        <time>2012-09-11T18:07:06Z</time>
      </trkpt>
      <trkpt lat="59.417831739" lon="17.7663044928">
        <ele>114.2</ele>
        <time>2012-09-11T18:07:07Z</time>
      </trkpt>
      <trkpt lat="59.4178226866" lon="17.7662143874">
        <ele>113.6</ele>
        <time>2012-09-11T18:07:08Z</time>
      </trkpt>
      <trkpt lat="59.4178082697" lon="17.7661223541">
        <ele>113</ele>
        <time>2012-09-11T18:07:09Z</time>
      </trkpt>
      <trkpt lat="59.4178000555" lon="17.7660299018">
        <ele>112.6</ele>
        <time>2012-09-11T18:07:10Z</time>
      </trkpt>
      <trkpt lat="59.4177899972" lon="17.7659488488">
        <ele>112</ele>
        <time>2012-09-11T18:07:11Z</time>
      </trkpt>
      <trkpt lat="59.4177698806" lon="17.7658636887">
        <ele>111.2</ele>
        <time>2012-09-11T18:07:12Z</time>
      </trkpt>
      <trkpt lat="59.4177395381" lon="17.7657658719">
        <ele>110.6</ele>
        <time>2012-09-11T18:07:13Z</time>
      </trkpt>
      <trkpt lat="59.4177059267" lon="17.7656570749">
        <ele>110</ele>
        <time>2012-09-11T18:07:14Z</time>
      </trkpt>
      <trkpt lat="59.4176687949" lon="17.7655350344">
        <ele>109.4</ele>
        <time>2012-09-11T18:07:15Z</time>
      </trkpt>
      <trkpt lat="59.4176330042" lon="17.7654198671">
        <ele>109</ele>
        <time>2012-09-11T18:07:16Z</time>
      </trkpt>
      <trkpt lat="59.4176009853" lon="17.7653048674">
        <ele>108.4</ele>
        <time>2012-09-11T18:07:17Z</time>
      </trkpt>
      <trkpt lat="59.4175643564" lon="17.7652031112">
        <ele>107.4</ele>
        <time>2012-09-11T18:07:18Z</time>
      </trkpt>
      <trkpt lat="59.4175309965" lon="17.7651109103">
        <ele>106.8</ele>
        <time>2012-09-11T18:07:19Z</time>
      </trkpt>
      <trkpt lat="59.4175029171" lon="17.7650371496">
        <ele>106.2</ele>
        <time>2012-09-11T18:07:20Z</time>
      </trkpt>
      <trkpt lat="59.4174698924" lon="17.7649679151">
        <ele>105.6</ele>
        <time>2012-09-11T18:07:21Z</time>
      </trkpt>
      <trkpt lat="59.4174243787" lon="17.764913768">
        <ele>105</ele>
        <time>2012-09-11T18:07:22Z</time>
      </trkpt>
      <trkpt lat="59.4173678009" lon="17.7648845152">
        <ele>104.4</ele>
        <time>2012-09-11T18:07:23Z</time>
      </trkpt>
      <trkpt lat="59.4172405636" lon="17.7648465451">
        <ele>104.4</ele>
        <time>2012-09-11T18:07:25Z</time>
      </trkpt>
      <trkpt lat="59.417034788" lon="17.7647695993">
        <ele>104</ele>
        <time>2012-09-11T18:07:28Z</time>
      </trkpt>
      <trkpt lat="59.4169671461" lon="17.7647302044">
        <ele>103.6</ele>
        <time>2012-09-11T18:07:29Z</time>
      </trkpt>
      <trkpt lat="59.4169000909" lon="17.7646910609">
        <ele>103.2</ele>
        <time>2012-09-11T18:07:30Z</time>
      </trkpt>
      <trkpt lat="59.4168305211" lon="17.7646483132">
        <ele>102.8</ele>
        <time>2012-09-11T18:07:31Z</time>
      </trkpt>
      <trkpt lat="59.4167679921" lon="17.7646063199">
        <ele>102.2</ele>
        <time>2012-09-11T18:07:32Z</time>
      </trkpt>
      <trkpt lat="59.41664855" lon="17.7645822638">
        <ele>102.2</ele>
        <time>2012-09-11T18:07:34Z</time>
      </trkpt>
      <trkpt lat="59.4165853505" lon="17.7646055655">
        <ele>102.2</ele>
        <time>2012-09-11T18:07:35Z</time>
      </trkpt>
      <trkpt lat="59.4164759667" lon="17.7647435316">
        <ele>102.2</ele>
        <time>2012-09-11T18:07:38Z</time>
      </trkpt>
      <trkpt lat="59.4163911419" lon="17.7647108422">
        <ele>102.2</ele>
        <time>2012-09-11T18:07:41Z</time>
      </trkpt>
      <trkpt lat="59.4162244259" lon="17.7646161267">
        <ele>102.2</ele>
        <time>2012-09-11T18:07:44Z</time>
      </trkpt>
      <trkpt lat="59.4159993719" lon="17.7646471397">
        <ele>102.2</ele>
        <time>2012-09-11T18:07:48Z</time>
      </trkpt>
      <trkpt lat="59.4159452248" lon="17.7646479779">
        <ele>102.2</ele>
        <time>2012-09-11T18:07:49Z</time>
      </trkpt>
      <trkpt lat="59.4157900758" lon="17.7646266879">
        <ele>102.6</ele>
        <time>2012-09-11T18:07:52Z</time>
      </trkpt>
      <trkpt lat="59.4157347553" lon="17.764602548">
        <ele>103</ele>
        <time>2012-09-11T18:07:53Z</time>
      </trkpt>
      <trkpt lat="59.4156749085" lon="17.7645804198">
        <ele>103.4</ele>
        <time>2012-09-11T18:07:54Z</time>
      </trkpt>
      <trkpt lat="59.4156104517" lon="17.764567847">
        <ele>103.8</ele>
        <time>2012-09-11T18:07:55Z</time>
      </trkpt>
      <trkpt lat="59.4155457435" lon="17.7645549388">
        <ele>104.2</ele>
        <time>2012-09-11T18:07:56Z</time>
      </trkpt>
      <trkpt lat="59.4154858129" lon="17.7645241773">
        <ele>104.2</ele>
        <time>2012-09-11T18:07:57Z</time>
      </trkpt>
      <trkpt lat="59.4154261337" lon="17.7644899791">
        <ele>104.2</ele>
        <time>2012-09-11T18:07:58Z</time>
      </trkpt>
      <trkpt lat="59.4153628504" lon="17.7644685215">
        <ele>104.2</ele>
        <time>2012-09-11T18:07:59Z</time>
      </trkpt>
      <trkpt lat="59.415193536" lon="17.7644487402">
        <ele>104.2</ele>
        <time>2012-09-11T18:08:02Z</time>
      </trkpt>
      <trkpt lat="59.4150883432" lon="17.7644626541">
        <ele>104.2</ele>
        <time>2012-09-11T18:08:04Z</time>
      </trkpt>
      <trkpt lat="59.4149546519" lon="17.7644880513">
        <ele>104.2</ele>
        <time>2012-09-11T18:08:07Z</time>
      </trkpt>
      <trkpt lat="59.4148025204" lon="17.7645758936">
        <ele>104.2</ele>
        <time>2012-09-11T18:08:12Z</time>
      </trkpt>
      <trkpt lat="59.4146796417" lon="17.7647554339">
        <ele>104.8</ele>
        <time>2012-09-11T18:08:16Z</time>
      </trkpt>
      <trkpt lat="59.4146506404" lon="17.7647986007">
        <ele>105.2</ele>
        <time>2012-09-11T18:08:17Z</time>
      </trkpt>
      <trkpt lat="59.4146235668" lon="17.7648377442">
        <ele>105.6</ele>
        <time>2012-09-11T18:08:18Z</time>
      </trkpt>
      <trkpt lat="59.4146004328" lon="17.7648789831">
        <ele>106</ele>
        <time>2012-09-11T18:08:19Z</time>
      </trkpt>
      <trkpt lat="59.4145814897" lon="17.7649161987">
        <ele>106.6</ele>
        <time>2012-09-11T18:08:20Z</time>
      </trkpt>
      <trkpt lat="59.4145601997" lon="17.7649496425">
        <ele>106.6</ele>
        <time>2012-09-11T18:08:21Z</time>
      </trkpt>
      <trkpt lat="59.4145117523" lon="17.7650249958">
        <ele>107</ele>
        <time>2012-09-11T18:08:23Z</time>
      </trkpt>
      <trkpt lat="59.4144840082" lon="17.7650599483">
        <ele>107.4</ele>
        <time>2012-09-11T18:08:24Z</time>
      </trkpt>
      <trkpt lat="59.414454001" lon="17.7650987565">
        <ele>108</ele>
        <time>2012-09-11T18:08:25Z</time>
      </trkpt>
      <trkpt lat="59.4144275142" lon="17.765149467">
        <ele>108.4</ele>
        <time>2012-09-11T18:08:26Z</time>
      </trkpt>
      <trkpt lat="59.4144009436" lon="17.7651943102">
        <ele>109</ele>
        <time>2012-09-11T18:08:27Z</time>
      </trkpt>
      <trkpt lat="59.4142591218" lon="17.7653681508">
        <ele>109</ele>
        <time>2012-09-11T18:08:32Z</time>
      </trkpt>
      <trkpt lat="59.4141923181" lon="17.7654788757">
        <ele>109.4</ele>
        <time>2012-09-11T18:08:35Z</time>
      </trkpt>
      <trkpt lat="59.4141713633" lon="17.7655131577">
        <ele>109.8</ele>
        <time>2012-09-11T18:08:36Z</time>
      </trkpt>
      <trkpt lat="59.4141430325" lon="17.7655476073">
        <ele>110.2</ele>
        <time>2012-09-11T18:08:37Z</time>
      </trkpt>
      <trkpt lat="59.4141105945" lon="17.7655828951">
        <ele>110.6</ele>
        <time>2012-09-11T18:08:38Z</time>
      </trkpt>
      <trkpt lat="59.414068685" lon="17.7656139081">
        <ele>111</ele>
        <time>2012-09-11T18:08:39Z</time>
      </trkpt>
      <trkpt lat="59.4139555294" lon="17.7657351942">
        <ele>111</ele>
        <time>2012-09-11T18:08:42Z</time>
      </trkpt>
      <trkpt lat="59.4138862111" lon="17.7658232041">
        <ele>111.4</ele>
        <time>2012-09-11T18:08:44Z</time>
      </trkpt>
      <trkpt lat="59.4138490793" lon="17.7658683826">
        <ele>111.8</ele>
        <time>2012-09-11T18:08:45Z</time>
      </trkpt>
      <trkpt lat="59.4138145458" lon="17.7659114655">
        <ele>112.2</ele>
        <time>2012-09-11T18:08:46Z</time>
      </trkpt>
      <trkpt lat="59.4137773302" lon="17.7659507767">
        <ele>112.6</ele>
        <time>2012-09-11T18:08:47Z</time>
      </trkpt>
      <trkpt lat="59.4137355883" lon="17.7659889981">
        <ele>113.2</ele>
        <time>2012-09-11T18:08:48Z</time>
      </trkpt>
      <trkpt lat="59.413697786" lon="17.7660183348">
        <ele>113.2</ele>
        <time>2012-09-11T18:08:49Z</time>
      </trkpt>
      <trkpt lat="59.4134131366" lon="17.7661902475">
        <ele>113.2</ele>
        <time>2012-09-11T18:08:56Z</time>
      </trkpt>
      <trkpt lat="59.413351362" lon="17.7662476635">
        <ele>113.2</ele>
        <time>2012-09-11T18:08:59Z</time>
      </trkpt>
      <trkpt lat="59.41325782" lon="17.7661873977">
        <ele>113.2</ele>
        <time>2012-09-11T18:09:04Z</time>
      </trkpt>
      <trkpt lat="59.4132347698" lon="17.7661325801">
        <ele>113.2</ele>
        <time>2012-09-11T18:09:05Z</time>
      </trkpt>
      <trkpt lat="59.4131831373" lon="17.7660817019">
        <ele>113.2</ele>
        <time>2012-09-11T18:09:07Z</time>
      </trkpt>
      <trkpt lat="59.4131646971" lon="17.7660780139">
        <ele>113.2</ele>
        <time>2012-09-11T18:09:08Z</time>
      </trkpt>
      <trkpt lat="59.4130990669" lon="17.766094191">
        <ele>113.2</ele>
        <time>2012-09-11T18:09:11Z</time>
      </trkpt>
      <trkpt lat="59.4130293294" lon="17.766154373">
        <ele>113.2</ele>
        <time>2012-09-11T18:09:13Z</time>
      </trkpt>
      <trkpt lat="59.4129636153" lon="17.7662332467">
        <ele>113.2</ele>
        <time>2012-09-11T18:09:15Z</time>
      </trkpt>
      <trkpt lat="59.4128782876" lon="17.7663064207">
        <ele>113.2</ele>
        <time>2012-09-11T18:09:17Z</time>
      </trkpt>
      <trkpt lat="59.4128339474" lon="17.7663529402">
        <ele>113.6</ele>
        <time>2012-09-11T18:09:18Z</time>
      </trkpt>
      <trkpt lat="59.4127906129" lon="17.7663990407">
        <ele>114</ele>
        <time>2012-09-11T18:09:19Z</time>
      </trkpt>
      <trkpt lat="59.4127485358" lon="17.7664444706">
        <ele>114.4</ele>
        <time>2012-09-11T18:09:20Z</time>
      </trkpt>
      <trkpt lat="59.4127079674" lon="17.7664853742">
        <ele>114.8</ele>
        <time>2012-09-11T18:09:21Z</time>
      </trkpt>
      <trkpt lat="59.4126658064" lon="17.7665271161">
        <ele>115.2</ele>
        <time>2012-09-11T18:09:22Z</time>
      </trkpt>
      <trkpt lat="59.4125777965" lon="17.7666087558">
        <ele>115.2</ele>
        <time>2012-09-11T18:09:24Z</time>
      </trkpt>
      <trkpt lat="59.412379816" lon="17.7667504099">
        <ele>115.2</ele>
        <time>2012-09-11T18:09:28Z</time>
      </trkpt>
      <trkpt lat="59.4122267625" lon="17.7668636494">
        <ele>115.2</ele>
        <time>2012-09-11T18:09:31Z</time>
      </trkpt>
      <trkpt lat="59.411808841" lon="17.7672239034">
        <ele>115.2</ele>
        <time>2012-09-11T18:09:39Z</time>
      </trkpt>
      <trkpt lat="59.4117584658" lon="17.7672726861">
        <ele>115.6</ele>
        <time>2012-09-11T18:09:40Z</time>
      </trkpt>
      <trkpt lat="59.4117053245" lon="17.7673231451">
        <ele>116</ele>
        <time>2012-09-11T18:09:41Z</time>
      </trkpt>
      <trkpt lat="59.4116540273" lon="17.767369078">
        <ele>116.6</ele>
        <time>2012-09-11T18:09:42Z</time>
      </trkpt>
      <trkpt lat="59.4116026462" lon="17.7674096463">
        <ele>117</ele>
        <time>2012-09-11T18:09:43Z</time>
      </trkpt>
      <trkpt lat="59.4115547018" lon="17.7674524779">
        <ele>117.4</ele>
        <time>2012-09-11T18:09:44Z</time>
      </trkpt>
      <trkpt lat="59.4114230221" lon="17.7675745183">
        <ele>117.4</ele>
        <time>2012-09-11T18:09:47Z</time>
      </trkpt>
      <trkpt lat="59.4111838027" lon="17.7678111394">
        <ele>117.4</ele>
        <time>2012-09-11T18:09:53Z</time>
      </trkpt>
      <trkpt lat="59.4111420608" lon="17.7678678848">
        <ele>117.4</ele>
        <time>2012-09-11T18:09:55Z</time>
      </trkpt>
      <trkpt lat="59.4111478443" lon="17.7679104649">
        <ele>117.4</ele>
        <time>2012-09-11T18:09:56Z</time>
      </trkpt>
      <trkpt lat="59.4112196772" lon="17.7678473492">
        <ele>117.4</ele>
        <time>2012-09-11T18:09:59Z</time>
      </trkpt>
      <trkpt lat="59.4112278915" lon="17.7677967225">
        <ele>117.4</ele>
        <time>2012-09-11T18:10:00Z</time>
      </trkpt>
      <trkpt lat="59.4111853953" lon="17.7678737521">
        <ele>117.4</ele>
        <time>2012-09-11T18:10:55Z</time>
      </trkpt>
      <trkpt lat="59.4111316673" lon="17.7679255523">
        <ele>117.8</ele>
        <time>2012-09-11T18:10:58Z</time>
      </trkpt>
      <trkpt lat="59.4111123051" lon="17.7679300785">
        <ele>118.4</ele>
        <time>2012-09-11T18:10:59Z</time>
      </trkpt>
      <trkpt lat="59.4110855668" lon="17.7679361135">
        <ele>118.8</ele>
        <time>2012-09-11T18:11:00Z</time>
      </trkpt>
      <trkpt lat="59.4110538833" lon="17.7679392148">
        <ele>119.2</ele>
        <time>2012-09-11T18:11:01Z</time>
      </trkpt>
      <trkpt lat="59.411022032" lon="17.7679441601">
        <ele>119.6</ele>
        <time>2012-09-11T18:11:02Z</time>
      </trkpt>
      <trkpt lat="59.4109792005" lon="17.7679665398">
        <ele>119.6</ele>
        <time>2012-09-11T18:11:03Z</time>
      </trkpt>
      <trkpt lat="59.4108871673" lon="17.7680399652">
        <ele>119.6</ele>
        <time>2012-09-11T18:11:05Z</time>
      </trkpt>
      <trkpt lat="59.4108405639" lon="17.7680841378">
        <ele>119.6</ele>
        <time>2012-09-11T18:11:06Z</time>
      </trkpt>
      <trkpt lat="59.410796978" lon="17.7681336749">
        <ele>120</ele>
        <time>2012-09-11T18:11:07Z</time>
      </trkpt>
      <trkpt lat="59.4107523025" lon="17.7681901689">
        <ele>120.4</ele>
        <time>2012-09-11T18:11:08Z</time>
      </trkpt>
      <trkpt lat="59.4107108959" lon="17.7682557992">
        <ele>121</ele>
        <time>2012-09-11T18:11:09Z</time>
      </trkpt>
      <trkpt lat="59.4106717524" lon="17.7683199207">
        <ele>121.4</ele>
        <time>2012-09-11T18:11:10Z</time>
      </trkpt>
      <trkpt lat="59.4106351235" lon="17.7683856348">
        <ele>121.8</ele>
        <time>2012-09-11T18:11:11Z</time>
      </trkpt>
      <trkpt lat="59.410590448" lon="17.768427209">
        <ele>121.8</ele>
        <time>2012-09-11T18:11:12Z</time>
      </trkpt>
      <trkpt lat="59.410480226" lon="17.7683198369">
        <ele>121.8</ele>
        <time>2012-09-11T18:11:15Z</time>
      </trkpt>
      <trkpt lat="59.4104599418" lon="17.7680971298">
        <ele>121.8</ele>
        <time>2012-09-11T18:11:17Z</time>
      </trkpt>
      <trkpt lat="59.4104418369" lon="17.7679855667">
        <ele>121.8</ele>
        <time>2012-09-11T18:11:18Z</time>
      </trkpt>
      <trkpt lat="59.4103902044" lon="17.7674772045">
        <ele>121.8</ele>
        <time>2012-09-11T18:11:22Z</time>
      </trkpt>
      <trkpt lat="59.4103849238" lon="17.7673589359">
        <ele>121.4</ele>
        <time>2012-09-11T18:11:23Z</time>
      </trkpt>
      <trkpt lat="59.4103802299" lon="17.7672454449">
        <ele>121</ele>
        <time>2012-09-11T18:11:24Z</time>
      </trkpt>
      <trkpt lat="59.4103657293" lon="17.7671440239">
        <ele>120.6</ele>
        <time>2012-09-11T18:11:25Z</time>
      </trkpt>
      <trkpt lat="59.4103440201" lon="17.7670483026">
        <ele>120.2</ele>
        <time>2012-09-11T18:11:26Z</time>
      </trkpt>
      <trkpt lat="59.4103203832" lon="17.7669521622">
        <ele>119.6</ele>
        <time>2012-09-11T18:11:27Z</time>
      </trkpt>
      <trkpt lat="59.410222734" lon="17.7666155451">
        <ele>119.2</ele>
        <time>2012-09-11T18:11:30Z</time>
      </trkpt>
      <trkpt lat="59.4101816627" lon="17.7665060775">
        <ele>118.8</ele>
        <time>2012-09-11T18:11:31Z</time>
      </trkpt>
      <trkpt lat="59.4101410105" lon="17.7663858811">
        <ele>118.4</ele>
        <time>2012-09-11T18:11:32Z</time>
      </trkpt>
      <trkpt lat="59.4101044654" lon="17.7662732283">
        <ele>118</ele>
        <time>2012-09-11T18:11:33Z</time>
      </trkpt>
      <trkpt lat="59.4100655734" lon="17.7661801054">
        <ele>117.4</ele>
        <time>2012-09-11T18:11:34Z</time>
      </trkpt>
      <trkpt lat="59.4100159526" lon="17.7661140561">
        <ele>117</ele>
        <time>2012-09-11T18:11:35Z</time>
      </trkpt>
      <trkpt lat="59.4099511605" lon="17.7660702187">
        <ele>116.6</ele>
        <time>2012-09-11T18:11:36Z</time>
      </trkpt>
      <trkpt lat="59.4098911461" lon="17.7660425585">
        <ele>116.2</ele>
        <time>2012-09-11T18:11:37Z</time>
      </trkpt>
      <trkpt lat="59.4098258511" lon="17.7660075221">
        <ele>115.8</ele>
        <time>2012-09-11T18:11:38Z</time>
      </trkpt>
      <trkpt lat="59.4097575386" lon="17.7659599129">
        <ele>115.2</ele>
        <time>2012-09-11T18:11:39Z</time>
      </trkpt>
      <trkpt lat="59.4096891423" lon="17.7659310792">
        <ele>115.2</ele>
        <time>2012-09-11T18:11:40Z</time>
      </trkpt>
      <trkpt lat="59.4095430458" lon="17.7658604198">
        <ele>115.2</ele>
        <time>2012-09-11T18:11:42Z</time>
      </trkpt>
      <trkpt lat="59.4092444825" lon="17.7656829749">
        <ele>114.8</ele>
        <time>2012-09-11T18:11:46Z</time>
      </trkpt>
      <trkpt lat="59.4091707218" lon="17.7656702345">
        <ele>114.4</ele>
        <time>2012-09-11T18:11:47Z</time>
      </trkpt>
      <trkpt lat="59.4090941112" lon="17.7656638642">
        <ele>114</ele>
        <time>2012-09-11T18:11:48Z</time>
      </trkpt>
      <trkpt lat="59.4090177521" lon="17.7656553147">
        <ele>113.4</ele>
        <time>2012-09-11T18:11:49Z</time>
      </trkpt>
      <trkpt lat="59.4089512836" lon="17.7656336894">
        <ele>113</ele>
        <time>2012-09-11T18:11:50Z</time>
      </trkpt>
      <trkpt lat="59.4088216995" lon="17.765627822">
        <ele>113</ele>
        <time>2012-09-11T18:11:52Z</time>
      </trkpt>
      <trkpt lat="59.4083658917" lon="17.7656633613">
        <ele>113</ele>
        <time>2012-09-11T18:12:00Z</time>
      </trkpt>
      <trkpt lat="59.4083096492" lon="17.7656847351">
        <ele>113</ele>
        <time>2012-09-11T18:12:01Z</time>
      </trkpt>
      <trkpt lat="59.4082002654" lon="17.7657472641">
        <ele>113</ele>
        <time>2012-09-11T18:12:03Z</time>
      </trkpt>
      <trkpt lat="59.4080914683" lon="17.7658388783">
        <ele>113</ele>
        <time>2012-09-11T18:12:05Z</time>
      </trkpt>
      <trkpt lat="59.4078705214" lon="17.7660508565">
        <ele>113</ele>
        <time>2012-09-11T18:12:10Z</time>
      </trkpt>
      <trkpt lat="59.4076603872" lon="17.7661843802">
        <ele>113</ele>
        <time>2012-09-11T18:12:16Z</time>
      </trkpt>
      <trkpt lat="59.4074698666" lon="17.7661723103">
        <ele>113</ele>
        <time>2012-09-11T18:12:20Z</time>
      </trkpt>
      <trkpt lat="59.4073775819" lon="17.7661443147">
        <ele>113</ele>
        <time>2012-09-11T18:12:22Z</time>
      </trkpt>
      <trkpt lat="59.4072626661" lon="17.7660868149">
        <ele>113.4</ele>
        <time>2012-09-11T18:12:25Z</time>
      </trkpt>
      <trkpt lat="59.407223355" lon="17.76605203">
        <ele>113.8</ele>
        <time>2012-09-11T18:12:26Z</time>
      </trkpt>
      <trkpt lat="59.4071807749" lon="17.7660085279">
        <ele>114.2</ele>
        <time>2012-09-11T18:12:27Z</time>
      </trkpt>
      <trkpt lat="59.4071384463" lon="17.7659717314">
        <ele>114.6</ele>
        <time>2012-09-11T18:12:28Z</time>
      </trkpt>
      <trkpt lat="59.4070859756" lon="17.7659426462">
        <ele>115.2</ele>
        <time>2012-09-11T18:12:29Z</time>
      </trkpt>
      <trkpt lat="59.407030236" lon="17.7659181711">
        <ele>115.2</ele>
        <time>2012-09-11T18:12:30Z</time>
      </trkpt>
      <trkpt lat="59.4068258014" lon="17.7657356133">
        <ele>115.2</ele>
        <time>2012-09-11T18:12:34Z</time>
      </trkpt>
      <trkpt lat="59.4067549744" lon="17.7656412331">
        <ele>115.2</ele>
        <time>2012-09-11T18:12:36Z</time>
      </trkpt>
      <trkpt lat="59.4067256377" lon="17.7656057776">
        <ele>114.6</ele>
        <time>2012-09-11T18:12:37Z</time>
      </trkpt>
      <trkpt lat="59.4066845664" lon="17.7655669695">
        <ele>114.2</ele>
        <time>2012-09-11T18:12:38Z</time>
      </trkpt>
      <trkpt lat="59.406645842" lon="17.7655353697">
        <ele>113.8</ele>
        <time>2012-09-11T18:12:39Z</time>
      </trkpt>
      <trkpt lat="59.4066071177" lon="17.7655119004">
        <ele>113.4</ele>
        <time>2012-09-11T18:12:40Z</time>
      </trkpt>
      <trkpt lat="59.4065663816" lon="17.7654811388">
        <ele>112.2</ele>
        <time>2012-09-11T18:12:41Z</time>
      </trkpt>
      <trkpt lat="59.4065155035" lon="17.7654510478">
        <ele>111.6</ele>
        <time>2012-09-11T18:12:42Z</time>
      </trkpt>
      <trkpt lat="59.40645968" lon="17.7654303445">
        <ele>110.8</ele>
        <time>2012-09-11T18:12:43Z</time>
      </trkpt>
      <trkpt lat="59.4064045271" lon="17.7654217111">
        <ele>110.2</ele>
        <time>2012-09-11T18:12:44Z</time>
      </trkpt>
      <trkpt lat="59.4063482846" lon="17.7654191966">
        <ele>109.6</ele>
        <time>2012-09-11T18:12:45Z</time>
      </trkpt>
      <trkpt lat="59.4062917906" lon="17.7654133292">
        <ele>108.8</ele>
        <time>2012-09-11T18:12:46Z</time>
      </trkpt>
      <trkpt lat="59.4062420859" lon="17.7653839926">
        <ele>108.2</ele>
        <time>2012-09-11T18:12:47Z</time>
      </trkpt>
      <trkpt lat="59.4061921298" lon="17.7653368025">
        <ele>107.4</ele>
        <time>2012-09-11T18:12:48Z</time>
      </trkpt>
      <trkpt lat="59.4061453588" lon="17.765284248">
        <ele>106.8</ele>
        <time>2012-09-11T18:12:49Z</time>
      </trkpt>
      <trkpt lat="59.4060971629" lon="17.7652241497">
        <ele>106.2</ele>
        <time>2012-09-11T18:12:50Z</time>
      </trkpt>
      <trkpt lat="59.4060413394" lon="17.7651638839">
        <ele>105.6</ele>
        <time>2012-09-11T18:12:51Z</time>
      </trkpt>
      <trkpt lat="59.4059791457" lon="17.7651203818">
        <ele>105</ele>
        <time>2012-09-11T18:12:52Z</time>
      </trkpt>
      <trkpt lat="59.4059047144" lon="17.7650633011">
        <ele>104.4</ele>
        <time>2012-09-11T18:12:53Z</time>
      </trkpt>
      <trkpt lat="59.4058363181" lon="17.7649921387">
        <ele>103.8</ele>
        <time>2012-09-11T18:12:54Z</time>
      </trkpt>
      <trkpt lat="59.4057124337" lon="17.7648333856">
        <ele>103.2</ele>
        <time>2012-09-11T18:12:56Z</time>
      </trkpt>
      <trkpt lat="59.4056528383" lon="17.7647695993">
        <ele>102.8</ele>
        <time>2012-09-11T18:12:57Z</time>
      </trkpt>
      <trkpt lat="59.4055888006" lon="17.7647239179">
        <ele>102.4</ele>
        <time>2012-09-11T18:12:58Z</time>
      </trkpt>
      <trkpt lat="59.4055274451" lon="17.7646948328">
        <ele>101.8</ele>
        <time>2012-09-11T18:12:59Z</time>
      </trkpt>
      <trkpt lat="59.4054645809" lon="17.7646904742">
        <ele>101.4</ele>
        <time>2012-09-11T18:13:00Z</time>
      </trkpt>
      <trkpt lat="59.4054038959" lon="17.7646777337">
        <ele>101.4</ele>
        <time>2012-09-11T18:13:01Z</time>
      </trkpt>
      <trkpt lat="59.4052400298" lon="17.764678991">
        <ele>101.4</ele>
        <time>2012-09-11T18:13:05Z</time>
      </trkpt>
      <trkpt lat="59.4052083462" lon="17.7647074894">
        <ele>102.2</ele>
        <time>2012-09-11T18:13:06Z</time>
      </trkpt>
      <trkpt lat="59.4051767464" lon="17.7647506562">
        <ele>102.6</ele>
        <time>2012-09-11T18:13:07Z</time>
      </trkpt>
      <trkpt lat="59.4051456496" lon="17.7647962537">
        <ele>103</ele>
        <time>2012-09-11T18:13:08Z</time>
      </trkpt>
      <trkpt lat="59.4051109485" lon="17.7648414322">
        <ele>103.4</ele>
        <time>2012-09-11T18:13:09Z</time>
      </trkpt>
      <trkpt lat="59.4050020676" lon="17.7649405062">
        <ele>103.8</ele>
        <time>2012-09-11T18:13:12Z</time>
      </trkpt>
      <trkpt lat="59.4049630918" lon="17.764957773">
        <ele>104.2</ele>
        <time>2012-09-11T18:13:13Z</time>
      </trkpt>
      <trkpt lat="59.4049266305" lon="17.7649682503">
        <ele>104.6</ele>
        <time>2012-09-11T18:13:14Z</time>
      </trkpt>
      <trkpt lat="59.4048884091" lon="17.7649465412">
        <ele>105</ele>
        <time>2012-09-11T18:13:15Z</time>
      </trkpt>
      <trkpt lat="59.4048511934" lon="17.7649172884">
        <ele>105.4</ele>
        <time>2012-09-11T18:13:16Z</time>
      </trkpt>
      <trkpt lat="59.4048084457" lon="17.7648792346">
        <ele>105.4</ele>
        <time>2012-09-11T18:13:17Z</time>
      </trkpt>
      <trkpt lat="59.4047006545" lon="17.7647572779">
        <ele>105.4</ele>
        <time>2012-09-11T18:13:20Z</time>
      </trkpt>
      <trkpt lat="59.4046636065" lon="17.7647352335">
        <ele>105.8</ele>
        <time>2012-09-11T18:13:21Z</time>
      </trkpt>
      <trkpt lat="59.4046348566" lon="17.7647325513">
        <ele>106.4</ele>
        <time>2012-09-11T18:13:22Z</time>
      </trkpt>
      <trkpt lat="59.4046058552" lon="17.7647352335">
        <ele>106.8</ele>
        <time>2012-09-11T18:13:23Z</time>
      </trkpt>
      <trkpt lat="59.4045764347" lon="17.7647483931">
        <ele>107.2</ele>
        <time>2012-09-11T18:13:24Z</time>
      </trkpt>
      <trkpt lat="59.4045444159" lon="17.7647742932">
        <ele>107.6</ele>
        <time>2012-09-11T18:13:25Z</time>
      </trkpt>
      <trkpt lat="59.4044802105" lon="17.7648281888">
        <ele>108</ele>
        <time>2012-09-11T18:13:27Z</time>
      </trkpt>
      <trkpt lat="59.4044404803" lon="17.7648185496">
        <ele>108.4</ele>
        <time>2012-09-11T18:13:28Z</time>
      </trkpt>
      <trkpt lat="59.4044004148" lon="17.7648036298">
        <ele>108.8</ele>
        <time>2012-09-11T18:13:29Z</time>
      </trkpt>
      <trkpt lat="59.4043657138" lon="17.7647869498">
        <ele>109.4</ele>
        <time>2012-09-11T18:13:30Z</time>
      </trkpt>
      <trkpt lat="59.4043281629" lon="17.7647748799">
        <ele>109.8</ele>
        <time>2012-09-11T18:13:31Z</time>
      </trkpt>
      <trkpt lat="59.4042702439" lon="17.7647585352">
        <ele>109.8</ele>
        <time>2012-09-11T18:13:33Z</time>
      </trkpt>
      <trkpt lat="59.4041746903" lon="17.7647431963">
        <ele>110.2</ele>
        <time>2012-09-11T18:13:36Z</time>
      </trkpt>
      <trkpt lat="59.4041454375" lon="17.7647389215">
        <ele>110.6</ele>
        <time>2012-09-11T18:13:37Z</time>
      </trkpt>
      <trkpt lat="59.404116017" lon="17.7647494827">
        <ele>111</ele>
        <time>2012-09-11T18:13:38Z</time>
      </trkpt>
      <trkpt lat="59.4040829085" lon="17.7647480578">
        <ele>111.6</ele>
        <time>2012-09-11T18:13:39Z</time>
      </trkpt>
      <trkpt lat="59.4040580981" lon="17.7647349821">
        <ele>112</ele>
        <time>2012-09-11T18:13:40Z</time>
      </trkpt>
      <trkpt lat="59.4040077228" lon="17.7647099202">
        <ele>112</ele>
        <time>2012-09-11T18:13:42Z</time>
      </trkpt>
      <trkpt lat="59.4039880254" lon="17.7646830981">
        <ele>112.4</ele>
        <time>2012-09-11T18:13:43Z</time>
      </trkpt>
      <trkpt lat="59.4039731894" lon="17.7646543482">
        <ele>112.8</ele>
        <time>2012-09-11T18:13:44Z</time>
      </trkpt>
      <trkpt lat="59.4039588564" lon="17.7646261012">
        <ele>113.4</ele>
        <time>2012-09-11T18:13:45Z</time>
      </trkpt>
      <trkpt lat="59.4039529052" lon="17.7645894723">
        <ele>113.8</ele>
        <time>2012-09-11T18:13:46Z</time>
      </trkpt>
      <trkpt lat="59.403946535" lon="17.7645544359">
        <ele>114.2</ele>
        <time>2012-09-11T18:13:47Z</time>
      </trkpt>
      <trkpt lat="59.4039316152" lon="17.7645273624">
        <ele>114.2</ele>
        <time>2012-09-11T18:13:48Z</time>
      </trkpt>
      <trkpt lat="59.4039109119" lon="17.7645055695">
        <ele>114.8</ele>
        <time>2012-09-11T18:13:49Z</time>
      </trkpt>
      <trkpt lat="59.4038879455" lon="17.7644938348">
        <ele>115.2</ele>
        <time>2012-09-11T18:13:50Z</time>
      </trkpt>
      <trkpt lat="59.4038635542" lon="17.7644914879">
        <ele>115.8</ele>
        <time>2012-09-11T18:13:51Z</time>
      </trkpt>
      <trkpt lat="59.4038422641" lon="17.7644898953">
        <ele>116.2</ele>
        <time>2012-09-11T18:13:52Z</time>
      </trkpt>
      <trkpt lat="59.4038255003" lon="17.7644876322">
        <ele>116.8</ele>
        <time>2012-09-11T18:13:53Z</time>
      </trkpt>
      <trkpt lat="59.4037850996" lon="17.7644577088">
        <ele>117.6</ele>
        <time>2012-09-11T18:13:55Z</time>
      </trkpt>
      <trkpt lat="59.4037633904" lon="17.7644442139">
        <ele>118</ele>
        <time>2012-09-11T18:13:56Z</time>
      </trkpt>
      <trkpt lat="59.4037422681" lon="17.7644285398">
        <ele>118.4</ele>
        <time>2012-09-11T18:13:57Z</time>
      </trkpt>
      <trkpt lat="59.4037219839" lon="17.7644122789">
        <ele>118.8</ele>
        <time>2012-09-11T18:13:58Z</time>
      </trkpt>
      <trkpt lat="59.4037073155" lon="17.7643944255">
        <ele>118.8</ele>
        <time>2012-09-11T18:13:59Z</time>
      </trkpt>
      <trkpt lat="59.4036949103" lon="17.7643635801">
        <ele>118.8</ele>
        <time>2012-09-11T18:14:00Z</time>
      </trkpt>
      <trkpt lat="59.4036804935" lon="17.7643443017">
        <ele>119.2</ele>
        <time>2012-09-11T18:14:01Z</time>
      </trkpt>
      <trkpt lat="59.4036493966" lon="17.7643315612">
        <ele>119.6</ele>
        <time>2012-09-11T18:14:02Z</time>
      </trkpt>
      <trkpt lat="59.4036138574" lon="17.7643245204">
        <ele>120</ele>
        <time>2012-09-11T18:14:03Z</time>
      </trkpt>
      <trkpt lat="59.4035783181" lon="17.7643214191">
        <ele>120.4</ele>
        <time>2012-09-11T18:14:04Z</time>
      </trkpt>
      <trkpt lat="59.4035458801" lon="17.7643184854">
        <ele>120.8</ele>
        <time>2012-09-11T18:14:05Z</time>
      </trkpt>
      <trkpt lat="59.4034380889" lon="17.7643350816">
        <ele>120.8</ele>
        <time>2012-09-11T18:14:09Z</time>
      </trkpt>
      <trkpt lat="59.403375979" lon="17.7643607302">
        <ele>121.2</ele>
        <time>2012-09-11T18:14:11Z</time>
      </trkpt>
      <trkpt lat="59.4033426191" lon="17.7643769911">
        <ele>121.6</ele>
        <time>2012-09-11T18:14:12Z</time>
      </trkpt>
      <trkpt lat="59.4033049005" lon="17.7643858759">
        <ele>122.2</ele>
        <time>2012-09-11T18:14:13Z</time>
      </trkpt>
      <trkpt lat="59.4032634101" lon="17.76439233">
        <ele>122.6</ele>
        <time>2012-09-11T18:14:14Z</time>
      </trkpt>
      <trkpt lat="59.4032313913" lon="17.764402975">
        <ele>123</ele>
        <time>2012-09-11T18:14:15Z</time>
      </trkpt>
      <trkpt lat="59.4029995479" lon="17.7644004604">
        <ele>123</ele>
        <time>2012-09-11T18:14:21Z</time>
      </trkpt>
      <trkpt lat="59.4028352627" lon="17.7643401946">
        <ele>123</ele>
        <time>2012-09-11T18:14:24Z</time>
      </trkpt>
      <trkpt lat="59.4027771761" lon="17.7643184016">
        <ele>123</ele>
        <time>2012-09-11T18:14:25Z</time>
      </trkpt>
      <trkpt lat="59.4026273915" lon="17.7642819404">
        <ele>123</ele>
        <time>2012-09-11T18:14:28Z</time>
      </trkpt>
      <trkpt lat="59.4025434049" lon="17.7643204133">
        <ele>123</ele>
        <time>2012-09-11T18:14:30Z</time>
      </trkpt>
      <trkpt lat="59.4024855698" lon="17.7644014663">
        <ele>123</ele>
        <time>2012-09-11T18:14:32Z</time>
      </trkpt>
      <trkpt lat="59.4024318418" lon="17.7644747241">
        <ele>123</ele>
        <time>2012-09-11T18:14:34Z</time>
      </trkpt>
      <trkpt lat="59.4022860806" lon="17.7645278653">
        <ele>123</ele>
        <time>2012-09-11T18:14:38Z</time>
      </trkpt>
      <trkpt lat="59.4022540617" lon="17.7645755583">
        <ele>123</ele>
        <time>2012-09-11T18:14:39Z</time>
      </trkpt>
      <trkpt lat="59.4021788761" lon="17.76465351">
        <ele>123</ele>
        <time>2012-09-11T18:14:41Z</time>
      </trkpt>
      <trkpt lat="59.4021160118" lon="17.7647508238">
        <ele>123</ele>
        <time>2012-09-11T18:14:43Z</time>
      </trkpt>
      <trkpt lat="59.4020316061" lon="17.7649208088">
        <ele>123</ele>
        <time>2012-09-11T18:14:46Z</time>
      </trkpt>
      <trkpt lat="59.4018985015" lon="17.7650927215">
        <ele>123</ele>
        <time>2012-09-11T18:14:51Z</time>
      </trkpt>
      <trkpt lat="59.4018679076" lon="17.7651214715">
        <ele>123.4</ele>
        <time>2012-09-11T18:14:52Z</time>
      </trkpt>
      <trkpt lat="59.4018369784" lon="17.7651642192">
        <ele>123.8</ele>
        <time>2012-09-11T18:14:53Z</time>
      </trkpt>
      <trkpt lat="59.4018151016" lon="17.7652135885">
        <ele>124.2</ele>
        <time>2012-09-11T18:14:54Z</time>
      </trkpt>
      <trkpt lat="59.4017891177" lon="17.7652706693">
        <ele>124.6</ele>
        <time>2012-09-11T18:14:55Z</time>
      </trkpt>
      <trkpt lat="59.4017711805" lon="17.7653348746">
        <ele>125</ele>
        <time>2012-09-11T18:14:56Z</time>
      </trkpt>
      <trkpt lat="59.4017592782" lon="17.7654471083">
        <ele>125</ele>
        <time>2012-09-11T18:14:58Z</time>
      </trkpt>
      <trkpt lat="59.4017473759" lon="17.7655408179">
        <ele>125</ele>
        <time>2012-09-11T18:15:00Z</time>
      </trkpt>
      <trkpt lat="59.4016949052" lon="17.7657289916">
        <ele>125</ele>
        <time>2012-09-11T18:15:04Z</time>
      </trkpt>
      <trkpt lat="59.4016486371" lon="17.7659142316">
        <ele>125</ele>
        <time>2012-09-11T18:15:09Z</time>
      </trkpt>
      <trkpt lat="59.4016524089" lon="17.7659554705">
        <ele>125</ele>
        <time>2012-09-11T18:15:10Z</time>
      </trkpt>
      <trkpt lat="59.4016668258" lon="17.7660863958">
        <ele>125</ele>
        <time>2012-09-11T18:15:13Z</time>
      </trkpt>
      <trkpt lat="59.4016695918" lon="17.7662036586">
        <ele>125</ele>
        <time>2012-09-11T18:15:15Z</time>
      </trkpt>
      <trkpt lat="59.4016856851" lon="17.7662981226">
        <ele>125.4</ele>
        <time>2012-09-11T18:15:17Z</time>
      </trkpt>
      <trkpt lat="59.4017002696" lon="17.7663458994">
        <ele>125.8</ele>
        <time>2012-09-11T18:15:18Z</time>
      </trkpt>
      <trkpt lat="59.4017021974" lon="17.766381271">
        <ele>126.4</ele>
        <time>2012-09-11T18:15:19Z</time>
      </trkpt>
      <trkpt lat="59.4017004372" lon="17.7664158883">
        <ele>126.8</ele>
        <time>2012-09-11T18:15:20Z</time>
      </trkpt>
      <trkpt lat="59.4017011916" lon="17.7664401958">
        <ele>127.2</ele>
        <time>2012-09-11T18:15:21Z</time>
      </trkpt>
      <trkpt lat="59.4016992638" lon="17.7664951811">
        <ele>127.6</ele>
        <time>2012-09-11T18:15:23Z</time>
      </trkpt>
      <trkpt lat="59.4016985932" lon="17.766527619">
        <ele>128</ele>
        <time>2012-09-11T18:15:24Z</time>
      </trkpt>
      <trkpt lat="59.4016972521" lon="17.7665614819">
        <ele>128.4</ele>
        <time>2012-09-11T18:15:25Z</time>
      </trkpt>
      <trkpt lat="59.4016998505" lon="17.7665945066">
        <ele>128.8</ele>
        <time>2012-09-11T18:15:26Z</time>
      </trkpt>
      <trkpt lat="59.4016964139" lon="17.7666332309">
        <ele>129.4</ele>
        <time>2012-09-11T18:15:27Z</time>
      </trkpt>
      <trkpt lat="59.4017192965" lon="17.766810592">
        <ele>129.4</ele>
        <time>2012-09-11T18:15:31Z</time>
      </trkpt>
      <trkpt lat="59.4017307797" lon="17.7669324648">
        <ele>130.2</ele>
        <time>2012-09-11T18:15:34Z</time>
      </trkpt>
      <trkpt lat="59.4017392454" lon="17.7669487257">
        <ele>130.6</ele>
        <time>2012-09-11T18:15:35Z</time>
      </trkpt>
      <trkpt lat="59.4017503095" lon="17.7669787329">
        <ele>131</ele>
        <time>2012-09-11T18:15:36Z</time>
      </trkpt>
      <trkpt lat="59.40176305" lon="17.7670202233">
        <ele>131.4</ele>
        <time>2012-09-11T18:15:37Z</time>
      </trkpt>
      <trkpt lat="59.401773695" lon="17.7670552596">
        <ele>131.4</ele>
        <time>2012-09-11T18:15:38Z</time>
      </trkpt>
      <trkpt lat="59.4017949851" lon="17.7671652301">
        <ele>131.4</ele>
        <time>2012-09-11T18:15:42Z</time>
      </trkpt>
      <trkpt lat="59.4018214719" lon="17.7674207943">
        <ele>131.4</ele>
        <time>2012-09-11T18:15:47Z</time>
      </trkpt>
      <trkpt lat="59.4018125032" lon="17.7674993327">
        <ele>131.8</ele>
        <time>2012-09-11T18:15:48Z</time>
      </trkpt>
      <trkpt lat="59.4018105754" lon="17.7675775358">
        <ele>132.2</ele>
        <time>2012-09-11T18:15:49Z</time>
      </trkpt>
      <trkpt lat="59.4018063006" lon="17.7676509612">
        <ele>132.6</ele>
        <time>2012-09-11T18:15:50Z</time>
      </trkpt>
      <trkpt lat="59.4018099048" lon="17.7677154181">
        <ele>133</ele>
        <time>2012-09-11T18:15:51Z</time>
      </trkpt>
      <trkpt lat="59.4018148502" lon="17.76778767">
        <ele>133.6</ele>
        <time>2012-09-11T18:15:52Z</time>
      </trkpt>
      <trkpt lat="59.4018253275" lon="17.7678610955">
        <ele>133.6</ele>
        <time>2012-09-11T18:15:54Z</time>
      </trkpt>
      <trkpt lat="59.4018345476" lon="17.7679062739">
        <ele>133.6</ele>
        <time>2012-09-11T18:15:55Z</time>
      </trkpt>
      <trkpt lat="59.4018986692" lon="17.7682085252">
        <ele>133.6</ele>
        <time>2012-09-11T18:16:00Z</time>
      </trkpt>
      <trkpt lat="59.401907554" lon="17.7683705474">
        <ele>133.6</ele>
        <time>2012-09-11T18:16:03Z</time>
      </trkpt>
      <trkpt lat="59.4019083083" lon="17.768393849">
        <ele>133.6</ele>
        <time>2012-09-11T18:16:04Z</time>
      </trkpt>
      <trkpt lat="59.4019249045" lon="17.7684380217">
        <ele>133.6</ele>
        <time>2012-09-11T18:16:06Z</time>
      </trkpt>
      <trkpt lat="59.4019379803" lon="17.7685372634">
        <ele>133.6</ele>
        <time>2012-09-11T18:16:08Z</time>
      </trkpt>
      <trkpt lat="59.4019736872" lon="17.7686528498">
        <ele>133</ele>
        <time>2012-09-11T18:16:11Z</time>
      </trkpt>
      <trkpt lat="59.4019824043" lon="17.7686959327">
        <ele>132.6</ele>
        <time>2012-09-11T18:16:12Z</time>
      </trkpt>
      <trkpt lat="59.4019893613" lon="17.768734238">
        <ele>132.2</ele>
        <time>2012-09-11T18:16:13Z</time>
      </trkpt>
      <trkpt lat="59.402000174" lon="17.7687771533">
        <ele>131.8</ele>
        <time>2012-09-11T18:16:14Z</time>
      </trkpt>
      <trkpt lat="59.4020120763" lon="17.7688260198">
        <ele>131.2</ele>
        <time>2012-09-11T18:16:15Z</time>
      </trkpt>
      <trkpt lat="59.4020656366" lon="17.7689801629">
        <ele>131.2</ele>
        <time>2012-09-11T18:16:18Z</time>
      </trkpt>
      <trkpt lat="59.4021124076" lon="17.7690710227">
        <ele>130.8</ele>
        <time>2012-09-11T18:16:21Z</time>
      </trkpt>
      <trkpt lat="59.4021218792" lon="17.7690983477">
        <ele>130.4</ele>
        <time>2012-09-11T18:16:22Z</time>
      </trkpt>
      <trkpt lat="59.4021331947" lon="17.769121398">
        <ele>130</ele>
        <time>2012-09-11T18:16:23Z</time>
      </trkpt>
      <trkpt lat="59.4021385591" lon="17.7691512375">
        <ele>129.2</ele>
        <time>2012-09-11T18:16:24Z</time>
      </trkpt>
      <trkpt lat="59.402121041" lon="17.7693716815">
        <ele>129.2</ele>
        <time>2012-09-11T18:16:28Z</time>
      </trkpt>
      <trkpt lat="59.4021146707" lon="17.7694522316">
        <ele>129.2</ele>
        <time>2012-09-11T18:16:29Z</time>
      </trkpt>
      <trkpt lat="59.4021164309" lon="17.7697273255">
        <ele>129.2</ele>
        <time>2012-09-11T18:16:33Z</time>
      </trkpt>
      <trkpt lat="59.4022156726" lon="17.7700227037">
        <ele>129.2</ele>
        <time>2012-09-11T18:16:38Z</time>
      </trkpt>
      <trkpt lat="59.4023246373" lon="17.7702589894">
        <ele>129.2</ele>
        <time>2012-09-11T18:16:43Z</time>
      </trkpt>
      <trkpt lat="59.4024213644" lon="17.7704177426">
        <ele>129.2</ele>
        <time>2012-09-11T18:16:48Z</time>
      </trkpt>
      <trkpt lat="59.4025309997" lon="17.7706692834">
        <ele>129.2</ele>
        <time>2012-09-11T18:16:54Z</time>
      </trkpt>
      <trkpt lat="59.4025955403" lon="17.7707795892">
        <ele>129.2</ele>
        <time>2012-09-11T18:16:58Z</time>
      </trkpt>
      <trkpt lat="59.4026096219" lon="17.7708115243">
        <ele>129.2</ele>
        <time>2012-09-11T18:16:59Z</time>
      </trkpt>
      <trkpt lat="59.4027097018" lon="17.7709161304">
        <ele>129.2</ele>
        <time>2012-09-11T18:17:03Z</time>
      </trkpt>
      <trkpt lat="59.402736021" lon="17.7709426172">
        <ele>128.8</ele>
        <time>2012-09-11T18:17:04Z</time>
      </trkpt>
      <trkpt lat="59.4027598256" lon="17.7709605545">
        <ele>128.2</ele>
        <time>2012-09-11T18:17:05Z</time>
      </trkpt>
      <trkpt lat="59.4027843845" lon="17.7709783241">
        <ele>127.8</ele>
        <time>2012-09-11T18:17:06Z</time>
      </trkpt>
      <trkpt lat="59.4028117095" lon="17.7710064035">
        <ele>127.4</ele>
        <time>2012-09-11T18:17:07Z</time>
      </trkpt>
      <trkpt lat="59.402837442" lon="17.7710245922">
        <ele>127</ele>
        <time>2012-09-11T18:17:08Z</time>
      </trkpt>
      <trkpt lat="59.402864767" lon="17.7710462175">
        <ele>127</ele>
        <time>2012-09-11T18:17:09Z</time>
      </trkpt>
      <trkpt lat="59.4030266214" lon="17.7710991073">
        <ele>127</ele>
        <time>2012-09-11T18:17:14Z</time>
      </trkpt>
      <trkpt lat="59.4031248573" lon="17.7710946649">
        <ele>126.6</ele>
        <time>2012-09-11T18:17:17Z</time>
      </trkpt>
      <trkpt lat="59.4031576305" lon="17.7710875402">
        <ele>126</ele>
        <time>2012-09-11T18:17:18Z</time>
      </trkpt>
      <trkpt lat="59.4031881407" lon="17.7710810862">
        <ele>125.6</ele>
        <time>2012-09-11T18:17:19Z</time>
      </trkpt>
      <trkpt lat="59.4032230094" lon="17.7710764761">
        <ele>125.2</ele>
        <time>2012-09-11T18:17:20Z</time>
      </trkpt>
      <trkpt lat="59.4032591353" lon="17.7710703574">
        <ele>124.6</ele>
        <time>2012-09-11T18:17:21Z</time>
      </trkpt>
      <trkpt lat="59.4032870471" lon="17.7710989396">
        <ele>124.2</ele>
        <time>2012-09-11T18:17:22Z</time>
      </trkpt>
      <trkpt lat="59.4033100135" lon="17.7711250912">
        <ele>123.8</ele>
        <time>2012-09-11T18:17:23Z</time>
      </trkpt>
      <trkpt lat="59.4033262744" lon="17.7711799926">
        <ele>123.4</ele>
        <time>2012-09-11T18:17:24Z</time>
      </trkpt>
      <trkpt lat="59.4033406912" lon="17.7712311222">
        <ele>122.8</ele>
        <time>2012-09-11T18:17:25Z</time>
      </trkpt>
      <trkpt lat="59.4033433734" lon="17.7712935673">
        <ele>122.4</ele>
        <time>2012-09-11T18:17:26Z</time>
      </trkpt>
      <trkpt lat="59.4033483188" lon="17.7714166136">
        <ele>122.4</ele>
        <time>2012-09-11T18:17:28Z</time>
      </trkpt>
      <trkpt lat="59.4033515877" lon="17.7714904582">
        <ele>122.4</ele>
        <time>2012-09-11T18:17:29Z</time>
      </trkpt>
      <trkpt lat="59.4033482349" lon="17.7717607745">
        <ele>122.8</ele>
        <time>2012-09-11T18:17:33Z</time>
      </trkpt>
      <trkpt lat="59.4033465586" lon="17.7718354572">
        <ele>123.2</ele>
        <time>2012-09-11T18:17:34Z</time>
      </trkpt>
      <trkpt lat="59.4033473129" lon="17.771907793">
        <ele>123.6</ele>
        <time>2012-09-11T18:17:35Z</time>
      </trkpt>
      <trkpt lat="59.4033511686" lon="17.7719725012">
        <ele>124</ele>
        <time>2012-09-11T18:17:36Z</time>
      </trkpt>
      <trkpt lat="59.4033518392" lon="17.7720520455">
        <ele>124.4</ele>
        <time>2012-09-11T18:17:37Z</time>
      </trkpt>
      <trkpt lat="59.4033505819" lon="17.7722400515">
        <ele>124.4</ele>
        <time>2012-09-11T18:17:39Z</time>
      </trkpt>
      <trkpt lat="59.4032784137" lon="17.7726902433">
        <ele>124.4</ele>
        <time>2012-09-11T18:17:43Z</time>
      </trkpt>
      <trkpt lat="59.4031749811" lon="17.7729980267">
        <ele>124.4</ele>
        <time>2012-09-11T18:17:47Z</time>
      </trkpt>
      <trkpt lat="59.4030061696" lon="17.7734764656">
        <ele>124.4</ele>
        <time>2012-09-11T18:17:53Z</time>
      </trkpt>
      <trkpt lat="59.4029332471" lon="17.7736418405">
        <ele>124.4</ele>
        <time>2012-09-11T18:17:55Z</time>
      </trkpt>
      <trkpt lat="59.4028588158" lon="17.7738291759">
        <ele>124.4</ele>
        <time>2012-09-11T18:17:57Z</time>
      </trkpt>
      <trkpt lat="59.4028280542" lon="17.7738881007">
        <ele>124.4</ele>
        <time>2012-09-11T18:17:58Z</time>
      </trkpt>
      <trkpt lat="59.4027222747" lon="17.7740428305">
        <ele>124.4</ele>
        <time>2012-09-11T18:18:01Z</time>
      </trkpt>
      <trkpt lat="59.4025883319" lon="17.7741699002">
        <ele>124.4</ele>
        <time>2012-09-11T18:18:04Z</time>
      </trkpt>
      <trkpt lat="59.4024517907" lon="17.7742386317">
        <ele>124.4</ele>
        <time>2012-09-11T18:18:07Z</time>
      </trkpt>
      <trkpt lat="59.4023591707" lon="17.7742903481">
        <ele>124.8</ele>
        <time>2012-09-11T18:18:09Z</time>
      </trkpt>
      <trkpt lat="59.4023226257" lon="17.7743429026">
        <ele>125.4</ele>
        <time>2012-09-11T18:18:10Z</time>
      </trkpt>
      <trkpt lat="59.4022890142" lon="17.774403839">
        <ele>125.8</ele>
        <time>2012-09-11T18:18:11Z</time>
      </trkpt>
      <trkpt lat="59.4022563248" lon="17.7744692178">
        <ele>126.2</ele>
        <time>2012-09-11T18:18:12Z</time>
      </trkpt>
      <trkpt lat="59.4022245574" lon="17.7745360215">
        <ele>126.6</ele>
        <time>2012-09-11T18:18:13Z</time>
      </trkpt>
      <trkpt lat="59.4021912813" lon="17.774605256">
        <ele>126.6</ele>
        <time>2012-09-11T18:18:14Z</time>
      </trkpt>
      <trkpt lat="59.4021212924" lon="17.7747438927">
        <ele>126.6</ele>
        <time>2012-09-11T18:18:16Z</time>
      </trkpt>
      <trkpt lat="59.4020157643" lon="17.774928043">
        <ele>126.6</ele>
        <time>2012-09-11T18:18:19Z</time>
      </trkpt>
      <trkpt lat="59.4019808956" lon="17.7749801784">
        <ele>126.6</ele>
        <time>2012-09-11T18:18:20Z</time>
      </trkpt>
      <trkpt lat="59.4019205459" lon="17.7750667635">
        <ele>127</ele>
        <time>2012-09-11T18:18:22Z</time>
      </trkpt>
      <trkpt lat="59.4018909578" lon="17.7751079186">
        <ele>127.4</ele>
        <time>2012-09-11T18:18:23Z</time>
      </trkpt>
      <trkpt lat="59.401869081" lon="17.7751400213">
        <ele>127.8</ele>
        <time>2012-09-11T18:18:24Z</time>
      </trkpt>
      <trkpt lat="59.4018499703" lon="17.7751848644">
        <ele>128.2</ele>
        <time>2012-09-11T18:18:25Z</time>
      </trkpt>
      <trkpt lat="59.4018275906" lon="17.7752258519">
        <ele>128.6</ele>
        <time>2012-09-11T18:18:26Z</time>
      </trkpt>
      <trkpt lat="59.4017275946" lon="17.7753519157">
        <ele>129.2</ele>
        <time>2012-09-11T18:18:30Z</time>
      </trkpt>
      <trkpt lat="59.4017021974" lon="17.7753805818">
        <ele>129.6</ele>
        <time>2012-09-11T18:18:31Z</time>
      </trkpt>
      <trkpt lat="59.4016701786" lon="17.7753923164">
        <ele>130</ele>
        <time>2012-09-11T18:18:32Z</time>
      </trkpt>
      <trkpt lat="59.4016458711" lon="17.775404554">
        <ele>130.4</ele>
        <time>2012-09-11T18:18:33Z</time>
      </trkpt>
      <trkpt lat="59.4016198872" lon="17.7754183842">
        <ele>130.8</ele>
        <time>2012-09-11T18:18:34Z</time>
      </trkpt>
      <trkpt lat="59.4015697634" lon="17.7754418535">
        <ele>131.2</ele>
        <time>2012-09-11T18:18:36Z</time>
      </trkpt>
      <trkpt lat="59.4015454559" lon="17.7754722798">
        <ele>131.6</ele>
        <time>2012-09-11T18:18:37Z</time>
      </trkpt>
      <trkpt lat="59.4015211484" lon="17.7754940727">
        <ele>132.2</ele>
        <time>2012-09-11T18:18:38Z</time>
      </trkpt>
      <trkpt lat="59.4014973438" lon="17.7755053045">
        <ele>132.6</ele>
        <time>2012-09-11T18:18:39Z</time>
      </trkpt>
      <trkpt lat="59.4014676719" lon="17.7755200566">
        <ele>133</ele>
        <time>2012-09-11T18:18:40Z</time>
      </trkpt>
      <trkpt lat="59.4013408537" lon="17.7755789814">
        <ele>133</ele>
        <time>2012-09-11T18:18:44Z</time>
      </trkpt>
      <trkpt lat="59.4013045601" lon="17.7756077313">
        <ele>133.4</ele>
        <time>2012-09-11T18:18:45Z</time>
      </trkpt>
      <trkpt lat="59.4012700267" lon="17.775624076">
        <ele>133.8</ele>
        <time>2012-09-11T18:18:46Z</time>
      </trkpt>
      <trkpt lat="59.4012294583" lon="17.7756440249">
        <ele>134.4</ele>
        <time>2012-09-11T18:18:47Z</time>
      </trkpt>
      <trkpt lat="59.4011909853" lon="17.775664812">
        <ele>134.8</ele>
        <time>2012-09-11T18:18:48Z</time>
      </trkpt>
      <trkpt lat="59.4011489082" lon="17.7756809053">
        <ele>135.2</ele>
        <time>2012-09-11T18:18:49Z</time>
      </trkpt>
      <trkpt lat="59.400939696" lon="17.7757696696">
        <ele>135.2</ele>
        <time>2012-09-11T18:18:54Z</time>
      </trkpt>
      <trkpt lat="59.4008944337" lon="17.775782913">
        <ele>135.2</ele>
        <time>2012-09-11T18:18:55Z</time>
      </trkpt>
      <trkpt lat="59.4008117882" lon="17.7758233976">
        <ele>135.2</ele>
        <time>2012-09-11T18:18:57Z</time>
      </trkpt>
      <trkpt lat="59.400676169" lon="17.7758729346">
        <ele>135.2</ele>
        <time>2012-09-11T18:19:00Z</time>
      </trkpt>
      <trkpt lat="59.4006260453" lon="17.7758833282">
        <ele>135.2</ele>
        <time>2012-09-11T18:19:01Z</time>
      </trkpt>
      <trkpt lat="59.4004855646" lon="17.7759133354">
        <ele>135.2</ele>
        <time>2012-09-11T18:19:04Z</time>
      </trkpt>
      <trkpt lat="59.4003952078" lon="17.7759030256">
        <ele>135.2</ele>
        <time>2012-09-11T18:19:06Z</time>
      </trkpt>
      <trkpt lat="59.4003501131" lon="17.7758870162">
        <ele>135.2</ele>
        <time>2012-09-11T18:19:07Z</time>
      </trkpt>
      <trkpt lat="59.4001491152" lon="17.7758746948">
        <ele>135.2</ele>
        <time>2012-09-11T18:19:11Z</time>
      </trkpt>
      <trkpt lat="59.4001053617" lon="17.7758627087">
        <ele>135.2</ele>
        <time>2012-09-11T18:19:12Z</time>
      </trkpt>
      <trkpt lat="59.3999411602" lon="17.775869498">
        <ele>135.2</ele>
        <time>2012-09-11T18:19:16Z</time>
      </trkpt>
      <trkpt lat="59.3996056328" lon="17.7760395668">
        <ele>135.2</ele>
        <time>2012-09-11T18:19:22Z</time>
      </trkpt>
      <trkpt lat="59.3995550061" lon="17.7760906125">
        <ele>135.2</ele>
        <time>2012-09-11T18:19:23Z</time>
      </trkpt>
      <trkpt lat="59.3993249229" lon="17.7763070332">
        <ele>135.2</ele>
        <time>2012-09-11T18:19:27Z</time>
      </trkpt>
      <trkpt lat="59.3991847776" lon="17.7764551414">
        <ele>134.6</ele>
        <time>2012-09-11T18:19:29Z</time>
      </trkpt>
      <trkpt lat="59.3991154593" lon="17.7765412235">
        <ele>134.2</ele>
        <time>2012-09-11T18:19:30Z</time>
      </trkpt>
      <trkpt lat="59.3990448837" lon="17.7766243719">
        <ele>133.6</ele>
        <time>2012-09-11T18:19:31Z</time>
      </trkpt>
      <trkpt lat="59.3989749786" lon="17.776711879">
        <ele>133.2</ele>
        <time>2012-09-11T18:19:32Z</time>
      </trkpt>
      <trkpt lat="59.3989147128" lon="17.776814222">
        <ele>132.6</ele>
        <time>2012-09-11T18:19:33Z</time>
      </trkpt>
      <trkpt lat="59.3988615715" lon="17.7769121226">
        <ele>132.2</ele>
        <time>2012-09-11T18:19:34Z</time>
      </trkpt>
      <trkpt lat="59.3988181533" lon="17.7770246915">
        <ele>131.8</ele>
        <time>2012-09-11T18:19:35Z</time>
      </trkpt>
      <trkpt lat="59.3987894872" lon="17.7771362546">
        <ele>131.4</ele>
        <time>2012-09-11T18:19:36Z</time>
      </trkpt>
      <trkpt lat="59.3987649282" lon="17.777218481">
        <ele>131</ele>
        <time>2012-09-11T18:19:37Z</time>
      </trkpt>
      <trkpt lat="59.3987359268" lon="17.7772888051">
        <ele>130.6</ele>
        <time>2012-09-11T18:19:38Z</time>
      </trkpt>
      <trkpt lat="59.3987102782" lon="17.7773486519">
        <ele>130.2</ele>
        <time>2012-09-11T18:19:39Z</time>
      </trkpt>
      <trkpt lat="59.3986709671" lon="17.7773681817">
        <ele>129.8</ele>
        <time>2012-09-11T18:19:40Z</time>
      </trkpt>
      <trkpt lat="59.398630734" lon="17.7773805869">
        <ele>128.8</ele>
        <time>2012-09-11T18:19:41Z</time>
      </trkpt>
      <trkpt lat="59.398604331" lon="17.7774111809">
        <ele>128.4</ele>
        <time>2012-09-11T18:19:42Z</time>
      </trkpt>
      <trkpt lat="59.398537192" lon="17.7774608855">
        <ele>128.4</ele>
        <time>2012-09-11T18:19:44Z</time>
      </trkpt>
      <trkpt lat="59.398441806" lon="17.7774701895">
        <ele>128.4</ele>
        <time>2012-09-11T18:19:46Z</time>
      </trkpt>
      <trkpt lat="59.3982946198" lon="17.7774841034">
        <ele>128.4</ele>
        <time>2012-09-11T18:19:49Z</time>
      </trkpt>
      <trkpt lat="59.3982436578" lon="17.7774748833">
        <ele>128.4</ele>
        <time>2012-09-11T18:19:50Z</time>
      </trkpt>
      <trkpt lat="59.3980703202" lon="17.777456527">
        <ele>128.4</ele>
        <time>2012-09-11T18:19:54Z</time>
      </trkpt>
      <trkpt lat="59.3979255647" lon="17.7773680979">
        <ele>128.4</ele>
        <time>2012-09-11T18:19:58Z</time>
      </trkpt>
      <trkpt lat="59.3978040272" lon="17.7770623262">
        <ele>128.4</ele>
        <time>2012-09-11T18:20:02Z</time>
      </trkpt>
      <trkpt lat="59.3976528177" lon="17.7767925967">
        <ele>128.4</ele>
        <time>2012-09-11T18:20:06Z</time>
      </trkpt>
      <trkpt lat="59.3975073917" lon="17.7767561354">
        <ele>128.4</ele>
        <time>2012-09-11T18:20:09Z</time>
      </trkpt>
      <trkpt lat="59.3974529094" lon="17.7767655231">
        <ele>128.8</ele>
        <time>2012-09-11T18:20:10Z</time>
      </trkpt>
      <trkpt lat="59.3974005225" lon="17.7767734859">
        <ele>129.2</ele>
        <time>2012-09-11T18:20:11Z</time>
      </trkpt>
      <trkpt lat="59.3973457887" lon="17.7767837118">
        <ele>129.6</ele>
        <time>2012-09-11T18:20:12Z</time>
      </trkpt>
      <trkpt lat="59.3972930666" lon="17.7767926805">
        <ele>130</ele>
        <time>2012-09-11T18:20:13Z</time>
      </trkpt>
      <trkpt lat="59.3972415179" lon="17.7767892439">
        <ele>130.4</ele>
        <time>2012-09-11T18:20:14Z</time>
      </trkpt>
      <trkpt lat="59.3971880414" lon="17.7767860588">
        <ele>130.4</ele>
        <time>2012-09-11T18:20:15Z</time>
      </trkpt>
      <trkpt lat="59.3970820103" lon="17.7768106177">
        <ele>130</ele>
        <time>2012-09-11T18:20:17Z</time>
      </trkpt>
      <trkpt lat="59.3970263545" lon="17.7768375236">
        <ele>129.6</ele>
        <time>2012-09-11T18:20:18Z</time>
      </trkpt>
      <trkpt lat="59.3969682679" lon="17.7768761642">
        <ele>129</ele>
        <time>2012-09-11T18:20:19Z</time>
      </trkpt>
      <trkpt lat="59.3969119416" lon="17.77692721">
        <ele>128.6</ele>
        <time>2012-09-11T18:20:20Z</time>
      </trkpt>
      <trkpt lat="59.3968480715" lon="17.7769791778">
        <ele>128.2</ele>
        <time>2012-09-11T18:20:21Z</time>
      </trkpt>
      <trkpt lat="59.3966532761" lon="17.777110103">
        <ele>127.6</ele>
        <time>2012-09-11T18:20:24Z</time>
      </trkpt>
      <trkpt lat="59.3965775038" lon="17.7771608135">
        <ele>127.2</ele>
        <time>2012-09-11T18:20:25Z</time>
      </trkpt>
      <trkpt lat="59.3965026534" lon="17.7772091771">
        <ele>126.8</ele>
        <time>2012-09-11T18:20:26Z</time>
      </trkpt>
      <trkpt lat="59.3964257076" lon="17.7772436267">
        <ele>126.2</ele>
        <time>2012-09-11T18:20:27Z</time>
      </trkpt>
      <trkpt lat="59.3963525336" lon="17.7772859553">
        <ele>125.8</ele>
        <time>2012-09-11T18:20:28Z</time>
      </trkpt>
      <trkpt lat="59.396289334" lon="17.7773312176">
        <ele>125.4</ele>
        <time>2012-09-11T18:20:29Z</time>
      </trkpt>
      <trkpt lat="59.3962176688" lon="17.777370361">
        <ele>124.4</ele>
        <time>2012-09-11T18:20:30Z</time>
      </trkpt>
      <trkpt lat="59.3961368673" lon="17.7773968478">
        <ele>124</ele>
        <time>2012-09-11T18:20:31Z</time>
      </trkpt>
      <trkpt lat="59.3960577421" lon="17.7774216583">
        <ele>123.4</ele>
        <time>2012-09-11T18:20:32Z</time>
      </trkpt>
      <trkpt lat="59.3958169302" lon="17.7775065669">
        <ele>123.4</ele>
        <time>2012-09-11T18:20:35Z</time>
      </trkpt>
      <trkpt lat="59.395593804" lon="17.7775812496">
        <ele>123.4</ele>
        <time>2012-09-11T18:20:38Z</time>
      </trkpt>
      <trkpt lat="59.3955255753" lon="17.7775867817">
        <ele>123.4</ele>
        <time>2012-09-11T18:20:39Z</time>
      </trkpt>
      <trkpt lat="59.3953952368" lon="17.7776109216">
        <ele>123</ele>
        <time>2012-09-11T18:20:41Z</time>
      </trkpt>
      <trkpt lat="59.3953347194" lon="17.7776040484">
        <ele>122.6</ele>
        <time>2012-09-11T18:20:42Z</time>
      </trkpt>
      <trkpt lat="59.3952627189" lon="17.777621818">
        <ele>122</ele>
        <time>2012-09-11T18:20:43Z</time>
      </trkpt>
      <trkpt lat="59.3951956637" lon="17.7776180462">
        <ele>121.6</ele>
        <time>2012-09-11T18:20:44Z</time>
      </trkpt>
      <trkpt lat="59.3951319613" lon="17.7776134361">
        <ele>121.2</ele>
        <time>2012-09-11T18:20:45Z</time>
      </trkpt>
      <trkpt lat="59.3948603877" lon="17.7776627217">
        <ele>120.6</ele>
        <time>2012-09-11T18:20:49Z</time>
      </trkpt>
      <trkpt lat="59.3947809273" lon="17.7776768033">
        <ele>120.2</ele>
        <time>2012-09-11T18:20:50Z</time>
      </trkpt>
      <trkpt lat="59.3947036462" lon="17.7776802399">
        <ele>119.8</ele>
        <time>2012-09-11T18:20:51Z</time>
      </trkpt>
      <trkpt lat="59.3946266165" lon="17.7776826706">
        <ele>119.2</ele>
        <time>2012-09-11T18:20:52Z</time>
      </trkpt>
      <trkpt lat="59.3945539455" lon="17.7776896276">
        <ele>118.8</ele>
        <time>2012-09-11T18:20:53Z</time>
      </trkpt>
      <trkpt lat="59.3944759938" lon="17.7777000212">
        <ele>118.4</ele>
        <time>2012-09-11T18:20:54Z</time>
      </trkpt>
      <trkpt lat="59.3944003052" lon="17.7777446129">
        <ele>117.4</ele>
        <time>2012-09-11T18:20:55Z</time>
      </trkpt>
      <trkpt lat="59.3943350941" lon="17.7777913">
        <ele>116.6</ele>
        <time>2012-09-11T18:20:56Z</time>
      </trkpt>
      <trkpt lat="59.3942749958" lon="17.777836227">
        <ele>116</ele>
        <time>2012-09-11T18:20:57Z</time>
      </trkpt>
      <trkpt lat="59.3942275543" lon="17.7778767954">
        <ele>115.4</ele>
        <time>2012-09-11T18:20:58Z</time>
      </trkpt>
      <trkpt lat="59.3941941943" lon="17.7778952356">
        <ele>114.6</ele>
        <time>2012-09-11T18:20:59Z</time>
      </trkpt>
      <trkpt lat="59.3941673722" lon="17.7778999295">
        <ele>114</ele>
        <time>2012-09-11T18:21:00Z</time>
      </trkpt>
      <trkpt lat="59.394144322" lon="17.7779256619">
        <ele>113.2</ele>
        <time>2012-09-11T18:21:01Z</time>
      </trkpt>
      <trkpt lat="59.39412672" lon="17.7779787193">
        <ele>112.6</ele>
        <time>2012-09-11T18:21:02Z</time>
      </trkpt>
      <trkpt lat="59.3941110459" lon="17.7780336208">
        <ele>112</ele>
        <time>2012-09-11T18:21:03Z</time>
      </trkpt>
      <trkpt lat="59.3940869898" lon="17.778100676">
        <ele>112</ele>
        <time>2012-09-11T18:21:04Z</time>
      </trkpt>
      <trkpt lat="59.3940148217" lon="17.7784197749">
        <ele>112</ele>
        <time>2012-09-11T18:21:09Z</time>
      </trkpt>
      <trkpt lat="59.3940147378" lon="17.7786765125">
        <ele>111.4</ele>
        <time>2012-09-11T18:21:13Z</time>
      </trkpt>
      <trkpt lat="59.3940178391" lon="17.7787326712">
        <ele>111</ele>
        <time>2012-09-11T18:21:14Z</time>
      </trkpt>
      <trkpt lat="59.3940176715" lon="17.7787879918">
        <ele>110.6</ele>
        <time>2012-09-11T18:21:15Z</time>
      </trkpt>
      <trkpt lat="59.3940226168" lon="17.7788355172">
        <ele>110.2</ele>
        <time>2012-09-11T18:21:16Z</time>
      </trkpt>
      <trkpt lat="59.3940299929" lon="17.7789019856">
        <ele>109.8</ele>
        <time>2012-09-11T18:21:17Z</time>
      </trkpt>
      <trkpt lat="59.3940284003" lon="17.7790864712">
        <ele>109.8</ele>
        <time>2012-09-11T18:21:21Z</time>
      </trkpt>
      <trkpt lat="59.394043823" lon="17.7791599805">
        <ele>109.8</ele>
        <time>2012-09-11T18:21:25Z</time>
      </trkpt>
      <trkpt lat="59.3940588266" lon="17.7790457352">
        <ele>109.8</ele>
        <time>2012-09-11T18:21:28Z</time>
      </trkpt>
      <trkpt lat="59.3940390453" lon="17.7788988005">
        <ele>109.8</ele>
        <time>2012-09-11T18:21:30Z</time>
      </trkpt>
      <trkpt lat="59.3940220301" lon="17.7787109621">
        <ele>109.8</ele>
        <time>2012-09-11T18:21:32Z</time>
      </trkpt>
      <trkpt lat="59.3940054339" lon="17.7785303322">
        <ele>109.8</ele>
        <time>2012-09-11T18:21:34Z</time>
      </trkpt>
      <trkpt lat="59.3939796177" lon="17.7782323556">
        <ele>109.8</ele>
        <time>2012-09-11T18:21:37Z</time>
      </trkpt>
      <trkpt lat="59.393972074" lon="17.7777356442">
        <ele>109.8</ele>
        <time>2012-09-11T18:21:42Z</time>
      </trkpt>
      <trkpt lat="59.3939761811" lon="17.7768451512">
        <ele>109.8</ele>
        <time>2012-09-11T18:21:50Z</time>
      </trkpt>
      <trkpt lat="59.3939403066" lon="17.7761353719">
        <ele>109.8</ele>
        <time>2012-09-11T18:21:56Z</time>
      </trkpt>
      <trkpt lat="59.3939190165" lon="17.7756697573">
        <ele>109.8</ele>
        <time>2012-09-11T18:22:00Z</time>
      </trkpt>
      <trkpt lat="59.3939184298" lon="17.7755178773">
        <ele>109.8</ele>
        <time>2012-09-11T18:22:02Z</time>
      </trkpt>
      <trkpt lat="59.3939304159" lon="17.7754932345">
        <ele>109.8</ele>
        <time>2012-09-11T18:22:03Z</time>
      </trkpt>
      <trkpt lat="59.3939863232" lon="17.7754923125">
        <ele>109.8</ele>
        <time>2012-09-11T18:22:05Z</time>
      </trkpt>
      <trkpt lat="59.3940704775" lon="17.7753325535">
        <ele>109.8</ele>
        <time>2012-09-11T18:22:08Z</time>
      </trkpt>
      <trkpt lat="59.3940981377" lon="17.7752712818">
        <ele>109.8</ele>
        <time>2012-09-11T18:22:09Z</time>
      </trkpt>
      <trkpt lat="59.3941185896" lon="17.7751872952">
        <ele>109.8</ele>
        <time>2012-09-11T18:22:10Z</time>
      </trkpt>
      <trkpt lat="59.3941931047" lon="17.7750237643">
        <ele>109.8</ele>
        <time>2012-09-11T18:22:13Z</time>
      </trkpt>
      <trkpt lat="59.3943095293" lon="17.7748501752">
        <ele>109.8</ele>
        <time>2012-09-11T18:22:18Z</time>
      </trkpt>
      <trkpt lat="59.3944557934" lon="17.7747630034">
        <ele>110.2</ele>
        <time>2012-09-11T18:22:23Z</time>
      </trkpt>
      <trkpt lat="59.3944816935" lon="17.774740037">
        <ele>110.6</ele>
        <time>2012-09-11T18:22:24Z</time>
      </trkpt>
      <trkpt lat="59.3945057495" lon="17.7747089401">
        <ele>111.2</ele>
        <time>2012-09-11T18:22:25Z</time>
      </trkpt>
      <trkpt lat="59.3945318172" lon="17.7746916734">
        <ele>111.6</ele>
        <time>2012-09-11T18:22:26Z</time>
      </trkpt>
      <trkpt lat="59.3945587231" lon="17.7746785977">
        <ele>112</ele>
        <time>2012-09-11T18:22:27Z</time>
      </trkpt>
      <trkpt lat="59.3945880598" lon="17.7746674497">
        <ele>112</ele>
        <time>2012-09-11T18:22:28Z</time>
      </trkpt>
      <trkpt lat="59.3946439671" lon="17.7746285577">
        <ele>112.4</ele>
        <time>2012-09-11T18:22:30Z</time>
      </trkpt>
      <trkpt lat="59.3946632454" lon="17.7745880731">
        <ele>112.8</ele>
        <time>2012-09-11T18:22:31Z</time>
      </trkpt>
      <trkpt lat="59.3946901513" lon="17.7745515281">
        <ele>113.2</ele>
        <time>2012-09-11T18:22:32Z</time>
      </trkpt>
      <trkpt lat="59.3947206615" lon="17.7745232811">
        <ele>113.6</ele>
        <time>2012-09-11T18:22:33Z</time>
      </trkpt>
      <trkpt lat="59.3947475674" lon="17.7745114626">
        <ele>114</ele>
        <time>2012-09-11T18:22:34Z</time>
      </trkpt>
      <trkpt lat="59.3948489045" lon="17.7744063536">
        <ele>114</ele>
        <time>2012-09-11T18:22:38Z</time>
      </trkpt>
      <trkpt lat="59.3949742139" lon="17.7743170863">
        <ele>114</ele>
        <time>2012-09-11T18:22:42Z</time>
      </trkpt>
      <trkpt lat="59.395029283" lon="17.7742575748">
        <ele>114.4</ele>
        <time>2012-09-11T18:22:44Z</time>
      </trkpt>
      <trkpt lat="59.3950552669" lon="17.7742296631">
        <ele>114.8</ele>
        <time>2012-09-11T18:22:45Z</time>
      </trkpt>
      <trkpt lat="59.3950807479" lon="17.774200075">
        <ele>115.2</ele>
        <time>2012-09-11T18:22:46Z</time>
      </trkpt>
      <trkpt lat="59.3950976793" lon="17.7741837303">
        <ele>115.6</ele>
        <time>2012-09-11T18:22:47Z</time>
      </trkpt>
      <trkpt lat="59.3951137726" lon="17.774158836">
        <ele>116</ele>
        <time>2012-09-11T18:22:48Z</time>
      </trkpt>
      <trkpt lat="59.3951302849" lon="17.7741399768">
        <ele>116</ele>
        <time>2012-09-11T18:22:49Z</time>
      </trkpt>
      <trkpt lat="59.3951785647" lon="17.7740931219">
        <ele>116</ele>
        <time>2012-09-11T18:22:54Z</time>
      </trkpt>
      <trkpt lat="59.3952675804" lon="17.7739733446">
        <ele>116</ele>
        <time>2012-09-11T18:22:59Z</time>
      </trkpt>
      <trkpt lat="59.395346035" lon="17.7738808922">
        <ele>116</ele>
        <time>2012-09-11T18:23:03Z</time>
      </trkpt>
      <trkpt lat="59.3953643076" lon="17.7738493763">
        <ele>116</ele>
        <time>2012-09-11T18:23:04Z</time>
      </trkpt>
      <trkpt lat="59.3954019423" lon="17.773824063">
        <ele>116</ele>
        <time>2012-09-11T18:23:06Z</time>
      </trkpt>
      <trkpt lat="59.3954679078" lon="17.7737757832">
        <ele>116</ele>
        <time>2012-09-11T18:23:09Z</time>
      </trkpt>
      <trkpt lat="59.3954990047" lon="17.7737306886">
        <ele>116.6</ele>
        <time>2012-09-11T18:23:11Z</time>
      </trkpt>
      <trkpt lat="59.3955128348" lon="17.7737131704">
        <ele>117</ele>
        <time>2012-09-11T18:23:12Z</time>
      </trkpt>
      <trkpt lat="59.3955244018" lon="17.7736985021">
        <ele>117.4</ele>
        <time>2012-09-11T18:23:13Z</time>
      </trkpt>
      <trkpt lat="59.3955547443" lon="17.7736917128">
        <ele>117.8</ele>
        <time>2012-09-11T18:23:14Z</time>
      </trkpt>
      <trkpt lat="59.3955694126" lon="17.7736750328">
        <ele>118.2</ele>
        <time>2012-09-11T18:23:15Z</time>
      </trkpt>
      <trkpt lat="59.3955819855" lon="17.7736551677">
        <ele>118.2</ele>
        <time>2012-09-11T18:23:16Z</time>
      </trkpt>
      <trkpt lat="59.3956086399" lon="17.7736069717">
        <ele>118.2</ele>
        <time>2012-09-11T18:23:19Z</time>
      </trkpt>
      <trkpt lat="59.3957413254" lon="17.7734750406">
        <ele>118.2</ele>
        <time>2012-09-11T18:23:23Z</time>
      </trkpt>
      <trkpt lat="59.395782732" lon="17.773418379">
        <ele>118.2</ele>
        <time>2012-09-11T18:23:25Z</time>
      </trkpt>
      <trkpt lat="59.3958062013" lon="17.7733602924">
        <ele>118.2</ele>
        <time>2012-09-11T18:23:28Z</time>
      </trkpt>
      <trkpt lat="59.3958127392" lon="17.7733193049">
        <ele>118.2</ele>
        <time>2012-09-11T18:23:32Z</time>
      </trkpt>
      <trkpt lat="59.3958169302" lon="17.7732654931">
        <ele>118.2</ele>
        <time>2012-09-11T18:23:33Z</time>
      </trkpt>
      <trkpt lat="59.3958340292" lon="17.7731939117">
        <ele>117.6</ele>
        <time>2012-09-11T18:23:35Z</time>
      </trkpt>
      <trkpt lat="59.3958486976" lon="17.7731591268">
        <ele>117.2</ele>
        <time>2012-09-11T18:23:36Z</time>
      </trkpt>
      <trkpt lat="59.3958587558" lon="17.7731099251">
        <ele>116.8</ele>
        <time>2012-09-11T18:23:37Z</time>
      </trkpt>
      <trkpt lat="59.3958652099" lon="17.7730510003">
        <ele>116.4</ele>
        <time>2012-09-11T18:23:38Z</time>
      </trkpt>
      <trkpt lat="59.3958743462" lon="17.7730064924">
        <ele>116</ele>
        <time>2012-09-11T18:23:39Z</time>
      </trkpt>
      <trkpt lat="59.3958751844" lon="17.7729458913">
        <ele>116</ele>
        <time>2012-09-11T18:23:41Z</time>
      </trkpt>
      <trkpt lat="59.3958795429" lon="17.7729389343">
        <ele>116</ele>
        <time>2012-09-11T18:23:42Z</time>
      </trkpt>
      <trkpt lat="59.3959011682" lon="17.7728769083">
        <ele>116</ele>
        <time>2012-09-11T18:23:49Z</time>
      </trkpt>
      <trkpt lat="59.3959225421" lon="17.7727843721">
        <ele>116</ele>
        <time>2012-09-11T18:23:56Z</time>
      </trkpt>
      <trkpt lat="59.3959817183" lon="17.7726210927">
        <ele>116</ele>
        <time>2012-09-11T18:24:01Z</time>
      </trkpt>
      <trkpt lat="59.3960660402" lon="17.7724146465">
        <ele>116</ele>
        <time>2012-09-11T18:24:06Z</time>
      </trkpt>
      <trkpt lat="59.3961088717" lon="17.7722970484">
        <ele>116</ele>
        <time>2012-09-11T18:24:10Z</time>
      </trkpt>
      <trkpt lat="59.3961451654" lon="17.7722030873">
        <ele>116</ele>
        <time>2012-09-11T18:24:14Z</time>
      </trkpt>
      <trkpt lat="59.3961566486" lon="17.7722013271">
        <ele>116</ele>
        <time>2012-09-11T18:24:15Z</time>
      </trkpt>
      <trkpt lat="59.3961820457" lon="17.7722020815">
        <ele>116</ele>
        <time>2012-09-11T18:24:16Z</time>
      </trkpt>
      <trkpt lat="59.3962958719" lon="17.7721649497">
        <ele>116.4</ele>
        <time>2012-09-11T18:24:19Z</time>
      </trkpt>
      <trkpt lat="59.3963447384" lon="17.7721294104">
        <ele>116.8</ele>
        <time>2012-09-11T18:24:20Z</time>
      </trkpt>
      <trkpt lat="59.3963877375" lon="17.7720941226">
        <ele>117.2</ele>
        <time>2012-09-11T18:24:21Z</time>
      </trkpt>
      <trkpt lat="59.3964142243" lon="17.7720777779">
        <ele>117.6</ele>
        <time>2012-09-11T18:24:22Z</time>
      </trkpt>
      <trkpt lat="59.3964432257" lon="17.7720552306">
        <ele>118</ele>
        <time>2012-09-11T18:24:23Z</time>
      </trkpt>
      <trkpt lat="59.3964773401" lon="17.7719577491">
        <ele>118</ele>
        <time>2012-09-11T18:24:25Z</time>
      </trkpt>
      <trkpt lat="59.396498211" lon="17.7718129099">
        <ele>118</ele>
        <time>2012-09-11T18:24:27Z</time>
      </trkpt>
      <trkpt lat="59.3965003065" lon="17.7717106507">
        <ele>118</ele>
        <time>2012-09-11T18:24:28Z</time>
      </trkpt>
      <trkpt lat="59.3964820339" lon="17.771491464">
        <ele>118</ele>
        <time>2012-09-11T18:24:30Z</time>
      </trkpt>
      <trkpt lat="59.3964412979" lon="17.7712920586">
        <ele>118</ele>
        <time>2012-09-11T18:24:32Z</time>
      </trkpt>
      <trkpt lat="59.3964414655" lon="17.771200193">
        <ele>118</ele>
        <time>2012-09-11T18:24:33Z</time>
      </trkpt>
      <trkpt lat="59.3964480872" lon="17.7710991911">
        <ele>118</ele>
        <time>2012-09-11T18:24:34Z</time>
      </trkpt>
      <trkpt lat="59.3964644319" lon="17.7709173877">
        <ele>118.6</ele>
        <time>2012-09-11T18:24:36Z</time>
      </trkpt>
      <trkpt lat="59.3964887394" lon="17.7708416991">
        <ele>119.6</ele>
        <time>2012-09-11T18:24:37Z</time>
      </trkpt>
      <trkpt lat="59.3965152262" lon="17.7707671002">
        <ele>120</ele>
        <time>2012-09-11T18:24:38Z</time>
      </trkpt>
      <trkpt lat="59.3965514361" lon="17.7706900705">
        <ele>120.6</ele>
        <time>2012-09-11T18:24:39Z</time>
      </trkpt>
      <trkpt lat="59.396650091" lon="17.7704200896">
        <ele>120.6</ele>
        <time>2012-09-11T18:24:42Z</time>
      </trkpt>
      <trkpt lat="59.3966813555" lon="17.7703463288">
        <ele>120.6</ele>
        <time>2012-09-11T18:24:43Z</time>
      </trkpt>
      <trkpt lat="59.3967058306" lon="17.7702837999">
        <ele>120.2</ele>
        <time>2012-09-11T18:24:44Z</time>
      </trkpt>
      <trkpt lat="59.3967239356" lon="17.7702200136">
        <ele>119.6</ele>
        <time>2012-09-11T18:24:45Z</time>
      </trkpt>
      <trkpt lat="59.3967293" lon="17.7701426487">
        <ele>119.2</ele>
        <time>2012-09-11T18:24:46Z</time>
      </trkpt>
      <trkpt lat="59.3967334909" lon="17.7700684688">
        <ele>118.8</ele>
        <time>2012-09-11T18:24:47Z</time>
      </trkpt>
      <trkpt lat="59.3967472372" lon="17.7699861586">
        <ele>118.2</ele>
        <time>2012-09-11T18:24:48Z</time>
      </trkpt>
      <trkpt lat="59.3967811839" lon="17.7698305905">
        <ele>117.8</ele>
        <time>2012-09-11T18:24:50Z</time>
      </trkpt>
      <trkpt lat="59.3967985345" lon="17.7697736774">
        <ele>117.4</ele>
        <time>2012-09-11T18:24:51Z</time>
      </trkpt>
      <trkpt lat="59.3968231772" lon="17.7697315165">
        <ele>117</ele>
        <time>2012-09-11T18:24:52Z</time>
      </trkpt>
      <trkpt lat="59.3968429585" lon="17.7697062869">
        <ele>116.6</ele>
        <time>2012-09-11T18:24:53Z</time>
      </trkpt>
      <trkpt lat="59.3968582974" lon="17.7696816442">
        <ele>116.2</ele>
        <time>2012-09-11T18:24:54Z</time>
      </trkpt>
      <trkpt lat="59.3968767376" lon="17.7696052012">
        <ele>116.2</ele>
        <time>2012-09-11T18:24:56Z</time>
      </trkpt>
      <trkpt lat="59.3969080859" lon="17.7695538202">
        <ele>116.2</ele>
        <time>2012-09-11T18:24:58Z</time>
      </trkpt>
      <trkpt lat="59.39695712" lon="17.7694750303">
        <ele>116.2</ele>
        <time>2012-09-11T18:25:01Z</time>
      </trkpt>
      <trkpt lat="59.3970217445" lon="17.7693265869">
        <ele>116.2</ele>
        <time>2012-09-11T18:25:05Z</time>
      </trkpt>
      <trkpt lat="59.3970440403" lon="17.7692571847">
        <ele>116.6</ele>
        <time>2012-09-11T18:25:07Z</time>
      </trkpt>
      <trkpt lat="59.3970518355" lon="17.7692297759">
        <ele>117</ele>
        <time>2012-09-11T18:25:08Z</time>
      </trkpt>
      <trkpt lat="59.3970684316" lon="17.7692099108">
        <ele>117.4</ele>
        <time>2012-09-11T18:25:09Z</time>
      </trkpt>
      <trkpt lat="59.3970803339" lon="17.7691872797">
        <ele>117.8</ele>
        <time>2012-09-11T18:25:10Z</time>
      </trkpt>
      <trkpt lat="59.397098355" lon="17.7691654868">
        <ele>118.2</ele>
        <time>2012-09-11T18:25:11Z</time>
      </trkpt>
      <trkpt lat="59.3971266858" lon="17.7691259242">
        <ele>118.2</ele>
        <time>2012-09-11T18:25:17Z</time>
      </trkpt>
      <trkpt lat="59.397123836" lon="17.7691336355">
        <ele>118.2</ele>
        <time>2012-09-11T18:25:23Z</time>
      </trkpt>
      <trkpt lat="59.397123836" lon="17.7691336355">
        <ele>118.2</ele>
        <time>2012-09-11T18:25:30Z</time>
      </trkpt>
      <trkpt lat="59.3971516639" lon="17.7691120102">
        <ele>118.6</ele>
        <time>2012-09-11T18:25:32Z</time>
      </trkpt>
      <trkpt lat="59.3971688468" lon="17.7690863616">
        <ele>119</ele>
        <time>2012-09-11T18:25:33Z</time>
      </trkpt>
      <trkpt lat="59.3971797433" lon="17.7690609645">
        <ele>119.4</ele>
        <time>2012-09-11T18:25:34Z</time>
      </trkpt>
      <trkpt lat="59.397175217" lon="17.7690696816">
        <ele>119.8</ele>
        <time>2012-09-11T18:25:35Z</time>
      </trkpt>
      <trkpt lat="59.397175217" lon="17.7690696816">
        <ele>120.4</ele>
        <time>2012-09-11T18:25:36Z</time>
      </trkpt>
      <trkpt lat="59.3972188867" lon="17.7690146964">
        <ele>120.4</ele>
        <time>2012-09-11T18:25:40Z</time>
      </trkpt>
      <trkpt lat="59.3973158653" lon="17.7688815918">
        <ele>120.4</ele>
        <time>2012-09-11T18:25:46Z</time>
      </trkpt>
      <trkpt lat="59.3973436932" lon="17.768810178">
        <ele>120.4</ele>
        <time>2012-09-11T18:25:51Z</time>
      </trkpt>
      <trkpt lat="59.3974012769" lon="17.7687338189">
        <ele>120.4</ele>
        <time>2012-09-11T18:25:57Z</time>
      </trkpt>
      <trkpt lat="59.3974702599" lon="17.7686059111">
        <ele>120.4</ele>
        <time>2012-09-11T18:26:02Z</time>
      </trkpt>
      <trkpt lat="59.3974781389" lon="17.7685669353">
        <ele>120.4</ele>
        <time>2012-09-11T18:26:03Z</time>
      </trkpt>
      <trkpt lat="59.3975721838" lon="17.7683863053">
        <ele>120.4</ele>
        <time>2012-09-11T18:26:09Z</time>
      </trkpt>
      <trkpt lat="59.3975798952" lon="17.7683718046">
        <ele>119.8</ele>
        <time>2012-09-11T18:26:10Z</time>
      </trkpt>
      <trkpt lat="59.3975862654" lon="17.7683630875">
        <ele>119.4</ele>
        <time>2012-09-11T18:26:11Z</time>
      </trkpt>
      <trkpt lat="59.3975912107" lon="17.7683500955">
        <ele>119</ele>
        <time>2012-09-11T18:26:12Z</time>
      </trkpt>
      <trkpt lat="59.3975932224" lon="17.7683489221">
        <ele>118.4</ele>
        <time>2012-09-11T18:26:13Z</time>
      </trkpt>
      <trkpt lat="59.3975982515" lon="17.7683432224">
        <ele>118</ele>
        <time>2012-09-11T18:26:14Z</time>
      </trkpt>
      <trkpt lat="59.3976144286" lon="17.7683173223">
        <ele>118</ele>
        <time>2012-09-11T18:26:22Z</time>
      </trkpt>
      <trkpt lat="59.397630438" lon="17.7682827051">
        <ele>117.6</ele>
        <time>2012-09-11T18:26:26Z</time>
      </trkpt>
      <trkpt lat="59.3976384847" lon="17.7682728982">
        <ele>117.2</ele>
        <time>2012-09-11T18:26:27Z</time>
      </trkpt>
      <trkpt lat="59.3976416698" lon="17.7682554639">
        <ele>116.8</ele>
        <time>2012-09-11T18:26:28Z</time>
      </trkpt>
      <trkpt lat="59.3976468666" lon="17.768245238">
        <ele>116.4</ele>
        <time>2012-09-11T18:26:29Z</time>
      </trkpt>
      <trkpt lat="59.3976468666" lon="17.768245238">
        <ele>116</ele>
        <time>2012-09-11T18:26:30Z</time>
      </trkpt>
      <trkpt lat="59.3976487106" lon="17.7682287256">
        <ele>116</ele>
        <time>2012-09-11T18:26:32Z</time>
      </trkpt>
      <trkpt lat="59.3976499679" lon="17.7682038314">
        <ele>116</ele>
        <time>2012-09-11T18:26:33Z</time>
      </trkpt>
      <trkpt lat="59.3976729343" lon="17.7681586529">
        <ele>116</ele>
        <time>2012-09-11T18:26:36Z</time>
      </trkpt>
      <trkpt lat="59.3977124968" lon="17.7680809527">
        <ele>116</ele>
        <time>2012-09-11T18:26:43Z</time>
      </trkpt>
      <trkpt lat="59.3977233933" lon="17.7680462517">
        <ele>115.4</ele>
        <time>2012-09-11T18:26:46Z</time>
      </trkpt>
      <trkpt lat="59.3977291768" lon="17.7680291526">
        <ele>115</ele>
        <time>2012-09-11T18:26:47Z</time>
      </trkpt>
      <trkpt lat="59.3977347089" lon="17.7680130593">
        <ele>114.6</ele>
        <time>2012-09-11T18:26:48Z</time>
      </trkpt>
      <trkpt lat="59.3977454377" lon="17.7680026658">
        <ele>114.2</ele>
        <time>2012-09-11T18:26:49Z</time>
      </trkpt>
      <trkpt lat="59.3977625368" lon="17.7680027496">
        <ele>113.8</ele>
        <time>2012-09-11T18:26:50Z</time>
      </trkpt>
      <trkpt lat="59.3977726789" lon="17.7679916855">
        <ele>113.8</ele>
        <time>2012-09-11T18:26:51Z</time>
      </trkpt>
      <trkpt lat="59.397807799" lon="17.7679422323">
        <ele>113.2</ele>
        <time>2012-09-11T18:26:55Z</time>
      </trkpt>
      <trkpt lat="59.397817103" lon="17.7679217804">
        <ele>112.8</ele>
        <time>2012-09-11T18:26:56Z</time>
      </trkpt>
      <trkpt lat="59.3978333638" lon="17.7679059386">
        <ele>112.4</ele>
        <time>2012-09-11T18:26:57Z</time>
      </trkpt>
      <trkpt lat="59.3978437574" lon="17.7678856544">
        <ele>112</ele>
        <time>2012-09-11T18:26:58Z</time>
      </trkpt>
      <trkpt lat="59.3978487865" lon="17.7678798709">
        <ele>111.6</ele>
        <time>2012-09-11T18:26:59Z</time>
      </trkpt>
      <trkpt lat="59.3978849125" lon="17.7678075351">
        <ele>111.2</ele>
        <time>2012-09-11T18:27:07Z</time>
      </trkpt>
      <trkpt lat="59.3978887682" lon="17.7678004943">
        <ele>110.6</ele>
        <time>2012-09-11T18:27:08Z</time>
      </trkpt>
      <trkpt lat="59.3978887682" lon="17.7678004943">
        <ele>110.2</ele>
        <time>2012-09-11T18:27:09Z</time>
      </trkpt>
      <trkpt lat="59.3978933782" lon="17.7677986503">
        <ele>109.8</ele>
        <time>2012-09-11T18:27:10Z</time>
      </trkpt>
      <trkpt lat="59.3978933782" lon="17.7677986503">
        <ele>109.4</ele>
        <time>2012-09-11T18:27:11Z</time>
      </trkpt>
      <trkpt lat="59.3979058673" lon="17.7677904361">
        <ele>109.4</ele>
        <time>2012-09-11T18:27:14Z</time>
      </trkpt>
      <trkpt lat="59.3979145006" lon="17.7677889273">
        <ele>109.4</ele>
        <time>2012-09-11T18:27:19Z</time>
      </trkpt>
      <trkpt lat="59.3979260677" lon="17.7677628596">
        <ele>109.4</ele>
        <time>2012-09-11T18:27:25Z</time>
      </trkpt>
      <trkpt lat="59.3979210385" lon="17.7677572437">
        <ele>109.4</ele>
        <time>2012-09-11T18:27:33Z</time>
      </trkpt>
      <trkpt lat="59.3979173505" lon="17.7677521308">
        <ele>109.4</ele>
        <time>2012-09-11T18:27:40Z</time>
      </trkpt>
      <trkpt lat="59.3979233016" lon="17.767743246">
        <ele>109</ele>
        <time>2012-09-11T18:27:42Z</time>
      </trkpt>
      <trkpt lat="59.3979227987" lon="17.7677171783">
        <ele>108.6</ele>
        <time>2012-09-11T18:27:43Z</time>
      </trkpt>
      <trkpt lat="59.3979266544" lon="17.7676937928">
        <ele>108.2</ele>
        <time>2012-09-11T18:27:44Z</time>
      </trkpt>
      <trkpt lat="59.3979331923" lon="17.7676801303">
        <ele>107.8</ele>
        <time>2012-09-11T18:27:45Z</time>
      </trkpt>
      <trkpt lat="59.3979375509" lon="17.7676715807">
        <ele>107.4</ele>
        <time>2012-09-11T18:27:46Z</time>
      </trkpt>
      <trkpt lat="59.3979375509" lon="17.7676715807">
        <ele>107.4</ele>
        <time>2012-09-11T18:27:50Z</time>
      </trkpt>
      <trkpt lat="59.3979651273" lon="17.7675912821">
        <ele>106.8</ele>
        <time>2012-09-11T18:27:54Z</time>
      </trkpt>
      <trkpt lat="59.3979670551" lon="17.7675725905">
        <ele>106.4</ele>
        <time>2012-09-11T18:27:55Z</time>
      </trkpt>
      <trkpt lat="59.3979668037" lon="17.7675583413">
        <ele>105.6</ele>
        <time>2012-09-11T18:27:56Z</time>
      </trkpt>
      <trkpt lat="59.3979688992" lon="17.7675449302">
        <ele>105.2</ele>
        <time>2012-09-11T18:27:57Z</time>
      </trkpt>
      <trkpt lat="59.3979749341" lon="17.7675056191">
        <ele>105.2</ele>
        <time>2012-09-11T18:28:03Z</time>
      </trkpt>
      <trkpt lat="59.3980063663" lon="17.7674655536">
        <ele>105.2</ele>
        <time>2012-09-11T18:28:09Z</time>
      </trkpt>
      <trkpt lat="59.398015754" lon="17.7674263263">
        <ele>104.8</ele>
        <time>2012-09-11T18:28:12Z</time>
      </trkpt>
      <trkpt lat="59.398015754" lon="17.7674263263">
        <ele>104.2</ele>
        <time>2012-09-11T18:28:13Z</time>
      </trkpt>
      <trkpt lat="59.3980170951" lon="17.7674057069">
        <ele>103.8</ele>
        <time>2012-09-11T18:28:14Z</time>
      </trkpt>
      <trkpt lat="59.3980177656" lon="17.767351476">
        <ele>103.4</ele>
        <time>2012-09-11T18:28:15Z</time>
      </trkpt>
      <trkpt lat="59.3980198611" lon="17.7673206306">
        <ele>103</ele>
        <time>2012-09-11T18:28:16Z</time>
      </trkpt>
      <trkpt lat="59.3980305061" lon="17.7672404158">
        <ele>102.6</ele>
        <time>2012-09-11T18:28:19Z</time>
      </trkpt>
      <trkpt lat="59.3980305061" lon="17.7672404158">
        <ele>102</ele>
        <time>2012-09-11T18:28:20Z</time>
      </trkpt>
      <trkpt lat="59.3980305061" lon="17.7672404158">
        <ele>101.2</ele>
        <time>2012-09-11T18:28:21Z</time>
      </trkpt>
      <trkpt lat="59.3980305061" lon="17.7672404158">
        <ele>100.8</ele>
        <time>2012-09-11T18:28:22Z</time>
      </trkpt>
      <trkpt lat="59.398030087" lon="17.7671904597">
        <ele>100.8</ele>
        <time>2012-09-11T18:28:29Z</time>
      </trkpt>
      <trkpt lat="59.3980298356" lon="17.7671197164">
        <ele>100.4</ele>
        <time>2012-09-11T18:28:32Z</time>
      </trkpt>
      <trkpt lat="59.3980286621" lon="17.7670890387">
        <ele>100</ele>
        <time>2012-09-11T18:28:33Z</time>
      </trkpt>
      <trkpt lat="59.3980304223" lon="17.7670612946">
        <ele>99.6</ele>
        <time>2012-09-11T18:28:34Z</time>
      </trkpt>
      <trkpt lat="59.3980336912" lon="17.7670415133">
        <ele>99.2</ele>
        <time>2012-09-11T18:28:35Z</time>
      </trkpt>
      <trkpt lat="59.3980331045" lon="17.7670247495">
        <ele>98.6</ele>
        <time>2012-09-11T18:28:36Z</time>
      </trkpt>
      <trkpt lat="59.3980505389" lon="17.7669200596">
        <ele>98.2</ele>
        <time>2012-09-11T18:28:40Z</time>
      </trkpt>
      <trkpt lat="59.3980522152" lon="17.7668934889">
        <ele>97.8</ele>
        <time>2012-09-11T18:28:41Z</time>
      </trkpt>
      <trkpt lat="59.3980548136" lon="17.7668605481">
        <ele>97.4</ele>
        <time>2012-09-11T18:28:42Z</time>
      </trkpt>
      <trkpt lat="59.3980590046" lon="17.7668291998">
        <ele>97</ele>
        <time>2012-09-11T18:28:43Z</time>
      </trkpt>
      <trkpt lat="59.3980665483" lon="17.7668004499">
        <ele>96.6</ele>
        <time>2012-09-11T18:28:44Z</time>
      </trkpt>
      <trkpt lat="59.3980930351" lon="17.7667204027">
        <ele>96.6</ele>
        <time>2012-09-11T18:28:47Z</time>
      </trkpt>
      <trkpt lat="59.3981591683" lon="17.7664987015">
        <ele>96.2</ele>
        <time>2012-09-11T18:28:53Z</time>
      </trkpt>
      <trkpt lat="59.3981745072" lon="17.7664448058">
        <ele>95.8</ele>
        <time>2012-09-11T18:28:54Z</time>
      </trkpt>
      <trkpt lat="59.3981956296" lon="17.7663955203">
        <ele>95.4</ele>
        <time>2012-09-11T18:28:55Z</time>
      </trkpt>
      <trkpt lat="59.3982170872" lon="17.7663517667">
        <ele>95</ele>
        <time>2012-09-11T18:28:56Z</time>
      </trkpt>
      <trkpt lat="59.398238042" lon="17.7663241903">
        <ele>94.6</ele>
        <time>2012-09-11T18:28:57Z</time>
      </trkpt>
      <trkpt lat="59.3982558954" lon="17.7663063368">
        <ele>94.6</ele>
        <time>2012-09-11T18:28:58Z</time>
      </trkpt>
      <trkpt lat="59.3983087852" lon="17.7662765811">
        <ele>94</ele>
        <time>2012-09-11T18:29:02Z</time>
      </trkpt>
      <trkpt lat="59.3983166642" lon="17.7662720549">
        <ele>93.6</ele>
        <time>2012-09-11T18:29:03Z</time>
      </trkpt>
      <trkpt lat="59.3983233697" lon="17.7662681992">
        <ele>93.2</ele>
        <time>2012-09-11T18:29:04Z</time>
      </trkpt>
      <trkpt lat="59.3983290694" lon="17.7662624157">
        <ele>92.8</ele>
        <time>2012-09-11T18:29:05Z</time>
      </trkpt>
      <trkpt lat="59.3983362778" lon="17.7662542852">
        <ele>92.4</ele>
        <time>2012-09-11T18:29:06Z</time>
      </trkpt>
      <trkpt lat="59.3983473419" lon="17.766240958">
        <ele>92.4</ele>
        <time>2012-09-11T18:29:12Z</time>
      </trkpt>
      <trkpt lat="59.3983618426" lon="17.7662251162">
        <ele>92.8</ele>
        <time>2012-09-11T18:29:16Z</time>
      </trkpt>
      <trkpt lat="59.3983618426" lon="17.7662251162">
        <ele>93.2</ele>
        <time>2012-09-11T18:29:17Z</time>
      </trkpt>
      <trkpt lat="59.3983618426" lon="17.7662251162">
        <ele>93.6</ele>
        <time>2012-09-11T18:29:18Z</time>
      </trkpt>
      <trkpt lat="59.3983618426" lon="17.7662251162">
        <ele>94.2</ele>
        <time>2012-09-11T18:29:19Z</time>
      </trkpt>
      <trkpt lat="59.3983618426" lon="17.7662251162">
        <ele>94.6</ele>
        <time>2012-09-11T18:29:20Z</time>
      </trkpt>
      <trkpt lat="59.3984175823" lon="17.7661723941">
        <ele>94.6</ele>
        <time>2012-09-11T18:29:25Z</time>
      </trkpt>
      <trkpt lat="59.3985121301" lon="17.7660595737">
        <ele>94.6</ele>
        <time>2012-09-11T18:29:31Z</time>
      </trkpt>
      <trkpt lat="59.3985482561" lon="17.7660122998">
        <ele>94.6</ele>
        <time>2012-09-11T18:29:36Z</time>
      </trkpt>
      <trkpt lat="59.3986008944" lon="17.7658759263">
        <ele>94.6</ele>
        <time>2012-09-11T18:29:40Z</time>
      </trkpt>
      <trkpt lat="59.3986220168" lon="17.7658369504">
        <ele>94.6</ele>
        <time>2012-09-11T18:29:42Z</time>
      </trkpt>
      <trkpt lat="59.3986294767" lon="17.765826054">
        <ele>94.6</ele>
        <time>2012-09-11T18:29:49Z</time>
      </trkpt>
      <trkpt lat="59.3987003038" lon="17.7656665464">
        <ele>94.6</ele>
        <time>2012-09-11T18:29:55Z</time>
      </trkpt>
      <trkpt lat="59.398755289" lon="17.7655054463">
        <ele>94.6</ele>
        <time>2012-09-11T18:30:00Z</time>
      </trkpt>
      <trkpt lat="59.3987901577" lon="17.7654419115">
        <ele>94.6</ele>
        <time>2012-09-11T18:30:06Z</time>
      </trkpt>
      <trkpt lat="59.3988328216" lon="17.7653710006">
        <ele>94.6</ele>
        <time>2012-09-11T18:30:12Z</time>
      </trkpt>
      <trkpt lat="59.3988385213" lon="17.7653537339">
        <ele>95</ele>
        <time>2012-09-11T18:30:13Z</time>
      </trkpt>
      <trkpt lat="59.3988421255" lon="17.765336551">
        <ele>95.4</ele>
        <time>2012-09-11T18:30:14Z</time>
      </trkpt>
      <trkpt lat="59.398845143" lon="17.7653191167">
        <ele>95.8</ele>
        <time>2012-09-11T18:30:15Z</time>
      </trkpt>
      <trkpt lat="59.3988456459" lon="17.7653025205">
        <ele>96.2</ele>
        <time>2012-09-11T18:30:16Z</time>
      </trkpt>
      <trkpt lat="59.3988438857" lon="17.7652877684">
        <ele>96.6</ele>
        <time>2012-09-11T18:30:17Z</time>
      </trkpt>
      <trkpt lat="59.3988437181" lon="17.7652758661">
        <ele>97</ele>
        <time>2012-09-11T18:30:18Z</time>
      </trkpt>
      <trkpt lat="59.3988437181" lon="17.7652758661">
        <ele>97.4</ele>
        <time>2012-09-11T18:30:19Z</time>
      </trkpt>
      <trkpt lat="59.3988482443" lon="17.7652570068">
        <ele>97.8</ele>
        <time>2012-09-11T18:30:20Z</time>
      </trkpt>
      <trkpt lat="59.398860901" lon="17.7652262452">
        <ele>98.2</ele>
        <time>2012-09-11T18:30:21Z</time>
      </trkpt>
      <trkpt lat="59.3988686961" lon="17.76519716">
        <ele>98.6</ele>
        <time>2012-09-11T18:30:22Z</time>
      </trkpt>
      <trkpt lat="59.3988972784" lon="17.7651507243">
        <ele>99</ele>
        <time>2012-09-11T18:30:24Z</time>
      </trkpt>
      <trkpt lat="59.3989086778" lon="17.7651301048">
        <ele>99.4</ele>
        <time>2012-09-11T18:30:25Z</time>
      </trkpt>
      <trkpt lat="59.3989167244" lon="17.7651204656">
        <ele>100</ele>
        <time>2012-09-11T18:30:26Z</time>
      </trkpt>
      <trkpt lat="59.3989267827" lon="17.7651011873">
        <ele>100.4</ele>
        <time>2012-09-11T18:30:27Z</time>
      </trkpt>
      <trkpt lat="59.3989379306" lon="17.7650855969">
        <ele>100.8</ele>
        <time>2012-09-11T18:30:28Z</time>
      </trkpt>
      <trkpt lat="59.3989554488" lon="17.7650688331">
        <ele>100.8</ele>
        <time>2012-09-11T18:30:31Z</time>
      </trkpt>
      <trkpt lat="59.3989589692" lon="17.7650575176">
        <ele>100.8</ele>
        <time>2012-09-11T18:30:38Z</time>
      </trkpt>
      <trkpt lat="59.3989589692" lon="17.7650575176">
        <ele>101.4</ele>
        <time>2012-09-11T18:30:41Z</time>
      </trkpt>
      <trkpt lat="59.3989589692" lon="17.7650575176">
        <ele>102</ele>
        <time>2012-09-11T18:30:42Z</time>
      </trkpt>
      <trkpt lat="59.3989589692" lon="17.7650575176">
        <ele>102.4</ele>
        <time>2012-09-11T18:30:43Z</time>
      </trkpt>
      <trkpt lat="59.3989589692" lon="17.7650575176">
        <ele>103</ele>
        <time>2012-09-11T18:30:44Z</time>
      </trkpt>
      <trkpt lat="59.3989589692" lon="17.7650575176">
        <ele>103.6</ele>
        <time>2012-09-11T18:30:45Z</time>
      </trkpt>
      <trkpt lat="59.3989589692" lon="17.7650575176">
        <ele>103.6</ele>
        <time>2012-09-11T18:30:50Z</time>
      </trkpt>
      <trkpt lat="59.3990323108" lon="17.7650081482">
        <ele>103.6</ele>
        <time>2012-09-11T18:30:57Z</time>
      </trkpt>
      <trkpt lat="59.399062318" lon="17.7649866905">
        <ele>103.6</ele>
        <time>2012-09-11T18:30:59Z</time>
      </trkpt>
      <trkpt lat="59.3991478134" lon="17.7649255865">
        <ele>103.6</ele>
        <time>2012-09-11T18:31:04Z</time>
      </trkpt>
      <trkpt lat="59.3992407687" lon="17.7648307034">
        <ele>104</ele>
        <time>2012-09-11T18:31:10Z</time>
      </trkpt>
      <trkpt lat="59.3992496535" lon="17.7648146939">
        <ele>104.4</ele>
        <time>2012-09-11T18:31:11Z</time>
      </trkpt>
      <trkpt lat="59.399257281" lon="17.7647934877">
        <ele>104.8</ele>
        <time>2012-09-11T18:31:12Z</time>
      </trkpt>
      <trkpt lat="59.3992639027" lon="17.764772533">
        <ele>105.2</ele>
        <time>2012-09-11T18:31:13Z</time>
      </trkpt>
      <trkpt lat="59.3992694348" lon="17.764753087">
        <ele>105.6</ele>
        <time>2012-09-11T18:31:14Z</time>
      </trkpt>
      <trkpt lat="59.3992712788" lon="17.7647359041">
        <ele>105.6</ele>
        <time>2012-09-11T18:31:17Z</time>
      </trkpt>
      <trkpt lat="59.3993199776" lon="17.7646380035">
        <ele>105.6</ele>
        <time>2012-09-11T18:31:23Z</time>
      </trkpt>
      <trkpt lat="59.3993308741" lon="17.7646266879">
        <ele>106</ele>
        <time>2012-09-11T18:31:24Z</time>
      </trkpt>
      <trkpt lat="59.399344788" lon="17.7646258497">
        <ele>106.4</ele>
        <time>2012-09-11T18:31:25Z</time>
      </trkpt>
      <trkpt lat="59.3993580314" lon="17.7646263526">
        <ele>107</ele>
        <time>2012-09-11T18:31:26Z</time>
      </trkpt>
      <trkpt lat="59.3993714425" lon="17.7646281967">
        <ele>107.4</ele>
        <time>2012-09-11T18:31:27Z</time>
      </trkpt>
      <trkpt lat="59.3993816684" lon="17.7646318009">
        <ele>107.8</ele>
        <time>2012-09-11T18:31:28Z</time>
      </trkpt>
      <trkpt lat="59.3993872843" lon="17.7646354051">
        <ele>107.8</ele>
        <time>2012-09-11T18:31:29Z</time>
      </trkpt>
      <trkpt lat="59.3994043834" lon="17.7646246763">
        <ele>107.8</ele>
        <time>2012-09-11T18:31:39Z</time>
      </trkpt>
      <trkpt lat="59.3995209756" lon="17.7645396838">
        <ele>107.8</ele>
        <time>2012-09-11T18:31:45Z</time>
      </trkpt>
      <trkpt lat="59.3995524915" lon="17.7645094251">
        <ele>108.2</ele>
        <time>2012-09-11T18:31:46Z</time>
      </trkpt>
      <trkpt lat="59.3995867735" lon="17.7644852014">
        <ele>108.6</ele>
        <time>2012-09-11T18:31:47Z</time>
      </trkpt>
      <trkpt lat="59.39962357" lon="17.764474305">
        <ele>109</ele>
        <time>2012-09-11T18:31:48Z</time>
      </trkpt>
      <trkpt lat="59.399659696" lon="17.7644572897">
        <ele>109.4</ele>
        <time>2012-09-11T18:31:49Z</time>
      </trkpt>
      <trkpt lat="59.3996974984" lon="17.7644343233">
        <ele>109.8</ele>
        <time>2012-09-11T18:31:50Z</time>
      </trkpt>
      <trkpt lat="59.3997997576" lon="17.7642970278">
        <ele>109.8</ele>
        <time>2012-09-11T18:31:54Z</time>
      </trkpt>
      <trkpt lat="59.3999553256" lon="17.7640877317">
        <ele>109.8</ele>
        <time>2012-09-11T18:32:00Z</time>
      </trkpt>
      <trkpt lat="59.4001336925" lon="17.7638451596">
        <ele>109.8</ele>
        <time>2012-09-11T18:32:06Z</time>
      </trkpt>
      <trkpt lat="59.400301079" lon="17.7636301638">
        <ele>109.8</ele>
        <time>2012-09-11T18:32:11Z</time>
      </trkpt>
      <trkpt lat="59.4003829702" lon="17.763589344">
        <ele>110.2</ele>
        <time>2012-09-11T18:32:14Z</time>
      </trkpt>
      <trkpt lat="59.4004049308" lon="17.763578699">
        <ele>110.6</ele>
        <time>2012-09-11T18:32:15Z</time>
      </trkpt>
      <trkpt lat="59.4004257179" lon="17.7635671319">
        <ele>111.2</ele>
        <time>2012-09-11T18:32:16Z</time>
      </trkpt>
      <trkpt lat="59.4004409729" lon="17.7635581633">
        <ele>111.6</ele>
        <time>2012-09-11T18:32:17Z</time>
      </trkpt>
      <trkpt lat="59.4004536296" lon="17.7635446684">
        <ele>112</ele>
        <time>2012-09-11T18:32:18Z</time>
      </trkpt>
      <trkpt lat="59.4004770989" lon="17.763509213">
        <ele>112.4</ele>
        <time>2012-09-11T18:32:21Z</time>
      </trkpt>
      <trkpt lat="59.4004852294" lon="17.7634997415">
        <ele>112.8</ele>
        <time>2012-09-11T18:32:22Z</time>
      </trkpt>
      <trkpt lat="59.4004852294" lon="17.7634997415">
        <ele>113.2</ele>
        <time>2012-09-11T18:32:23Z</time>
      </trkpt>
      <trkpt lat="59.4004942818" lon="17.7634880906">
        <ele>113.6</ele>
        <time>2012-09-11T18:32:24Z</time>
      </trkpt>
      <trkpt lat="59.4005025799" lon="17.7634778647">
        <ele>114</ele>
        <time>2012-09-11T18:32:25Z</time>
      </trkpt>
      <trkpt lat="59.4005298211" lon="17.7634451753">
        <ele>114</ele>
        <time>2012-09-11T18:32:29Z</time>
      </trkpt>
      <trkpt lat="59.400626632" lon="17.7632895234">
        <ele>114.4</ele>
        <time>2012-09-11T18:32:36Z</time>
      </trkpt>
      <trkpt lat="59.4006476706" lon="17.7632717538">
        <ele>114.8</ele>
        <time>2012-09-11T18:32:37Z</time>
      </trkpt>
      <trkpt lat="59.4006670328" lon="17.7632759447">
        <ele>115.2</ele>
        <time>2012-09-11T18:32:38Z</time>
      </trkpt>
      <trkpt lat="59.400684048" lon="17.7632721729">
        <ele>115.6</ele>
        <time>2012-09-11T18:32:39Z</time>
      </trkpt>
      <trkpt lat="59.4006953636" lon="17.7632599353">
        <ele>116</ele>
        <time>2012-09-11T18:32:40Z</time>
      </trkpt>
      <trkpt lat="59.4007065953" lon="17.7632479492">
        <ele>116</ele>
        <time>2012-09-11T18:32:41Z</time>
      </trkpt>
      <trkpt lat="59.4007872292" lon="17.7632792975">
        <ele>116</ele>
        <time>2012-09-11T18:32:46Z</time>
      </trkpt>
      <trkpt lat="59.4007992153" lon="17.7632922056">
        <ele>116.6</ele>
        <time>2012-09-11T18:32:47Z</time>
      </trkpt>
      <trkpt lat="59.4008090222" lon="17.7633071254">
        <ele>117</ele>
        <time>2012-09-11T18:32:48Z</time>
      </trkpt>
      <trkpt lat="59.400820673" lon="17.7633125736">
        <ele>117.4</ele>
        <time>2012-09-11T18:32:49Z</time>
      </trkpt>
      <trkpt lat="59.4008417116" lon="17.763317016">
        <ele>117.8</ele>
        <time>2012-09-11T18:32:50Z</time>
      </trkpt>
      <trkpt lat="59.4008631692" lon="17.763327242">
        <ele>118.2</ele>
        <time>2012-09-11T18:32:51Z</time>
      </trkpt>
      <trkpt lat="59.4009433002" lon="17.7634032658">
        <ele>118.2</ele>
        <time>2012-09-11T18:32:56Z</time>
      </trkpt>
      <trkpt lat="59.400966099" lon="17.763443918">
        <ele>118.6</ele>
        <time>2012-09-11T18:33:00Z</time>
      </trkpt>
      <trkpt lat="59.400966099" lon="17.763443918">
        <ele>119</ele>
        <time>2012-09-11T18:33:01Z</time>
      </trkpt>
      <trkpt lat="59.4009677753" lon="17.7634631964">
        <ele>119.4</ele>
        <time>2012-09-11T18:33:02Z</time>
      </trkpt>
      <trkpt lat="59.4009715472" lon="17.7634768589">
        <ele>119.8</ele>
        <time>2012-09-11T18:33:03Z</time>
      </trkpt>
      <trkpt lat="59.4009715472" lon="17.7634768589">
        <ele>120.2</ele>
        <time>2012-09-11T18:33:04Z</time>
      </trkpt>
      <trkpt lat="59.4009907417" lon="17.7635449199">
        <ele>120.2</ele>
        <time>2012-09-11T18:33:07Z</time>
      </trkpt>
      <trkpt lat="59.4010235988" lon="17.7636699778">
        <ele>120.6</ele>
        <time>2012-09-11T18:33:12Z</time>
      </trkpt>
      <trkpt lat="59.4010314778" lon="17.7637029187">
        <ele>121</ele>
        <time>2012-09-11T18:33:13Z</time>
      </trkpt>
      <trkpt lat="59.4010385186" lon="17.7637326745">
        <ele>121.4</ele>
        <time>2012-09-11T18:33:14Z</time>
      </trkpt>
      <trkpt lat="59.4010443021" lon="17.7637547189">
        <ele>121.8</ele>
        <time>2012-09-11T18:33:15Z</time>
      </trkpt>
      <trkpt lat="59.4010544442" lon="17.7637755898">
        <ele>122.2</ele>
        <time>2012-09-11T18:33:16Z</time>
      </trkpt>
      <trkpt lat="59.4010945097" lon="17.7638423097">
        <ele>122.2</ele>
        <time>2012-09-11T18:33:19Z</time>
      </trkpt>
      <trkpt lat="59.4011021372" lon="17.7638614204">
        <ele>122.2</ele>
        <time>2012-09-11T18:33:20Z</time>
      </trkpt>
      <trkpt lat="59.4011334855" lon="17.763927386">
        <ele>122.2</ele>
        <time>2012-09-11T18:33:24Z</time>
      </trkpt>
      <trkpt lat="59.4011442982" lon="17.7639438145">
        <ele>122.2</ele>
        <time>2012-09-11T18:33:25Z</time>
      </trkpt>
      <trkpt lat="59.4011536859" lon="17.7639683735">
        <ele>122.6</ele>
        <time>2012-09-11T18:33:26Z</time>
      </trkpt>
      <trkpt lat="59.4011620678" lon="17.763992681">
        <ele>123</ele>
        <time>2012-09-11T18:33:27Z</time>
      </trkpt>
      <trkpt lat="59.4011713717" lon="17.7640180781">
        <ele>123.4</ele>
        <time>2012-09-11T18:33:28Z</time>
      </trkpt>
      <trkpt lat="59.4011898957" lon="17.7640470795">
        <ele>123.8</ele>
        <time>2012-09-11T18:33:29Z</time>
      </trkpt>
      <trkpt lat="59.4012142032" lon="17.7640692077">
        <ele>124.2</ele>
        <time>2012-09-11T18:33:30Z</time>
      </trkpt>
      <trkpt lat="59.4012403547" lon="17.764100556">
        <ele>124.2</ele>
        <time>2012-09-11T18:33:31Z</time>
      </trkpt>
      <trkpt lat="59.4013201504" lon="17.7643158032">
        <ele>124.2</ele>
        <time>2012-09-11T18:33:36Z</time>
      </trkpt>
      <trkpt lat="59.4013582042" lon="17.7645067429">
        <ele>124.2</ele>
        <time>2012-09-11T18:33:41Z</time>
      </trkpt>
      <trkpt lat="59.4014449569" lon="17.7647686773">
        <ele>124.2</ele>
        <time>2012-09-11T18:33:48Z</time>
      </trkpt>
      <trkpt lat="59.4015588669" lon="17.7650429331">
        <ele>124.2</ele>
        <time>2012-09-11T18:33:54Z</time>
      </trkpt>
      <trkpt lat="59.4016047997" lon="17.7651997584">
        <ele>124.2</ele>
        <time>2012-09-11T18:33:59Z</time>
      </trkpt>
      <trkpt lat="59.4016188813" lon="17.765210152">
        <ele>124.2</ele>
        <time>2012-09-11T18:34:00Z</time>
      </trkpt>
      <trkpt lat="59.4016415963" lon="17.7652178633">
        <ele>124.2</ele>
        <time>2012-09-11T18:34:02Z</time>
      </trkpt>
      <trkpt lat="59.4016697595" lon="17.7651776302">
        <ele>124.2</ele>
        <time>2012-09-11T18:34:04Z</time>
      </trkpt>
      <trkpt lat="59.4018226453" lon="17.7650120039">
        <ele>124.2</ele>
        <time>2012-09-11T18:34:11Z</time>
      </trkpt>
      <trkpt lat="59.4019461107" lon="17.7648074017">
        <ele>124.2</ele>
        <time>2012-09-11T18:34:15Z</time>
      </trkpt>
      <trkpt lat="59.4021500423" lon="17.7645366663">
        <ele>124.2</ele>
        <time>2012-09-11T18:34:21Z</time>
      </trkpt>
      <trkpt lat="59.4022380523" lon="17.7644156317">
        <ele>123.8</ele>
        <time>2012-09-11T18:34:24Z</time>
      </trkpt>
      <trkpt lat="59.4022776149" lon="17.7643634962">
        <ele>123.4</ele>
        <time>2012-09-11T18:34:25Z</time>
      </trkpt>
      <trkpt lat="59.4023132379" lon="17.7642998776">
        <ele>123</ele>
        <time>2012-09-11T18:34:26Z</time>
      </trkpt>
      <trkpt lat="59.4023448377" lon="17.7642339121">
        <ele>122.6</ele>
        <time>2012-09-11T18:34:27Z</time>
      </trkpt>
      <trkpt lat="59.4023736714" lon="17.7641657672">
        <ele>122.2</ele>
        <time>2012-09-11T18:34:28Z</time>
      </trkpt>
      <trkpt lat="59.4024248848" lon="17.7640192516">
        <ele>121.6</ele>
        <time>2012-09-11T18:34:30Z</time>
      </trkpt>
      <trkpt lat="59.4024490247" lon="17.7639304035">
        <ele>120.8</ele>
        <time>2012-09-11T18:34:31Z</time>
      </trkpt>
      <trkpt lat="59.4024760982" lon="17.7638443214">
        <ele>120.4</ele>
        <time>2012-09-11T18:34:32Z</time>
      </trkpt>
      <trkpt lat="59.4025040938" lon="17.7637595804">
        <ele>120</ele>
        <time>2012-09-11T18:34:33Z</time>
      </trkpt>
      <trkpt lat="59.4025379567" lon="17.7636809581">
        <ele>120</ele>
        <time>2012-09-11T18:34:34Z</time>
      </trkpt>
      <trkpt lat="59.4025747532" lon="17.7636037608">
        <ele>119.6</ele>
        <time>2012-09-11T18:34:35Z</time>
      </trkpt>
      <trkpt lat="59.4026122203" lon="17.7635318441">
        <ele>119</ele>
        <time>2012-09-11T18:34:36Z</time>
      </trkpt>
      <trkpt lat="59.4026515314" lon="17.7634626935">
        <ele>118.6</ele>
        <time>2012-09-11T18:34:37Z</time>
      </trkpt>
      <trkpt lat="59.4026913454" lon="17.7633875916">
        <ele>118.2</ele>
        <time>2012-09-11T18:34:38Z</time>
      </trkpt>
      <trkpt lat="59.4027312433" lon="17.7633126574">
        <ele>117.6</ele>
        <time>2012-09-11T18:34:39Z</time>
      </trkpt>
      <trkpt lat="59.4028055907" lon="17.7631990827">
        <ele>117.6</ele>
        <time>2012-09-11T18:34:41Z</time>
      </trkpt>
      <trkpt lat="59.4028824528" lon="17.7630787186">
        <ele>117.2</ele>
        <time>2012-09-11T18:34:43Z</time>
      </trkpt>
      <trkpt lat="59.4029121247" lon="17.7630143456">
        <ele>116.8</ele>
        <time>2012-09-11T18:34:44Z</time>
      </trkpt>
      <trkpt lat="59.4029330794" lon="17.7629528225">
        <ele>116.4</ele>
        <time>2012-09-11T18:34:45Z</time>
      </trkpt>
      <trkpt lat="59.4029470772" lon="17.7629022796">
        <ele>116</ele>
        <time>2012-09-11T18:34:46Z</time>
      </trkpt>
      <trkpt lat="59.4029650983" lon="17.7628633876">
        <ele>115.6</ele>
        <time>2012-09-11T18:34:47Z</time>
      </trkpt>
      <trkpt lat="59.4030376017" lon="17.7627754615">
        <ele>115.6</ele>
        <time>2012-09-11T18:34:50Z</time>
      </trkpt>
      <trkpt lat="59.4031320657" lon="17.762724751">
        <ele>115.6</ele>
        <time>2012-09-11T18:34:54Z</time>
      </trkpt>
      <trkpt lat="59.4031619891" lon="17.7627188836">
        <ele>116</ele>
        <time>2012-09-11T18:34:55Z</time>
      </trkpt>
      <trkpt lat="59.4032010488" lon="17.7627166205">
        <ele>116.8</ele>
        <time>2012-09-11T18:34:56Z</time>
      </trkpt>
      <trkpt lat="59.4032445508" lon="17.7627153633">
        <ele>117.2</ele>
        <time>2012-09-11T18:34:57Z</time>
      </trkpt>
      <trkpt lat="59.403288472" lon="17.7627046344">
        <ele>117.8</ele>
        <time>2012-09-11T18:34:58Z</time>
      </trkpt>
      <trkpt lat="59.4034224986" lon="17.762660378">
        <ele>117.8</ele>
        <time>2012-09-11T18:35:01Z</time>
      </trkpt>
      <trkpt lat="59.4035112629" lon="17.7626173788">
        <ele>117.8</ele>
        <time>2012-09-11T18:35:03Z</time>
      </trkpt>
      <trkpt lat="59.4036359856" lon="17.7625706917">
        <ele>117.2</ele>
        <time>2012-09-11T18:35:06Z</time>
      </trkpt>
      <trkpt lat="59.403673285" lon="17.7625747988">
        <ele>116.6</ele>
        <time>2012-09-11T18:35:07Z</time>
      </trkpt>
      <trkpt lat="59.4037120094" lon="17.7625813367">
        <ele>116</ele>
        <time>2012-09-11T18:35:08Z</time>
      </trkpt>
      <trkpt lat="59.4037568526" lon="17.7625931551">
        <ele>115.4</ele>
        <time>2012-09-11T18:35:09Z</time>
      </trkpt>
      <trkpt lat="59.4038054676" lon="17.7626014532">
        <ele>114.8</ele>
        <time>2012-09-11T18:35:10Z</time>
      </trkpt>
      <trkpt lat="59.4039055475" lon="17.7626092484">
        <ele>114.8</ele>
        <time>2012-09-11T18:35:12Z</time>
      </trkpt>
      <trkpt lat="59.4039512288" lon="17.762602962">
        <ele>114.4</ele>
        <time>2012-09-11T18:35:13Z</time>
      </trkpt>
      <trkpt lat="59.4039884445" lon="17.7625902215">
        <ele>113.8</ele>
        <time>2012-09-11T18:35:14Z</time>
      </trkpt>
      <trkpt lat="59.4040166076" lon="17.7625703564">
        <ele>113.4</ele>
        <time>2012-09-11T18:35:15Z</time>
      </trkpt>
      <trkpt lat="59.4040383168" lon="17.7625428637">
        <ele>113</ele>
        <time>2012-09-11T18:35:16Z</time>
      </trkpt>
      <trkpt lat="59.404062289" lon="17.7625193106">
        <ele>112.4</ele>
        <time>2012-09-11T18:35:17Z</time>
      </trkpt>
      <trkpt lat="59.4040876862" lon="17.7625055643">
        <ele>111.8</ele>
        <time>2012-09-11T18:35:18Z</time>
      </trkpt>
      <trkpt lat="59.4041115746" lon="17.7625029659">
        <ele>111.4</ele>
        <time>2012-09-11T18:35:19Z</time>
      </trkpt>
      <trkpt lat="59.4041339542" lon="17.7625079112">
        <ele>110.8</ele>
        <time>2012-09-11T18:35:20Z</time>
      </trkpt>
      <trkpt lat="59.4041534003" lon="17.762517299">
        <ele>110.2</ele>
        <time>2012-09-11T18:35:21Z</time>
      </trkpt>
      <trkpt lat="59.4041732654" lon="17.7625329731">
        <ele>109.8</ele>
        <time>2012-09-11T18:35:22Z</time>
      </trkpt>
      <trkpt lat="59.4041948068" lon="17.7625613039">
        <ele>109.2</ele>
        <time>2012-09-11T18:35:23Z</time>
      </trkpt>
      <trkpt lat="59.4042144205" lon="17.7625908082">
        <ele>108.8</ele>
        <time>2012-09-11T18:35:24Z</time>
      </trkpt>
      <trkpt lat="59.4042333636" lon="17.7626124335">
        <ele>108.4</ele>
        <time>2012-09-11T18:35:25Z</time>
      </trkpt>
      <trkpt lat="59.4042575873" lon="17.7626234138">
        <ele>107.8</ele>
        <time>2012-09-11T18:35:26Z</time>
      </trkpt>
      <trkpt lat="59.4043085492" lon="17.7626012856">
        <ele>107.4</ele>
        <time>2012-09-11T18:35:28Z</time>
      </trkpt>
      <trkpt lat="59.4043344493" lon="17.7625863658">
        <ele>107</ele>
        <time>2012-09-11T18:35:29Z</time>
      </trkpt>
      <trkpt lat="59.4043585053" lon="17.7625820072">
        <ele>106.6</ele>
        <time>2012-09-11T18:35:30Z</time>
      </trkpt>
      <trkpt lat="59.4043802145" lon="17.762572871">
        <ele>106</ele>
        <time>2012-09-11T18:35:31Z</time>
      </trkpt>
      <trkpt lat="59.4043997443" lon="17.7625607172">
        <ele>105.6</ele>
        <time>2012-09-11T18:35:32Z</time>
      </trkpt>
      <trkpt lat="59.4044184359" lon="17.7625467194">
        <ele>105.2</ele>
        <time>2012-09-11T18:35:33Z</time>
      </trkpt>
      <trkpt lat="59.4044387201" lon="17.7625396786">
        <ele>104.8</ele>
        <time>2012-09-11T18:35:34Z</time>
      </trkpt>
      <trkpt lat="59.4044583338" lon="17.7625401815">
        <ele>104.4</ele>
        <time>2012-09-11T18:35:35Z</time>
      </trkpt>
      <trkpt lat="59.404473505" lon="17.7625487311">
        <ele>104</ele>
        <time>2012-09-11T18:35:36Z</time>
      </trkpt>
      <trkpt lat="59.404491107" lon="17.7625613877">
        <ele>103.6</ele>
        <time>2012-09-11T18:35:37Z</time>
      </trkpt>
      <trkpt lat="59.4045057753" lon="17.7625785706">
        <ele>103.6</ele>
        <time>2012-09-11T18:35:38Z</time>
      </trkpt>
      <trkpt lat="59.4045408117" lon="17.7625993578">
        <ele>103.2</ele>
        <time>2012-09-11T18:35:40Z</time>
      </trkpt>
      <trkpt lat="59.4045570726" lon="17.7626106733">
        <ele>102.8</ele>
        <time>2012-09-11T18:35:41Z</time>
      </trkpt>
      <trkpt lat="59.4045821344" lon="17.7626183847">
        <ele>102.4</ele>
        <time>2012-09-11T18:35:42Z</time>
      </trkpt>
      <trkpt lat="59.4046062743" lon="17.7626247549">
        <ele>102</ele>
        <time>2012-09-11T18:35:43Z</time>
      </trkpt>
      <trkpt lat="59.4046345213" lon="17.762634897">
        <ele>101.6</ele>
        <time>2012-09-11T18:35:44Z</time>
      </trkpt>
      <trkpt lat="59.4046604214" lon="17.762648811">
        <ele>101.2</ele>
        <time>2012-09-11T18:35:45Z</time>
      </trkpt>
      <trkpt lat="59.4046924402" lon="17.7626698495">
        <ele>100.8</ele>
        <time>2012-09-11T18:35:46Z</time>
      </trkpt>
      <trkpt lat="59.4047219445" lon="17.762692313">
        <ele>100.4</ele>
        <time>2012-09-11T18:35:47Z</time>
      </trkpt>
      <trkpt lat="59.4047455815" lon="17.7627157823">
        <ele>100</ele>
        <time>2012-09-11T18:35:48Z</time>
      </trkpt>
      <trkpt lat="59.4047706434" lon="17.7627444484">
        <ele>99.4</ele>
        <time>2012-09-11T18:35:49Z</time>
      </trkpt>
      <trkpt lat="59.404796292" lon="17.7627809097">
        <ele>99.4</ele>
        <time>2012-09-11T18:35:50Z</time>
      </trkpt>
      <trkpt lat="59.4048235332" lon="17.7628225678">
        <ele>99</ele>
        <time>2012-09-11T18:35:51Z</time>
      </trkpt>
      <trkpt lat="59.4048517802" lon="17.7628580232">
        <ele>98.6</ele>
        <time>2012-09-11T18:35:52Z</time>
      </trkpt>
      <trkpt lat="59.404912046" lon="17.7628790618">
        <ele>98.2</ele>
        <time>2012-09-11T18:35:53Z</time>
      </trkpt>
      <trkpt lat="59.4049789336" lon="17.7628943168">
        <ele>97.8</ele>
        <time>2012-09-11T18:35:54Z</time>
      </trkpt>
      <trkpt lat="59.4050459888" lon="17.7629083984">
        <ele>97.4</ele>
        <time>2012-09-11T18:35:55Z</time>
      </trkpt>
      <trkpt lat="59.405320496" lon="17.7629627131">
        <ele>97</ele>
        <time>2012-09-11T18:36:01Z</time>
      </trkpt>
      <trkpt lat="59.4053717932" lon="17.7629721008">
        <ele>96.6</ele>
        <time>2012-09-11T18:36:02Z</time>
      </trkpt>
      <trkpt lat="59.4054164688" lon="17.762986853">
        <ele>96</ele>
        <time>2012-09-11T18:36:03Z</time>
      </trkpt>
      <trkpt lat="59.4054587974" lon="17.7630033653">
        <ele>95.6</ele>
        <time>2012-09-11T18:36:04Z</time>
      </trkpt>
      <trkpt lat="59.4054940013" lon="17.7630246554">
        <ele>95.2</ele>
        <time>2012-09-11T18:36:05Z</time>
      </trkpt>
      <trkpt lat="59.4055162972" lon="17.76305768">
        <ele>95.2</ele>
        <time>2012-09-11T18:36:06Z</time>
      </trkpt>
      <trkpt lat="59.4055287024" lon="17.7630995057">
        <ele>95.2</ele>
        <time>2012-09-11T18:36:07Z</time>
      </trkpt>
      <trkpt lat="59.4055370843" lon="17.7631497971">
        <ele>94.8</ele>
        <time>2012-09-11T18:36:08Z</time>
      </trkpt>
      <trkpt lat="59.4055405209" lon="17.7632034413">
        <ele>94</ele>
        <time>2012-09-11T18:36:09Z</time>
      </trkpt>
      <trkpt lat="59.4055434546" lon="17.7632536489">
        <ele>93.6</ele>
        <time>2012-09-11T18:36:10Z</time>
      </trkpt>
      <trkpt lat="59.4055462206" lon="17.7633090532">
        <ele>93.2</ele>
        <time>2012-09-11T18:36:11Z</time>
      </trkpt>
      <trkpt lat="59.4055593802" lon="17.7634419902">
        <ele>93.2</ele>
        <time>2012-09-11T18:36:14Z</time>
      </trkpt>
      <trkpt lat="59.4055783233" lon="17.7634655433">
        <ele>93.2</ele>
        <time>2012-09-11T18:36:15Z</time>
      </trkpt>
      <trkpt lat="59.4056364098" lon="17.763488845">
        <ele>93.6</ele>
        <time>2012-09-11T18:36:17Z</time>
      </trkpt>
      <trkpt lat="59.4056675905" lon="17.7635075366">
        <ele>94</ele>
        <time>2012-09-11T18:36:18Z</time>
      </trkpt>
      <trkpt lat="59.4056963404" lon="17.7635236299">
        <ele>94.6</ele>
        <time>2012-09-11T18:36:19Z</time>
      </trkpt>
      <trkpt lat="59.4057214023" lon="17.763538382">
        <ele>95</ele>
        <time>2012-09-11T18:36:20Z</time>
      </trkpt>
      <trkpt lat="59.4057455422" lon="17.7635592529">
        <ele>95.4</ele>
        <time>2012-09-11T18:36:21Z</time>
      </trkpt>
      <trkpt lat="59.4058490586" lon="17.7636591652">
        <ele>95.4</ele>
        <time>2012-09-11T18:36:25Z</time>
      </trkpt>
      <trkpt lat="59.4059560955" lon="17.7638159905">
        <ele>95.4</ele>
        <time>2012-09-11T18:36:29Z</time>
      </trkpt>
      <trkpt lat="59.4060019445" lon="17.7638418068">
        <ele>95.4</ele>
        <time>2012-09-11T18:36:31Z</time>
      </trkpt>
      <trkpt lat="59.406061456" lon="17.7638420582">
        <ele>95.4</ele>
        <time>2012-09-11T18:36:33Z</time>
      </trkpt>
      <trkpt lat="59.4062451034" lon="17.7637470075">
        <ele>95.4</ele>
        <time>2012-09-11T18:36:38Z</time>
      </trkpt>
      <trkpt lat="59.4063982407" lon="17.7636933633">
        <ele>95.4</ele>
        <time>2012-09-11T18:36:42Z</time>
      </trkpt>
      <trkpt lat="59.4064854963" lon="17.7636472629">
        <ele>95.4</ele>
        <time>2012-09-11T18:36:46Z</time>
      </trkpt>
      <trkpt lat="59.4065770266" lon="17.7636205246">
        <ele>95.4</ele>
        <time>2012-09-11T18:36:50Z</time>
      </trkpt>
      <trkpt lat="59.4065980652" lon="17.7636283198">
        <ele>95.4</ele>
        <time>2012-09-11T18:36:51Z</time>
      </trkpt>
      <trkpt lat="59.4066883383" lon="17.7635977259">
        <ele>95.4</ele>
        <time>2012-09-11T18:36:56Z</time>
      </trkpt>
      <trkpt lat="59.4067134002" lon="17.7635888411">
        <ele>95.4</ele>
        <time>2012-09-11T18:36:57Z</time>
      </trkpt>
      <trkpt lat="59.4068418947" lon="17.7634735061">
        <ele>95.4</ele>
        <time>2012-09-11T18:37:02Z</time>
      </trkpt>
      <trkpt lat="59.4068947845" lon="17.7634480251">
        <ele>95.4</ele>
        <time>2012-09-11T18:37:04Z</time>
      </trkpt>
      <trkpt lat="59.4069443215" lon="17.7634426607">
        <ele>95.4</ele>
        <time>2012-09-11T18:37:07Z</time>
      </trkpt>
      <trkpt lat="59.4069994744" lon="17.7634268189">
        <ele>95.4</ele>
        <time>2012-09-11T18:37:14Z</time>
      </trkpt>
      <trkpt lat="59.4070871491" lon="17.7634124021">
        <ele>95.4</ele>
        <time>2012-09-11T18:37:21Z</time>
      </trkpt>
      <trkpt lat="59.4071026556" lon="17.7634029305">
        <ele>95.4</ele>
        <time>2012-09-11T18:37:22Z</time>
      </trkpt>
      <trkpt lat="59.4071518573" lon="17.7633218775">
        <ele>95.4</ele>
        <time>2012-09-11T18:37:26Z</time>
      </trkpt>
      <trkpt lat="59.4071744047" lon="17.7633069578">
        <ele>95.8</ele>
        <time>2012-09-11T18:37:30Z</time>
      </trkpt>
      <trkpt lat="59.4071744047" lon="17.7633069578">
        <ele>96.2</ele>
        <time>2012-09-11T18:37:31Z</time>
      </trkpt>
      <trkpt lat="59.4071744047" lon="17.7633069578">
        <ele>96.6</ele>
        <time>2012-09-11T18:37:32Z</time>
      </trkpt>
      <trkpt lat="59.4071785956" lon="17.7633047785">
        <ele>97</ele>
        <time>2012-09-11T18:37:33Z</time>
      </trkpt>
      <trkpt lat="59.4071827866" lon="17.7633004199">
        <ele>97.4</ele>
        <time>2012-09-11T18:37:34Z</time>
      </trkpt>
      <trkpt lat="59.4071827866" lon="17.7633004199">
        <ele>97.4</ele>
        <time>2012-09-11T18:37:40Z</time>
      </trkpt>
      <trkpt lat="59.4072384424" lon="17.7632176067">
        <ele>97.4</ele>
        <time>2012-09-11T18:37:45Z</time>
      </trkpt>
      <trkpt lat="59.407299295" lon="17.7631462767">
        <ele>97.4</ele>
        <time>2012-09-11T18:37:48Z</time>
      </trkpt>
      <trkpt lat="59.4073193277" lon="17.7631411638">
        <ele>97.4</ele>
        <time>2012-09-11T18:37:49Z</time>
      </trkpt>
      <trkpt lat="59.4073683618" lon="17.763150803">
        <ele>97.4</ele>
        <time>2012-09-11T18:37:53Z</time>
      </trkpt>
      <trkpt lat="59.4074600598" lon="17.7631329495">
        <ele>97.4</ele>
        <time>2012-09-11T18:38:00Z</time>
      </trkpt>
      <trkpt lat="59.4074703695" lon="17.7631217178">
        <ele>97</ele>
        <time>2012-09-11T18:38:01Z</time>
      </trkpt>
      <trkpt lat="59.4074816013" lon="17.7631039481">
        <ele>96.6</ele>
        <time>2012-09-11T18:38:02Z</time>
      </trkpt>
      <trkpt lat="59.4074904023" lon="17.7630860947">
        <ele>96.2</ele>
        <time>2012-09-11T18:38:03Z</time>
      </trkpt>
      <trkpt lat="59.4074955152" lon="17.7630708396">
        <ele>95.8</ele>
        <time>2012-09-11T18:38:04Z</time>
      </trkpt>
      <trkpt lat="59.4075007958" lon="17.763059105">
        <ele>95.4</ele>
        <time>2012-09-11T18:38:05Z</time>
      </trkpt>
      <trkpt lat="59.407514626" lon="17.763035468">
        <ele>95.4</ele>
        <time>2012-09-11T18:38:07Z</time>
      </trkpt>
      <trkpt lat="59.4075598882" lon="17.7629296884">
        <ele>95.4</ele>
        <time>2012-09-11T18:38:12Z</time>
      </trkpt>
      <trkpt lat="59.4075707009" lon="17.7629138466">
        <ele>94.4</ele>
        <time>2012-09-11T18:38:13Z</time>
      </trkpt>
      <trkpt lat="59.4075760653" lon="17.762907644">
        <ele>94</ele>
        <time>2012-09-11T18:38:14Z</time>
      </trkpt>
      <trkpt lat="59.4075801724" lon="17.7629075602">
        <ele>93.6</ele>
        <time>2012-09-11T18:38:15Z</time>
      </trkpt>
      <trkpt lat="59.4075801724" lon="17.7629075602">
        <ele>93.2</ele>
        <time>2012-09-11T18:38:16Z</time>
      </trkpt>
      <trkpt lat="59.4075867103" lon="17.7628768825">
        <ele>93.2</ele>
        <time>2012-09-11T18:38:18Z</time>
      </trkpt>
      <trkpt lat="59.4075992832" lon="17.7628629685">
        <ele>93.2</ele>
        <time>2012-09-11T18:38:19Z</time>
      </trkpt>
      <trkpt lat="59.407676229" lon="17.7628049658">
        <ele>93.2</ele>
        <time>2012-09-11T18:38:24Z</time>
      </trkpt>
      <trkpt lat="59.4077575334" lon="17.7627420177">
        <ele>93.2</ele>
        <time>2012-09-11T18:38:27Z</time>
      </trkpt>
      <trkpt lat="59.4078268518" lon="17.7626921454">
        <ele>93.2</ele>
        <time>2012-09-11T18:38:29Z</time>
      </trkpt>
      <trkpt lat="59.4078873691" lon="17.7626763036">
        <ele>93.2</ele>
        <time>2012-09-11T18:38:32Z</time>
      </trkpt>
      <trkpt lat="59.4079194717" lon="17.7626592045">
        <ele>93.2</ele>
        <time>2012-09-11T18:38:35Z</time>
      </trkpt>
      <trkpt lat="59.4079528317" lon="17.7626426084">
        <ele>93.2</ele>
        <time>2012-09-11T18:38:38Z</time>
      </trkpt>
      <trkpt lat="59.407987868" lon="17.7625904729">
        <ele>93.2</ele>
        <time>2012-09-11T18:38:41Z</time>
      </trkpt>
      <trkpt lat="59.408013349" lon="17.762573793">
        <ele>93.2</ele>
        <time>2012-09-11T18:38:42Z</time>
      </trkpt>
      <trkpt lat="59.4081429332" lon="17.7624981882">
        <ele>93.2</ele>
        <time>2012-09-11T18:38:47Z</time>
      </trkpt>
      <trkpt lat="59.4082447733" lon="17.7624224997">
        <ele>93.2</ele>
        <time>2012-09-11T18:38:52Z</time>
      </trkpt>
      <trkpt lat="59.4083536542" lon="17.7623633235">
        <ele>93.6</ele>
        <time>2012-09-11T18:38:57Z</time>
      </trkpt>
      <trkpt lat="59.4083774588" lon="17.7623713701">
        <ele>94</ele>
        <time>2012-09-11T18:38:58Z</time>
      </trkpt>
      <trkpt lat="59.4084003413" lon="17.7623840267">
        <ele>94.4</ele>
        <time>2012-09-11T18:38:59Z</time>
      </trkpt>
      <trkpt lat="59.4084176919" lon="17.7623984436">
        <ele>95</ele>
        <time>2012-09-11T18:39:00Z</time>
      </trkpt>
      <trkpt lat="59.4084285884" lon="17.762414956">
        <ele>95.4</ele>
        <time>2012-09-11T18:39:01Z</time>
      </trkpt>
      <trkpt lat="59.4084339528" lon="17.7624376709">
        <ele>95.4</ele>
        <time>2012-09-11T18:39:02Z</time>
      </trkpt>
      <trkpt lat="59.408431522" lon="17.7624677619">
        <ele>95.8</ele>
        <time>2012-09-11T18:39:03Z</time>
      </trkpt>
      <trkpt lat="59.4084295104" lon="17.7625113478">
        <ele>96.2</ele>
        <time>2012-09-11T18:39:04Z</time>
      </trkpt>
      <trkpt lat="59.4084289236" lon="17.7625575321">
        <ele>96.6</ele>
        <time>2012-09-11T18:39:05Z</time>
      </trkpt>
      <trkpt lat="59.4084274987" lon="17.7626077397">
        <ele>97</ele>
        <time>2012-09-11T18:39:06Z</time>
      </trkpt>
      <trkpt lat="59.4084283369" lon="17.7626550136">
        <ele>97.4</ele>
        <time>2012-09-11T18:39:07Z</time>
      </trkpt>
      <trkpt lat="59.4084508842" lon="17.7627648165">
        <ele>97.8</ele>
        <time>2012-09-11T18:39:10Z</time>
      </trkpt>
      <trkpt lat="59.4084580926" lon="17.7627767188">
        <ele>98.2</ele>
        <time>2012-09-11T18:39:11Z</time>
      </trkpt>
      <trkpt lat="59.4084594337" lon="17.7627765511">
        <ele>98.8</ele>
        <time>2012-09-11T18:39:12Z</time>
      </trkpt>
      <trkpt lat="59.4084594337" lon="17.7627765511">
        <ele>99.2</ele>
        <time>2012-09-11T18:39:13Z</time>
      </trkpt>
      <trkpt lat="59.4084594337" lon="17.7627813288">
        <ele>99.6</ele>
        <time>2012-09-11T18:39:14Z</time>
      </trkpt>
      <trkpt lat="59.4084537341" lon="17.7628032894">
        <ele>99.6</ele>
        <time>2012-09-11T18:39:16Z</time>
      </trkpt>
      <trkpt lat="59.4084492078" lon="17.7628143535">
        <ele>99.6</ele>
        <time>2012-09-11T18:39:17Z</time>
      </trkpt>
      <trkpt lat="59.4084503813" lon="17.7628314526">
        <ele>100</ele>
        <time>2012-09-11T18:39:19Z</time>
      </trkpt>
      <trkpt lat="59.4084549913" lon="17.7628431034">
        <ele>100.4</ele>
        <time>2012-09-11T18:39:20Z</time>
      </trkpt>
      <trkpt lat="59.4084582603" lon="17.7628498927">
        <ele>101</ele>
        <time>2012-09-11T18:39:21Z</time>
      </trkpt>
      <trkpt lat="59.4084594337" lon="17.7628548381">
        <ele>101.4</ele>
        <time>2012-09-11T18:39:22Z</time>
      </trkpt>
      <trkpt lat="59.4084653011" lon="17.7628698417">
        <ele>101.8</ele>
        <time>2012-09-11T18:39:23Z</time>
      </trkpt>
      <trkpt lat="59.4084786283" lon="17.7629403334">
        <ele>102.6</ele>
        <time>2012-09-11T18:39:28Z</time>
      </trkpt>
      <trkpt lat="59.4084814781" lon="17.7629555047">
        <ele>103</ele>
        <time>2012-09-11T18:39:29Z</time>
      </trkpt>
      <trkpt lat="59.408486172" lon="17.7629700054">
        <ele>103.6</ele>
        <time>2012-09-11T18:39:30Z</time>
      </trkpt>
      <trkpt lat="59.4084871778" lon="17.7629850928">
        <ele>104</ele>
        <time>2012-09-11T18:39:31Z</time>
      </trkpt>
      <trkpt lat="59.4084980743" lon="17.7630351327">
        <ele>104</ele>
        <time>2012-09-11T18:39:35Z</time>
      </trkpt>
      <trkpt lat="59.4085020138" lon="17.7630775452">
        <ele>104</ele>
        <time>2012-09-11T18:39:41Z</time>
      </trkpt>
      <trkpt lat="59.4085166821" lon="17.7632129128">
        <ele>104</ele>
        <time>2012-09-11T18:39:47Z</time>
      </trkpt>
      <trkpt lat="59.4085197834" lon="17.7632417466">
        <ele>104.4</ele>
        <time>2012-09-11T18:39:48Z</time>
      </trkpt>
      <trkpt lat="59.4085218789" lon="17.7632750227">
        <ele>104.8</ele>
        <time>2012-09-11T18:39:49Z</time>
      </trkpt>
      <trkpt lat="59.4085231362" lon="17.7633115678">
        <ele>105.2</ele>
        <time>2012-09-11T18:39:50Z</time>
      </trkpt>
      <trkpt lat="59.4085264051" lon="17.7633576682">
        <ele>105.6</ele>
        <time>2012-09-11T18:39:51Z</time>
      </trkpt>
      <trkpt lat="59.4085295902" lon="17.7634082111">
        <ele>106.2</ele>
        <time>2012-09-11T18:39:52Z</time>
      </trkpt>
      <trkpt lat="59.4085652971" lon="17.763677773">
        <ele>106.2</ele>
        <time>2012-09-11T18:39:56Z</time>
      </trkpt>
      <trkpt lat="59.4086104756" lon="17.7640639271">
        <ele>106.2</ele>
        <time>2012-09-11T18:40:01Z</time>
      </trkpt>
      <trkpt lat="59.4086220426" lon="17.7645399352">
        <ele>106.2</ele>
        <time>2012-09-11T18:40:07Z</time>
      </trkpt>
      <trkpt lat="59.4086196957" lon="17.764700281">
        <ele>106.6</ele>
        <time>2012-09-11T18:40:09Z</time>
      </trkpt>
      <trkpt lat="59.4086196957" lon="17.7647757181">
        <ele>107</ele>
        <time>2012-09-11T18:40:10Z</time>
      </trkpt>
      <trkpt lat="59.4086217911" lon="17.7648496464">
        <ele>107.4</ele>
        <time>2012-09-11T18:40:11Z</time>
      </trkpt>
      <trkpt lat="59.4086236352" lon="17.7649209764">
        <ele>107.8</ele>
        <time>2012-09-11T18:40:12Z</time>
      </trkpt>
      <trkpt lat="59.4086242219" lon="17.7649913844">
        <ele>108.2</ele>
        <time>2012-09-11T18:40:13Z</time>
      </trkpt>
      <trkpt lat="59.4086272394" lon="17.7650581043">
        <ele>108.2</ele>
        <time>2012-09-11T18:40:14Z</time>
      </trkpt>
      <trkpt lat="59.4086858289" lon="17.7653535663">
        <ele>108.2</ele>
        <time>2012-09-11T18:40:19Z</time>
      </trkpt>
      <trkpt lat="59.4087214519" lon="17.7654966453">
        <ele>108.2</ele>
        <time>2012-09-11T18:40:24Z</time>
      </trkpt>
      <trkpt lat="59.408722793" lon="17.765497735">
        <ele>108.8</ele>
        <time>2012-09-11T18:40:29Z</time>
      </trkpt>
      <trkpt lat="59.408722793" lon="17.765497735">
        <ele>109.4</ele>
        <time>2012-09-11T18:40:30Z</time>
      </trkpt>
      <trkpt lat="59.408722793" lon="17.765497735">
        <ele>109.8</ele>
        <time>2012-09-11T18:40:31Z</time>
      </trkpt>
      <trkpt lat="59.408722793" lon="17.765497735">
        <ele>110.4</ele>
        <time>2012-09-11T18:40:32Z</time>
      </trkpt>
      <trkpt lat="59.4087222901" lon="17.7654998304">
        <ele>111</ele>
        <time>2012-09-11T18:40:33Z</time>
      </trkpt>
      <trkpt lat="59.408722793" lon="17.765497735">
        <ele>111</ele>
        <time>2012-09-11T18:40:37Z</time>
      </trkpt>
      <trkpt lat="59.4087536384" lon="17.7655165104">
        <ele>111</ele>
        <time>2012-09-11T18:40:40Z</time>
      </trkpt>
      <trkpt lat="59.408781634" lon="17.7655275745">
        <ele>111</ele>
        <time>2012-09-11T18:40:41Z</time>
      </trkpt>
      <trkpt lat="59.4089360286" lon="17.765551882">
        <ele>111</ele>
        <time>2012-09-11T18:40:45Z</time>
      </trkpt>
      <trkpt lat="59.4089773513" lon="17.7655558215">
        <ele>111</ele>
        <time>2012-09-11T18:40:46Z</time>
      </trkpt>
      <trkpt lat="59.4091569755" lon="17.7656060291">
        <ele>111</ele>
        <time>2012-09-11T18:40:51Z</time>
      </trkpt>
      <trkpt lat="59.4093428022" lon="17.7657410615">
        <ele>111</ele>
        <time>2012-09-11T18:40:58Z</time>
      </trkpt>
      <trkpt lat="59.4095532717" lon="17.7658716515">
        <ele>111</ele>
        <time>2012-09-11T18:41:04Z</time>
      </trkpt>
      <trkpt lat="59.4097205744" lon="17.7659545485">
        <ele>111.4</ele>
        <time>2012-09-11T18:41:08Z</time>
      </trkpt>
      <trkpt lat="59.4097681836" lon="17.7659814544">
        <ele>111.8</ele>
        <time>2012-09-11T18:41:09Z</time>
      </trkpt>
      <trkpt lat="59.4098172177" lon="17.7660135571">
        <ele>112.2</ele>
        <time>2012-09-11T18:41:10Z</time>
      </trkpt>
      <trkpt lat="59.4098636535" lon="17.7660507727">
        <ele>112.6</ele>
        <time>2012-09-11T18:41:11Z</time>
      </trkpt>
      <trkpt lat="59.4099064011" lon="17.7660992201">
        <ele>113</ele>
        <time>2012-09-11T18:41:12Z</time>
      </trkpt>
      <trkpt lat="59.4100226581" lon="17.7663270401">
        <ele>113.4</ele>
        <time>2012-09-11T18:41:15Z</time>
      </trkpt>
      <trkpt lat="59.4100540064" lon="17.7664044051">
        <ele>113.8</ele>
        <time>2012-09-11T18:41:16Z</time>
      </trkpt>
      <trkpt lat="59.4100826725" lon="17.7664697839">
        <ele>114.2</ele>
        <time>2012-09-11T18:41:17Z</time>
      </trkpt>
      <trkpt lat="59.4101145237" lon="17.7665403595">
        <ele>114.6</ele>
        <time>2012-09-11T18:41:18Z</time>
      </trkpt>
      <trkpt lat="59.4101437765" lon="17.7666164671">
        <ele>115</ele>
        <time>2012-09-11T18:41:19Z</time>
      </trkpt>
      <trkpt lat="59.4101674135" lon="17.7666966819">
        <ele>115</ele>
        <time>2012-09-11T18:41:20Z</time>
      </trkpt>
      <trkpt lat="59.4102842572" lon="17.7670404237">
        <ele>115.4</ele>
        <time>2012-09-11T18:41:25Z</time>
      </trkpt>
      <trkpt lat="59.4102995961" lon="17.7671086523">
        <ele>116</ele>
        <time>2012-09-11T18:41:26Z</time>
      </trkpt>
      <trkpt lat="59.4103106602" lon="17.7671815748">
        <ele>116.4</ele>
        <time>2012-09-11T18:41:27Z</time>
      </trkpt>
      <trkpt lat="59.4103194612" lon="17.7672498035">
        <ele>116.8</ele>
        <time>2012-09-11T18:41:28Z</time>
      </trkpt>
      <trkpt lat="59.4103263343" lon="17.7673184513">
        <ele>117.2</ele>
        <time>2012-09-11T18:41:29Z</time>
      </trkpt>
      <trkpt lat="59.4103494684" lon="17.7675141686">
        <ele>117.2</ele>
        <time>2012-09-11T18:41:32Z</time>
      </trkpt>
      <trkpt lat="59.4103919646" lon="17.7679467585">
        <ele>117.6</ele>
        <time>2012-09-11T18:41:38Z</time>
      </trkpt>
      <trkpt lat="59.4104036154" lon="17.7680254645">
        <ele>118</ele>
        <time>2012-09-11T18:41:39Z</time>
      </trkpt>
      <trkpt lat="59.4104166074" lon="17.7681054279">
        <ele>118.6</ele>
        <time>2012-09-11T18:41:40Z</time>
      </trkpt>
      <trkpt lat="59.4104292641" lon="17.7681832957">
        <ele>119</ele>
        <time>2012-09-11T18:41:41Z</time>
      </trkpt>
      <trkpt lat="59.4104453573" lon="17.7682583137">
        <ele>119.4</ele>
        <time>2012-09-11T18:41:42Z</time>
      </trkpt>
      <trkpt lat="59.4104813995" lon="17.7683824497">
        <ele>119.4</ele>
        <time>2012-09-11T18:41:44Z</time>
      </trkpt>
      <trkpt lat="59.410576115" lon="17.7684282148">
        <ele>119.8</ele>
        <time>2012-09-11T18:41:47Z</time>
      </trkpt>
      <trkpt lat="59.4106118218" lon="17.7683930947">
        <ele>120.2</ele>
        <time>2012-09-11T18:41:48Z</time>
      </trkpt>
      <trkpt lat="59.4106496242" lon="17.7683511014">
        <ele>120.8</ele>
        <time>2012-09-11T18:41:49Z</time>
      </trkpt>
      <trkpt lat="59.4106926234" lon="17.7683079346">
        <ele>121.2</ele>
        <time>2012-09-11T18:41:50Z</time>
      </trkpt>
      <trkpt lat="59.4107371312" lon="17.7682601577">
        <ele>121.6</ele>
        <time>2012-09-11T18:41:51Z</time>
      </trkpt>
      <trkpt lat="59.4110497761" lon="17.7679399692">
        <ele>121.6</ele>
        <time>2012-09-11T18:41:57Z</time>
      </trkpt>
      <trkpt lat="59.4113811126" lon="17.7676513803">
        <ele>121.6</ele>
        <time>2012-09-11T18:42:02Z</time>
      </trkpt>
      <trkpt lat="59.4114519397" lon="17.7675893543">
        <ele>121</ele>
        <time>2012-09-11T18:42:03Z</time>
      </trkpt>
      <trkpt lat="59.4115230182" lon="17.7675252327">
        <ele>120.6</ele>
        <time>2012-09-11T18:42:04Z</time>
      </trkpt>
      <trkpt lat="59.4115921689" lon="17.7674618656">
        <ele>120</ele>
        <time>2012-09-11T18:42:05Z</time>
      </trkpt>
      <trkpt lat="59.4116596432" lon="17.7673924635">
        <ele>119.6</ele>
        <time>2012-09-11T18:42:06Z</time>
      </trkpt>
      <trkpt lat="59.4117261116" lon="17.7673230613">
        <ele>119.2</ele>
        <time>2012-09-11T18:42:07Z</time>
      </trkpt>
      <trkpt lat="59.4119274449" lon="17.767119465">
        <ele>119.2</ele>
        <time>2012-09-11T18:42:10Z</time>
      </trkpt>
      <trkpt lat="59.412319634" lon="17.7667989411">
        <ele>119.2</ele>
        <time>2012-09-11T18:42:16Z</time>
      </trkpt>
      <trkpt lat="59.4124501402" lon="17.7667069079">
        <ele>118.6</ele>
        <time>2012-09-11T18:42:18Z</time>
      </trkpt>
      <trkpt lat="59.4125119148" lon="17.7666578737">
        <ele>118.2</ele>
        <time>2012-09-11T18:42:19Z</time>
      </trkpt>
      <trkpt lat="59.4125736055" lon="17.7666102645">
        <ele>117.6</ele>
        <time>2012-09-11T18:42:20Z</time>
      </trkpt>
      <trkpt lat="59.4126358831" lon="17.7665569557">
        <ele>116.6</ele>
        <time>2012-09-11T18:42:21Z</time>
      </trkpt>
      <trkpt lat="59.4126969871" lon="17.7664939238">
        <ele>116.6</ele>
        <time>2012-09-11T18:42:22Z</time>
      </trkpt>
      <trkpt lat="59.4127584264" lon="17.7664258627">
        <ele>116.6</ele>
        <time>2012-09-11T18:42:23Z</time>
      </trkpt>
      <trkpt lat="59.4130662936" lon="17.7660869825">
        <ele>116.6</ele>
        <time>2012-09-11T18:42:28Z</time>
      </trkpt>
      <trkpt lat="59.4131135675" lon="17.7660727333">
        <ele>116.6</ele>
        <time>2012-09-11T18:42:29Z</time>
      </trkpt>
      <trkpt lat="59.4131537168" lon="17.7661013994">
        <ele>116.2</ele>
        <time>2012-09-11T18:42:30Z</time>
      </trkpt>
      <trkpt lat="59.4131847299" lon="17.7661552112">
        <ele>115.6</ele>
        <time>2012-09-11T18:42:31Z</time>
      </trkpt>
      <trkpt lat="59.4132118872" lon="17.766219668">
        <ele>115.2</ele>
        <time>2012-09-11T18:42:32Z</time>
      </trkpt>
      <trkpt lat="59.4132354404" lon="17.766255794">
        <ele>114.6</ele>
        <time>2012-09-11T18:42:33Z</time>
      </trkpt>
      <trkpt lat="59.4132650285" lon="17.7662553749">
        <ele>114.2</ele>
        <time>2012-09-11T18:42:34Z</time>
      </trkpt>
      <trkpt lat="59.4132978017" lon="17.7662323247">
        <ele>114.2</ele>
        <time>2012-09-11T18:42:35Z</time>
      </trkpt>
      <trkpt lat="59.4133814531" lon="17.7661734837">
        <ele>114.2</ele>
        <time>2012-09-11T18:42:37Z</time>
      </trkpt>
      <trkpt lat="59.4134879032" lon="17.7661260422">
        <ele>114.2</ele>
        <time>2012-09-11T18:42:39Z</time>
      </trkpt>
      <trkpt lat="59.4137197465" lon="17.7659500223">
        <ele>114.2</ele>
        <time>2012-09-11T18:42:43Z</time>
      </trkpt>
      <trkpt lat="59.413770457" lon="17.765896881">
        <ele>114.2</ele>
        <time>2012-09-11T18:42:44Z</time>
      </trkpt>
      <trkpt lat="59.4140067428" lon="17.7656677199">
        <ele>114.2</ele>
        <time>2012-09-11T18:42:48Z</time>
      </trkpt>
      <trkpt lat="59.4141249276" lon="17.7655448412">
        <ele>114.2</ele>
        <time>2012-09-11T18:42:50Z</time>
      </trkpt>
      <trkpt lat="59.4143049708" lon="17.765296737">
        <ele>114.2</ele>
        <time>2012-09-11T18:42:53Z</time>
      </trkpt>
      <trkpt lat="59.4144335491" lon="17.765119376">
        <ele>113.6</ele>
        <time>2012-09-11T18:42:55Z</time>
      </trkpt>
      <trkpt lat="59.4145019455" lon="17.7650218107">
        <ele>113.2</ele>
        <time>2012-09-11T18:42:56Z</time>
      </trkpt>
      <trkpt lat="59.414562379" lon="17.7649153605">
        <ele>112.6</ele>
        <time>2012-09-11T18:42:57Z</time>
      </trkpt>
      <trkpt lat="59.4146247403" lon="17.7648036298">
        <ele>112.2</ele>
        <time>2012-09-11T18:42:58Z</time>
      </trkpt>
      <trkpt lat="59.4146946453" lon="17.7646886301">
        <ele>111.6</ele>
        <time>2012-09-11T18:42:59Z</time>
      </trkpt>
      <trkpt lat="59.4147547436" lon="17.7645883826">
        <ele>111.2</ele>
        <time>2012-09-11T18:43:00Z</time>
      </trkpt>
      <trkpt lat="59.414800844" lon="17.7645177232">
        <ele>110.8</ele>
        <time>2012-09-11T18:43:01Z</time>
      </trkpt>
      <trkpt lat="59.4148475312" lon="17.7644632409">
        <ele>110.2</ele>
        <time>2012-09-11T18:43:02Z</time>
      </trkpt>
      <trkpt lat="59.4149054501" lon="17.7644202417">
        <ele>109.6</ele>
        <time>2012-09-11T18:43:03Z</time>
      </trkpt>
      <trkpt lat="59.4149730921" lon="17.7643942578">
        <ele>109</ele>
        <time>2012-09-11T18:43:04Z</time>
      </trkpt>
      <trkpt lat="59.4150452602" lon="17.7643727163">
        <ele>108.4</ele>
        <time>2012-09-11T18:43:05Z</time>
      </trkpt>
      <trkpt lat="59.415122709" lon="17.7643563716">
        <ele>107.8</ele>
        <time>2012-09-11T18:43:06Z</time>
      </trkpt>
      <trkpt lat="59.415201415" lon="17.7643519292">
        <ele>107.2</ele>
        <time>2012-09-11T18:43:07Z</time>
      </trkpt>
      <trkpt lat="59.4152711524" lon="17.7643592215">
        <ele>106.6</ele>
        <time>2012-09-11T18:43:08Z</time>
      </trkpt>
      <trkpt lat="59.4153337652" lon="17.7643755662">
        <ele>106</ele>
        <time>2012-09-11T18:43:09Z</time>
      </trkpt>
      <trkpt lat="59.4153953722" lon="17.7644026397">
        <ele>105.4</ele>
        <time>2012-09-11T18:43:10Z</time>
      </trkpt>
      <trkpt lat="59.4154534587" lon="17.7644286236">
        <ele>104.6</ele>
        <time>2012-09-11T18:43:11Z</time>
      </trkpt>
      <trkpt lat="59.4156331667" lon="17.7644715389">
        <ele>104.6</ele>
        <time>2012-09-11T18:43:14Z</time>
      </trkpt>
      <trkpt lat="59.415689074" lon="17.7644953435">
        <ele>104.6</ele>
        <time>2012-09-11T18:43:15Z</time>
      </trkpt>
      <trkpt lat="59.4157972005" lon="17.7645382589">
        <ele>104.6</ele>
        <time>2012-09-11T18:43:17Z</time>
      </trkpt>
      <trkpt lat="59.4158529401" lon="17.7645416116">
        <ele>104.6</ele>
        <time>2012-09-11T18:43:18Z</time>
      </trkpt>
      <trkpt lat="59.4161930776" lon="17.7645390132">
        <ele>104.6</ele>
        <time>2012-09-11T18:43:24Z</time>
      </trkpt>
      <trkpt lat="59.4163625596" lon="17.7646857803">
        <ele>104.6</ele>
        <time>2012-09-11T18:43:28Z</time>
      </trkpt>
      <trkpt lat="59.4164419362" lon="17.7647001972">
        <ele>104.6</ele>
        <time>2012-09-11T18:43:30Z</time>
      </trkpt>
      <trkpt lat="59.4164736198" lon="17.7646748">
        <ele>104.6</ele>
        <time>2012-09-11T18:43:31Z</time>
      </trkpt>
      <trkpt lat="59.4165527449" lon="17.7645391809">
        <ele>104.2</ele>
        <time>2012-09-11T18:43:34Z</time>
      </trkpt>
      <trkpt lat="59.4165845961" lon="17.7645078326">
        <ele>103.4</ele>
        <time>2012-09-11T18:43:35Z</time>
      </trkpt>
      <trkpt lat="59.4166192972" lon="17.7645027196">
        <ele>102.8</ele>
        <time>2012-09-11T18:43:36Z</time>
      </trkpt>
      <trkpt lat="59.4166523219" lon="17.7645329783">
        <ele>102.4</ele>
        <time>2012-09-11T18:43:37Z</time>
      </trkpt>
      <trkpt lat="59.4167373982" lon="17.7646031348">
        <ele>102.4</ele>
        <time>2012-09-11T18:43:39Z</time>
      </trkpt>
      <trkpt lat="59.4171085487" lon="17.764781334">
        <ele>102.4</ele>
        <time>2012-09-11T18:43:46Z</time>
      </trkpt>
      <trkpt lat="59.4174253845" lon="17.7649239939">
        <ele>102.4</ele>
        <time>2012-09-11T18:43:52Z</time>
      </trkpt>
      <trkpt lat="59.4174601694" lon="17.7649910491">
        <ele>102.4</ele>
        <time>2012-09-11T18:43:53Z</time>
      </trkpt>
      <trkpt lat="59.4175869876" lon="17.7653204578">
        <ele>102.4</ele>
        <time>2012-09-11T18:43:58Z</time>
      </trkpt>
      <trkpt lat="59.4176291485" lon="17.7654472759">
        <ele>103.2</ele>
        <time>2012-09-11T18:44:00Z</time>
      </trkpt>
      <trkpt lat="59.4176544619" lon="17.7655108107">
        <ele>103.6</ele>
        <time>2012-09-11T18:44:01Z</time>
      </trkpt>
      <trkpt lat="59.4176812839" lon="17.7655693164">
        <ele>104</ele>
        <time>2012-09-11T18:44:02Z</time>
      </trkpt>
      <trkpt lat="59.4177140572" lon="17.7656196916">
        <ele>104.4</ele>
        <time>2012-09-11T18:44:03Z</time>
      </trkpt>
      <trkpt lat="59.4177562181" lon="17.7656657082">
        <ele>104.8</ele>
        <time>2012-09-11T18:44:04Z</time>
      </trkpt>
      <trkpt lat="59.4178013966" lon="17.7657170055">
        <ele>105.4</ele>
        <time>2012-09-11T18:44:05Z</time>
      </trkpt>
      <trkpt lat="59.4178393666" lon="17.7657579091">
        <ele>105.8</ele>
        <time>2012-09-11T18:44:06Z</time>
      </trkpt>
      <trkpt lat="59.4178780071" lon="17.7657972202">
        <ele>106.2</ele>
        <time>2012-09-11T18:44:07Z</time>
      </trkpt>
      <trkpt lat="59.4179189108" lon="17.7658363637">
        <ele>106.6</ele>
        <time>2012-09-11T18:44:08Z</time>
      </trkpt>
      <trkpt lat="59.4179621614" lon="17.7658760939">
        <ele>107</ele>
        <time>2012-09-11T18:44:09Z</time>
      </trkpt>
      <trkpt lat="59.4180075913" lon="17.7659160756">
        <ele>107.4</ele>
        <time>2012-09-11T18:44:10Z</time>
      </trkpt>
      <trkpt lat="59.4180519316" lon="17.7659624275">
        <ele>107.8</ele>
        <time>2012-09-11T18:44:11Z</time>
      </trkpt>
      <trkpt lat="59.4180925" lon="17.7660142276">
        <ele>108.2</ele>
        <time>2012-09-11T18:44:12Z</time>
      </trkpt>
      <trkpt lat="59.4181321463" lon="17.7660555504">
        <ele>108.6</ele>
        <time>2012-09-11T18:44:13Z</time>
      </trkpt>
      <trkpt lat="59.418197609" lon="17.766149763">
        <ele>108.6</ele>
        <time>2012-09-11T18:44:15Z</time>
      </trkpt>
      <trkpt lat="59.4182102657" lon="17.7662120405">
        <ele>108.6</ele>
        <time>2012-09-11T18:44:16Z</time>
      </trkpt>
      <trkpt lat="59.4182204078" lon="17.7663376852">
        <ele>108.6</ele>
        <time>2012-09-11T18:44:18Z</time>
      </trkpt>
      <trkpt lat="59.4182534324" lon="17.7664659282">
        <ele>108.6</ele>
        <time>2012-09-11T18:44:20Z</time>
      </trkpt>
      <trkpt lat="59.4182997005" lon="17.7666458038">
        <ele>108.6</ele>
        <time>2012-09-11T18:44:23Z</time>
      </trkpt>
      <trkpt lat="59.4183726231" lon="17.7668376655">
        <ele>108.6</ele>
        <time>2012-09-11T18:44:26Z</time>
      </trkpt>
      <trkpt lat="59.418438421" lon="17.7669685069">
        <ele>108.6</ele>
        <time>2012-09-11T18:44:28Z</time>
      </trkpt>
      <trkpt lat="59.4184679253" lon="17.767043525">
        <ele>108.6</ele>
        <time>2012-09-11T18:44:29Z</time>
      </trkpt>
      <trkpt lat="59.4186098308" lon="17.7674349597">
        <ele>108.6</ele>
        <time>2012-09-11T18:44:34Z</time>
      </trkpt>
      <trkpt lat="59.4186182127" lon="17.767694128">
        <ele>108.6</ele>
        <time>2012-09-11T18:44:37Z</time>
      </trkpt>
      <trkpt lat="59.4186087412" lon="17.7679796994">
        <ele>108.6</ele>
        <time>2012-09-11T18:44:41Z</time>
      </trkpt>
      <trkpt lat="59.4186830048" lon="17.7681566413">
        <ele>108.6</ele>
        <time>2012-09-11T18:44:44Z</time>
      </trkpt>
      <trkpt lat="59.418716281" lon="17.7682204275">
        <ele>108.6</ele>
        <time>2012-09-11T18:44:45Z</time>
      </trkpt>
      <trkpt lat="59.4189401615" lon="17.7685877224">
        <ele>108.6</ele>
        <time>2012-09-11T18:44:51Z</time>
      </trkpt>
      <trkpt lat="59.4191422491" lon="17.7688588769">
        <ele>108.6</ele>
        <time>2012-09-11T18:44:56Z</time>
      </trkpt>
      <trkpt lat="59.4193509584" lon="17.7690882895">
        <ele>108.6</ele>
        <time>2012-09-11T18:45:01Z</time>
      </trkpt>
      <trkpt lat="59.4194309217" lon="17.7691863577">
        <ele>108.6</ele>
        <time>2012-09-11T18:45:03Z</time>
      </trkpt>
      <trkpt lat="59.4194865776" lon="17.7693273412">
        <ele>108.6</ele>
        <time>2012-09-11T18:45:05Z</time>
      </trkpt>
      <trkpt lat="59.4196454984" lon="17.7695921255">
        <ele>109</ele>
        <time>2012-09-11T18:45:09Z</time>
      </trkpt>
      <trkpt lat="59.419669303" lon="17.7696563308">
        <ele>109.4</ele>
        <time>2012-09-11T18:45:10Z</time>
      </trkpt>
      <trkpt lat="59.4196914312" lon="17.7697140821">
        <ele>110</ele>
        <time>2012-09-11T18:45:11Z</time>
      </trkpt>
      <trkpt lat="59.4197101228" lon="17.7697751862">
        <ele>110.4</ele>
        <time>2012-09-11T18:45:12Z</time>
      </trkpt>
      <trkpt lat="59.4197273896" lon="17.7698166766">
        <ele>110.8</ele>
        <time>2012-09-11T18:45:13Z</time>
      </trkpt>
      <trkpt lat="59.4197604981" lon="17.7699011661">
        <ele>111.2</ele>
        <time>2012-09-11T18:45:15Z</time>
      </trkpt>
      <trkpt lat="59.4197822072" lon="17.7699490268">
        <ele>111.6</ele>
        <time>2012-09-11T18:45:16Z</time>
      </trkpt>
      <trkpt lat="59.4198098674" lon="17.7700025033">
        <ele>112</ele>
        <time>2012-09-11T18:45:17Z</time>
      </trkpt>
      <trkpt lat="59.4198391203" lon="17.7700521241">
        <ele>112.4</ele>
        <time>2012-09-11T18:45:18Z</time>
      </trkpt>
      <trkpt lat="59.4198692951" lon="17.7700926925">
        <ele>112.8</ele>
        <time>2012-09-11T18:45:19Z</time>
      </trkpt>
      <trkpt lat="59.4199075166" lon="17.7701086181">
        <ele>112.8</ele>
        <time>2012-09-11T18:45:20Z</time>
      </trkpt>
      <trkpt lat="59.4201022281" lon="17.7700260564">
        <ele>112.8</ele>
        <time>2012-09-11T18:45:25Z</time>
      </trkpt>
      <trkpt lat="59.4201517651" lon="17.770004934">
        <ele>112.8</ele>
        <time>2012-09-11T18:45:26Z</time>
      </trkpt>
      <trkpt lat="59.4203062436" lon="17.769994289">
        <ele>112.8</ele>
        <time>2012-09-11T18:45:29Z</time>
      </trkpt>
      <trkpt lat="59.4204119393" lon="17.7700252182">
        <ele>112.8</ele>
        <time>2012-09-11T18:45:31Z</time>
      </trkpt>
      <trkpt lat="59.4205007875" lon="17.7701076961">
        <ele>112.8</ele>
        <time>2012-09-11T18:45:33Z</time>
      </trkpt>
      <trkpt lat="59.4205928207" lon="17.770190174">
        <ele>112.8</ele>
        <time>2012-09-11T18:45:35Z</time>
      </trkpt>
      <trkpt lat="59.4206451238" lon="17.7702087819">
        <ele>112.8</ele>
        <time>2012-09-11T18:45:36Z</time>
      </trkpt>
      <trkpt lat="59.420748305" lon="17.77024759">
        <ele>112.8</ele>
        <time>2012-09-11T18:45:38Z</time>
      </trkpt>
      <trkpt lat="59.4210488799" lon="17.7703533696">
        <ele>112.8</ele>
        <time>2012-09-11T18:45:43Z</time>
      </trkpt>
      <trkpt lat="59.421234539" lon="17.770397207">
        <ele>113.2</ele>
        <time>2012-09-11T18:45:46Z</time>
      </trkpt>
      <trkpt lat="59.4212916197" lon="17.7704171559">
        <ele>113.6</ele>
        <time>2012-09-11T18:45:47Z</time>
      </trkpt>
      <trkpt lat="59.4213455153" lon="17.7704352608">
        <ele>114</ele>
        <time>2012-09-11T18:45:48Z</time>
      </trkpt>
      <trkpt lat="59.4213959744" lon="17.7704568861">
        <ele>114.4</ele>
        <time>2012-09-11T18:45:49Z</time>
      </trkpt>
      <trkpt lat="59.42144526" lon="17.7704784276">
        <ele>114.8</ele>
        <time>2012-09-11T18:45:50Z</time>
      </trkpt>
      <trkpt lat="59.4215517101" lon="17.7705082671">
        <ele>114.8</ele>
        <time>2012-09-11T18:45:52Z</time>
      </trkpt>
      <trkpt lat="59.421686994" lon="17.7704822832">
        <ele>114.8</ele>
        <time>2012-09-11T18:45:55Z</time>
      </trkpt>
      <trkpt lat="59.4218996428" lon="17.7703894956">
        <ele>114.8</ele>
        <time>2012-09-11T18:45:59Z</time>
      </trkpt>
      <trkpt lat="59.4222653451" lon="17.7702734901">
        <ele>114.8</ele>
        <time>2012-09-11T18:46:05Z</time>
      </trkpt>
      <trkpt lat="59.422376992" lon="17.7702451593">
        <ele>114.8</ele>
        <time>2012-09-11T18:46:07Z</time>
      </trkpt>
      <trkpt lat="59.4225098451" lon="17.7701879109">
        <ele>114.8</ele>
        <time>2012-09-11T18:46:10Z</time>
      </trkpt>
      <trkpt lat="59.4226851106" lon="17.7702692992">
        <ele>114.8</ele>
        <time>2012-09-11T18:46:14Z</time>
      </trkpt>
      <trkpt lat="59.4229768007" lon="17.7704737337">
        <ele>114.8</ele>
        <time>2012-09-11T18:46:21Z</time>
      </trkpt>
      <trkpt lat="59.4231973285" lon="17.7706535255">
        <ele>114.8</ele>
        <time>2012-09-11T18:46:26Z</time>
      </trkpt>
      <trkpt lat="59.4233155971" lon="17.7707377636">
        <ele>114.8</ele>
        <time>2012-09-11T18:46:29Z</time>
      </trkpt>
      <trkpt lat="59.4233588477" lon="17.7707667649">
        <ele>114.8</ele>
        <time>2012-09-11T18:46:30Z</time>
      </trkpt>
      <trkpt lat="59.4235608515" lon="17.7709099278">
        <ele>114.8</ele>
        <time>2012-09-11T18:46:35Z</time>
      </trkpt>
      <trkpt lat="59.4236747615" lon="17.7710451278">
        <ele>114.8</ele>
        <time>2012-09-11T18:46:39Z</time>
      </trkpt>
      <trkpt lat="59.4236864962" lon="17.771066837">
        <ele>114.8</ele>
        <time>2012-09-11T18:46:40Z</time>
      </trkpt>
      <trkpt lat="59.4236928664" lon="17.7711202297">
        <ele>114.8</ele>
        <time>2012-09-11T18:46:43Z</time>
      </trkpt>
      <trkpt lat="59.4236904357" lon="17.7711509074">
        <ele>114.8</ele>
        <time>2012-09-11T18:46:44Z</time>
      </trkpt>
      <trkpt lat="59.4236921959" lon="17.7712295296">
        <ele>114.4</ele>
        <time>2012-09-11T18:46:46Z</time>
      </trkpt>
      <trkpt lat="59.4236947943" lon="17.7712754624">
        <ele>114</ele>
        <time>2012-09-11T18:46:47Z</time>
      </trkpt>
      <trkpt lat="59.4237046849" lon="17.7713301124">
        <ele>113.6</ele>
        <time>2012-09-11T18:46:48Z</time>
      </trkpt>
      <trkpt lat="59.4237260588" lon="17.771387277">
        <ele>113.2</ele>
        <time>2012-09-11T18:46:49Z</time>
      </trkpt>
      <trkpt lat="59.4237598378" lon="17.7714397477">
        <ele>112.8</ele>
        <time>2012-09-11T18:46:50Z</time>
      </trkpt>
      <trkpt lat="59.4238109674" lon="17.7714732753">
        <ele>112.8</ele>
        <time>2012-09-11T18:46:51Z</time>
      </trkpt>
      <trkpt lat="59.4239721513" lon="17.7714087347">
        <ele>112.8</ele>
        <time>2012-09-11T18:46:54Z</time>
      </trkpt>
      <trkpt lat="59.424192763" lon="17.7713722734">
        <ele>112.8</ele>
        <time>2012-09-11T18:46:58Z</time>
      </trkpt>
      <trkpt lat="59.4245039829" lon="17.7713588624">
        <ele>112.8</ele>
        <time>2012-09-11T18:47:04Z</time>
      </trkpt>
      <trkpt lat="59.4247207388" lon="17.7713952398">
        <ele>112.8</ele>
        <time>2012-09-11T18:47:08Z</time>
      </trkpt>
      <trkpt lat="59.424776227" lon="17.7714514823">
        <ele>112.8</ele>
        <time>2012-09-11T18:47:09Z</time>
      </trkpt>
      <trkpt lat="59.4248644046" lon="17.7715394923">
        <ele>112.8</ele>
        <time>2012-09-11T18:47:11Z</time>
      </trkpt>
      <trkpt lat="59.424944787" lon="17.7716152647">
        <ele>112.8</ele>
        <time>2012-09-11T18:47:13Z</time>
      </trkpt>
      <trkpt lat="59.4250311206" lon="17.7716870976">
        <ele>112.8</ele>
        <time>2012-09-11T18:47:15Z</time>
      </trkpt>
      <trkpt lat="59.4251367325" lon="17.7717279174">
        <ele>112.4</ele>
        <time>2012-09-11T18:47:17Z</time>
      </trkpt>
      <trkpt lat="59.4251913825" lon="17.7717349582">
        <ele>112</ele>
        <time>2012-09-11T18:47:18Z</time>
      </trkpt>
      <trkpt lat="59.4252405843" lon="17.7717217986">
        <ele>111.6</ele>
        <time>2012-09-11T18:47:19Z</time>
      </trkpt>
      <trkpt lat="59.4252933064" lon="17.7717064597">
        <ele>111.2</ele>
        <time>2012-09-11T18:47:20Z</time>
      </trkpt>
      <trkpt lat="59.4253496328" lon="17.7716751953">
        <ele>110.8</ele>
        <time>2012-09-11T18:47:21Z</time>
      </trkpt>
      <trkpt lat="59.4254067974" lon="17.7716461101">
        <ele>110.8</ele>
        <time>2012-09-11T18:47:22Z</time>
      </trkpt>
      <trkpt lat="59.4257113956" lon="17.7714514823">
        <ele>110.8</ele>
        <time>2012-09-11T18:47:27Z</time>
      </trkpt>
      <trkpt lat="59.4257667161" lon="17.7713982573">
        <ele>110.8</ele>
        <time>2012-09-11T18:47:28Z</time>
      </trkpt>
      <trkpt lat="59.425824216" lon="17.7713464571">
        <ele>110.4</ele>
        <time>2012-09-11T18:47:29Z</time>
      </trkpt>
      <trkpt lat="59.4258814644" lon="17.771301614">
        <ele>110</ele>
        <time>2012-09-11T18:47:30Z</time>
      </trkpt>
      <trkpt lat="59.425939048" lon="17.7712550944">
        <ele>109.6</ele>
        <time>2012-09-11T18:47:31Z</time>
      </trkpt>
      <trkpt lat="59.4259947876" lon="17.7712067309">
        <ele>109.2</ele>
        <time>2012-09-11T18:47:32Z</time>
      </trkpt>
      <trkpt lat="59.4260514493" lon="17.7711535896">
        <ele>108.8</ele>
        <time>2012-09-11T18:47:33Z</time>
      </trkpt>
      <trkpt lat="59.4261026627" lon="17.7711011189">
        <ele>108.8</ele>
        <time>2012-09-11T18:47:34Z</time>
      </trkpt>
      <trkpt lat="59.4262554647" lon="17.7709863707">
        <ele>108.8</ele>
        <time>2012-09-11T18:47:37Z</time>
      </trkpt>
      <trkpt lat="59.4263649323" lon="17.770969104">
        <ele>108.2</ele>
        <time>2012-09-11T18:47:39Z</time>
      </trkpt>
      <trkpt lat="59.426411871" lon="17.7709642425">
        <ele>107.8</ele>
        <time>2012-09-11T18:47:40Z</time>
      </trkpt>
      <trkpt lat="59.4264565465" lon="17.7709616441">
        <ele>107.4</ele>
        <time>2012-09-11T18:47:41Z</time>
      </trkpt>
      <trkpt lat="59.4265006353" lon="17.7709527593">
        <ele>106.6</ele>
        <time>2012-09-11T18:47:42Z</time>
      </trkpt>
      <trkpt lat="59.4265396111" lon="17.7709352411">
        <ele>106</ele>
        <time>2012-09-11T18:47:43Z</time>
      </trkpt>
      <trkpt lat="59.4265723844" lon="17.7709168009">
        <ele>105.6</ele>
        <time>2012-09-11T18:47:44Z</time>
      </trkpt>
      <trkpt lat="59.4266064149" lon="17.7708998695">
        <ele>105.2</ele>
        <time>2012-09-11T18:47:45Z</time>
      </trkpt>
      <trkpt lat="59.4266587179" lon="17.7708784957">
        <ele>104.8</ele>
        <time>2012-09-11T18:47:46Z</time>
      </trkpt>
      <trkpt lat="59.4267023876" lon="17.7708786633">
        <ele>104.2</ele>
        <time>2012-09-11T18:47:47Z</time>
      </trkpt>
      <trkpt lat="59.426760558" lon="17.7708803397">
        <ele>103.8</ele>
        <time>2012-09-11T18:47:49Z</time>
      </trkpt>
      <trkpt lat="59.4267771542" lon="17.7708717063">
        <ele>103.4</ele>
        <time>2012-09-11T18:47:50Z</time>
      </trkpt>
      <trkpt lat="59.4267893079" lon="17.7708518412">
        <ele>103</ele>
        <time>2012-09-11T18:47:51Z</time>
      </trkpt>
      <trkpt lat="59.4268049821" lon="17.7708336525">
        <ele>102.6</ele>
        <time>2012-09-11T18:47:52Z</time>
      </trkpt>
      <trkpt lat="59.4268227517" lon="17.7708281204">
        <ele>102.2</ele>
        <time>2012-09-11T18:47:53Z</time>
      </trkpt>
      <trkpt lat="59.4268384259" lon="17.7708297968">
        <ele>102.2</ele>
        <time>2012-09-11T18:47:54Z</time>
      </trkpt>
      <trkpt lat="59.426872624" lon="17.7709586266">
        <ele>102.2</ele>
        <time>2012-09-11T18:47:58Z</time>
      </trkpt>
      <trkpt lat="59.4268717858" lon="17.7712452038">
        <ele>102.2</ele>
        <time>2012-09-11T18:48:03Z</time>
      </trkpt>
      <trkpt lat="59.4268803354" lon="17.771411333">
        <ele>103</ele>
        <time>2012-09-11T18:48:06Z</time>
      </trkpt>
      <trkpt lat="59.4268957581" lon="17.7714491354">
        <ele>103.4</ele>
        <time>2012-09-11T18:48:07Z</time>
      </trkpt>
      <trkpt lat="59.4269098397" lon="17.771470174">
        <ele>103.8</ele>
        <time>2012-09-11T18:48:08Z</time>
      </trkpt>
      <trkpt lat="59.4269257653" lon="17.7714731915">
        <ele>104.2</ele>
        <time>2012-09-11T18:48:09Z</time>
      </trkpt>
      <trkpt lat="59.4269765596" lon="17.7714635523">
        <ele>104.2</ele>
        <time>2012-09-11T18:48:12Z</time>
      </trkpt>
      <trkpt lat="59.4270950797" lon="17.7714527396">
        <ele>104.2</ele>
        <time>2012-09-11T18:48:15Z</time>
      </trkpt>
      <trkpt lat="59.4273600315" lon="17.7713765482">
        <ele>104.2</ele>
        <time>2012-09-11T18:48:20Z</time>
      </trkpt>
      <trkpt lat="59.4274041203" lon="17.7713195512">
        <ele>104.2</ele>
        <time>2012-09-11T18:48:21Z</time>
      </trkpt>
      <trkpt lat="59.4274912082" lon="17.7711012866">
        <ele>104.2</ele>
        <time>2012-09-11T18:48:24Z</time>
      </trkpt>
      <trkpt lat="59.4275251549" lon="17.7710394281">
        <ele>103.8</ele>
        <time>2012-09-11T18:48:25Z</time>
      </trkpt>
      <trkpt lat="59.4275670644" lon="17.7709892206">
        <ele>103.4</ele>
        <time>2012-09-11T18:48:26Z</time>
      </trkpt>
      <trkpt lat="59.427610315" lon="17.7709534298">
        <ele>103</ele>
        <time>2012-09-11T18:48:27Z</time>
      </trkpt>
      <trkpt lat="59.4276598521" lon="17.7709385939">
        <ele>102.4</ele>
        <time>2012-09-11T18:48:28Z</time>
      </trkpt>
      <trkpt lat="59.427715005" lon="17.7709442936">
        <ele>101.8</ele>
        <time>2012-09-11T18:48:29Z</time>
      </trkpt>
      <trkpt lat="59.4277828984" lon="17.7709485683">
        <ele>101.2</ele>
        <time>2012-09-11T18:48:30Z</time>
      </trkpt>
      <trkpt lat="59.4278521329" lon="17.7709287032">
        <ele>100</ele>
        <time>2012-09-11T18:48:31Z</time>
      </trkpt>
      <trkpt lat="59.4279979779" lon="17.7708468121">
        <ele>100</ele>
        <time>2012-09-11T18:48:33Z</time>
      </trkpt>
      <trkpt lat="59.4280727445" lon="17.7708229237">
        <ele>100</ele>
        <time>2012-09-11T18:48:34Z</time>
      </trkpt>
      <trkpt lat="59.4281512829" lon="17.7708349936">
        <ele>99.6</ele>
        <time>2012-09-11T18:48:35Z</time>
      </trkpt>
      <trkpt lat="59.4282315815" lon="17.7708569542">
        <ele>99</ele>
        <time>2012-09-11T18:48:36Z</time>
      </trkpt>
      <trkpt lat="59.428309114" lon="17.7708850335">
        <ele>98.6</ele>
        <time>2012-09-11T18:48:37Z</time>
      </trkpt>
      <trkpt lat="59.4283869819" lon="17.7709027194">
        <ele>98.2</ele>
        <time>2012-09-11T18:48:38Z</time>
      </trkpt>
      <trkpt lat="59.4284592339" lon="17.7709176391">
        <ele>97.6</ele>
        <time>2012-09-11T18:48:39Z</time>
      </trkpt>
      <trkpt lat="59.4285344195" lon="17.7709365822">
        <ele>97.6</ele>
        <time>2012-09-11T18:48:40Z</time>
      </trkpt>
      <trkpt lat="59.4288888063" lon="17.7710066549">
        <ele>97.2</ele>
        <time>2012-09-11T18:48:45Z</time>
      </trkpt>
      <trkpt lat="59.4289532631" lon="17.7710145339">
        <ele>96.8</ele>
        <time>2012-09-11T18:48:46Z</time>
      </trkpt>
      <trkpt lat="59.4290140318" lon="17.7710279449">
        <ele>96.4</ele>
        <time>2012-09-11T18:48:47Z</time>
      </trkpt>
      <trkpt lat="59.4290759741" lon="17.7710457146">
        <ele>96</ele>
        <time>2012-09-11T18:48:48Z</time>
      </trkpt>
      <trkpt lat="59.4291356532" lon="17.7710526715">
        <ele>95.6</ele>
        <time>2012-09-11T18:48:49Z</time>
      </trkpt>
      <trkpt lat="59.4293107511" lon="17.7710616402">
        <ele>95.6</ele>
        <time>2012-09-11T18:48:52Z</time>
      </trkpt>
      <trkpt lat="59.4293727772" lon="17.7710770629">
        <ele>95.6</ele>
        <time>2012-09-11T18:48:53Z</time>
      </trkpt>
      <trkpt lat="59.4295588553" lon="17.7710688486">
        <ele>95.6</ele>
        <time>2012-09-11T18:48:56Z</time>
      </trkpt>
      <trkpt lat="59.4298828158" lon="17.770926021">
        <ele>95.6</ele>
        <time>2012-09-11T18:49:01Z</time>
      </trkpt>
      <trkpt lat="59.430192527" lon="17.7707345784">
        <ele>95.2</ele>
        <time>2012-09-11T18:49:05Z</time>
      </trkpt>
      <trkpt lat="59.4302707301" lon="17.7706943453">
        <ele>94.8</ele>
        <time>2012-09-11T18:49:06Z</time>
      </trkpt>
      <trkpt lat="59.4303483465" lon="17.7706609854">
        <ele>94.2</ele>
        <time>2012-09-11T18:49:07Z</time>
      </trkpt>
      <trkpt lat="59.4304213528" lon="17.7706339118">
        <ele>93.8</ele>
        <time>2012-09-11T18:49:08Z</time>
      </trkpt>
      <trkpt lat="59.4304903359" lon="17.7706150525">
        <ele>93.4</ele>
        <time>2012-09-11T18:49:09Z</time>
      </trkpt>
      <trkpt lat="59.4305630908" lon="17.770614382">
        <ele>93.4</ele>
        <time>2012-09-11T18:49:10Z</time>
      </trkpt>
      <trkpt lat="59.4306265418" lon="17.7706369293">
        <ele>93.4</ele>
        <time>2012-09-11T18:49:11Z</time>
      </trkpt>
      <trkpt lat="59.4307915814" lon="17.7707913239">
        <ele>93.4</ele>
        <time>2012-09-11T18:49:14Z</time>
      </trkpt>
      <trkpt lat="59.4308461475" lon="17.77084128">
        <ele>93.4</ele>
        <time>2012-09-11T18:49:15Z</time>
      </trkpt>
      <trkpt lat="59.4311642406" lon="17.7710586227">
        <ele>93.4</ele>
        <time>2012-09-11T18:49:21Z</time>
      </trkpt>
      <trkpt lat="59.4314972535" lon="17.7710653282">
        <ele>93.4</ele>
        <time>2012-09-11T18:49:26Z</time>
      </trkpt>
      <trkpt lat="59.4317813161" lon="17.7710975985">
        <ele>93.4</ele>
        <time>2012-09-11T18:49:31Z</time>
      </trkpt>
      <trkpt lat="59.4318316913" lon="17.7711153682">
        <ele>93.4</ele>
        <time>2012-09-11T18:49:32Z</time>
      </trkpt>
      <trkpt lat="59.432118017" lon="17.7712794019">
        <ele>93.4</ele>
        <time>2012-09-11T18:49:38Z</time>
      </trkpt>
      <trkpt lat="59.4323449151" lon="17.7715019414">
        <ele>93.4</ele>
        <time>2012-09-11T18:49:42Z</time>
      </trkpt>
      <trkpt lat="59.4324601662" lon="17.7716245686">
        <ele>93.4</ele>
        <time>2012-09-11T18:49:44Z</time>
      </trkpt>
      <trkpt lat="59.4326170754" lon="17.7718056176">
        <ele>93.4</ele>
        <time>2012-09-11T18:49:47Z</time>
      </trkpt>
      <trkpt lat="59.4328458174" lon="17.7719823919">
        <ele>93.4</ele>
        <time>2012-09-11T18:49:51Z</time>
      </trkpt>
      <trkpt lat="59.4329042393" lon="17.7720408976">
        <ele>93.4</ele>
        <time>2012-09-11T18:49:52Z</time>
      </trkpt>
      <trkpt lat="59.4332740487" lon="17.7723963739">
        <ele>93.4</ele>
        <time>2012-09-11T18:49:59Z</time>
      </trkpt>
      <trkpt lat="59.4333214064" lon="17.7724252077">
        <ele>93.4</ele>
        <time>2012-09-11T18:50:00Z</time>
      </trkpt>
      <trkpt lat="59.4335301157" lon="17.772588068">
        <ele>93.8</ele>
        <time>2012-09-11T18:50:04Z</time>
      </trkpt>
      <trkpt lat="59.4335783117" lon="17.7726374374">
        <ele>94.4</ele>
        <time>2012-09-11T18:50:05Z</time>
      </trkpt>
      <trkpt lat="59.4336236577" lon="17.7726934285">
        <ele>94.8</ele>
        <time>2012-09-11T18:50:06Z</time>
      </trkpt>
      <trkpt lat="59.4336662378" lon="17.7727513474">
        <ele>95.2</ele>
        <time>2012-09-11T18:50:07Z</time>
      </trkpt>
      <trkpt lat="59.4337048784" lon="17.7728150498">
        <ele>95.8</ele>
        <time>2012-09-11T18:50:08Z</time>
      </trkpt>
      <trkpt lat="59.4337459497" lon="17.772876573">
        <ele>95.8</ele>
        <time>2012-09-11T18:50:09Z</time>
      </trkpt>
      <trkpt lat="59.4339623703" lon="17.7731454643">
        <ele>95.8</ele>
        <time>2012-09-11T18:50:13Z</time>
      </trkpt>
      <trkpt lat="59.4340160145" lon="17.7732372461">
        <ele>95.8</ele>
        <time>2012-09-11T18:50:14Z</time>
      </trkpt>
      <trkpt lat="59.4340901105" lon="17.7734519066">
        <ele>95.8</ele>
        <time>2012-09-11T18:50:16Z</time>
      </trkpt>
      <trkpt lat="59.4341924535" lon="17.7737462789">
        <ele>95.8</ele>
        <time>2012-09-11T18:50:19Z</time>
      </trkpt>
      <trkpt lat="59.4343156674" lon="17.7739977359">
        <ele>95.8</ele>
        <time>2012-09-11T18:50:22Z</time>
      </trkpt>
      <trkpt lat="59.4344068625" lon="17.7741564891">
        <ele>95.8</ele>
        <time>2012-09-11T18:50:24Z</time>
      </trkpt>
      <trkpt lat="59.4344808747" lon="17.774337622">
        <ele>95.8</ele>
        <time>2012-09-11T18:50:26Z</time>
      </trkpt>
      <trkpt lat="59.4345055174" lon="17.7744397135">
        <ele>95.2</ele>
        <time>2012-09-11T18:50:27Z</time>
      </trkpt>
      <trkpt lat="59.4345187608" lon="17.7745496002">
        <ele>94.8</ele>
        <time>2012-09-11T18:50:28Z</time>
      </trkpt>
      <trkpt lat="59.4345137317" lon="17.7746643484">
        <ele>94.4</ele>
        <time>2012-09-11T18:50:29Z</time>
      </trkpt>
      <trkpt lat="59.4345006559" lon="17.774774319">
        <ele>93.8</ele>
        <time>2012-09-11T18:50:30Z</time>
      </trkpt>
      <trkpt lat="59.4344835569" lon="17.7748795118">
        <ele>93.4</ele>
        <time>2012-09-11T18:50:31Z</time>
      </trkpt>
      <trkpt lat="59.4344677151" lon="17.7749821063">
        <ele>93.4</ele>
        <time>2012-09-11T18:50:32Z</time>
      </trkpt>
      <trkpt lat="59.434463105" lon="17.7750882211">
        <ele>93.4</ele>
        <time>2012-09-11T18:50:33Z</time>
      </trkpt>
      <trkpt lat="59.4344488558" lon="17.7753171308">
        <ele>93.4</ele>
        <time>2012-09-11T18:50:35Z</time>
      </trkpt>
      <trkpt lat="59.4344350257" lon="17.7759016007">
        <ele>93.4</ele>
        <time>2012-09-11T18:50:40Z</time>
      </trkpt>
      <trkpt lat="59.4344380431" lon="17.7760150916">
        <ele>93.4</ele>
        <time>2012-09-11T18:50:41Z</time>
      </trkpt>
      <trkpt lat="59.4344472632" lon="17.7766300716">
        <ele>93.4</ele>
        <time>2012-09-11T18:50:47Z</time>
      </trkpt>
      <trkpt lat="59.4344432399" lon="17.7768086899">
        <ele>93.4</ele>
        <time>2012-09-11T18:50:49Z</time>
      </trkpt>
      <trkpt lat="59.4343924456" lon="17.7769667725">
        <ele>93.4</ele>
        <time>2012-09-11T18:50:51Z</time>
      </trkpt>
      <trkpt lat="59.4342583352" lon="17.7770674392">
        <ele>93.4</ele>
        <time>2012-09-11T18:50:54Z</time>
      </trkpt>
      <trkpt lat="59.4342121509" lon="17.7771128691">
        <ele>93.4</ele>
        <time>2012-09-11T18:50:55Z</time>
      </trkpt>
      <trkpt lat="59.4341165135" lon="17.7771952631">
        <ele>93.4</ele>
        <time>2012-09-11T18:50:57Z</time>
      </trkpt>
      <trkpt lat="59.4340617797" lon="17.777238849">
        <ele>93.4</ele>
        <time>2012-09-11T18:50:58Z</time>
      </trkpt>
      <trkpt lat="59.4338609493" lon="17.7774050621">
        <ele>93.4</ele>
        <time>2012-09-11T18:51:02Z</time>
      </trkpt>
      <trkpt lat="59.4337591931" lon="17.7775098358">
        <ele>93.4</ele>
        <time>2012-09-11T18:51:04Z</time>
      </trkpt>
      <trkpt lat="59.4334713586" lon="17.7777956586">
        <ele>93.4</ele>
        <time>2012-09-11T18:51:10Z</time>
      </trkpt>
      <trkpt lat="59.4331976058" lon="17.7780251551">
        <ele>93.4</ele>
        <time>2012-09-11T18:51:16Z</time>
      </trkpt>
      <trkpt lat="59.433063663" lon="17.7781077168">
        <ele>93.8</ele>
        <time>2012-09-11T18:51:19Z</time>
      </trkpt>
      <trkpt lat="59.4330233461" lon="17.7781324434">
        <ele>94.2</ele>
        <time>2012-09-11T18:51:20Z</time>
      </trkpt>
      <trkpt lat="59.4329823586" lon="17.7781439266">
        <ele>94.6</ele>
        <time>2012-09-11T18:51:21Z</time>
      </trkpt>
      <trkpt lat="59.4329447238" lon="17.7781574214">
        <ele>95</ele>
        <time>2012-09-11T18:51:22Z</time>
      </trkpt>
      <trkpt lat="59.4329063347" lon="17.7781797173">
        <ele>95.4</ele>
        <time>2012-09-11T18:51:23Z</time>
      </trkpt>
      <trkpt lat="59.4327220168" lon="17.778296561">
        <ele>95.4</ele>
        <time>2012-09-11T18:51:28Z</time>
      </trkpt>
      <trkpt lat="59.4325894989" lon="17.7783827269">
        <ele>95.8</ele>
        <time>2012-09-11T18:51:32Z</time>
      </trkpt>
      <trkpt lat="59.4325634312" lon="17.7784027597">
        <ele>96.2</ele>
        <time>2012-09-11T18:51:33Z</time>
      </trkpt>
      <trkpt lat="59.4325355195" lon="17.7784272348">
        <ele>96.8</ele>
        <time>2012-09-11T18:51:34Z</time>
      </trkpt>
      <trkpt lat="59.4325103738" lon="17.7784466808">
        <ele>97.2</ele>
        <time>2012-09-11T18:51:35Z</time>
      </trkpt>
      <trkpt lat="59.4324789417" lon="17.7784841479">
        <ele>97.6</ele>
        <time>2012-09-11T18:51:36Z</time>
      </trkpt>
      <trkpt lat="59.4324120541" lon="17.7785365348">
        <ele>97.6</ele>
        <time>2012-09-11T18:51:38Z</time>
      </trkpt>
      <trkpt lat="59.4323294086" lon="17.7786324237">
        <ele>98</ele>
        <time>2012-09-11T18:51:41Z</time>
      </trkpt>
      <trkpt lat="59.4323092082" lon="17.7786568989">
        <ele>98.6</ele>
        <time>2012-09-11T18:51:42Z</time>
      </trkpt>
      <trkpt lat="59.4322859065" lon="17.7786763449">
        <ele>99</ele>
        <time>2012-09-11T18:51:43Z</time>
      </trkpt>
      <trkpt lat="59.4322587491" lon="17.7786965452">
        <ele>99.4</ele>
        <time>2012-09-11T18:51:44Z</time>
      </trkpt>
      <trkpt lat="59.4322345255" lon="17.7787104592">
        <ele>99.8</ele>
        <time>2012-09-11T18:51:45Z</time>
      </trkpt>
      <trkpt lat="59.4321637822" lon="17.7787567273">
        <ele>100.8</ele>
        <time>2012-09-11T18:51:48Z</time>
      </trkpt>
      <trkpt lat="59.4321294164" lon="17.7787698869">
        <ele>101.2</ele>
        <time>2012-09-11T18:51:49Z</time>
      </trkpt>
      <trkpt lat="59.4321089646" lon="17.7787891652">
        <ele>101.6</ele>
        <time>2012-09-11T18:51:50Z</time>
      </trkpt>
      <trkpt lat="59.4320775325" lon="17.7788099524">
        <ele>102.2</ele>
        <time>2012-09-11T18:51:51Z</time>
      </trkpt>
      <trkpt lat="59.432045346" lon="17.7788342599">
        <ele>102.2</ele>
        <time>2012-09-11T18:51:52Z</time>
      </trkpt>
      <trkpt lat="59.4319434221" lon="17.7788655244">
        <ele>102.2</ele>
        <time>2012-09-11T18:51:56Z</time>
      </trkpt>
      <trkpt lat="59.4319083857" lon="17.7789013989">
        <ele>102.2</ele>
        <time>2012-09-11T18:51:58Z</time>
      </trkpt>
      <trkpt lat="59.4318834077" lon="17.7789942703">
        <ele>102.2</ele>
        <time>2012-09-11T18:52:00Z</time>
      </trkpt>
      <trkpt lat="59.4318771212" lon="17.7790391973">
        <ele>102.6</ele>
        <time>2012-09-11T18:52:01Z</time>
      </trkpt>
      <trkpt lat="59.4318726788" lon="17.7790883991">
        <ele>103</ele>
        <time>2012-09-11T18:52:02Z</time>
      </trkpt>
      <trkpt lat="59.4318703319" lon="17.7791459827">
        <ele>103.4</ele>
        <time>2012-09-11T18:52:03Z</time>
      </trkpt>
      <trkpt lat="59.4318684879" lon="17.7792092661">
        <ele>103.8</ele>
        <time>2012-09-11T18:52:04Z</time>
      </trkpt>
      <trkpt lat="59.4318666439" lon="17.7792767404">
        <ele>104.2</ele>
        <time>2012-09-11T18:52:05Z</time>
      </trkpt>
      <trkpt lat="59.4318505506" lon="17.7793919915">
        <ele>104.2</ele>
        <time>2012-09-11T18:52:07Z</time>
      </trkpt>
      <trkpt lat="59.4318145923" lon="17.7794753914">
        <ele>104.2</ele>
        <time>2012-09-11T18:52:09Z</time>
      </trkpt>
      <trkpt lat="59.4317842498" lon="17.7795647425">
        <ele>104.2</ele>
        <time>2012-09-11T18:52:11Z</time>
      </trkpt>
      <trkpt lat="59.4317449387" lon="17.7796763894">
        <ele>104.6</ele>
        <time>2012-09-11T18:52:13Z</time>
      </trkpt>
      <trkpt lat="59.4317263309" lon="17.7797263455">
        <ele>105</ele>
        <time>2012-09-11T18:52:14Z</time>
      </trkpt>
      <trkpt lat="59.431708226" lon="17.7797711048">
        <ele>105.4</ele>
        <time>2012-09-11T18:52:15Z</time>
      </trkpt>
      <trkpt lat="59.4316847566" lon="17.7798220668">
        <ele>105.8</ele>
        <time>2012-09-11T18:52:16Z</time>
      </trkpt>
      <trkpt lat="59.4316650592" lon="17.7798633895">
        <ele>106.4</ele>
        <time>2012-09-11T18:52:17Z</time>
      </trkpt>
      <trkpt lat="59.4315890353" lon="17.7800026967">
        <ele>106.4</ele>
        <time>2012-09-11T18:52:20Z</time>
      </trkpt>
      <trkpt lat="59.4314944037" lon="17.780112332">
        <ele>106.8</ele>
        <time>2012-09-11T18:52:23Z</time>
      </trkpt>
      <trkpt lat="59.431459535" lon="17.7801503858">
        <ele>107.2</ele>
        <time>2012-09-11T18:52:24Z</time>
      </trkpt>
      <trkpt lat="59.4314258397" lon="17.7801936364">
        <ele>107.6</ele>
        <time>2012-09-11T18:52:25Z</time>
      </trkpt>
      <trkpt lat="59.431396084" lon="17.7802337857">
        <ele>108</ele>
        <time>2012-09-11T18:52:26Z</time>
      </trkpt>
      <trkpt lat="59.4313635622" lon="17.7802730968">
        <ele>108.4</ele>
        <time>2012-09-11T18:52:27Z</time>
      </trkpt>
      <trkpt lat="59.4312411027" lon="17.7804856618">
        <ele>108.4</ele>
        <time>2012-09-11T18:52:31Z</time>
      </trkpt>
      <trkpt lat="59.431118224" lon="17.7807320897">
        <ele>108.4</ele>
        <time>2012-09-11T18:52:35Z</time>
      </trkpt>
      <trkpt lat="59.4310733808" lon="17.7808823771">
        <ele>108.4</ele>
        <time>2012-09-11T18:52:37Z</time>
      </trkpt>
      <trkpt lat="59.4310593831" lon="17.7809622566">
        <ele>108.4</ele>
        <time>2012-09-11T18:52:38Z</time>
      </trkpt>
      <trkpt lat="59.4310475646" lon="17.78119871">
        <ele>108.4</ele>
        <time>2012-09-11T18:52:41Z</time>
      </trkpt>
      <trkpt lat="59.4310761469" lon="17.7814551124">
        <ele>108.4</ele>
        <time>2012-09-11T18:52:44Z</time>
      </trkpt>
      <trkpt lat="59.431132138" lon="17.7816067409">
        <ele>108.4</ele>
        <time>2012-09-11T18:52:46Z</time>
      </trkpt>
      <trkpt lat="59.4312064854" lon="17.7817309607">
        <ele>108.4</ele>
        <time>2012-09-11T18:52:48Z</time>
      </trkpt>
      <trkpt lat="59.43126826" lon="17.7817852754">
        <ele>108.4</ele>
        <time>2012-09-11T18:52:49Z</time>
      </trkpt>
      <trkpt lat="59.4313297832" lon="17.7818223234">
        <ele>108.4</ele>
        <time>2012-09-11T18:52:50Z</time>
      </trkpt>
      <trkpt lat="59.4315818269" lon="17.7819412626">
        <ele>108</ele>
        <time>2012-09-11T18:52:54Z</time>
      </trkpt>
      <trkpt lat="59.4316565935" lon="17.7819825015">
        <ele>107.4</ele>
        <time>2012-09-11T18:52:55Z</time>
      </trkpt>
      <trkpt lat="59.4317263309" lon="17.782028099">
        <ele>107</ele>
        <time>2012-09-11T18:52:56Z</time>
      </trkpt>
      <trkpt lat="59.431794811" lon="17.7820817432">
        <ele>106.6</ele>
        <time>2012-09-11T18:52:57Z</time>
      </trkpt>
      <trkpt lat="59.4318602736" lon="17.7821378181">
        <ele>106</ele>
        <time>2012-09-11T18:52:58Z</time>
      </trkpt>
      <trkpt lat="59.4319249819" lon="17.7822031969">
        <ele>105.6</ele>
        <time>2012-09-11T18:52:59Z</time>
      </trkpt>
      <trkpt lat="59.4319871756" lon="17.7822903687">
        <ele>105.2</ele>
        <time>2012-09-11T18:53:00Z</time>
      </trkpt>
      <trkpt lat="59.4320413227" lon="17.7823946395">
        <ele>104.6</ele>
        <time>2012-09-11T18:53:01Z</time>
      </trkpt>
      <trkpt lat="59.4320828969" lon="17.7825238046">
        <ele>103.4</ele>
        <time>2012-09-11T18:53:02Z</time>
      </trkpt>
      <trkpt lat="59.432112485" lon="17.7826777801">
        <ele>102.8</ele>
        <time>2012-09-11T18:53:03Z</time>
      </trkpt>
      <trkpt lat="59.4321326854" lon="17.7828316718">
        <ele>102.2</ele>
        <time>2012-09-11T18:53:04Z</time>
      </trkpt>
      <trkpt lat="59.4321512932" lon="17.7829891677">
        <ele>101.6</ele>
        <time>2012-09-11T18:53:05Z</time>
      </trkpt>
      <trkpt lat="59.4321690628" lon="17.7831494296">
        <ele>101</ele>
        <time>2012-09-11T18:53:06Z</time>
      </trkpt>
      <trkpt lat="59.4321851561" lon="17.7833179058">
        <ele>100.6</ele>
        <time>2012-09-11T18:53:07Z</time>
      </trkpt>
      <trkpt lat="59.4322030095" lon="17.7834795088">
        <ele>100.2</ele>
        <time>2012-09-11T18:53:08Z</time>
      </trkpt>
      <trkpt lat="59.4322224555" lon="17.7836392679">
        <ele>99.6</ele>
        <time>2012-09-11T18:53:09Z</time>
      </trkpt>
      <trkpt lat="59.4322441646" lon="17.7838103424">
        <ele>99</ele>
        <time>2012-09-11T18:53:10Z</time>
      </trkpt>
      <trkpt lat="59.4322667958" lon="17.7839642341">
        <ele>98.4</ele>
        <time>2012-09-11T18:53:11Z</time>
      </trkpt>
      <trkpt lat="59.4322802068" lon="17.7841103306">
        <ele>97.8</ele>
        <time>2012-09-11T18:53:12Z</time>
      </trkpt>
      <trkpt lat="59.432288924" lon="17.7842430161">
        <ele>97.2</ele>
        <time>2012-09-11T18:53:13Z</time>
      </trkpt>
      <trkpt lat="59.4323156622" lon="17.784368577">
        <ele>96.4</ele>
        <time>2012-09-11T18:53:14Z</time>
      </trkpt>
      <trkpt lat="59.4323468429" lon="17.7844845825">
        <ele>95.8</ele>
        <time>2012-09-11T18:53:15Z</time>
      </trkpt>
      <trkpt lat="59.4323810411" lon="17.7845803876">
        <ele>95.2</ele>
        <time>2012-09-11T18:53:16Z</time>
      </trkpt>
      <trkpt lat="59.4324124732" lon="17.7846679784">
        <ele>94.8</ele>
        <time>2012-09-11T18:53:17Z</time>
      </trkpt>
      <trkpt lat="59.4324330088" lon="17.7847541444">
        <ele>94.2</ele>
        <time>2012-09-11T18:53:18Z</time>
      </trkpt>
      <trkpt lat="59.4324366969" lon="17.7848414838">
        <ele>93.8</ele>
        <time>2012-09-11T18:53:19Z</time>
      </trkpt>
      <trkpt lat="59.4324175862" lon="17.7849273983">
        <ele>93.4</ele>
        <time>2012-09-11T18:53:20Z</time>
      </trkpt>
      <trkpt lat="59.4323882495" lon="17.7850188448">
        <ele>92.8</ele>
        <time>2012-09-11T18:53:21Z</time>
      </trkpt>
      <trkpt lat="59.4322237128" lon="17.7851475908">
        <ele>92.8</ele>
        <time>2012-09-11T18:53:24Z</time>
      </trkpt>
      <trkpt lat="59.4321585854" lon="17.7851322519">
        <ele>93.4</ele>
        <time>2012-09-11T18:53:25Z</time>
      </trkpt>
      <trkpt lat="59.4320982358" lon="17.785122026">
        <ele>94.2</ele>
        <time>2012-09-11T18:53:26Z</time>
      </trkpt>
      <trkpt lat="59.432036545" lon="17.7851123868">
        <ele>94.6</ele>
        <time>2012-09-11T18:53:27Z</time>
      </trkpt>
      <trkpt lat="59.4319740998" lon="17.7851112971">
        <ele>95</ele>
        <time>2012-09-11T18:53:28Z</time>
      </trkpt>
      <trkpt lat="59.4319128281" lon="17.785117835">
        <ele>95</ele>
        <time>2012-09-11T18:53:29Z</time>
      </trkpt>
      <trkpt lat="59.4315563459" lon="17.7852592377">
        <ele>95</ele>
        <time>2012-09-11T18:53:35Z</time>
      </trkpt>
      <trkpt lat="59.4313478881" lon="17.785437353">
        <ele>95</ele>
        <time>2012-09-11T18:53:39Z</time>
      </trkpt>
      <trkpt lat="59.4313002789" lon="17.785496194">
        <ele>95</ele>
        <time>2012-09-11T18:53:40Z</time>
      </trkpt>
      <trkpt lat="59.4312489817" lon="17.7855551187">
        <ele>94.6</ele>
        <time>2012-09-11T18:53:41Z</time>
      </trkpt>
      <trkpt lat="59.4312019592" lon="17.7856114451">
        <ele>94.2</ele>
        <time>2012-09-11T18:53:42Z</time>
      </trkpt>
      <trkpt lat="59.4311519193" lon="17.7856671847">
        <ele>93.8</ele>
        <time>2012-09-11T18:53:43Z</time>
      </trkpt>
      <trkpt lat="59.4311025499" lon="17.7857245169">
        <ele>93.2</ele>
        <time>2012-09-11T18:53:44Z</time>
      </trkpt>
      <trkpt lat="59.4310543539" lon="17.7857835255">
        <ele>92.8</ele>
        <time>2012-09-11T18:53:45Z</time>
      </trkpt>
      <trkpt lat="59.4309030606" lon="17.7859460506">
        <ele>92.8</ele>
        <time>2012-09-11T18:53:48Z</time>
      </trkpt>
      <trkpt lat="59.4306955248" lon="17.7861583641">
        <ele>92.8</ele>
        <time>2012-09-11T18:53:52Z</time>
      </trkpt>
      <trkpt lat="59.4305917569" lon="17.786290379">
        <ele>92.8</ele>
        <time>2012-09-11T18:53:54Z</time>
      </trkpt>
      <trkpt lat="59.4302690537" lon="17.7868128228">
        <ele>92.8</ele>
        <time>2012-09-11T18:54:01Z</time>
      </trkpt>
      <trkpt lat="59.4299289162" lon="17.7874711373">
        <ele>92.8</ele>
        <time>2012-09-11T18:54:09Z</time>
      </trkpt>
      <trkpt lat="59.4296245694" lon="17.7878268651">
        <ele>92.8</ele>
        <time>2012-09-11T18:54:15Z</time>
      </trkpt>
      <trkpt lat="59.4294138485" lon="17.7880275278">
        <ele>92.8</ele>
        <time>2012-09-11T18:54:19Z</time>
      </trkpt>
      <trkpt lat="59.4292634772" lon="17.788171445">
        <ele>92.8</ele>
        <time>2012-09-11T18:54:22Z</time>
      </trkpt>
      <trkpt lat="59.4289132814" lon="17.7885316153">
        <ele>92.8</ele>
        <time>2012-09-11T18:54:29Z</time>
      </trkpt>
      <trkpt lat="59.4288664266" lon="17.7885928869">
        <ele>92.8</ele>
        <time>2012-09-11T18:54:30Z</time>
      </trkpt>
      <trkpt lat="59.428786128" lon="17.7887439288">
        <ele>92.8</ele>
        <time>2012-09-11T18:54:32Z</time>
      </trkpt>
      <trkpt lat="59.4287199948" lon="17.7889291688">
        <ele>92.8</ele>
        <time>2012-09-11T18:54:34Z</time>
      </trkpt>
      <trkpt lat="59.4284953599" lon="17.7895785146">
        <ele>92.8</ele>
        <time>2012-09-11T18:54:41Z</time>
      </trkpt>
      <trkpt lat="59.4282394605" lon="17.7903183849">
        <ele>92.8</ele>
        <time>2012-09-11T18:54:49Z</time>
      </trkpt>
      <trkpt lat="59.4280501972" lon="17.79087729">
        <ele>92.8</ele>
        <time>2012-09-11T18:54:55Z</time>
      </trkpt>
      <trkpt lat="59.4280265602" lon="17.7909791301">
        <ele>92.8</ele>
        <time>2012-09-11T18:54:56Z</time>
      </trkpt>
      <trkpt lat="59.428007198" lon="17.7912983128">
        <ele>92.8</ele>
        <time>2012-09-11T18:54:59Z</time>
      </trkpt>
      <trkpt lat="59.4280629376" lon="17.7914945331">
        <ele>92.8</ele>
        <time>2012-09-11T18:55:01Z</time>
      </trkpt>
      <trkpt lat="59.4280901788" lon="17.7915957864">
        <ele>92.8</ele>
        <time>2012-09-11T18:55:02Z</time>
      </trkpt>
      <trkpt lat="59.4282026639" lon="17.7920035659">
        <ele>92.8</ele>
        <time>2012-09-11T18:55:07Z</time>
      </trkpt>
      <trkpt lat="59.4282296536" lon="17.792148908">
        <ele>92.8</ele>
        <time>2012-09-11T18:55:09Z</time>
      </trkpt>
      <trkpt lat="59.4281641072" lon="17.79227581">
        <ele>92.8</ele>
        <time>2012-09-11T18:55:11Z</time>
      </trkpt>
      <trkpt lat="59.4279711558" lon="17.7924603794">
        <ele>92.8</ele>
        <time>2012-09-11T18:55:14Z</time>
      </trkpt>
      <trkpt lat="59.4279105547" lon="17.792525423">
        <ele>92.8</ele>
        <time>2012-09-11T18:55:15Z</time>
      </trkpt>
      <trkpt lat="59.4278456788" lon="17.7925902989">
        <ele>93.4</ele>
        <time>2012-09-11T18:55:16Z</time>
      </trkpt>
      <trkpt lat="59.4277803838" lon="17.7926633052">
        <ele>93.8</ele>
        <time>2012-09-11T18:55:17Z</time>
      </trkpt>
      <trkpt lat="59.4277155917" lon="17.7927385747">
        <ele>94.4</ele>
        <time>2012-09-11T18:55:18Z</time>
      </trkpt>
      <trkpt lat="59.427651554" lon="17.7928116648">
        <ele>94.8</ele>
        <time>2012-09-11T18:55:19Z</time>
      </trkpt>
      <trkpt lat="59.4275855884" lon="17.792893556">
        <ele>95.4</ele>
        <time>2012-09-11T18:55:20Z</time>
      </trkpt>
      <trkpt lat="59.4274814852" lon="17.7930953922">
        <ele>95.4</ele>
        <time>2012-09-11T18:55:22Z</time>
      </trkpt>
      <trkpt lat="59.4274435152" lon="17.7932243058">
        <ele>95.4</ele>
        <time>2012-09-11T18:55:23Z</time>
      </trkpt>
      <trkpt lat="59.4272513183" lon="17.793957722">
        <ele>95.4</ele>
        <time>2012-09-11T18:55:29Z</time>
      </trkpt>
      <trkpt lat="59.4271357319" lon="17.7943318062">
        <ele>95.4</ele>
        <time>2012-09-11T18:55:33Z</time>
      </trkpt>
      <trkpt lat="59.4270558524" lon="17.7944780704">
        <ele>95.4</ele>
        <time>2012-09-11T18:55:35Z</time>
      </trkpt>
      <trkpt lat="59.427013859" lon="17.7946688424">
        <ele>95.4</ele>
        <time>2012-09-11T18:55:37Z</time>
      </trkpt>
      <trkpt lat="59.4269529226" lon="17.7950305214">
        <ele>95.4</ele>
        <time>2012-09-11T18:55:41Z</time>
      </trkpt>
      <trkpt lat="59.4269302077" lon="17.7951930465">
        <ele>95.4</ele>
        <time>2012-09-11T18:55:43Z</time>
      </trkpt>
      <trkpt lat="59.4269070736" lon="17.7953556553">
        <ele>95.8</ele>
        <time>2012-09-11T18:55:45Z</time>
      </trkpt>
      <trkpt lat="59.4269028827" lon="17.7954203636">
        <ele>96.2</ele>
        <time>2012-09-11T18:55:46Z</time>
      </trkpt>
      <trkpt lat="59.4268970154" lon="17.7954872511">
        <ele>96.6</ele>
        <time>2012-09-11T18:55:47Z</time>
      </trkpt>
      <trkpt lat="59.4268903098" lon="17.7955599222">
        <ele>97</ele>
        <time>2012-09-11T18:55:48Z</time>
      </trkpt>
      <trkpt lat="59.4268817603" lon="17.7956316713">
        <ele>97.6</ele>
        <time>2012-09-11T18:55:49Z</time>
      </trkpt>
      <trkpt lat="59.4268571175" lon="17.7959381135">
        <ele>98.4</ele>
        <time>2012-09-11T18:55:53Z</time>
      </trkpt>
      <trkpt lat="59.4268566146" lon="17.796009695">
        <ele>98.8</ele>
        <time>2012-09-11T18:55:54Z</time>
      </trkpt>
      <trkpt lat="59.4268506634" lon="17.7960797677">
        <ele>99.2</ele>
        <time>2012-09-11T18:55:55Z</time>
      </trkpt>
      <trkpt lat="59.426844377" lon="17.7961407879">
        <ele>99.8</ele>
        <time>2012-09-11T18:55:56Z</time>
      </trkpt>
      <trkpt lat="59.4268235061" lon="17.7963391875">
        <ele>100.2</ele>
        <time>2012-09-11T18:55:59Z</time>
      </trkpt>
      <trkpt lat="59.4268160462" lon="17.7964058236">
        <ele>100.6</ele>
        <time>2012-09-11T18:56:00Z</time>
      </trkpt>
      <trkpt lat="59.4268090054" lon="17.7964760639">
        <ele>101</ele>
        <time>2012-09-11T18:56:01Z</time>
      </trkpt>
      <trkpt lat="59.4268080834" lon="17.796552423">
        <ele>101.4</ele>
        <time>2012-09-11T18:56:02Z</time>
      </trkpt>
      <trkpt lat="59.4268055688" lon="17.7966184724">
        <ele>101.8</ele>
        <time>2012-09-11T18:56:03Z</time>
      </trkpt>
      <trkpt lat="59.4267944209" lon="17.7967477213">
        <ele>102.2</ele>
        <time>2012-09-11T18:56:05Z</time>
      </trkpt>
      <trkpt lat="59.426787883" lon="17.7968272655">
        <ele>102.6</ele>
        <time>2012-09-11T18:56:06Z</time>
      </trkpt>
      <trkpt lat="59.4267839435" lon="17.7969066421">
        <ele>103</ele>
        <time>2012-09-11T18:56:07Z</time>
      </trkpt>
      <trkpt lat="59.4267782438" lon="17.7969887009">
        <ele>103.4</ele>
        <time>2012-09-11T18:56:08Z</time>
      </trkpt>
      <trkpt lat="59.4267709516" lon="17.7970798121">
        <ele>103.8</ele>
        <time>2012-09-11T18:56:09Z</time>
      </trkpt>
      <trkpt lat="59.4267640784" lon="17.7971706719">
        <ele>104.4</ele>
        <time>2012-09-11T18:56:10Z</time>
      </trkpt>
      <trkpt lat="59.4267551098" lon="17.7972498809">
        <ele>105</ele>
        <time>2012-09-11T18:56:11Z</time>
      </trkpt>
      <trkpt lat="59.4267541878" lon="17.7973321073">
        <ele>105.4</ele>
        <time>2012-09-11T18:56:12Z</time>
      </trkpt>
      <trkpt lat="59.4267329816" lon="17.7974071253">
        <ele>106</ele>
        <time>2012-09-11T18:56:13Z</time>
      </trkpt>
      <trkpt lat="59.4266042356" lon="17.7975241367">
        <ele>106</ele>
        <time>2012-09-11T18:56:16Z</time>
      </trkpt>
      <trkpt lat="59.4265572131" lon="17.7975505397">
        <ele>106</ele>
        <time>2012-09-11T18:56:17Z</time>
      </trkpt>
      <trkpt lat="59.4262839632" lon="17.7977180938">
        <ele>106</ele>
        <time>2012-09-11T18:56:22Z</time>
      </trkpt>
      <trkpt lat="59.4262149802" lon="17.7979713949">
        <ele>106</ele>
        <time>2012-09-11T18:56:25Z</time>
      </trkpt>
      <trkpt lat="59.4261891639" lon="17.7980495142">
        <ele>106</ele>
        <time>2012-09-11T18:56:26Z</time>
      </trkpt>
      <trkpt lat="59.4260722364" lon="17.7983856283">
        <ele>106</ele>
        <time>2012-09-11T18:56:30Z</time>
      </trkpt>
      <trkpt lat="59.4260003197" lon="17.7985621512">
        <ele>106</ele>
        <time>2012-09-11T18:56:32Z</time>
      </trkpt>
      <trkpt lat="59.4257559035" lon="17.7991244928">
        <ele>106</ele>
        <time>2012-09-11T18:56:39Z</time>
      </trkpt>
      <trkpt lat="59.4257266507" lon="17.7991995947">
        <ele>106.4</ele>
        <time>2012-09-11T18:56:40Z</time>
      </trkpt>
      <trkpt lat="59.425704271" lon="17.7992776301">
        <ele>106.8</ele>
        <time>2012-09-11T18:56:41Z</time>
      </trkpt>
      <trkpt lat="59.4256883454" lon="17.7993596051">
        <ele>107.2</ele>
        <time>2012-09-11T18:56:42Z</time>
      </trkpt>
      <trkpt lat="59.4256724198" lon="17.7994440109">
        <ele>108</ele>
        <time>2012-09-11T18:56:43Z</time>
      </trkpt>
      <trkpt lat="59.4256691508" lon="17.7995301768">
        <ele>108</ele>
        <time>2012-09-11T18:56:44Z</time>
      </trkpt>
      <trkpt lat="59.4256490343" lon="17.7997093818">
        <ele>108</ele>
        <time>2012-09-11T18:56:46Z</time>
      </trkpt>
      <trkpt lat="59.4256375511" lon="17.799799152">
        <ele>108</ele>
        <time>2012-09-11T18:56:47Z</time>
      </trkpt>
      <trkpt lat="59.4256332763" lon="17.7998916881">
        <ele>108</ele>
        <time>2012-09-11T18:56:48Z</time>
      </trkpt>
      <trkpt lat="59.4256129921" lon="17.8002803568">
        <ele>108</ele>
        <time>2012-09-11T18:56:52Z</time>
      </trkpt>
      <trkpt lat="59.4255978209" lon="17.8007828517">
        <ele>108</ele>
        <time>2012-09-11T18:56:58Z</time>
      </trkpt>
      <trkpt lat="59.4255978209" lon="17.8008603005">
        <ele>108.4</ele>
        <time>2012-09-11T18:56:59Z</time>
      </trkpt>
      <trkpt lat="59.4255984076" lon="17.8009359052">
        <ele>109</ele>
        <time>2012-09-11T18:57:00Z</time>
      </trkpt>
      <trkpt lat="59.4256031853" lon="17.8010125158">
        <ele>109.4</ele>
        <time>2012-09-11T18:57:01Z</time>
      </trkpt>
      <trkpt lat="59.4256052807" lon="17.8010919762">
        <ele>109.8</ele>
        <time>2012-09-11T18:57:02Z</time>
      </trkpt>
      <trkpt lat="59.425604694" lon="17.801170347">
        <ele>110.2</ele>
        <time>2012-09-11T18:57:03Z</time>
      </trkpt>
      <trkpt lat="59.4256207873" lon="17.8013249092">
        <ele>110.8</ele>
        <time>2012-09-11T18:57:05Z</time>
      </trkpt>
      <trkpt lat="59.4256315999" lon="17.8013985861">
        <ele>111.2</ele>
        <time>2012-09-11T18:57:06Z</time>
      </trkpt>
      <trkpt lat="59.4256433346" lon="17.8014794715">
        <ele>111.6</ele>
        <time>2012-09-11T18:57:07Z</time>
      </trkpt>
      <trkpt lat="59.4256567456" lon="17.8015615303">
        <ele>112.6</ele>
        <time>2012-09-11T18:57:08Z</time>
      </trkpt>
      <trkpt lat="59.4256949671" lon="17.8017929545">
        <ele>113</ele>
        <time>2012-09-11T18:57:11Z</time>
      </trkpt>
      <trkpt lat="59.4257091325" lon="17.8018735046">
        <ele>113.4</ele>
        <time>2012-09-11T18:57:12Z</time>
      </trkpt>
      <trkpt lat="59.4257238846" lon="17.801939973">
        <ele>113.8</ele>
        <time>2012-09-11T18:57:13Z</time>
      </trkpt>
      <trkpt lat="59.4257418219" lon="17.8020066091">
        <ele>114.2</ele>
        <time>2012-09-11T18:57:14Z</time>
      </trkpt>
      <trkpt lat="59.4257572446" lon="17.8020765142">
        <ele>114.6</ele>
        <time>2012-09-11T18:57:15Z</time>
      </trkpt>
      <trkpt lat="59.4258064463" lon="17.8022676215">
        <ele>115</ele>
        <time>2012-09-11T18:57:18Z</time>
      </trkpt>
      <trkpt lat="59.4258253894" lon="17.802322523">
        <ele>115.6</ele>
        <time>2012-09-11T18:57:19Z</time>
      </trkpt>
      <trkpt lat="59.425851541" lon="17.8023675338">
        <ele>116</ele>
        <time>2012-09-11T18:57:20Z</time>
      </trkpt>
      <trkpt lat="59.4258768543" lon="17.8024035759">
        <ele>116.4</ele>
        <time>2012-09-11T18:57:21Z</time>
      </trkpt>
      <trkpt lat="59.4258988149" lon="17.8024390314">
        <ele>116.8</ele>
        <time>2012-09-11T18:57:22Z</time>
      </trkpt>
      <trkpt lat="59.425922368" lon="17.802474403">
        <ele>117.4</ele>
        <time>2012-09-11T18:57:23Z</time>
      </trkpt>
      <trkpt lat="59.4259468432" lon="17.8025136303">
        <ele>117.8</ele>
        <time>2012-09-11T18:57:24Z</time>
      </trkpt>
      <trkpt lat="59.4259676303" lon="17.8025565456">
        <ele>118.2</ele>
        <time>2012-09-11T18:57:25Z</time>
      </trkpt>
      <trkpt lat="59.4259937818" lon="17.8026118661">
        <ele>118.6</ele>
        <time>2012-09-11T18:57:26Z</time>
      </trkpt>
      <trkpt lat="59.4260206039" lon="17.8026613194">
        <ele>119.2</ele>
        <time>2012-09-11T18:57:27Z</time>
      </trkpt>
      <trkpt lat="59.4260517846" lon="17.8027090962">
        <ele>119.6</ele>
        <time>2012-09-11T18:57:28Z</time>
      </trkpt>
      <trkpt lat="59.4260895031" lon="17.8027498322">
        <ele>120</ele>
        <time>2012-09-11T18:57:29Z</time>
      </trkpt>
      <trkpt lat="59.426140046" lon="17.8027678533">
        <ele>120.4</ele>
        <time>2012-09-11T18:57:30Z</time>
      </trkpt>
      <trkpt lat="59.4261941092" lon="17.8027628242">
        <ele>120.8</ele>
        <time>2012-09-11T18:57:31Z</time>
      </trkpt>
      <trkpt lat="59.4262434786" lon="17.8027415341">
        <ele>121.2</ele>
        <time>2012-09-11T18:57:32Z</time>
      </trkpt>
      <trkpt lat="59.4262829574" lon="17.80270457">
        <ele>121.6</ele>
        <time>2012-09-11T18:57:33Z</time>
      </trkpt>
      <trkpt lat="59.4263194186" lon="17.8026526022">
        <ele>122.2</ele>
        <time>2012-09-11T18:57:34Z</time>
      </trkpt>
      <trkpt lat="59.4263564666" lon="17.8025951023">
        <ele>122.6</ele>
        <time>2012-09-11T18:57:35Z</time>
      </trkpt>
      <trkpt lat="59.426400304" lon="17.8025277957">
        <ele>123</ele>
        <time>2012-09-11T18:57:36Z</time>
      </trkpt>
      <trkpt lat="59.4264444766" lon="17.8024583097">
        <ele>123.4</ele>
        <time>2012-09-11T18:57:37Z</time>
      </trkpt>
      <trkpt lat="59.4264950194" lon="17.8023830403">
        <ele>124</ele>
        <time>2012-09-11T18:57:38Z</time>
      </trkpt>
      <trkpt lat="59.4265521002" lon="17.8022962876">
        <ele>124.4</ele>
        <time>2012-09-11T18:57:39Z</time>
      </trkpt>
      <trkpt lat="59.4266161379" lon="17.802201656">
        <ele>125</ele>
        <time>2012-09-11T18:57:40Z</time>
      </trkpt>
      <trkpt lat="59.4266742245" lon="17.8021159091">
        <ele>125.4</ele>
        <time>2012-09-11T18:57:41Z</time>
      </trkpt>
      <trkpt lat="59.4267672635" lon="17.8019581618">
        <ele>125.4</ele>
        <time>2012-09-11T18:57:43Z</time>
      </trkpt>
      <trkpt lat="59.4270052257" lon="17.8014525656">
        <ele>125.4</ele>
        <time>2012-09-11T18:57:49Z</time>
      </trkpt>
      <trkpt lat="59.4271105862" lon="17.8009620568">
        <ele>125.4</ele>
        <time>2012-09-11T18:57:53Z</time>
      </trkpt>
      <trkpt lat="59.4271353128" lon="17.8008126913">
        <ele>125.4</ele>
        <time>2012-09-11T18:57:54Z</time>
      </trkpt>
      <trkpt lat="59.4271923935" lon="17.800523851">
        <ele>125</ele>
        <time>2012-09-11T18:57:56Z</time>
      </trkpt>
      <trkpt lat="59.4272172878" lon="17.8003821131">
        <ele>124.2</ele>
        <time>2012-09-11T18:57:57Z</time>
      </trkpt>
      <trkpt lat="59.4272505639" lon="17.8002427221">
        <ele>123.8</ele>
        <time>2012-09-11T18:57:58Z</time>
      </trkpt>
      <trkpt lat="59.4272858517" lon="17.8001095337">
        <ele>123.4</ele>
        <time>2012-09-11T18:57:59Z</time>
      </trkpt>
      <trkpt lat="59.4274463651" lon="17.799434707">
        <ele>123.4</ele>
        <time>2012-09-11T18:58:04Z</time>
      </trkpt>
      <trkpt lat="59.4274879393" lon="17.7993082241">
        <ele>122.8</ele>
        <time>2012-09-11T18:58:05Z</time>
      </trkpt>
      <trkpt lat="59.4275399909" lon="17.7991811545">
        <ele>122.4</ele>
        <time>2012-09-11T18:58:06Z</time>
      </trkpt>
      <trkpt lat="59.4275995862" lon="17.7990919711">
        <ele>122</ele>
        <time>2012-09-11T18:58:07Z</time>
      </trkpt>
      <trkpt lat="59.4276616961" lon="17.7990041287">
        <ele>121.6</ele>
        <time>2012-09-11T18:58:08Z</time>
      </trkpt>
      <trkpt lat="59.4277164299" lon="17.798930368">
        <ele>121</ele>
        <time>2012-09-11T18:58:09Z</time>
      </trkpt>
      <trkpt lat="59.4277771987" lon="17.7988668332">
        <ele>121</ele>
        <time>2012-09-11T18:58:10Z</time>
      </trkpt>
      <trkpt lat="59.4278370454" lon="17.7988169609">
        <ele>121</ele>
        <time>2012-09-11T18:58:11Z</time>
      </trkpt>
      <trkpt lat="59.4280351097" lon="17.7986779052">
        <ele>121</ele>
        <time>2012-09-11T18:58:14Z</time>
      </trkpt>
      <trkpt lat="59.4281750875" lon="17.7986219979">
        <ele>121</ele>
        <time>2012-09-11T18:58:16Z</time>
      </trkpt>
      <trkpt lat="59.4285417118" lon="17.7985510032">
        <ele>121</ele>
        <time>2012-09-11T18:58:22Z</time>
      </trkpt>
      <trkpt lat="59.4288440469" lon="17.7984795056">
        <ele>121</ele>
        <time>2012-09-11T18:58:28Z</time>
      </trkpt>
      <trkpt lat="59.4290886307" lon="17.7983460658">
        <ele>121</ele>
        <time>2012-09-11T18:58:32Z</time>
      </trkpt>
      <trkpt lat="59.4291494833" lon="17.798289488">
        <ele>121</ele>
        <time>2012-09-11T18:58:33Z</time>
      </trkpt>
      <trkpt lat="59.4294787244" lon="17.7978882464">
        <ele>121</ele>
        <time>2012-09-11T18:58:39Z</time>
      </trkpt>
      <trkpt lat="59.4295188737" lon="17.797800907">
        <ele>121</ele>
        <time>2012-09-11T18:58:40Z</time>
      </trkpt>
      <trkpt lat="59.4297486216" lon="17.79727159">
        <ele>121</ele>
        <time>2012-09-11T18:58:46Z</time>
      </trkpt>
      <trkpt lat="59.4297833226" lon="17.7971797244">
        <ele>121</ele>
        <time>2012-09-11T18:58:47Z</time>
      </trkpt>
      <trkpt lat="59.4298316024" lon="17.7970754536">
        <ele>121.6</ele>
        <time>2012-09-11T18:58:48Z</time>
      </trkpt>
      <trkpt lat="59.4298727575" lon="17.79696783">
        <ele>122</ele>
        <time>2012-09-11T18:58:49Z</time>
      </trkpt>
      <trkpt lat="59.4299153375" lon="17.7968638106">
        <ele>122.4</ele>
        <time>2012-09-11T18:58:50Z</time>
      </trkpt>
      <trkpt lat="59.4299604322" lon="17.7967585339">
        <ele>122.8</ele>
        <time>2012-09-11T18:58:51Z</time>
      </trkpt>
      <trkpt lat="59.4300043533" lon="17.7966504074">
        <ele>123.2</ele>
        <time>2012-09-11T18:58:52Z</time>
      </trkpt>
      <trkpt lat="59.4302396333" lon="17.79609167">
        <ele>123.2</ele>
        <time>2012-09-11T18:58:57Z</time>
      </trkpt>
      <trkpt lat="59.430290679" lon="17.7959817832">
        <ele>122.8</ele>
        <time>2012-09-11T18:58:58Z</time>
      </trkpt>
      <trkpt lat="59.4303384559" lon="17.7958678732">
        <ele>122.4</ele>
        <time>2012-09-11T18:58:59Z</time>
      </trkpt>
      <trkpt lat="59.4303852269" lon="17.79575916">
        <ele>121.8</ele>
        <time>2012-09-11T18:59:00Z</time>
      </trkpt>
      <trkpt lat="59.4304273878" lon="17.7956418972">
        <ele>121.4</ele>
        <time>2012-09-11T18:59:01Z</time>
      </trkpt>
      <trkpt lat="59.4304734883" lon="17.7955263108">
        <ele>120.8</ele>
        <time>2012-09-11T18:59:02Z</time>
      </trkpt>
      <trkpt lat="59.4305262104" lon="17.7954076231">
        <ele>120.8</ele>
        <time>2012-09-11T18:59:03Z</time>
      </trkpt>
      <trkpt lat="59.4306956086" lon="17.7950961517">
        <ele>120.4</ele>
        <time>2012-09-11T18:59:06Z</time>
      </trkpt>
      <trkpt lat="59.43076258" lon="17.795022391">
        <ele>120</ele>
        <time>2012-09-11T18:59:07Z</time>
      </trkpt>
      <trkpt lat="59.430830641" lon="17.7949543299">
        <ele>119.6</ele>
        <time>2012-09-11T18:59:08Z</time>
      </trkpt>
      <trkpt lat="59.4308966904" lon="17.7948887835">
        <ele>119.2</ele>
        <time>2012-09-11T18:59:09Z</time>
      </trkpt>
      <trkpt lat="59.4309784977" lon="17.7948623805">
        <ele>118.8</ele>
        <time>2012-09-11T18:59:10Z</time>
      </trkpt>
      <trkpt lat="59.4311309645" lon="17.7948281824">
        <ele>118.8</ele>
        <time>2012-09-11T18:59:12Z</time>
      </trkpt>
      <trkpt lat="59.4314694256" lon="17.794814436">
        <ele>118.8</ele>
        <time>2012-09-11T18:59:17Z</time>
      </trkpt>
      <trkpt lat="59.4315249138" lon="17.7948171182">
        <ele>118.8</ele>
        <time>2012-09-11T18:59:18Z</time>
      </trkpt>
      <trkpt lat="59.431833703" lon="17.7947730294">
        <ele>118.8</ele>
        <time>2012-09-11T18:59:23Z</time>
      </trkpt>
      <trkpt lat="59.4322313403" lon="17.7946843489">
        <ele>118.8</ele>
        <time>2012-09-11T18:59:28Z</time>
      </trkpt>
      <trkpt lat="59.432306526" lon="17.7946609634">
        <ele>118.2</ele>
        <time>2012-09-11T18:59:29Z</time>
      </trkpt>
      <trkpt lat="59.4323739165" lon="17.7946358177">
        <ele>117.8</ele>
        <time>2012-09-11T18:59:30Z</time>
      </trkpt>
      <trkpt lat="59.43243896" lon="17.7946309562">
        <ele>117.2</ele>
        <time>2012-09-11T18:59:31Z</time>
      </trkpt>
      <trkpt lat="59.4324993935" lon="17.7946289446">
        <ele>116.8</ele>
        <time>2012-09-11T18:59:32Z</time>
      </trkpt>
      <trkpt lat="59.4325606652" lon="17.7946215685">
        <ele>116.4</ele>
        <time>2012-09-11T18:59:33Z</time>
      </trkpt>
      <trkpt lat="59.4328992101" lon="17.7945856102">
        <ele>116.4</ele>
        <time>2012-09-11T18:59:39Z</time>
      </trkpt>
      <trkpt lat="59.4332803351" lon="17.7945464667">
        <ele>116.4</ele>
        <time>2012-09-11T18:59:45Z</time>
      </trkpt>
      <trkpt lat="59.4338151842" lon="17.7944364962">
        <ele>116.4</ele>
        <time>2012-09-11T18:59:52Z</time>
      </trkpt>
      <trkpt lat="59.4343092972" lon="17.7943200716">
        <ele>116.4</ele>
        <time>2012-09-11T18:59:59Z</time>
      </trkpt>
      <trkpt lat="59.4347243689" lon="17.7942526811">
        <ele>116.4</ele>
        <time>2012-09-11T19:00:06Z</time>
      </trkpt>
      <trkpt lat="59.4349958586" lon="17.7942068321">
        <ele>116.4</ele>
        <time>2012-09-11T19:00:11Z</time>
      </trkpt>
      <trkpt lat="59.4350468205" lon="17.7941893978">
        <ele>116.8</ele>
        <time>2012-09-11T19:00:12Z</time>
      </trkpt>
      <trkpt lat="59.4350974472" lon="17.794172634">
        <ele>117.2</ele>
        <time>2012-09-11T19:00:13Z</time>
      </trkpt>
      <trkpt lat="59.4351515105" lon="17.7941372623">
        <ele>117.6</ele>
        <time>2012-09-11T19:00:14Z</time>
      </trkpt>
      <trkpt lat="59.4352039812" lon="17.7940927544">
        <ele>118</ele>
        <time>2012-09-11T19:00:15Z</time>
      </trkpt>
      <trkpt lat="59.435255446" lon="17.7940505097">
        <ele>118.6</ele>
        <time>2012-09-11T19:00:16Z</time>
      </trkpt>
      <trkpt lat="59.4352999539" lon="17.7940266213">
        <ele>118.6</ele>
        <time>2012-09-11T19:00:17Z</time>
      </trkpt>
      <trkpt lat="59.4354007044" lon="17.7940376854">
        <ele>118.6</ele>
        <time>2012-09-11T19:00:20Z</time>
      </trkpt>
      <trkpt lat="59.4355441187" lon="17.7940471569">
        <ele>118.6</ele>
        <time>2012-09-11T19:00:24Z</time>
      </trkpt>
      <trkpt lat="59.4355829269" lon="17.7940588916">
        <ele>118.6</ele>
        <time>2012-09-11T19:00:25Z</time>
      </trkpt>
      <trkpt lat="59.4357514031" lon="17.7941045729">
        <ele>119</ele>
        <time>2012-09-11T19:00:29Z</time>
      </trkpt>
      <trkpt lat="59.4357861041" lon="17.794105914">
        <ele>119.4</ele>
        <time>2012-09-11T19:00:30Z</time>
      </trkpt>
      <trkpt lat="59.4358255829" lon="17.7941019745">
        <ele>120</ele>
        <time>2012-09-11T19:00:31Z</time>
      </trkpt>
      <trkpt lat="59.4358653969" lon="17.7940870548">
        <ele>120.4</ele>
        <time>2012-09-11T19:00:32Z</time>
      </trkpt>
      <trkpt lat="59.4359070549" lon="17.7940829476">
        <ele>120.8</ele>
        <time>2012-09-11T19:00:33Z</time>
      </trkpt>
      <trkpt lat="59.4360148462" lon="17.7940368472">
        <ele>120.8</ele>
        <time>2012-09-11T19:00:35Z</time>
      </trkpt>
      <trkpt lat="59.4360615334" lon="17.794013294">
        <ele>120.8</ele>
        <time>2012-09-11T19:00:36Z</time>
      </trkpt>
      <trkpt lat="59.4363197797" lon="17.7939060057">
        <ele>120.8</ele>
        <time>2012-09-11T19:00:41Z</time>
      </trkpt>
      <trkpt lat="59.4364172612" lon="17.7938879008">
        <ele>120.8</ele>
        <time>2012-09-11T19:00:43Z</time>
      </trkpt>
      <trkpt lat="59.4365189336" lon="17.7939250326">
        <ele>120.8</ele>
        <time>2012-09-11T19:00:45Z</time>
      </trkpt>
      <trkpt lat="59.4365690574" lon="17.7939280501">
        <ele>120.4</ele>
        <time>2012-09-11T19:00:46Z</time>
      </trkpt>
      <trkpt lat="59.4366197679" lon="17.7939369349">
        <ele>120</ele>
        <time>2012-09-11T19:00:47Z</time>
      </trkpt>
      <trkpt lat="59.436666958" lon="17.7939443948">
        <ele>119.6</ele>
        <time>2012-09-11T19:00:48Z</time>
      </trkpt>
      <trkpt lat="59.4367136452" lon="17.7939565486">
        <ele>119.2</ele>
        <time>2012-09-11T19:00:49Z</time>
      </trkpt>
      <trkpt lat="59.4367558061" lon="17.7939863043">
        <ele>118.8</ele>
        <time>2012-09-11T19:00:50Z</time>
      </trkpt>
      <trkpt lat="59.436799392" lon="17.7940322371">
        <ele>118.8</ele>
        <time>2012-09-11T19:00:51Z</time>
      </trkpt>
      <trkpt lat="59.4368954486" lon="17.7941020584">
        <ele>118.8</ele>
        <time>2012-09-11T19:00:53Z</time>
      </trkpt>
      <trkpt lat="59.4370356778" lon="17.7941138768">
        <ele>118.8</ele>
        <time>2012-09-11T19:00:56Z</time>
      </trkpt>
      <trkpt lat="59.4371935928" lon="17.7940506773">
        <ele>118.8</ele>
        <time>2012-09-11T19:01:00Z</time>
      </trkpt>
      <trkpt lat="59.4372417049" lon="17.7940951852">
        <ele>118.8</ele>
        <time>2012-09-11T19:01:03Z</time>
      </trkpt>
      <trkpt lat="59.4372544454" lon="17.7941258629">
        <ele>118.8</ele>
        <time>2012-09-11T19:01:05Z</time>
      </trkpt>
      <trkpt lat="59.437286548" lon="17.7941855421">
        <ele>118.8</ele>
        <time>2012-09-11T19:01:09Z</time>
      </trkpt>
      <trkpt lat="59.4372938403" lon="17.7942135376">
        <ele>118.4</ele>
        <time>2012-09-11T19:01:10Z</time>
      </trkpt>
      <trkpt lat="59.4372956005" lon="17.7942403597">
        <ele>118</ele>
        <time>2012-09-11T19:01:11Z</time>
      </trkpt>
      <trkpt lat="59.4373025575" lon="17.7942848676">
        <ele>117.6</ele>
        <time>2012-09-11T19:01:12Z</time>
      </trkpt>
      <trkpt lat="59.4373107717" lon="17.7943352428">
        <ele>117.2</ele>
        <time>2012-09-11T19:01:13Z</time>
      </trkpt>
      <trkpt lat="59.4373197404" lon="17.7943822653">
        <ele>116.8</ele>
        <time>2012-09-11T19:01:14Z</time>
      </trkpt>
      <trkpt lat="59.4373354983" lon="17.7944592949">
        <ele>116.8</ele>
        <time>2012-09-11T19:01:16Z</time>
      </trkpt>
      <trkpt lat="59.4373383482" lon="17.7945371628">
        <ele>116.8</ele>
        <time>2012-09-11T19:01:18Z</time>
      </trkpt>
      <trkpt lat="59.4373391026" lon="17.7946165394">
        <ele>116.8</ele>
        <time>2012-09-11T19:01:20Z</time>
      </trkpt>
      <trkpt lat="59.4373586324" lon="17.7948554235">
        <ele>116.8</ele>
        <time>2012-09-11T19:01:24Z</time>
      </trkpt>
      <trkpt lat="59.4373621528" lon="17.7951087245">
        <ele>116.8</ele>
        <time>2012-09-11T19:01:29Z</time>
      </trkpt>
      <trkpt lat="59.4373517592" lon="17.7953192779">
        <ele>116.8</ele>
        <time>2012-09-11T19:01:33Z</time>
      </trkpt>
      <trkpt lat="59.4373470654" lon="17.7955017518">
        <ele>116.8</ele>
        <time>2012-09-11T19:01:37Z</time>
      </trkpt>
      <trkpt lat="59.4373495799" lon="17.7955706511">
        <ele>116.8</ele>
        <time>2012-09-11T19:01:40Z</time>
      </trkpt>
      <trkpt lat="59.4373563693" lon="17.7956065256">
        <ele>116.8</ele>
        <time>2012-09-11T19:01:41Z</time>
      </trkpt>
      <trkpt lat="59.4373627395" lon="17.7958631794">
        <ele>116.8</ele>
        <time>2012-09-11T19:01:46Z</time>
      </trkpt>
      <trkpt lat="59.437332397" lon="17.7961727229">
        <ele>116.8</ele>
        <time>2012-09-11T19:01:51Z</time>
      </trkpt>
      <trkpt lat="59.4373223388" lon="17.7962327373">
        <ele>117.2</ele>
        <time>2012-09-11T19:01:52Z</time>
      </trkpt>
      <trkpt lat="59.4373139569" lon="17.7962877226">
        <ele>117.8</ele>
        <time>2012-09-11T19:01:53Z</time>
      </trkpt>
      <trkpt lat="59.4373086763" lon="17.7963430431">
        <ele>118.2</ele>
        <time>2012-09-11T19:01:54Z</time>
      </trkpt>
      <trkpt lat="59.4373117776" lon="17.7963923287">
        <ele>118.6</ele>
        <time>2012-09-11T19:01:55Z</time>
      </trkpt>
      <trkpt lat="59.4373125319" lon="17.7964339868">
        <ele>119</ele>
        <time>2012-09-11T19:01:56Z</time>
      </trkpt>
      <trkpt lat="59.4373608955" lon="17.7966494854">
        <ele>119.4</ele>
        <time>2012-09-11T19:02:01Z</time>
      </trkpt>
      <trkpt lat="59.4373769887" lon="17.7966667521">
        <ele>119.8</ele>
        <time>2012-09-11T19:02:02Z</time>
      </trkpt>
      <trkpt lat="59.4373928305" lon="17.7966934066">
        <ele>120.4</ele>
        <time>2012-09-11T19:02:03Z</time>
      </trkpt>
      <trkpt lat="59.4374094267" lon="17.7967155348">
        <ele>120.8</ele>
        <time>2012-09-11T19:02:04Z</time>
      </trkpt>
      <trkpt lat="59.4374293756" lon="17.7967372439">
        <ele>121.2</ele>
        <time>2012-09-11T19:02:05Z</time>
      </trkpt>
      <trkpt lat="59.4374571197" lon="17.7967553488">
        <ele>121.2</ele>
        <time>2012-09-11T19:02:06Z</time>
      </trkpt>
      <trkpt lat="59.4375533439" lon="17.7968277684">
        <ele>121.2</ele>
        <time>2012-09-11T19:02:09Z</time>
      </trkpt>
      <trkpt lat="59.4376238357" lon="17.7968735336">
        <ele>121.2</ele>
        <time>2012-09-11T19:02:11Z</time>
      </trkpt>
      <trkpt lat="59.4378020349" lon="17.7969121741">
        <ele>121.2</ele>
        <time>2012-09-11T19:02:16Z</time>
      </trkpt>
      <trkpt lat="59.4378845128" lon="17.7970679937">
        <ele>121.2</ele>
        <time>2012-09-11T19:02:20Z</time>
      </trkpt>
      <trkpt lat="59.4379094909" lon="17.7971582667">
        <ele>121.2</ele>
        <time>2012-09-11T19:02:22Z</time>
      </trkpt>
      <trkpt lat="59.437922399" lon="17.7972736855">
        <ele>121.2</ele>
        <time>2012-09-11T19:02:25Z</time>
      </trkpt>
      <trkpt lat="59.4379182918" lon="17.7973503799">
        <ele>121.2</ele>
        <time>2012-09-11T19:02:28Z</time>
      </trkpt>
      <trkpt lat="59.4379150229" lon="17.7973733463">
        <ele>121.6</ele>
        <time>2012-09-11T19:02:29Z</time>
      </trkpt>
      <trkpt lat="59.4379143524" lon="17.7974020124">
        <ele>122.6</ele>
        <time>2012-09-11T19:02:30Z</time>
      </trkpt>
      <trkpt lat="59.4379062219" lon="17.7974294212">
        <ele>123</ele>
        <time>2012-09-11T19:02:31Z</time>
      </trkpt>
      <trkpt lat="59.4378997678" lon="17.7974609371">
        <ele>123.6</ele>
        <time>2012-09-11T19:02:32Z</time>
      </trkpt>
      <trkpt lat="59.4378600376" lon="17.7975458458">
        <ele>124</ele>
        <time>2012-09-11T19:02:35Z</time>
      </trkpt>
      <trkpt lat="59.4378452017" lon="17.7975756015">
        <ele>124.4</ele>
        <time>2012-09-11T19:02:36Z</time>
      </trkpt>
      <trkpt lat="59.4378293599" lon="17.7976099673">
        <ele>124.8</ele>
        <time>2012-09-11T19:02:37Z</time>
      </trkpt>
      <trkpt lat="59.4378175414" lon="17.7976571574">
        <ele>125.2</ele>
        <time>2012-09-11T19:02:38Z</time>
      </trkpt>
      <trkpt lat="59.4378060582" lon="17.7976906012">
        <ele>125.6</ele>
        <time>2012-09-11T19:02:39Z</time>
      </trkpt>
      <trkpt lat="59.4377350635" lon="17.7978866538">
        <ele>125.6</ele>
        <time>2012-09-11T19:02:44Z</time>
      </trkpt>
      <trkpt lat="59.4376824252" lon="17.7979682935">
        <ele>125.6</ele>
        <time>2012-09-11T19:02:49Z</time>
      </trkpt>
      <trkpt lat="59.4376684274" lon="17.7979951994">
        <ele>125.6</ele>
        <time>2012-09-11T19:02:50Z</time>
      </trkpt>
      <trkpt lat="59.4376073234" lon="17.7980247037">
        <ele>125.6</ele>
        <time>2012-09-11T19:02:54Z</time>
      </trkpt>
      <trkpt lat="59.4375211574" lon="17.7981086904">
        <ele>126</ele>
        <time>2012-09-11T19:02:59Z</time>
      </trkpt>
      <trkpt lat="59.4375057347" lon="17.7981198383">
        <ele>126.4</ele>
        <time>2012-09-11T19:03:00Z</time>
      </trkpt>
      <trkpt lat="59.4374893062" lon="17.7981335846">
        <ele>126.8</ele>
        <time>2012-09-11T19:03:01Z</time>
      </trkpt>
      <trkpt lat="59.4374826845" lon="17.7981794336">
        <ele>127.2</ele>
        <time>2012-09-11T19:03:02Z</time>
      </trkpt>
      <trkpt lat="59.4374737997" lon="17.798213967">
        <ele>127.6</ele>
        <time>2012-09-11T19:03:03Z</time>
      </trkpt>
      <trkpt lat="59.4374746379" lon="17.798250093">
        <ele>127.6</ele>
        <time>2012-09-11T19:03:04Z</time>
      </trkpt>
      <trkpt lat="59.4374257714" lon="17.7984213352">
        <ele>127.6</ele>
        <time>2012-09-11T19:03:09Z</time>
      </trkpt>
      <trkpt lat="59.4374145397" lon="17.798452013">
        <ele>127.6</ele>
        <time>2012-09-11T19:03:10Z</time>
      </trkpt>
      <trkpt lat="59.4373562855" lon="17.7985864587">
        <ele>127.6</ele>
        <time>2012-09-11T19:03:15Z</time>
      </trkpt>
      <trkpt lat="59.4373256915" lon="17.7986751392">
        <ele>127.6</ele>
        <time>2012-09-11T19:03:17Z</time>
      </trkpt>
      <trkpt lat="59.4372826924" lon="17.7988363231">
        <ele>127.6</ele>
        <time>2012-09-11T19:03:20Z</time>
      </trkpt>
      <trkpt lat="59.4372312275" lon="17.7990986766">
        <ele>127.6</ele>
        <time>2012-09-11T19:03:24Z</time>
      </trkpt>
      <trkpt lat="59.4372306408" lon="17.7993245688">
        <ele>127.6</ele>
        <time>2012-09-11T19:03:28Z</time>
      </trkpt>
      <trkpt lat="59.4372238514" lon="17.7994831543">
        <ele>127.6</ele>
        <time>2012-09-11T19:03:32Z</time>
      </trkpt>
      <trkpt lat="59.4372253602" lon="17.7995828989">
        <ele>127.6</ele>
        <time>2012-09-11T19:03:34Z</time>
      </trkpt>
      <trkpt lat="59.437212955" lon="17.7997067834">
        <ele>127.6</ele>
        <time>2012-09-11T19:03:37Z</time>
      </trkpt>
      <trkpt lat="59.4371868034" lon="17.7999717353">
        <ele>127.6</ele>
        <time>2012-09-11T19:03:43Z</time>
      </trkpt>
      <trkpt lat="59.4371515995" lon="17.8002593183">
        <ele>127.6</ele>
        <time>2012-09-11T19:03:49Z</time>
      </trkpt>
      <trkpt lat="59.437109187" lon="17.8004788402">
        <ele>127.6</ele>
        <time>2012-09-11T19:03:55Z</time>
      </trkpt>
      <trkpt lat="59.4371164793" lon="17.8005172293">
        <ele>127.2</ele>
        <time>2012-09-11T19:03:57Z</time>
      </trkpt>
      <trkpt lat="59.4371223466" lon="17.8005292993">
        <ele>126.8</ele>
        <time>2012-09-11T19:03:58Z</time>
      </trkpt>
      <trkpt lat="59.437132824" lon="17.8005540259">
        <ele>126.4</ele>
        <time>2012-09-11T19:03:59Z</time>
      </trkpt>
      <trkpt lat="59.4371448101" lon="17.8005637489">
        <ele>126</ele>
        <time>2012-09-11T19:04:00Z</time>
      </trkpt>
      <trkpt lat="59.4371517671" lon="17.8005813509">
        <ele>125.6</ele>
        <time>2012-09-11T19:04:01Z</time>
      </trkpt>
      <trkpt lat="59.4372409505" lon="17.8006458077">
        <ele>125.6</ele>
        <time>2012-09-11T19:04:06Z</time>
      </trkpt>
      <trkpt lat="59.4372752325" lon="17.8006660919">
        <ele>125.6</ele>
        <time>2012-09-11T19:04:08Z</time>
      </trkpt>
      <trkpt lat="59.4373159685" lon="17.8006587158">
        <ele>125.6</ele>
        <time>2012-09-11T19:04:11Z</time>
      </trkpt>
      <trkpt lat="59.4373359174" lon="17.8006492443">
        <ele>125.6</ele>
        <time>2012-09-11T19:04:12Z</time>
      </trkpt>
      <trkpt lat="59.4374122765" lon="17.8006259426">
        <ele>125.6</ele>
        <time>2012-09-11T19:04:16Z</time>
      </trkpt>
      <trkpt lat="59.4374792479" lon="17.8006540219">
        <ele>125.2</ele>
        <time>2012-09-11T19:04:18Z</time>
      </trkpt>
      <trkpt lat="59.4375214927" lon="17.8006599731">
        <ele>124.6</ele>
        <time>2012-09-11T19:04:19Z</time>
      </trkpt>
      <trkpt lat="59.4375583731" lon="17.8006606436">
        <ele>124.2</ele>
        <time>2012-09-11T19:04:20Z</time>
      </trkpt>
      <trkpt lat="59.4375945829" lon="17.8006736356">
        <ele>123.8</ele>
        <time>2012-09-11T19:04:21Z</time>
      </trkpt>
      <trkpt lat="59.437632972" lon="17.8006851188">
        <ele>123.4</ele>
        <time>2012-09-11T19:04:22Z</time>
      </trkpt>
      <trkpt lat="59.4377851035" lon="17.8007343205">
        <ele>123.4</ele>
        <time>2012-09-11T19:04:27Z</time>
      </trkpt>
      <trkpt lat="59.4378728619" lon="17.8007407746">
        <ele>123.4</ele>
        <time>2012-09-11T19:04:32Z</time>
      </trkpt>
      <trkpt lat="59.437911754" lon="17.8007317222">
        <ele>123.4</ele>
        <time>2012-09-11T19:04:38Z</time>
      </trkpt>
      <trkpt lat="59.4379413421" lon="17.8007293752">
        <ele>123.4</ele>
        <time>2012-09-11T19:04:46Z</time>
      </trkpt>
      <trkpt lat="59.4380860137" lon="17.8007701113">
        <ele>123.4</ele>
        <time>2012-09-11T19:04:51Z</time>
      </trkpt>
      <trkpt lat="59.4382315234" lon="17.8007673452">
        <ele>123.4</ele>
        <time>2012-09-11T19:04:56Z</time>
      </trkpt>
      <trkpt lat="59.4384093035" lon="17.8007401041">
        <ele>123.4</ele>
        <time>2012-09-11T19:05:02Z</time>
      </trkpt>
      <trkpt lat="59.4385632791" lon="17.8006774074">
        <ele>123.4</ele>
        <time>2012-09-11T19:05:08Z</time>
      </trkpt>
      <trkpt lat="59.4385798752" lon="17.8006587996">
        <ele>123.4</ele>
        <time>2012-09-11T19:05:09Z</time>
      </trkpt>
      <trkpt lat="59.4386709026" lon="17.800568778">
        <ele>123.4</ele>
        <time>2012-09-11T19:05:13Z</time>
      </trkpt>
      <trkpt lat="59.4387075315" lon="17.8004811033">
        <ele>123.4</ele>
        <time>2012-09-11T19:05:14Z</time>
      </trkpt>
      <trkpt lat="59.4387678812" lon="17.8004268725">
        <ele>123.4</ele>
        <time>2012-09-11T19:05:18Z</time>
      </trkpt>
      <trkpt lat="59.4388946994" lon="17.8003448137">
        <ele>123.4</ele>
        <time>2012-09-11T19:05:24Z</time>
      </trkpt>
      <trkpt lat="59.4389404646" lon="17.8002951928">
        <ele>123</ele>
        <time>2012-09-11T19:05:26Z</time>
      </trkpt>
      <trkpt lat="59.4389647721" lon="17.8002713882">
        <ele>122.6</ele>
        <time>2012-09-11T19:05:27Z</time>
      </trkpt>
      <trkpt lat="59.4389898339" lon="17.8002469969">
        <ele>122.2</ele>
        <time>2012-09-11T19:05:28Z</time>
      </trkpt>
      <trkpt lat="59.4390178295" lon="17.8002205939">
        <ele>121.8</ele>
        <time>2012-09-11T19:05:29Z</time>
      </trkpt>
      <trkpt lat="59.4390436457" lon="17.8001966217">
        <ele>121.4</ele>
        <time>2012-09-11T19:05:30Z</time>
      </trkpt>
      <trkpt lat="59.4391593998" lon="17.8000553028">
        <ele>121.4</ele>
        <time>2012-09-11T19:05:35Z</time>
      </trkpt>
      <trkpt lat="59.4393301391" lon="17.7999762615">
        <ele>121.4</ele>
        <time>2012-09-11T19:05:40Z</time>
      </trkpt>
      <trkpt lat="59.4394721285" lon="17.7999833861">
        <ele>121.4</ele>
        <time>2012-09-11T19:05:45Z</time>
      </trkpt>
      <trkpt lat="59.4396453823" lon="17.8000334261">
        <ele>121.4</ele>
        <time>2012-09-11T19:05:51Z</time>
      </trkpt>
      <trkpt lat="59.4397810853" lon="17.8000902554">
        <ele>121.4</ele>
        <time>2012-09-11T19:05:56Z</time>
      </trkpt>
      <trkpt lat="59.4398872002" lon="17.8002479189">
        <ele>121.4</ele>
        <time>2012-09-11T19:06:01Z</time>
      </trkpt>
      <trkpt lat="59.4399762998" lon="17.8003307321">
        <ele>121.4</ele>
        <time>2012-09-11T19:06:05Z</time>
      </trkpt>
      <trkpt lat="59.4400916347" lon="17.8003531956">
        <ele>121.4</ele>
        <time>2012-09-11T19:06:11Z</time>
      </trkpt>
      <trkpt lat="59.4401182053" lon="17.8003434726">
        <ele>121</ele>
        <time>2012-09-11T19:06:12Z</time>
      </trkpt>
      <trkpt lat="59.4401343824" lon="17.8003438916">
        <ele>120.2</ele>
        <time>2012-09-11T19:06:13Z</time>
      </trkpt>
      <trkpt lat="59.4401555886" lon="17.8003431373">
        <ele>119.8</ele>
        <time>2012-09-11T19:06:14Z</time>
      </trkpt>
      <trkpt lat="59.440173442" lon="17.8003457357">
        <ele>119.4</ele>
        <time>2012-09-11T19:06:15Z</time>
      </trkpt>
      <trkpt lat="59.4401912117" lon="17.8003425505">
        <ele>119.4</ele>
        <time>2012-09-11T19:06:17Z</time>
      </trkpt>
      <trkpt lat="59.4402307742" lon="17.8003438916">
        <ele>119.4</ele>
        <time>2012-09-11T19:06:23Z</time>
      </trkpt>
      <trkpt lat="59.4402307742" lon="17.8003438916">
        <ele>119.4</ele>
        <time>2012-09-11T19:06:30Z</time>
      </trkpt>
      <trkpt lat="59.4403079715" lon="17.8003303968">
        <ele>119.4</ele>
        <time>2012-09-11T19:06:36Z</time>
      </trkpt>
      <trkpt lat="59.4404276651" lon="17.800412707">
        <ele>119.4</ele>
        <time>2012-09-11T19:06:42Z</time>
      </trkpt>
      <trkpt lat="59.4405408207" lon="17.8005439676">
        <ele>119.4</ele>
        <time>2012-09-11T19:06:49Z</time>
      </trkpt>
      <trkpt lat="59.440587005" lon="17.800573891">
        <ele>119.4</ele>
        <time>2012-09-11T19:06:52Z</time>
      </trkpt>
      <trkpt lat="59.4406215384" lon="17.8005963545">
        <ele>119.4</ele>
        <time>2012-09-11T19:06:54Z</time>
      </trkpt>
      <trkpt lat="59.4406551498" lon="17.8005772437">
        <ele>119.4</ele>
        <time>2012-09-11T19:06:56Z</time>
      </trkpt>
      <trkpt lat="59.440773167" lon="17.8005782496">
        <ele>119.4</ele>
        <time>2012-09-11T19:06:59Z</time>
      </trkpt>
      <trkpt lat="59.4409973828" lon="17.8006900641">
        <ele>119.4</ele>
        <time>2012-09-11T19:07:05Z</time>
      </trkpt>
      <trkpt lat="59.4410570619" lon="17.8007204066">
        <ele>119.4</ele>
        <time>2012-09-11T19:07:07Z</time>
      </trkpt>
      <trkpt lat="59.4411814493" lon="17.8007215801">
        <ele>119.4</ele>
        <time>2012-09-11T19:07:10Z</time>
      </trkpt>
      <trkpt lat="59.4413230196" lon="17.8006475679">
        <ele>119.4</ele>
        <time>2012-09-11T19:07:14Z</time>
      </trkpt>
      <trkpt lat="59.4414760731" lon="17.8006061613">
        <ele>119.4</ele>
        <time>2012-09-11T19:07:19Z</time>
      </trkpt>
      <trkpt lat="59.4416251871" lon="17.8006225898">
        <ele>119.4</ele>
        <time>2012-09-11T19:07:24Z</time>
      </trkpt>
      <trkpt lat="59.4417656678" lon="17.8005976118">
        <ele>119.4</ele>
        <time>2012-09-11T19:07:30Z</time>
      </trkpt>
      <trkpt lat="59.4419525841" lon="17.8005812671">
        <ele>119.4</ele>
        <time>2012-09-11T19:07:37Z</time>
      </trkpt>
      <trkpt lat="59.4420371575" lon="17.8006135374">
        <ele>119.4</ele>
        <time>2012-09-11T19:07:42Z</time>
      </trkpt>
      <trkpt lat="59.4421320406" lon="17.8006166387">
        <ele>119.4</ele>
        <time>2012-09-11T19:07:48Z</time>
      </trkpt>
      <trkpt lat="59.4422656481" lon="17.8006011322">
        <ele>119.4</ele>
        <time>2012-09-11T19:07:55Z</time>
      </trkpt>
      <trkpt lat="59.4423962381" lon="17.800542375">
        <ele>119.4</ele>
        <time>2012-09-11T19:08:01Z</time>
      </trkpt>
      <trkpt lat="59.4424153488" lon="17.8005475718">
        <ele>119.4</ele>
        <time>2012-09-11T19:08:02Z</time>
      </trkpt>
      <trkpt lat="59.4425348747" lon="17.8006203267">
        <ele>119.4</ele>
        <time>2012-09-11T19:08:07Z</time>
      </trkpt>
      <trkpt lat="59.4426264889" lon="17.8006235956">
        <ele>119.4</ele>
        <time>2012-09-11T19:08:10Z</time>
      </trkpt>
      <trkpt lat="59.4426714997" lon="17.800621584">
        <ele>119.4</ele>
        <time>2012-09-11T19:08:12Z</time>
      </trkpt>
      <trkpt lat="59.4427983178" lon="17.8006492443">
        <ele>119.4</ele>
        <time>2012-09-11T19:08:18Z</time>
      </trkpt>
      <trkpt lat="59.4428295823" lon="17.8006593864">
        <ele>119.4</ele>
        <time>2012-09-11T19:08:20Z</time>
      </trkpt>
      <trkpt lat="59.4428637805" lon="17.800645221">
        <ele>119.4</ele>
        <time>2012-09-11T19:08:22Z</time>
      </trkpt>
      <trkpt lat="59.4429239625" lon="17.8006255235">
        <ele>119.4</ele>
        <time>2012-09-11T19:08:25Z</time>
      </trkpt>
      <trkpt lat="59.4430185104" lon="17.800575735">
        <ele>119.4</ele>
        <time>2012-09-11T19:08:30Z</time>
      </trkpt>
      <trkpt lat="59.4430516189" lon="17.8005883078">
        <ele>119.4</ele>
        <time>2012-09-11T19:08:32Z</time>
      </trkpt>
      <trkpt lat="59.4431099569" lon="17.800578501">
        <ele>119.4</ele>
        <time>2012-09-11T19:08:35Z</time>
      </trkpt>
      <trkpt lat="59.4432695483" lon="17.8005112782">
        <ele>119.4</ele>
        <time>2012-09-11T19:08:42Z</time>
      </trkpt>
      <trkpt lat="59.4434994638" lon="17.8004143834">
        <ele>119.4</ele>
        <time>2012-09-11T19:08:49Z</time>
      </trkpt>
      <trkpt lat="59.4436979472" lon="17.8002759144">
        <ele>119.4</ele>
        <time>2012-09-11T19:08:56Z</time>
      </trkpt>
      <trkpt lat="59.4439101769" lon="17.8001357691">
        <ele>119.4</ele>
        <time>2012-09-11T19:09:05Z</time>
      </trkpt>
      <trkpt lat="59.4439444589" lon="17.8001233639">
        <ele>119.4</ele>
        <time>2012-09-11T19:09:12Z</time>
      </trkpt>
      <trkpt lat="59.4440588718" lon="17.8000098729">
        <ele>119.4</ele>
        <time>2012-09-11T19:09:19Z</time>
      </trkpt>
      <trkpt lat="59.4442234085" lon="17.7998513712">
        <ele>119.4</ele>
        <time>2012-09-11T19:09:25Z</time>
      </trkpt>
      <trkpt lat="59.4443934772" lon="17.7996785364">
        <ele>119.4</ele>
        <time>2012-09-11T19:09:31Z</time>
      </trkpt>
      <trkpt lat="59.4444249932" lon="17.7996025964">
        <ele>119.4</ele>
        <time>2012-09-11T19:09:38Z</time>
      </trkpt>
      <trkpt lat="59.4444744464" lon="17.7996247246">
        <ele>119.4</ele>
        <time>2012-09-11T19:09:45Z</time>
      </trkpt>
      <trkpt lat="59.4445123326" lon="17.7996714118">
        <ele>119.4</ele>
        <time>2012-09-11T19:09:47Z</time>
      </trkpt>
      <trkpt lat="59.4445951457" lon="17.7998087911">
        <ele>119.4</ele>
        <time>2012-09-11T19:09:50Z</time>
      </trkpt>
      <trkpt lat="59.4447341176" lon="17.8001803608">
        <ele>119.4</ele>
        <time>2012-09-11T19:09:55Z</time>
      </trkpt>
      <trkpt lat="59.4447787932" lon="17.8003533632">
        <ele>119.4</ele>
        <time>2012-09-11T19:09:57Z</time>
      </trkpt>
      <trkpt lat="59.444852973" lon="17.8006339892">
        <ele>119.4</ele>
        <time>2012-09-11T19:10:01Z</time>
      </trkpt>
      <trkpt lat="59.4449161725" lon="17.8007111865">
        <ele>119.4</ele>
        <time>2012-09-11T19:10:03Z</time>
      </trkpt>
      <trkpt lat="59.4449909391" lon="17.8006960991">
        <ele>119.4</ele>
        <time>2012-09-11T19:10:05Z</time>
      </trkpt>
      <trkpt lat="59.4450767697" lon="17.8005924988">
        <ele>119.4</ele>
        <time>2012-09-11T19:10:08Z</time>
      </trkpt>
      <trkpt lat="59.4451495246" lon="17.8005592227">
        <ele>119.4</ele>
        <time>2012-09-11T19:10:10Z</time>
      </trkpt>
      <trkpt lat="59.4454133868" lon="17.8004047442">
        <ele>119.4</ele>
        <time>2012-09-11T19:10:16Z</time>
      </trkpt>
      <trkpt lat="59.4454738203" lon="17.8003866393">
        <ele>119.8</ele>
        <time>2012-09-11T19:10:17Z</time>
      </trkpt>
      <trkpt lat="59.4455269616" lon="17.8003732283">
        <ele>120.2</ele>
        <time>2012-09-11T19:10:18Z</time>
      </trkpt>
      <trkpt lat="59.4455766662" lon="17.8003557101">
        <ele>120.6</ele>
        <time>2012-09-11T19:10:19Z</time>
      </trkpt>
      <trkpt lat="59.4456193301" lon="17.8003396169">
        <ele>121</ele>
        <time>2012-09-11T19:10:20Z</time>
      </trkpt>
      <trkpt lat="59.4456593956" lon="17.8003193327">
        <ele>121.4</ele>
        <time>2012-09-11T19:10:21Z</time>
      </trkpt>
      <trkpt lat="59.4457308094" lon="17.8002736513">
        <ele>121.4</ele>
        <time>2012-09-11T19:10:23Z</time>
      </trkpt>
      <trkpt lat="59.446026439" lon="17.8001863957">
        <ele>121.4</ele>
        <time>2012-09-11T19:10:31Z</time>
      </trkpt>
      <trkpt lat="59.4460910634" lon="17.800229814">
        <ele>121.4</ele>
        <time>2012-09-11T19:10:33Z</time>
      </trkpt>
      <trkpt lat="59.4461401814" lon="17.8003070113">
        <ele>121.4</ele>
        <time>2012-09-11T19:10:35Z</time>
      </trkpt>
      <trkpt lat="59.4462094997" lon="17.8004754875">
        <ele>122</ele>
        <time>2012-09-11T19:10:38Z</time>
      </trkpt>
      <trkpt lat="59.4462337234" lon="17.8005217556">
        <ele>122.4</ele>
        <time>2012-09-11T19:10:39Z</time>
      </trkpt>
      <trkpt lat="59.4462539238" lon="17.8005714602">
        <ele>122.8</ele>
        <time>2012-09-11T19:10:40Z</time>
      </trkpt>
      <trkpt lat="59.4462739565" lon="17.8006329834">
        <ele>123.2</ele>
        <time>2012-09-11T19:10:41Z</time>
      </trkpt>
      <trkpt lat="59.4462937378" lon="17.8006888906">
        <ele>123.6</ele>
        <time>2012-09-11T19:10:42Z</time>
      </trkpt>
      <trkpt lat="59.4463731144" lon="17.800798023">
        <ele>123.6</ele>
        <time>2012-09-11T19:10:45Z</time>
      </trkpt>
      <trkpt lat="59.446504794" lon="17.8008443749">
        <ele>123.6</ele>
        <time>2012-09-11T19:10:48Z</time>
      </trkpt>
      <trkpt lat="59.4466004315" lon="17.8008222467">
        <ele>123.6</ele>
        <time>2012-09-11T19:10:50Z</time>
      </trkpt>
      <trkpt lat="59.4467011819" lon="17.8007230888">
        <ele>123.6</ele>
        <time>2012-09-11T19:10:52Z</time>
      </trkpt>
      <trkpt lat="59.4468006751" lon="17.8006529323">
        <ele>123.6</ele>
        <time>2012-09-11T19:10:54Z</time>
      </trkpt>
      <trkpt lat="59.4469713306" lon="17.8005624916">
        <ele>123.6</ele>
        <time>2012-09-11T19:10:57Z</time>
      </trkpt>
      <trkpt lat="59.4471290779" lon="17.800436344">
        <ele>123.6</ele>
        <time>2012-09-11T19:11:00Z</time>
      </trkpt>
      <trkpt lat="59.4473855641" lon="17.8001963702">
        <ele>123.6</ele>
        <time>2012-09-11T19:11:05Z</time>
      </trkpt>
      <trkpt lat="59.4474692993" lon="17.8002598212">
        <ele>123.6</ele>
        <time>2012-09-11T19:11:07Z</time>
      </trkpt>
      <trkpt lat="59.4475648529" lon="17.8003881481">
        <ele>123.6</ele>
        <time>2012-09-11T19:11:09Z</time>
      </trkpt>
      <trkpt lat="59.4476107857" lon="17.800426621">
        <ele>123.6</ele>
        <time>2012-09-11T19:11:10Z</time>
      </trkpt>
      <trkpt lat="59.4477679464" lon="17.8005157206">
        <ele>123.6</ele>
        <time>2012-09-11T19:11:13Z</time>
      </trkpt>
      <trkpt lat="59.4478153041" lon="17.8005376812">
        <ele>123.6</ele>
        <time>2012-09-11T19:11:14Z</time>
      </trkpt>
      <trkpt lat="59.4479090976" lon="17.8005662635">
        <ele>123.6</ele>
        <time>2012-09-11T19:11:16Z</time>
      </trkpt>
      <trkpt lat="59.4479660107" lon="17.8005918282">
        <ele>123</ele>
        <time>2012-09-11T19:11:17Z</time>
      </trkpt>
      <trkpt lat="59.4480196548" lon="17.8006083406">
        <ele>122.6</ele>
        <time>2012-09-11T19:11:18Z</time>
      </trkpt>
      <trkpt lat="59.4480856204" lon="17.8006319775">
        <ele>122.2</ele>
        <time>2012-09-11T19:11:19Z</time>
      </trkpt>
      <trkpt lat="59.4481724568" lon="17.8006240986">
        <ele>121.6</ele>
        <time>2012-09-11T19:11:20Z</time>
      </trkpt>
      <trkpt lat="59.4482509114" lon="17.8006357494">
        <ele>121</ele>
        <time>2012-09-11T19:11:21Z</time>
      </trkpt>
      <trkpt lat="59.4483215708" lon="17.8006596378">
        <ele>120.4</ele>
        <time>2012-09-11T19:11:22Z</time>
      </trkpt>
      <trkpt lat="59.4483992711" lon="17.8007207419">
        <ele>120</ele>
        <time>2012-09-11T19:11:23Z</time>
      </trkpt>
      <trkpt lat="59.448481246" lon="17.800811434">
        <ele>119.4</ele>
        <time>2012-09-11T19:11:24Z</time>
      </trkpt>
      <trkpt lat="59.4485551744" lon="17.800877651">
        <ele>119.4</ele>
        <time>2012-09-11T19:11:25Z</time>
      </trkpt>
      <trkpt lat="59.4487112454" lon="17.8009837659">
        <ele>119</ele>
        <time>2012-09-11T19:11:27Z</time>
      </trkpt>
      <trkpt lat="59.4487917954" lon="17.8010077381">
        <ele>118.4</ele>
        <time>2012-09-11T19:11:28Z</time>
      </trkpt>
      <trkpt lat="59.4488566713" lon="17.8010306207">
        <ele>118</ele>
        <time>2012-09-11T19:11:29Z</time>
      </trkpt>
      <trkpt lat="59.4489093097" lon="17.8010566046">
        <ele>117.6</ele>
        <time>2012-09-11T19:11:30Z</time>
      </trkpt>
      <trkpt lat="59.4489673124" lon="17.8011092429">
        <ele>117.2</ele>
        <time>2012-09-11T19:11:31Z</time>
      </trkpt>
      <trkpt lat="59.4491054461" lon="17.801283335">
        <ele>117.2</ele>
        <time>2012-09-11T19:11:33Z</time>
      </trkpt>
      <trkpt lat="59.4492392213" lon="17.8014689103">
        <ele>117.2</ele>
        <time>2012-09-11T19:11:35Z</time>
      </trkpt>
      <trkpt lat="59.4493377086" lon="17.8016654658">
        <ele>117.2</ele>
        <time>2012-09-11T19:11:37Z</time>
      </trkpt>
      <trkpt lat="59.4493755948" lon="17.8017712454">
        <ele>117.2</ele>
        <time>2012-09-11T19:11:38Z</time>
      </trkpt>
      <trkpt lat="59.4494410574" lon="17.8019165875">
        <ele>117.2</ele>
        <time>2012-09-11T19:11:40Z</time>
      </trkpt>
      <trkpt lat="59.4494750041" lon="17.8020008256">
        <ele>117.2</ele>
        <time>2012-09-11T19:11:41Z</time>
      </trkpt>
      <trkpt lat="59.4496338411" lon="17.8022231136">
        <ele>117.2</ele>
        <time>2012-09-11T19:11:44Z</time>
      </trkpt>
      <trkpt lat="59.4497448175" lon="17.8024153106">
        <ele>117.2</ele>
        <time>2012-09-11T19:11:46Z</time>
      </trkpt>
      <trkpt lat="59.4498917522" lon="17.8026928353">
        <ele>116.8</ele>
        <time>2012-09-11T19:11:49Z</time>
      </trkpt>
      <trkpt lat="59.4499462345" lon="17.8028007942">
        <ele>116.4</ele>
        <time>2012-09-11T19:11:50Z</time>
      </trkpt>
      <trkpt lat="59.4499904071" lon="17.8029071605">
        <ele>116</ele>
        <time>2012-09-11T19:11:51Z</time>
      </trkpt>
      <trkpt lat="59.4500348312" lon="17.8030129401">
        <ele>115.6</ele>
        <time>2012-09-11T19:11:52Z</time>
      </trkpt>
      <trkpt lat="59.4500732203" lon="17.8031116788">
        <ele>115.2</ele>
        <time>2012-09-11T19:11:53Z</time>
      </trkpt>
      <trkpt lat="59.4501126152" lon="17.8031763871">
        <ele>115.2</ele>
        <time>2012-09-11T19:11:54Z</time>
      </trkpt>
      <trkpt lat="59.4501572069" lon="17.8032372397">
        <ele>114.6</ele>
        <time>2012-09-11T19:11:55Z</time>
      </trkpt>
      <trkpt lat="59.4502216638" lon="17.8032565181">
        <ele>114</ele>
        <time>2012-09-11T19:11:56Z</time>
      </trkpt>
      <trkpt lat="59.4502866235" lon="17.8032039636">
        <ele>113.6</ele>
        <time>2012-09-11T19:11:57Z</time>
      </trkpt>
      <trkpt lat="59.4503437042" lon="17.8031408479">
        <ele>113</ele>
        <time>2012-09-11T19:11:58Z</time>
      </trkpt>
      <trkpt lat="59.4503979351" lon="17.8030828451">
        <ele>112.4</ele>
        <time>2012-09-11T19:11:59Z</time>
      </trkpt>
      <trkpt lat="59.4504458796" lon="17.8030271055">
        <ele>112.4</ele>
        <time>2012-09-11T19:12:00Z</time>
      </trkpt>
      <trkpt lat="59.4505524974" lon="17.8028252693">
        <ele>112.4</ele>
        <time>2012-09-11T19:12:03Z</time>
      </trkpt>
      <trkpt lat="59.4506219833" lon="17.8026073399">
        <ele>112.4</ele>
        <time>2012-09-11T19:12:06Z</time>
      </trkpt>
      <trkpt lat="59.4507460354" lon="17.8026821065">
        <ele>112.4</ele>
        <time>2012-09-11T19:12:09Z</time>
      </trkpt>
      <trkpt lat="59.4508353865" lon="17.802826359">
        <ele>112.4</ele>
        <time>2012-09-11T19:12:11Z</time>
      </trkpt>
      <trkpt lat="59.450927755" lon="17.8030223278">
        <ele>112.4</ele>
        <time>2012-09-11T19:12:13Z</time>
      </trkpt>
      <trkpt lat="59.4512497038" lon="17.8035705879">
        <ele>112.4</ele>
        <time>2012-09-11T19:12:19Z</time>
      </trkpt>
      <trkpt lat="59.4513632785" lon="17.8037373877">
        <ele>112</ele>
        <time>2012-09-11T19:12:21Z</time>
      </trkpt>
      <trkpt lat="59.4514185153" lon="17.8038130762">
        <ele>111.6</ele>
        <time>2012-09-11T19:12:22Z</time>
      </trkpt>
      <trkpt lat="59.4514711536" lon="17.803877533">
        <ele>111.2</ele>
        <time>2012-09-11T19:12:23Z</time>
      </trkpt>
      <trkpt lat="59.4515220317" lon="17.8039383018">
        <ele>110.4</ele>
        <time>2012-09-11T19:12:24Z</time>
      </trkpt>
      <trkpt lat="59.4516267217" lon="17.8040489429">
        <ele>110.4</ele>
        <time>2012-09-11T19:12:26Z</time>
      </trkpt>
      <trkpt lat="59.4518173261" lon="17.8041798682">
        <ele>110.4</ele>
        <time>2012-09-11T19:12:29Z</time>
      </trkpt>
      <trkpt lat="59.4519478322" lon="17.8042274774">
        <ele>110.4</ele>
        <time>2012-09-11T19:12:31Z</time>
      </trkpt>
      <trkpt lat="59.4522966869" lon="17.8043196783">
        <ele>110.4</ele>
        <time>2012-09-11T19:12:37Z</time>
      </trkpt>
      <trkpt lat="59.4524033047" lon="17.8043447402">
        <ele>110.4</ele>
        <time>2012-09-11T19:12:39Z</time>
      </trkpt>
      <trkpt lat="59.452497182" lon="17.804311464">
        <ele>110.4</ele>
        <time>2012-09-11T19:12:41Z</time>
      </trkpt>
      <trkpt lat="59.4525789893" lon="17.8041733303">
        <ele>110.4</ele>
        <time>2012-09-11T19:12:43Z</time>
      </trkpt>
      <trkpt lat="59.4526167917" lon="17.8041030062">
        <ele>110.4</ele>
        <time>2012-09-11T19:12:44Z</time>
      </trkpt>
      <trkpt lat="59.4527990142" lon="17.8038269064">
        <ele>110.4</ele>
        <time>2012-09-11T19:12:49Z</time>
      </trkpt>
      <trkpt lat="59.4528405046" lon="17.8037878467">
        <ele>110.4</ele>
        <time>2012-09-11T19:12:50Z</time>
      </trkpt>
      <trkpt lat="59.4528790613" lon="17.8037552411">
        <ele>110.8</ele>
        <time>2012-09-11T19:12:51Z</time>
      </trkpt>
      <trkpt lat="59.4529164446" lon="17.8037311851">
        <ele>111.2</ele>
        <time>2012-09-11T19:12:52Z</time>
      </trkpt>
      <trkpt lat="59.4529589408" lon="17.8037179417">
        <ele>111.6</ele>
        <time>2012-09-11T19:12:53Z</time>
      </trkpt>
      <trkpt lat="59.4530037002" lon="17.8037039439">
        <ele>112</ele>
        <time>2012-09-11T19:12:54Z</time>
      </trkpt>
      <trkpt lat="59.4530481243" lon="17.8036890241">
        <ele>112.6</ele>
        <time>2012-09-11T19:12:55Z</time>
      </trkpt>
      <trkpt lat="59.4532522235" lon="17.8036668959">
        <ele>112.6</ele>
        <time>2012-09-11T19:13:00Z</time>
      </trkpt>
      <trkpt lat="59.4532999165" lon="17.8036692428">
        <ele>113</ele>
        <time>2012-09-11T19:13:01Z</time>
      </trkpt>
      <trkpt lat="59.4533486154" lon="17.8036751102">
        <ele>113.4</ele>
        <time>2012-09-11T19:13:02Z</time>
      </trkpt>
      <trkpt lat="59.4533965598" lon="17.8036834082">
        <ele>113.8</ele>
        <time>2012-09-11T19:13:03Z</time>
      </trkpt>
      <trkpt lat="59.4534460131" lon="17.8036899461">
        <ele>114.2</ele>
        <time>2012-09-11T19:13:04Z</time>
      </trkpt>
      <trkpt lat="59.4534895151" lon="17.8036921254">
        <ele>114.6</ele>
        <time>2012-09-11T19:13:05Z</time>
      </trkpt>
      <trkpt lat="59.453551625" lon="17.8036818157">
        <ele>114.6</ele>
        <time>2012-09-11T19:13:06Z</time>
      </trkpt>
      <trkpt lat="59.4538880745" lon="17.8036655548">
        <ele>114.6</ele>
        <time>2012-09-11T19:13:12Z</time>
      </trkpt>
      <trkpt lat="59.4539981288" lon="17.8036673988">
        <ele>114.2</ele>
        <time>2012-09-11T19:13:14Z</time>
      </trkpt>
      <trkpt lat="59.4540497613" lon="17.8036532334">
        <ele>113.6</ele>
        <time>2012-09-11T19:13:15Z</time>
      </trkpt>
      <trkpt lat="59.4541003042" lon="17.8036238129">
        <ele>113.2</ele>
        <time>2012-09-11T19:13:16Z</time>
      </trkpt>
      <trkpt lat="59.4541469075" lon="17.8035778801">
        <ele>112.6</ele>
        <time>2012-09-11T19:13:17Z</time>
      </trkpt>
      <trkpt lat="59.4541886494" lon="17.8035267505">
        <ele>112</ele>
        <time>2012-09-11T19:13:18Z</time>
      </trkpt>
      <trkpt lat="59.4542253621" lon="17.8034605335">
        <ele>111.4</ele>
        <time>2012-09-11T19:13:19Z</time>
      </trkpt>
      <trkpt lat="59.4542596441" lon="17.8033696737">
        <ele>110.8</ele>
        <time>2012-09-11T19:13:20Z</time>
      </trkpt>
      <trkpt lat="59.454289316" lon="17.8032697615">
        <ele>110.2</ele>
        <time>2012-09-11T19:13:21Z</time>
      </trkpt>
      <trkpt lat="59.4544031422" lon="17.802918057">
        <ele>109.8</ele>
        <time>2012-09-11T19:13:25Z</time>
      </trkpt>
      <trkpt lat="59.4544220853" lon="17.8028617306">
        <ele>109.4</ele>
        <time>2012-09-11T19:13:26Z</time>
      </trkpt>
      <trkpt lat="59.4544370051" lon="17.802826359">
        <ele>109</ele>
        <time>2012-09-11T19:13:27Z</time>
      </trkpt>
      <trkpt lat="59.4544515896" lon="17.8027998722">
        <ele>108.4</ele>
        <time>2012-09-11T19:13:28Z</time>
      </trkpt>
      <trkpt lat="59.4544691078" lon="17.8027665122">
        <ele>108</ele>
        <time>2012-09-11T19:13:29Z</time>
      </trkpt>
      <trkpt lat="59.4544965166" lon="17.8027396901">
        <ele>108</ele>
        <time>2012-09-11T19:13:30Z</time>
      </trkpt>
      <trkpt lat="59.4546070738" lon="17.8028324778">
        <ele>108</ele>
        <time>2012-09-11T19:13:33Z</time>
      </trkpt>
      <trkpt lat="59.4546893003" lon="17.8030364094">
        <ele>108</ele>
        <time>2012-09-11T19:13:35Z</time>
      </trkpt>
      <trkpt lat="59.4547793219" lon="17.8032845136">
        <ele>108</ele>
        <time>2012-09-11T19:13:37Z</time>
      </trkpt>
      <trkpt lat="59.4548713551" lon="17.803553405">
        <ele>107.6</ele>
        <time>2012-09-11T19:13:39Z</time>
      </trkpt>
      <trkpt lat="59.4549135161" lon="17.8036991662">
        <ele>107</ele>
        <time>2012-09-11T19:13:40Z</time>
      </trkpt>
      <trkpt lat="59.4549354767" lon="17.8038382219">
        <ele>106.6</ele>
        <time>2012-09-11T19:13:41Z</time>
      </trkpt>
      <trkpt lat="59.4549352252" lon="17.8039586698">
        <ele>106.2</ele>
        <time>2012-09-11T19:13:42Z</time>
      </trkpt>
      <trkpt lat="59.4549097442" lon="17.8040548102">
        <ele>105.6</ele>
        <time>2012-09-11T19:13:43Z</time>
      </trkpt>
      <trkpt lat="59.4548620512" lon="17.8041184289">
        <ele>105.6</ele>
        <time>2012-09-11T19:13:44Z</time>
      </trkpt>
      <trkpt lat="59.4547613846" lon="17.8041734141">
        <ele>105.6</ele>
        <time>2012-09-11T19:13:46Z</time>
      </trkpt>
      <trkpt lat="59.4546530905" lon="17.8042246275">
        <ele>105.6</ele>
        <time>2012-09-11T19:13:48Z</time>
      </trkpt>
      <trkpt lat="59.4544368375" lon="17.8043999769">
        <ele>106</ele>
        <time>2012-09-11T19:13:52Z</time>
      </trkpt>
      <trkpt lat="59.4543833609" lon="17.8044562194">
        <ele>106.6</ele>
        <time>2012-09-11T19:13:53Z</time>
      </trkpt>
      <trkpt lat="59.4543308902" lon="17.8045146413">
        <ele>107</ele>
        <time>2012-09-11T19:13:54Z</time>
      </trkpt>
      <trkpt lat="59.454279593" lon="17.804574488">
        <ele>107.4</ele>
        <time>2012-09-11T19:13:55Z</time>
      </trkpt>
      <trkpt lat="59.4542251107" lon="17.8046357597">
        <ele>108</ele>
        <time>2012-09-11T19:13:56Z</time>
      </trkpt>
      <trkpt lat="59.4541306466" lon="17.8047593927">
        <ele>108.4</ele>
        <time>2012-09-11T19:13:58Z</time>
      </trkpt>
      <trkpt lat="59.4540917546" lon="17.80481069">
        <ele>109</ele>
        <time>2012-09-11T19:13:59Z</time>
      </trkpt>
      <trkpt lat="59.4540522759" lon="17.8048567066">
        <ele>109.4</ele>
        <time>2012-09-11T19:14:00Z</time>
      </trkpt>
      <trkpt lat="59.4540201732" lon="17.8049162181">
        <ele>110</ele>
        <time>2012-09-11T19:14:01Z</time>
      </trkpt>
      <trkpt lat="59.454003577" lon="17.8049948403">
        <ele>110.4</ele>
        <time>2012-09-11T19:14:02Z</time>
      </trkpt>
      <trkpt lat="59.4540294771" lon="17.8052408491">
        <ele>110.4</ele>
        <time>2012-09-11T19:14:05Z</time>
      </trkpt>
      <trkpt lat="59.454153194" lon="17.8053162024">
        <ele>110.4</ele>
        <time>2012-09-11T19:14:08Z</time>
      </trkpt>
      <trkpt lat="59.4543293815" lon="17.8051026316">
        <ele>110.4</ele>
        <time>2012-09-11T19:14:12Z</time>
      </trkpt>
      <trkpt lat="59.4543692793" lon="17.8050339">
        <ele>110.4</ele>
        <time>2012-09-11T19:14:13Z</time>
      </trkpt>
      <trkpt lat="59.4545991949" lon="17.804670377">
        <ele>110.4</ele>
        <time>2012-09-11T19:14:18Z</time>
      </trkpt>
      <trkpt lat="59.454832966" lon="17.8044486757">
        <ele>110.4</ele>
        <time>2012-09-11T19:14:22Z</time>
      </trkpt>
      <trkpt lat="59.4548926452" lon="17.8044184171">
        <ele>110.4</ele>
        <time>2012-09-11T19:14:23Z</time>
      </trkpt>
      <trkpt lat="59.4550638036" lon="17.8043704726">
        <ele>110.4</ele>
        <time>2012-09-11T19:14:26Z</time>
      </trkpt>
      <trkpt lat="59.4551701699" lon="17.8043579836">
        <ele>110.4</ele>
        <time>2012-09-11T19:14:28Z</time>
      </trkpt>
      <trkpt lat="59.4552242331" lon="17.8043620069">
        <ele>110.4</ele>
        <time>2012-09-11T19:14:29Z</time>
      </trkpt>
      <trkpt lat="59.4553848303" lon="17.8044475022">
        <ele>110.4</ele>
        <time>2012-09-11T19:14:32Z</time>
      </trkpt>
      <trkpt lat="59.4556167575" lon="17.8046145535">
        <ele>110.8</ele>
        <time>2012-09-11T19:14:36Z</time>
      </trkpt>
      <trkpt lat="59.4556748441" lon="17.8046675271">
        <ele>111.4</ele>
        <time>2012-09-11T19:14:37Z</time>
      </trkpt>
      <trkpt lat="59.4557337688" lon="17.804725027">
        <ele>111.8</ele>
        <time>2012-09-11T19:14:38Z</time>
      </trkpt>
      <trkpt lat="59.4557973036" lon="17.804785209">
        <ele>112.2</ele>
        <time>2012-09-11T19:14:39Z</time>
      </trkpt>
      <trkpt lat="59.4558548873" lon="17.8048362548">
        <ele>112.6</ele>
        <time>2012-09-11T19:14:40Z</time>
      </trkpt>
      <trkpt lat="59.4560262971" lon="17.80496718">
        <ele>112.6</ele>
        <time>2012-09-11T19:14:43Z</time>
      </trkpt>
      <trkpt lat="59.4561990481" lon="17.8051021286">
        <ele>113</ele>
        <time>2012-09-11T19:14:46Z</time>
      </trkpt>
      <trkpt lat="59.4562582243" lon="17.8051460498">
        <ele>113.4</ele>
        <time>2012-09-11T19:14:47Z</time>
      </trkpt>
      <trkpt lat="59.4563175682" lon="17.8051886298">
        <ele>113.8</ele>
        <time>2012-09-11T19:14:48Z</time>
      </trkpt>
      <trkpt lat="59.4563761577" lon="17.8052320481">
        <ele>114.2</ele>
        <time>2012-09-11T19:14:49Z</time>
      </trkpt>
      <trkpt lat="59.4564338251" lon="17.8052779809">
        <ele>114.6</ele>
        <time>2012-09-11T19:14:50Z</time>
      </trkpt>
      <trkpt lat="59.4568432809" lon="17.8055829982">
        <ele>114.6</ele>
        <time>2012-09-11T19:14:57Z</time>
      </trkpt>
      <trkpt lat="59.4570064765" lon="17.8056770432">
        <ele>114.6</ele>
        <time>2012-09-11T19:15:00Z</time>
      </trkpt>
      <trkpt lat="59.4570551754" lon="17.8056615366">
        <ele>114.6</ele>
        <time>2012-09-11T19:15:01Z</time>
      </trkpt>
      <trkpt lat="59.4571785569" lon="17.805461796">
        <ele>114.6</ele>
        <time>2012-09-11T19:15:04Z</time>
      </trkpt>
      <trkpt lat="59.4572083965" lon="17.8053783122">
        <ele>114.6</ele>
        <time>2012-09-11T19:15:05Z</time>
      </trkpt>
      <trkpt lat="59.4572807323" lon="17.8051997778">
        <ele>114.6</ele>
        <time>2012-09-11T19:15:07Z</time>
      </trkpt>
      <trkpt lat="59.457357762" lon="17.8050563635">
        <ele>114.6</ele>
        <time>2012-09-11T19:15:09Z</time>
      </trkpt>
      <trkpt lat="59.4573979113" lon="17.8049862908">
        <ele>115</ele>
        <time>2012-09-11T19:15:10Z</time>
      </trkpt>
      <trkpt lat="59.457442503" lon="17.8049179783">
        <ele>115.4</ele>
        <time>2012-09-11T19:15:11Z</time>
      </trkpt>
      <trkpt lat="59.4574881005" lon="17.8048505878">
        <ele>115.8</ele>
        <time>2012-09-11T19:15:12Z</time>
      </trkpt>
      <trkpt lat="59.4575348715" lon="17.8047892323">
        <ele>116.2</ele>
        <time>2012-09-11T19:15:13Z</time>
      </trkpt>
      <trkpt lat="59.4575806367" lon="17.8047291341">
        <ele>116.6</ele>
        <time>2012-09-11T19:15:14Z</time>
      </trkpt>
      <trkpt lat="59.4576758551" lon="17.804599047">
        <ele>116.6</ele>
        <time>2012-09-11T19:15:16Z</time>
      </trkpt>
      <trkpt lat="59.4578429902" lon="17.8044979613">
        <ele>116.6</ele>
        <time>2012-09-11T19:15:19Z</time>
      </trkpt>
      <trkpt lat="59.4579644439" lon="17.8044398747">
        <ele>116.2</ele>
        <time>2012-09-11T19:15:21Z</time>
      </trkpt>
      <trkpt lat="59.4580293198" lon="17.8044205125">
        <ele>115.8</ele>
        <time>2012-09-11T19:15:22Z</time>
      </trkpt>
      <trkpt lat="59.4580905915" lon="17.8044122144">
        <ele>115.4</ele>
        <time>2012-09-11T19:15:23Z</time>
      </trkpt>
      <trkpt lat="59.4581546292" lon="17.8044027429">
        <ele>115</ele>
        <time>2012-09-11T19:15:24Z</time>
      </trkpt>
      <trkpt lat="59.4582197566" lon="17.8043957021">
        <ele>114.6</ele>
        <time>2012-09-11T19:15:25Z</time>
      </trkpt>
      <trkpt lat="59.4582806092" lon="17.8043967918">
        <ele>114.6</ele>
        <time>2012-09-11T19:15:26Z</time>
      </trkpt>
      <trkpt lat="59.4584526057" lon="17.8044310737">
        <ele>114.6</ele>
        <time>2012-09-11T19:15:29Z</time>
      </trkpt>
      <trkpt lat="59.4585037353" lon="17.8044328339">
        <ele>114.6</ele>
        <time>2012-09-11T19:15:30Z</time>
      </trkpt>
      <trkpt lat="59.4586507539" lon="17.8044143099">
        <ele>114.6</ele>
        <time>2012-09-11T19:15:33Z</time>
      </trkpt>
      <trkpt lat="59.4588862014" lon="17.8042909284">
        <ele>114.6</ele>
        <time>2012-09-11T19:15:39Z</time>
      </trkpt>
    </trkseg>
  </trk>
</gpx>